<?xml version='1.0' encoding='UTF-8'?><gpx version="1.1" creator="JPX - https://github.com/jenetics/jpx" xmlns="http://www.topografix.com/GPX/1/1"><trk><trkseg><trkpt lat="44.49120973822709" lon="0.9420383049454765"><ele>99.0</ele><time>2026-04-23T15:41:57.001Z</time></trkpt><trkpt lat="44.49118634255625" lon="0.9421646256846972"><ele>99.0</ele><time>2026-04-23T15:41:59.001Z</time></trkpt><trkpt lat="44.49121362886162" lon="0.9423028917408176"><ele>99.0</ele><time>2026-04-23T15:42:01.001Z</time></trkpt><trkpt lat="44.49121390307317" lon="0.9424376055288411"><ele>99.0</ele><time>2026-04-23T15:42:03.001Z</time></trkpt><trkpt lat="44.49136681670252" lon="0.9424533276634381"><ele>99.0</ele><time>2026-04-23T15:42:06.001Z</time></trkpt><trkpt lat="44.49148199222368" lon="0.9424422844673442"><ele>99.16666666666667</ele><time>2026-04-23T15:42:08.001Z</time></trkpt><trkpt lat="44.4915518380401" lon="0.9424118678704765"><ele>99.33333333333334</ele><time>2026-04-23T15:42:10.001Z</time></trkpt><trkpt lat="44.49152256275747" lon="0.9422898547566132"><ele>99.5</ele><time>2026-04-23T15:42:11Z</time></trkpt><trkpt lat="44.491516088879315" lon="0.9421363150762658"><ele>99.66666666666667</ele><time>2026-04-23T15:42:14Z</time></trkpt><trkpt lat="44.4915298643884" lon="0.941998541464726"><ele>99.83333333333334</ele><time>2026-04-23T15:42:16Z</time></trkpt><trkpt lat="44.49154391642798" lon="0.9419113103709624"><ele>100.0</ele><time>2026-04-23T15:42:17Z</time></trkpt><trkpt lat="44.49157570889799" lon="0.941825067904186"><ele>100.00000000000001</ele><time>2026-04-23T15:42:18Z</time></trkpt><trkpt lat="44.491606536424335" lon="0.9417477191910743"><ele>100.0</ele><time>2026-04-23T15:42:19Z</time></trkpt><trkpt lat="44.4916729041857" lon="0.941591618338081"><ele>100.0</ele><time>2026-04-23T15:42:21Z</time></trkpt><trkpt lat="44.4917093368084" lon="0.941510994500525"><ele>100.0</ele><time>2026-04-23T15:42:22Z</time></trkpt><trkpt lat="44.49174300348687" lon="0.9414337401334376"><ele>100.00000000000001</ele><time>2026-04-23T15:42:23Z</time></trkpt><trkpt lat="44.49175674884768" lon="0.9412945804159509"><ele>100.0</ele><time>2026-04-23T15:42:25Z</time></trkpt><trkpt lat="44.49166579423618" lon="0.9411757653307502"><ele>101.2</ele><time>2026-04-23T15:42:27Z</time></trkpt><trkpt lat="44.491627638344454" lon="0.9410946161544402"><ele>102.4</ele><time>2026-04-23T15:42:29Z</time></trkpt><trkpt lat="44.49172840573982" lon="0.9410488468416858"><ele>103.6</ele><time>2026-04-23T15:42:31Z</time></trkpt><trkpt lat="44.49179598031119" lon="0.9410137648717853"><ele>104.8</ele><time>2026-04-23T15:42:32Z</time></trkpt><trkpt lat="44.49189831475661" lon="0.940947617722901"><ele>106.0</ele><time>2026-04-23T15:42:34Z</time></trkpt><trkpt lat="44.49180055157118" lon="0.9409819245373664"><ele>106.00000000000001</ele><time>2026-04-23T15:42:41Z</time></trkpt><trkpt lat="44.4917378081003" lon="0.9410240383459045"><ele>106.0</ele><time>2026-04-23T15:42:42Z</time></trkpt><trkpt lat="44.49161735766988" lon="0.941040969604895"><ele>106.0</ele><time>2026-04-23T15:42:44Z</time></trkpt><trkpt lat="44.491550025238936" lon="0.9410691864379573"><ele>106.0</ele><time>2026-04-23T15:42:45Z</time></trkpt><trkpt lat="44.4914904970149" lon="0.9410369676920879"><ele>106.00000000000001</ele><time>2026-04-23T15:42:46Z</time></trkpt><trkpt lat="44.49138539346942" lon="0.940986517667654"><ele>106.0</ele><time>2026-04-23T15:42:48Z</time></trkpt><trkpt lat="44.491368577626304" lon="0.940882391883017"><ele>106.6</ele><time>2026-04-23T15:42:49Z</time></trkpt><trkpt lat="44.49137155763441" lon="0.9407849846822143"><ele>107.19999999999999</ele><time>2026-04-23T15:42:50Z</time></trkpt><trkpt lat="44.49139427644324" lon="0.9406733342169168"><ele>107.80000000000001</ele><time>2026-04-23T15:42:51Z</time></trkpt><trkpt lat="44.49139222119942" lon="0.9405401953792139"><ele>108.4</ele><time>2026-04-23T15:42:52Z</time></trkpt><trkpt lat="44.49137994482396" lon="0.9403956266588601"><ele>109.0</ele><time>2026-04-23T15:42:53Z</time></trkpt><trkpt lat="44.49138226273558" lon="0.9402440789924517"><ele>109.0</ele><time>2026-04-23T15:42:54Z</time></trkpt><trkpt lat="44.491355697552564" lon="0.9400859274976565"><ele>109.0</ele><time>2026-04-23T15:42:55Z</time></trkpt><trkpt lat="44.491343672887176" lon="0.9399200873232534"><ele>109.0</ele><time>2026-04-23T15:42:56Z</time></trkpt><trkpt lat="44.491332337277605" lon="0.9397528077191644"><ele>109.0</ele><time>2026-04-23T15:42:57Z</time></trkpt><trkpt lat="44.4913368234914" lon="0.9395837799754104"><ele>109.0</ele><time>2026-04-23T15:42:58Z</time></trkpt><trkpt lat="44.49131257119715" lon="0.9393959487103662"><ele>109.0</ele><time>2026-04-23T15:42:59Z</time></trkpt><trkpt lat="44.491311816881016" lon="0.9392187374840288"><ele>109.0</ele><time>2026-04-23T15:43:00Z</time></trkpt><trkpt lat="44.49129542703256" lon="0.9390401567179348"><ele>109.0</ele><time>2026-04-23T15:43:01Z</time></trkpt><trkpt lat="44.49126022060521" lon="0.938872453113142"><ele>111.75</ele><time>2026-04-23T15:43:02Z</time></trkpt><trkpt lat="44.49122289532201" lon="0.9386890375741015"><ele>114.5</ele><time>2026-04-23T15:43:03Z</time></trkpt><trkpt lat="44.491191341690985" lon="0.9385084497706436"><ele>117.25</ele><time>2026-04-23T15:43:04Z</time></trkpt><trkpt lat="44.49115320146076" lon="0.9383296323768763"><ele>120.0</ele><time>2026-04-23T15:43:05Z</time></trkpt><trkpt lat="44.49110979526317" lon="0.9381514988027833"><ele>120.0</ele><time>2026-04-23T15:43:06Z</time></trkpt><trkpt lat="44.49106354346728" lon="0.937946138535141"><ele>120.0</ele><time>2026-04-23T15:43:07Z</time></trkpt><trkpt lat="44.49097537702392" lon="0.9377569738243119"><ele>120.0</ele><time>2026-04-23T15:43:08Z</time></trkpt><trkpt lat="44.49086336914279" lon="0.9376164815041689"><ele>120.0</ele><time>2026-04-23T15:43:09Z</time></trkpt><trkpt lat="44.49074812724496" lon="0.9374810601427814"><ele>120.0</ele><time>2026-04-23T15:43:10Z</time></trkpt><trkpt lat="44.49065993611731" lon="0.9373329182517749"><ele>120.0</ele><time>2026-04-23T15:43:11Z</time></trkpt><trkpt lat="44.490562741275674" lon="0.9371933342739631"><ele>120.0</ele><time>2026-04-23T15:43:12Z</time></trkpt><trkpt lat="44.49046645970566" lon="0.937038514253749"><ele>120.33333333333334</ele><time>2026-04-23T15:43:13Z</time></trkpt><trkpt lat="44.490367039838084" lon="0.9368849081515042"><ele>120.66666666666667</ele><time>2026-04-23T15:43:14Z</time></trkpt><trkpt lat="44.490266841951204" lon="0.9367159690001237"><ele>121.0</ele><time>2026-04-23T15:43:15Z</time></trkpt><trkpt lat="44.490179074679226" lon="0.9365282725087283"><ele>121.0</ele><time>2026-04-23T15:43:16Z</time></trkpt><trkpt lat="44.49010142492077" lon="0.9363229872165413"><ele>121.0</ele><time>2026-04-23T15:43:17Z</time></trkpt><trkpt lat="44.490029436798615" lon="0.9361184146020567"><ele>121.0</ele><time>2026-04-23T15:43:18Z</time></trkpt><trkpt lat="44.48994561015961" lon="0.9359163506986895"><ele>121.66666666666667</ele><time>2026-04-23T15:43:19Z</time></trkpt><trkpt lat="44.48987606264396" lon="0.9356894447368286"><ele>122.33333333333334</ele><time>2026-04-23T15:43:20Z</time></trkpt><trkpt lat="44.489800506679074" lon="0.9354626942766774"><ele>123.0</ele><time>2026-04-23T15:43:21Z</time></trkpt><trkpt lat="44.48972402530767" lon="0.9352482566399206"><ele>123.0</ele><time>2026-04-23T15:43:22Z</time></trkpt><trkpt lat="44.48966495513393" lon="0.9350577666664666"><ele>123.0</ele><time>2026-04-23T15:43:23Z</time></trkpt><trkpt lat="44.4896629720061" lon="0.9348853575543311"><ele>123.0</ele><time>2026-04-23T15:43:24Z</time></trkpt><trkpt lat="44.4896883703646" lon="0.9347550151467975"><ele>123.0</ele><time>2026-04-23T15:43:25Z</time></trkpt><trkpt lat="44.48975599225857" lon="0.9346469678262324"><ele>124.75</ele><time>2026-04-23T15:43:26Z</time></trkpt><trkpt lat="44.48987455462343" lon="0.9345967811209173"><ele>126.5</ele><time>2026-04-23T15:43:27Z</time></trkpt><trkpt lat="44.48997662476255" lon="0.9345128650463317"><ele>128.25</ele><time>2026-04-23T15:43:28Z</time></trkpt><trkpt lat="44.49009748782828" lon="0.9344387209249619"><ele>130.0</ele><time>2026-04-23T15:43:29Z</time></trkpt><trkpt lat="44.49023430023138" lon="0.9343686279965486"><ele>130.0</ele><time>2026-04-23T15:43:30Z</time></trkpt><trkpt lat="44.49037726443291" lon="0.9342911495146218"><ele>130.0</ele><time>2026-04-23T15:43:31Z</time></trkpt><trkpt lat="44.49050819722485" lon="0.9341979123855277"><ele>130.0</ele><time>2026-04-23T15:43:32Z</time></trkpt><trkpt lat="44.49062425816765" lon="0.934088500171442"><ele>130.0</ele><time>2026-04-23T15:43:33Z</time></trkpt><trkpt lat="44.490692779394735" lon="0.9339213763936601"><ele>130.0</ele><time>2026-04-23T15:43:34Z</time></trkpt><trkpt lat="44.490737664882204" lon="0.9337189416393669"><ele>130.0</ele><time>2026-04-23T15:43:35Z</time></trkpt><trkpt lat="44.49077338313824" lon="0.9335011124949156"><ele>130.0</ele><time>2026-04-23T15:43:36Z</time></trkpt><trkpt lat="44.490839552674856" lon="0.9332941271653441"><ele>130.0</ele><time>2026-04-23T15:43:37Z</time></trkpt><trkpt lat="44.49090435183877" lon="0.933068760942449"><ele>130.0</ele><time>2026-04-23T15:43:38Z</time></trkpt><trkpt lat="44.49097665019426" lon="0.9328415837137344"><ele>130.0</ele><time>2026-04-23T15:43:39Z</time></trkpt><trkpt lat="44.49104958186118" lon="0.9326053326443572"><ele>130.66666666666669</ele><time>2026-04-23T15:43:40Z</time></trkpt><trkpt lat="44.49113547204045" lon="0.9323920329512961"><ele>131.33333333333334</ele><time>2026-04-23T15:43:41Z</time></trkpt><trkpt lat="44.49121217476025" lon="0.9321624723782685"><ele>132.0</ele><time>2026-04-23T15:43:42Z</time></trkpt><trkpt lat="44.49132764324772" lon="0.931977372236313"><ele>130.66666666666666</ele><time>2026-04-23T15:43:43Z</time></trkpt><trkpt lat="44.49143655381972" lon="0.9317887975218913"><ele>129.33333333333331</ele><time>2026-04-23T15:43:44Z</time></trkpt><trkpt lat="44.4915383690818" lon="0.9315861088898579"><ele>128.0</ele><time>2026-04-23T15:43:45Z</time></trkpt><trkpt lat="44.49165244010393" lon="0.9313899697682291"><ele>128.0</ele><time>2026-04-23T15:43:46Z</time></trkpt><trkpt lat="44.49177602661317" lon="0.931196777194102"><ele>128.0</ele><time>2026-04-23T15:43:47Z</time></trkpt><trkpt lat="44.49189691548747" lon="0.9310374792733846"><ele>128.0</ele><time>2026-04-23T15:43:48Z</time></trkpt><trkpt lat="44.492026417944594" lon="0.9308953163295081"><ele>128.66666666666666</ele><time>2026-04-23T15:43:49Z</time></trkpt><trkpt lat="44.49217801979808" lon="0.9307783690361391"><ele>129.33333333333334</ele><time>2026-04-23T15:43:50Z</time></trkpt><trkpt lat="44.492320176458875" lon="0.9306208887295453"><ele>130.0</ele><time>2026-04-23T15:43:51Z</time></trkpt><trkpt lat="44.49247485031749" lon="0.9304670137036123"><ele>130.0</ele><time>2026-04-23T15:43:52Z</time></trkpt><trkpt lat="44.492628814429516" lon="0.9303148497603703"><ele>130.0</ele><time>2026-04-23T15:43:53Z</time></trkpt><trkpt lat="44.492779548149464" lon="0.9301500385737995"><ele>130.0</ele><time>2026-04-23T15:43:54Z</time></trkpt><trkpt lat="44.49292773159709" lon="0.9299869950693036"><ele>131.0</ele><time>2026-04-23T15:43:55Z</time></trkpt><trkpt lat="44.493077395550614" lon="0.9298236913842546"><ele>132.0</ele><time>2026-04-23T15:43:56Z</time></trkpt><trkpt lat="44.493222981673526" lon="0.9296498330669652"><ele>133.0</ele><time>2026-04-23T15:43:57Z</time></trkpt><trkpt lat="44.49336616966599" lon="0.9294780620494056"><ele>133.0</ele><time>2026-04-23T15:43:58Z</time></trkpt><trkpt lat="44.49349356717581" lon="0.9292756177783406"><ele>133.0</ele><time>2026-04-23T15:43:59Z</time></trkpt><trkpt lat="44.49360957575406" lon="0.9290564176676117"><ele>133.0</ele><time>2026-04-23T15:44:00Z</time></trkpt><trkpt lat="44.493727957020624" lon="0.9288336277552258"><ele>133.0</ele><time>2026-04-23T15:44:01Z</time></trkpt><trkpt lat="44.49384278685816" lon="0.9286202928075139"><ele>133.0</ele><time>2026-04-23T15:44:02Z</time></trkpt><trkpt lat="44.493939273346875" lon="0.9283970744802518"><ele>133.0</ele><time>2026-04-23T15:44:03Z</time></trkpt><trkpt lat="44.494057084205174" lon="0.928181888488824"><ele>133.0</ele><time>2026-04-23T15:44:04Z</time></trkpt><trkpt lat="44.49417497604313" lon="0.9279560330331059"><ele>133.0</ele><time>2026-04-23T15:44:05Z</time></trkpt><trkpt lat="44.49427761703889" lon="0.927729221841324"><ele>133.0</ele><time>2026-04-23T15:44:06Z</time></trkpt><trkpt lat="44.494402485481025" lon="0.9275214336611349"><ele>132.66666666666669</ele><time>2026-04-23T15:44:07Z</time></trkpt><trkpt lat="44.49454878132251" lon="0.9273550944490553"><ele>132.33333333333334</ele><time>2026-04-23T15:44:08Z</time></trkpt><trkpt lat="44.494685239395345" lon="0.9271965243628686"><ele>132.0</ele><time>2026-04-23T15:44:09Z</time></trkpt><trkpt lat="44.49482417243974" lon="0.927100164862465"><ele>132.0</ele><time>2026-04-23T15:44:10Z</time></trkpt><trkpt lat="44.4949918247254" lon="0.927060431264928"><ele>132.0</ele><time>2026-04-23T15:44:11Z</time></trkpt><trkpt lat="44.49515435648964" lon="0.9270529514402859"><ele>132.0</ele><time>2026-04-23T15:44:12Z</time></trkpt><trkpt lat="44.49533766469722" lon="0.9270503132160972"><ele>131.33333333333334</ele><time>2026-04-23T15:44:13Z</time></trkpt><trkpt lat="44.49552164948563" lon="0.927038110876044"><ele>130.66666666666669</ele><time>2026-04-23T15:44:14Z</time></trkpt><trkpt lat="44.49570437714805" lon="0.9269882942396708"><ele>130.0</ele><time>2026-04-23T15:44:15Z</time></trkpt><trkpt lat="44.49588451232185" lon="0.9269536344113147"><ele>130.0</ele><time>2026-04-23T15:44:16Z</time></trkpt><trkpt lat="44.49607040893342" lon="0.9268910440917115"><ele>130.0</ele><time>2026-04-23T15:44:17Z</time></trkpt><trkpt lat="44.49624954050757" lon="0.9268106890105015"><ele>130.0</ele><time>2026-04-23T15:44:18Z</time></trkpt><trkpt lat="44.49641567503231" lon="0.9267259608298307"><ele>131.0</ele><time>2026-04-23T15:44:19Z</time></trkpt><trkpt lat="44.49657112923334" lon="0.9266271296090325"><ele>132.0</ele><time>2026-04-23T15:44:20Z</time></trkpt><trkpt lat="44.49671205213841" lon="0.9265285462003215"><ele>133.0</ele><time>2026-04-23T15:44:21Z</time></trkpt><trkpt lat="44.49684285153477" lon="0.926395060169434"><ele>133.0</ele><time>2026-04-23T15:44:22Z</time></trkpt><trkpt lat="44.496973328760966" lon="0.9262291965508183"><ele>133.0</ele><time>2026-04-23T15:44:23Z</time></trkpt><trkpt lat="44.4971052290784" lon="0.9260662822968834"><ele>133.0</ele><time>2026-04-23T15:44:24Z</time></trkpt><trkpt lat="44.497235776037705" lon="0.9259108871997793"><ele>134.0</ele><time>2026-04-23T15:44:25Z</time></trkpt><trkpt lat="44.49734921125738" lon="0.9257663905540161"><ele>135.0</ele><time>2026-04-23T15:44:26Z</time></trkpt><trkpt lat="44.49743605427501" lon="0.9256283995092537"><ele>136.0</ele><time>2026-04-23T15:44:27Z</time></trkpt><trkpt lat="44.497520462323926" lon="0.9254920397435241"><ele>137.0</ele><time>2026-04-23T15:44:28Z</time></trkpt><trkpt lat="44.497604652334225" lon="0.9253648927895394"><ele>137.0</ele><time>2026-04-23T15:44:29Z</time></trkpt><trkpt lat="44.49768140834905" lon="0.9252632976422877"><ele>137.0</ele><time>2026-04-23T15:44:30Z</time></trkpt><trkpt lat="44.49775028990145" lon="0.9251720098978032"><ele>137.0</ele><time>2026-04-23T15:44:31Z</time></trkpt><trkpt lat="44.49780765151016" lon="0.9251058825995278"><ele>137.0</ele><time>2026-04-23T15:44:32Z</time></trkpt><trkpt lat="44.49788185224831" lon="0.9250214840149298"><ele>137.0</ele><time>2026-04-23T15:44:34Z</time></trkpt><trkpt lat="44.49794832300676" lon="0.9249531908186294"><ele>136.83333333333331</ele><time>2026-04-23T15:44:36Z</time></trkpt><trkpt lat="44.498012372187716" lon="0.9249016034384212"><ele>136.66666666666666</ele><time>2026-04-23T15:44:38Z</time></trkpt><trkpt lat="44.4980669213046" lon="0.924843358548468"><ele>136.5</ele><time>2026-04-23T15:44:40Z</time></trkpt><trkpt lat="44.498138261820316" lon="0.9247626991128296"><ele>136.33333333333334</ele><time>2026-04-23T15:44:43Z</time></trkpt><trkpt lat="44.49820582054747" lon="0.9246965109805384"><ele>136.16666666666669</ele><time>2026-04-23T15:44:46Z</time></trkpt><trkpt lat="44.49828376481" lon="0.9246213041119518"><ele>136.0</ele><time>2026-04-23T15:44:48Z</time></trkpt><trkpt lat="44.4983411544055" lon="0.924554267698412"><ele>136.0</ele><time>2026-04-23T15:44:50Z</time></trkpt><trkpt lat="44.49840161649037" lon="0.9244806272344486"><ele>136.0</ele><time>2026-04-23T15:44:52Z</time></trkpt><trkpt lat="44.49847785684009" lon="0.9243856229644323"><ele>136.0</ele><time>2026-04-23T15:44:54Z</time></trkpt><trkpt lat="44.49858671758612" lon="0.9242220665356891"><ele>136.0</ele><time>2026-04-23T15:44:56Z</time></trkpt><trkpt lat="44.49867080886526" lon="0.9241212841699975"><ele>136.5</ele><time>2026-04-23T15:44:57Z</time></trkpt><trkpt lat="44.49876041765555" lon="0.9240031194681875"><ele>137.0</ele><time>2026-04-23T15:44:58Z</time></trkpt><trkpt lat="44.498870857007425" lon="0.9238857276627331"><ele>137.5</ele><time>2026-04-23T15:44:59Z</time></trkpt><trkpt lat="44.498978642604534" lon="0.9237490623477839"><ele>138.0</ele><time>2026-04-23T15:45:00Z</time></trkpt><trkpt lat="44.49908758150281" lon="0.9236195435089739"><ele>138.0</ele><time>2026-04-23T15:45:01Z</time></trkpt><trkpt lat="44.49918533557248" lon="0.9235131621963653"><ele>138.0</ele><time>2026-04-23T15:45:02Z</time></trkpt><trkpt lat="44.499279739219936" lon="0.9234030977326418"><ele>138.0</ele><time>2026-04-23T15:45:03Z</time></trkpt><trkpt lat="44.4993913909633" lon="0.923281095559893"><ele>138.0</ele><time>2026-04-23T15:45:04Z</time></trkpt><trkpt lat="44.49950742974023" lon="0.9231548543060827"><ele>140.66666666666666</ele><time>2026-04-23T15:45:05Z</time></trkpt><trkpt lat="44.4996403682882" lon="0.9229991812286719"><ele>143.33333333333331</ele><time>2026-04-23T15:45:06Z</time></trkpt><trkpt lat="44.49977970984236" lon="0.9228555497695444"><ele>146.0</ele><time>2026-04-23T15:45:07Z</time></trkpt><trkpt lat="44.49993204951899" lon="0.9227248874947686"><ele>146.0</ele><time>2026-04-23T15:45:08Z</time></trkpt><trkpt lat="44.500081067681286" lon="0.9226263576738014"><ele>146.0</ele><time>2026-04-23T15:45:09Z</time></trkpt><trkpt lat="44.50023301730695" lon="0.9225565575605301"><ele>146.0</ele><time>2026-04-23T15:45:10Z</time></trkpt><trkpt lat="44.50040391284615" lon="0.9225582597608077"><ele>148.0</ele><time>2026-04-23T15:45:11Z</time></trkpt><trkpt lat="44.50059512233827" lon="0.9225582616494153"><ele>150.0</ele><time>2026-04-23T15:45:12Z</time></trkpt><trkpt lat="44.500775501268016" lon="0.9225520890200821"><ele>152.0</ele><time>2026-04-23T15:45:13Z</time></trkpt><trkpt lat="44.500957526719276" lon="0.9225271286832801"><ele>152.0</ele><time>2026-04-23T15:45:14Z</time></trkpt><trkpt lat="44.50113408535183" lon="0.9224661148253749"><ele>152.0</ele><time>2026-04-23T15:45:15Z</time></trkpt><trkpt lat="44.501309993531976" lon="0.9223979538975771"><ele>152.0</ele><time>2026-04-23T15:45:16Z</time></trkpt><trkpt lat="44.50144103841085" lon="0.9223099102696717"><ele>152.33333333333331</ele><time>2026-04-23T15:45:17Z</time></trkpt><trkpt lat="44.50157803965833" lon="0.9221838450564499"><ele>152.66666666666666</ele><time>2026-04-23T15:45:18Z</time></trkpt><trkpt lat="44.50170293496105" lon="0.9220225013343653"><ele>153.0</ele><time>2026-04-23T15:45:19Z</time></trkpt><trkpt lat="44.50181535787293" lon="0.921832543411213"><ele>153.4</ele><time>2026-04-23T15:45:20Z</time></trkpt><trkpt lat="44.50192114169738" lon="0.9216670633259718"><ele>153.8</ele><time>2026-04-23T15:45:21Z</time></trkpt><trkpt lat="44.50200289363668" lon="0.9215293222154523"><ele>154.2</ele><time>2026-04-23T15:45:22Z</time></trkpt><trkpt lat="44.5020715239462" lon="0.9214384966379243"><ele>154.6</ele><time>2026-04-23T15:45:23Z</time></trkpt><trkpt lat="44.502127845808076" lon="0.9213922672913079"><ele>155.0</ele><time>2026-04-23T15:45:24Z</time></trkpt><trkpt lat="44.502210802985374" lon="0.9213038353126807"><ele>153.5</ele><time>2026-04-23T15:45:26Z</time></trkpt><trkpt lat="44.50232832403282" lon="0.9214914024513524"><ele>152.0</ele><time>2026-04-23T15:45:27Z</time></trkpt><trkpt lat="44.50240896129348" lon="0.9216039221792575"><ele>150.5</ele><time>2026-04-23T15:45:28Z</time></trkpt><trkpt lat="44.50250926623309" lon="0.9217247940781504"><ele>149.0</ele><time>2026-04-23T15:45:29Z</time></trkpt><trkpt lat="44.50260331099391" lon="0.9218737574529678"><ele>149.0</ele><time>2026-04-23T15:45:30Z</time></trkpt><trkpt lat="44.50272498339973" lon="0.9220052153157267"><ele>149.0</ele><time>2026-04-23T15:45:31Z</time></trkpt><trkpt lat="44.50285045335404" lon="0.9221454085659542"><ele>149.0</ele><time>2026-04-23T15:45:32Z</time></trkpt><trkpt lat="44.50299753818379" lon="0.922254230171002"><ele>148.0</ele><time>2026-04-23T15:45:33Z</time></trkpt><trkpt lat="44.50315856431154" lon="0.9223357604768047"><ele>147.0</ele><time>2026-04-23T15:45:34Z</time></trkpt><trkpt lat="44.503337365359485" lon="0.922395003848173"><ele>146.0</ele><time>2026-04-23T15:45:35Z</time></trkpt><trkpt lat="44.50352806752958" lon="0.9224158857381454"><ele>146.0</ele><time>2026-04-23T15:45:36Z</time></trkpt><trkpt lat="44.50371784569766" lon="0.922442970288643"><ele>146.0</ele><time>2026-04-23T15:45:37Z</time></trkpt><trkpt lat="44.50389138248288" lon="0.9224945763579898"><ele>146.0</ele><time>2026-04-23T15:45:38Z</time></trkpt><trkpt lat="44.50403574735073" lon="0.9225089995266584"><ele>145.4</ele><time>2026-04-23T15:45:39Z</time></trkpt><trkpt lat="44.504151447938504" lon="0.9225503523017653"><ele>144.8</ele><time>2026-04-23T15:45:40Z</time></trkpt><trkpt lat="44.50424781498097" lon="0.9225886836357269"><ele>144.20000000000002</ele><time>2026-04-23T15:45:41Z</time></trkpt><trkpt lat="44.50431963282095" lon="0.9226522917709876"><ele>143.6</ele><time>2026-04-23T15:45:42Z</time></trkpt><trkpt lat="44.50438330814898" lon="0.9226956144259315"><ele>143.0</ele><time>2026-04-23T15:45:43Z</time></trkpt><trkpt lat="44.50451902129115" lon="0.9225189989964329"><ele>141.5</ele><time>2026-04-23T15:45:44Z</time></trkpt><trkpt lat="44.5046269551505" lon="0.9224192585819027"><ele>140.0</ele><time>2026-04-23T15:45:45Z</time></trkpt><trkpt lat="44.50475165698467" lon="0.9223220213351514"><ele>138.5</ele><time>2026-04-23T15:45:46Z</time></trkpt><trkpt lat="44.504872930483856" lon="0.9221879496578846"><ele>137.0</ele><time>2026-04-23T15:45:47Z</time></trkpt><trkpt lat="44.50501325739548" lon="0.9220499386905262"><ele>137.0</ele><time>2026-04-23T15:45:48Z</time></trkpt><trkpt lat="44.50514781916793" lon="0.9219213519312593"><ele>137.0</ele><time>2026-04-23T15:45:49Z</time></trkpt><trkpt lat="44.505301100147435" lon="0.9217746512465622"><ele>137.0</ele><time>2026-04-23T15:45:50Z</time></trkpt><trkpt lat="44.505463227042284" lon="0.9216610652892788"><ele>135.33333333333331</ele><time>2026-04-23T15:45:51Z</time></trkpt><trkpt lat="44.50561737103437" lon="0.9215634991607877"><ele>133.66666666666666</ele><time>2026-04-23T15:45:52Z</time></trkpt><trkpt lat="44.505799570966914" lon="0.9214653195439377"><ele>132.0</ele><time>2026-04-23T15:45:53Z</time></trkpt><trkpt lat="44.50597381204617" lon="0.9213475223347424"><ele>132.0</ele><time>2026-04-23T15:45:54Z</time></trkpt><trkpt lat="44.50614634845008" lon="0.9212277955627678"><ele>132.0</ele><time>2026-04-23T15:45:55Z</time></trkpt><trkpt lat="44.50631304965283" lon="0.9210725630230949"><ele>132.0</ele><time>2026-04-23T15:45:56Z</time></trkpt><trkpt lat="44.506472705173714" lon="0.9209213576140415"><ele>131.75</ele><time>2026-04-23T15:45:57Z</time></trkpt><trkpt lat="44.506610629982134" lon="0.9207952071463071"><ele>131.5</ele><time>2026-04-23T15:45:58Z</time></trkpt><trkpt lat="44.50673720086043" lon="0.9206905723014474"><ele>131.25</ele><time>2026-04-23T15:45:59Z</time></trkpt><trkpt lat="44.50685823122996" lon="0.9206175939304785"><ele>131.0</ele><time>2026-04-23T15:46:00Z</time></trkpt><trkpt lat="44.50697242134304" lon="0.9205914162560457"><ele>131.0</ele><time>2026-04-23T15:46:01Z</time></trkpt><trkpt lat="44.50706295779303" lon="0.9206098207507987"><ele>131.0</ele><time>2026-04-23T15:46:02Z</time></trkpt><trkpt lat="44.5071497003462" lon="0.9206610189423772"><ele>131.0</ele><time>2026-04-23T15:46:03Z</time></trkpt><trkpt lat="44.5072418596224" lon="0.9207273221201007"><ele>131.0</ele><time>2026-04-23T15:46:04Z</time></trkpt><trkpt lat="44.50730025677315" lon="0.9208580360592543"><ele>131.0</ele><time>2026-04-23T15:46:05Z</time></trkpt><trkpt lat="44.50734293084848" lon="0.9210041786419472"><ele>131.2</ele><time>2026-04-23T15:46:06Z</time></trkpt><trkpt lat="44.50737611226619" lon="0.9211575969771804"><ele>131.39999999999998</ele><time>2026-04-23T15:46:07Z</time></trkpt><trkpt lat="44.50737947476474" lon="0.9213149961538158"><ele>131.6</ele><time>2026-04-23T15:46:08Z</time></trkpt><trkpt lat="44.50741489011751" lon="0.9214598424555392"><ele>131.79999999999998</ele><time>2026-04-23T15:46:09Z</time></trkpt><trkpt lat="44.507446358801744" lon="0.9215885473663499"><ele>132.0</ele><time>2026-04-23T15:46:10Z</time></trkpt><trkpt lat="44.50748445609083" lon="0.9217159398763656"><ele>132.0</ele><time>2026-04-23T15:46:11Z</time></trkpt><trkpt lat="44.50755082287721" lon="0.9218202933358453"><ele>132.0</ele><time>2026-04-23T15:46:12Z</time></trkpt><trkpt lat="44.50761267757498" lon="0.9219234633132121"><ele>132.0</ele><time>2026-04-23T15:46:13Z</time></trkpt><trkpt lat="44.5077122310604" lon="0.9219659848406144"><ele>132.0</ele><time>2026-04-23T15:46:14Z</time></trkpt><trkpt lat="44.50781829394239" lon="0.92195445380729"><ele>132.0</ele><time>2026-04-23T15:46:15Z</time></trkpt><trkpt lat="44.50791231925717" lon="0.9219536863147207"><ele>132.0</ele><time>2026-04-23T15:46:16Z</time></trkpt><trkpt lat="44.50799654695212" lon="0.9220026578222547"><ele>132.0</ele><time>2026-04-23T15:46:17Z</time></trkpt><trkpt lat="44.50808447714263" lon="0.9220374151658711"><ele>132.0</ele><time>2026-04-23T15:46:18Z</time></trkpt><trkpt lat="44.508171171880676" lon="0.9220758569011264"><ele>132.0</ele><time>2026-04-23T15:46:19Z</time></trkpt><trkpt lat="44.50825404349519" lon="0.9221054489355093"><ele>132.0</ele><time>2026-04-23T15:46:20Z</time></trkpt><trkpt lat="44.50833571437965" lon="0.9221233867411158"><ele>132.0</ele><time>2026-04-23T15:46:21Z</time></trkpt><trkpt lat="44.50842635707637" lon="0.9221224927572341"><ele>132.0</ele><time>2026-04-23T15:46:22Z</time></trkpt><trkpt lat="44.508520420626134" lon="0.9221122207158085"><ele>132.0</ele><time>2026-04-23T15:46:23Z</time></trkpt><trkpt lat="44.5086068481641" lon="0.9220923973430026"><ele>132.0</ele><time>2026-04-23T15:46:24Z</time></trkpt><trkpt lat="44.50869656676652" lon="0.9220487784465995"><ele>132.0</ele><time>2026-04-23T15:46:25Z</time></trkpt><trkpt lat="44.508788624470405" lon="0.9220280965144015"><ele>132.0</ele><time>2026-04-23T15:46:26Z</time></trkpt><trkpt lat="44.50888720476999" lon="0.9220101016769481"><ele>131.79999999999998</ele><time>2026-04-23T15:46:27Z</time></trkpt><trkpt lat="44.50898206813063" lon="0.9219780336951422"><ele>131.6</ele><time>2026-04-23T15:46:28Z</time></trkpt><trkpt lat="44.5090835909245" lon="0.9219614783355331"><ele>131.39999999999998</ele><time>2026-04-23T15:46:29Z</time></trkpt><trkpt lat="44.50918244734275" lon="0.9219328549233871"><ele>131.2</ele><time>2026-04-23T15:46:30Z</time></trkpt><trkpt lat="44.509274810206136" lon="0.921916417829593"><ele>131.0</ele><time>2026-04-23T15:46:31Z</time></trkpt><trkpt lat="44.50935777236345" lon="0.9219043222835448"><ele>131.0</ele><time>2026-04-23T15:46:32Z</time></trkpt><trkpt lat="44.50943359314654" lon="0.9218987863508888"><ele>131.0</ele><time>2026-04-23T15:46:33Z</time></trkpt><trkpt lat="44.509500174956294" lon="0.9219276015506251"><ele>131.0</ele><time>2026-04-23T15:46:34Z</time></trkpt><trkpt lat="44.50960332982832" lon="0.9219522988913784"><ele>131.0</ele><time>2026-04-23T15:46:36Z</time></trkpt><trkpt lat="44.50967655880067" lon="0.9219783700155645"><ele>131.0</ele><time>2026-04-23T15:46:38Z</time></trkpt><trkpt lat="44.50974451291406" lon="0.9219990785490836"><ele>131.0</ele><time>2026-04-23T15:46:41Z</time></trkpt><trkpt lat="44.50982412368755" lon="0.9219680251462751"><ele>129.83333333333331</ele><time>2026-04-23T16:01:19Z</time></trkpt><trkpt lat="44.50989823850843" lon="0.9219920509796787"><ele>128.66666666666666</ele><time>2026-04-23T16:01:22Z</time></trkpt><trkpt lat="44.509990850790935" lon="0.9220141140696395"><ele>127.5</ele><time>2026-04-23T16:01:25Z</time></trkpt><trkpt lat="44.51008447170155" lon="0.922024118594436"><ele>126.33333333333334</ele><time>2026-04-23T16:01:28Z</time></trkpt><trkpt lat="44.51016135473116" lon="0.9220352955820387"><ele>125.16666666666667</ele><time>2026-04-23T16:01:30Z</time></trkpt><trkpt lat="44.51026226701031" lon="0.9220491859456218"><ele>124.0</ele><time>2026-04-23T16:01:32Z</time></trkpt><trkpt lat="44.51032832856132" lon="0.9220650627209752"><ele>124.4</ele><time>2026-04-23T16:01:33Z</time></trkpt><trkpt lat="44.510421875094835" lon="0.9220873821822639"><ele>124.80000000000001</ele><time>2026-04-23T16:01:34Z</time></trkpt><trkpt lat="44.510534562952444" lon="0.9221267657297436"><ele>125.19999999999999</ele><time>2026-04-23T16:01:35Z</time></trkpt><trkpt lat="44.510653050494895" lon="0.9221450196366593"><ele>125.6</ele><time>2026-04-23T16:01:36Z</time></trkpt><trkpt lat="44.510768045403644" lon="0.9221386200296375"><ele>126.0</ele><time>2026-04-23T16:01:37Z</time></trkpt><trkpt lat="44.51085985309654" lon="0.9221740902805066"><ele>126.0</ele><time>2026-04-23T16:01:38Z</time></trkpt><trkpt lat="44.51094778423335" lon="0.9221830697497722"><ele>126.0</ele><time>2026-04-23T16:01:39Z</time></trkpt><trkpt lat="44.51102751257352" lon="0.9221842175278415"><ele>126.0</ele><time>2026-04-23T16:01:40Z</time></trkpt><trkpt lat="44.51110348627606" lon="0.9221536302073774"><ele>126.0</ele><time>2026-04-23T16:01:41Z</time></trkpt><trkpt lat="44.511167942655796" lon="0.9221188381077557"><ele>126.0</ele><time>2026-04-23T16:01:42Z</time></trkpt><trkpt lat="44.5112278648655" lon="0.9220714851918654"><ele>126.0</ele><time>2026-04-23T16:01:43Z</time></trkpt><trkpt lat="44.511285682598256" lon="0.9220082819202815"><ele>125.6</ele><time>2026-04-23T16:01:44Z</time></trkpt><trkpt lat="44.51134710491207" lon="0.9219622880821916"><ele>125.19999999999999</ele><time>2026-04-23T16:01:44.999Z</time></trkpt><trkpt lat="44.51140034218381" lon="0.9218660420036723"><ele>124.80000000000001</ele><time>2026-04-23T16:01:45.999Z</time></trkpt><trkpt lat="44.51147614004689" lon="0.9217725380047237"><ele>124.4</ele><time>2026-04-23T16:01:46.999Z</time></trkpt><trkpt lat="44.51155972205013" lon="0.9216758200956358"><ele>124.0</ele><time>2026-04-23T16:01:47.999Z</time></trkpt><trkpt lat="44.511639275520956" lon="0.9215640989503666"><ele>124.0</ele><time>2026-04-23T16:01:48.999Z</time></trkpt><trkpt lat="44.511718531557804" lon="0.9214740278331028"><ele>124.0</ele><time>2026-04-23T16:01:49.999Z</time></trkpt><trkpt lat="44.51178991370085" lon="0.9213823327476642"><ele>124.0</ele><time>2026-04-23T16:01:50.999Z</time></trkpt><trkpt lat="44.511861095162054" lon="0.9212993941321692"><ele>124.0</ele><time>2026-04-23T16:01:51.999Z</time></trkpt><trkpt lat="44.51194261768425" lon="0.9212367750943892"><ele>124.0</ele><time>2026-04-23T16:01:52.999Z</time></trkpt><trkpt lat="44.51201420748133" lon="0.921162597458357"><ele>124.00000000000001</ele><time>2026-04-23T16:01:53.999Z</time></trkpt><trkpt lat="44.512087789132856" lon="0.9210884065488728"><ele>124.0</ele><time>2026-04-23T16:01:54.999Z</time></trkpt><trkpt lat="44.51214449071529" lon="0.9210326825931818"><ele>124.0</ele><time>2026-04-23T16:01:55.999Z</time></trkpt><trkpt lat="44.51221386357965" lon="0.9209650205271401"><ele>124.0</ele><time>2026-04-23T16:01:56.999Z</time></trkpt><trkpt lat="44.51227357292944" lon="0.9209058989458628"><ele>124.00000000000001</ele><time>2026-04-23T16:01:57.999Z</time></trkpt><trkpt lat="44.51233908670331" lon="0.9208478750741387"><ele>124.0</ele><time>2026-04-23T16:01:58.999Z</time></trkpt><trkpt lat="44.51240049962998" lon="0.920768451365389"><ele>122.0</ele><time>2026-04-23T16:01:59.999Z</time></trkpt><trkpt lat="44.512480312371316" lon="0.9207063300126893"><ele>120.0</ele><time>2026-04-23T16:02:00.999Z</time></trkpt><trkpt lat="44.512575083568755" lon="0.9206663233337862"><ele>118.0</ele><time>2026-04-23T16:02:01.999Z</time></trkpt><trkpt lat="44.512673229575164" lon="0.9205840875115885"><ele>116.0</ele><time>2026-04-23T16:02:02.999Z</time></trkpt><trkpt lat="44.512797094503654" lon="0.9205053392565848"><ele>114.0</ele><time>2026-04-23T16:02:03.999Z</time></trkpt><trkpt lat="44.512939940130025" lon="0.920434420404718"><ele>113.33333333333334</ele><time>2026-04-23T16:02:04.999Z</time></trkpt><trkpt lat="44.513091324647306" lon="0.9203386158467634"><ele>112.66666666666667</ele><time>2026-04-23T16:02:05.999Z</time></trkpt><trkpt lat="44.51323400663991" lon="0.920288315781215"><ele>112.0</ele><time>2026-04-23T16:02:06.999Z</time></trkpt><trkpt lat="44.51337910099606" lon="0.9202454316973085"><ele>112.0</ele><time>2026-04-23T16:02:07.999Z</time></trkpt><trkpt lat="44.51353888134028" lon="0.9202112464885529"><ele>112.0</ele><time>2026-04-23T16:02:08.999Z</time></trkpt><trkpt lat="44.513710305350806" lon="0.9201811872588186"><ele>112.0</ele><time>2026-04-23T16:02:09.999Z</time></trkpt><trkpt lat="44.51387089928762" lon="0.9201525800946736"><ele>112.25</ele><time>2026-04-23T16:02:10.999Z</time></trkpt><trkpt lat="44.51401042591686" lon="0.9201271916424838"><ele>112.5</ele><time>2026-04-23T16:02:11.999Z</time></trkpt><trkpt lat="44.51413396271792" lon="0.9201043885922782"><ele>112.75</ele><time>2026-04-23T16:02:12.999Z</time></trkpt><trkpt lat="44.51424403313482" lon="0.9200865830963748"><ele>113.0</ele><time>2026-04-23T16:02:13.999Z</time></trkpt><trkpt lat="44.51433987648176" lon="0.9200750322520869"><ele>112.99999999999999</ele><time>2026-04-23T16:02:14.999Z</time></trkpt><trkpt lat="44.51442694535697" lon="0.9200729656359218"><ele>113.0</ele><time>2026-04-23T16:02:15.999Z</time></trkpt><trkpt lat="44.514506532078705" lon="0.920081610692539"><ele>113.0</ele><time>2026-04-23T16:02:16.999Z</time></trkpt><trkpt lat="44.51457199804751" lon="0.9200986784964673"><ele>113.0</ele><time>2026-04-23T16:02:17.999Z</time></trkpt><trkpt lat="44.514669472543346" lon="0.9201556978965385"><ele>112.99999999999999</ele><time>2026-04-23T16:02:19.999Z</time></trkpt><trkpt lat="44.51474307437075" lon="0.9202333442804278"><ele>113.0</ele><time>2026-04-23T16:02:21.999Z</time></trkpt><trkpt lat="44.51480738998075" lon="0.9203334623578925"><ele>112.80000000000001</ele><time>2026-04-23T16:02:23.999Z</time></trkpt><trkpt lat="44.51488201138612" lon="0.9204770803602169"><ele>112.60000000000001</ele><time>2026-04-23T16:02:25.999Z</time></trkpt><trkpt lat="44.514942657917636" lon="0.9205991886348499"><ele>112.39999999999999</ele><time>2026-04-23T16:02:27.999Z</time></trkpt><trkpt lat="44.51498265017193" lon="0.9206797108807703"><ele>112.19999999999999</ele><time>2026-04-23T16:02:28.999Z</time></trkpt><trkpt lat="44.515024825596846" lon="0.9207646285973464"><ele>112.0</ele><time>2026-04-23T16:02:29.999Z</time></trkpt><trkpt lat="44.51506821489692" lon="0.9208519904898668"><ele>113.16666666666667</ele><time>2026-04-23T16:02:30.999Z</time></trkpt><trkpt lat="44.51510964137963" lon="0.9209354003265936"><ele>114.33333333333334</ele><time>2026-04-23T16:02:31.999Z</time></trkpt><trkpt lat="44.51516072485194" lon="0.9210366774741187"><ele>115.5</ele><time>2026-04-23T16:02:33.999Z</time></trkpt><trkpt lat="44.515225864303176" lon="0.9211265213239508"><ele>116.66666666666666</ele><time>2026-04-23T16:02:35.999Z</time></trkpt><trkpt lat="44.51526537795929" lon="0.9212113008524011"><ele>117.83333333333333</ele><time>2026-04-23T16:02:36.999Z</time></trkpt><trkpt lat="44.51530468056697" lon="0.9213010354833474"><ele>119.0</ele><time>2026-04-23T16:02:37.999Z</time></trkpt><trkpt lat="44.51535885398073" lon="0.9214044055109712"><ele>119.25</ele><time>2026-04-23T16:02:38.999Z</time></trkpt><trkpt lat="44.51541889568145" lon="0.9215325020821358"><ele>119.5</ele><time>2026-04-23T16:02:39.999Z</time></trkpt><trkpt lat="44.5154898986632" lon="0.9216731888216323"><ele>119.75</ele><time>2026-04-23T16:02:40.999Z</time></trkpt><trkpt lat="44.51557103437203" lon="0.9218172880989223"><ele>120.0</ele><time>2026-04-23T16:02:41.999Z</time></trkpt><trkpt lat="44.51563538344924" lon="0.9219831049802197"><ele>120.0</ele><time>2026-04-23T16:02:42.999Z</time></trkpt><trkpt lat="44.515703624975224" lon="0.9221113190183434"><ele>120.0</ele><time>2026-04-23T16:02:43.999Z</time></trkpt><trkpt lat="44.51573436856904" lon="0.9222465022675114"><ele>120.0</ele><time>2026-04-23T16:02:44.999Z</time></trkpt><trkpt lat="44.515774334745174" lon="0.9223721920096374"><ele>120.0</ele><time>2026-04-23T16:02:45.999Z</time></trkpt><trkpt lat="44.515810119025424" lon="0.9224853033491494"><ele>120.0</ele><time>2026-04-23T16:02:46.999Z</time></trkpt><trkpt lat="44.51584406283433" lon="0.9225915816018225"><ele>121.0</ele><time>2026-04-23T16:02:48Z</time></trkpt><trkpt lat="44.5158766003236" lon="0.9226900441311702"><ele>122.0</ele><time>2026-04-23T16:02:49Z</time></trkpt><trkpt lat="44.51590430440344" lon="0.9227738851122197"><ele>123.0</ele><time>2026-04-23T16:02:50Z</time></trkpt><trkpt lat="44.51595496876288" lon="0.9229170403880302"><ele>124.0</ele><time>2026-04-23T16:02:52Z</time></trkpt><trkpt lat="44.51600242711506" lon="0.923038388147206"><ele>125.0</ele><time>2026-04-23T16:02:54Z</time></trkpt><trkpt lat="44.516044550311726" lon="0.9231352672897495"><ele>126.0</ele><time>2026-04-23T16:02:56Z</time></trkpt><trkpt lat="44.51608204634039" lon="0.9232118201957246"><ele>126.0</ele><time>2026-04-23T16:02:58Z</time></trkpt><trkpt lat="44.51612397908373" lon="0.9232900147044965"><ele>126.0</ele><time>2026-04-23T16:02:59Z</time></trkpt><trkpt lat="44.51616671792505" lon="0.9233548737081883"><ele>126.0</ele><time>2026-04-23T16:03:00Z</time></trkpt><trkpt lat="44.51621169912896" lon="0.9234442706971407"><ele>126.0</ele><time>2026-04-23T16:03:03Z</time></trkpt><trkpt lat="44.51625629045745" lon="0.9235335497100332"><ele>126.0</ele><time>2026-04-23T16:03:06Z</time></trkpt><trkpt lat="44.516327432773785" lon="0.9236624791398309"><ele>126.0</ele><time>2026-04-23T16:03:09Z</time></trkpt><trkpt lat="44.5163855080951" lon="0.9237718070773685"><ele>125.66666666666667</ele><time>2026-04-23T16:03:10Z</time></trkpt><trkpt lat="44.51642392305034" lon="0.9238531351856817"><ele>125.33333333333334</ele><time>2026-04-23T16:03:13Z</time></trkpt><trkpt lat="44.5164838555917" lon="0.9239493515302558"><ele>125.0</ele><time>2026-04-23T16:03:16Z</time></trkpt><trkpt lat="44.516526969190224" lon="0.9240323699249461"><ele>124.66666666666667</ele><time>2026-04-23T16:03:19Z</time></trkpt><trkpt lat="44.5165735118077" lon="0.9241076883326037"><ele>124.33333333333334</ele><time>2026-04-23T16:03:22Z</time></trkpt><trkpt lat="44.516621933232265" lon="0.924190215177987"><ele>124.0</ele><time>2026-04-23T16:03:27Z</time></trkpt><trkpt lat="44.516661023772556" lon="0.9242740706526484"><ele>124.0</ele><time>2026-04-23T16:03:33Z</time></trkpt><trkpt lat="44.516715451136285" lon="0.9243637500476884"><ele>124.0</ele><time>2026-04-23T16:03:36Z</time></trkpt><trkpt lat="44.5167504523683" lon="0.9244371477455514"><ele>124.0</ele><time>2026-04-23T16:03:38Z</time></trkpt><trkpt lat="44.516827127738225" lon="0.9245911948753519"><ele>124.0</ele><time>2026-04-23T16:03:41Z</time></trkpt><trkpt lat="44.51688782408755" lon="0.9246582157397185"><ele>124.0</ele><time>2026-04-23T16:03:43Z</time></trkpt><trkpt lat="44.51696191232326" lon="0.9247598885075916"><ele>124.0</ele><time>2026-04-23T16:03:45.999Z</time></trkpt><trkpt lat="44.51705387255587" lon="0.9248422306889803"><ele>124.0</ele><time>2026-04-23T16:03:47.999Z</time></trkpt><trkpt lat="44.51715215766483" lon="0.9249000599874454"><ele>124.0</ele><time>2026-04-23T16:03:49.999Z</time></trkpt><trkpt lat="44.51720617975384" lon="0.924949979022364"><ele>124.0</ele><time>2026-04-23T16:03:51.999Z</time></trkpt><trkpt lat="44.51731633184767" lon="0.9249926755594882"><ele>124.0</ele><time>2026-04-23T16:03:53.999Z</time></trkpt><trkpt lat="44.51740756533445" lon="0.9250280389855916"><ele>123.2</ele><time>2026-04-23T16:03:54.999Z</time></trkpt><trkpt lat="44.51748411969206" lon="0.9250655909695399"><ele>122.4</ele><time>2026-04-23T16:03:55.999Z</time></trkpt><trkpt lat="44.517592701071266" lon="0.9251736827192467"><ele>121.6</ele><time>2026-04-23T16:03:57.999Z</time></trkpt><trkpt lat="44.51764342049294" lon="0.9252549019232268"><ele>120.8</ele><time>2026-04-23T16:03:58.999Z</time></trkpt><trkpt lat="44.51770300002507" lon="0.925353012120656"><ele>120.0</ele><time>2026-04-23T16:04:00.999Z</time></trkpt><trkpt lat="44.51774386278389" lon="0.9255001138482061"><ele>120.0</ele><time>2026-04-23T16:04:03.999Z</time></trkpt><trkpt lat="44.51776114178565" lon="0.9255874814698698"><ele>120.0</ele><time>2026-04-23T16:04:06.999Z</time></trkpt><trkpt lat="44.51778155987999" lon="0.9257077595654004"><ele>120.0</ele><time>2026-04-23T16:04:09.999Z</time></trkpt><trkpt lat="44.51778492717586" lon="0.9258262318394479"><ele>120.0</ele><time>2026-04-23T16:04:12.999Z</time></trkpt><trkpt lat="44.51779271185893" lon="0.9259803879640739"><ele>120.0</ele><time>2026-04-23T16:04:14.999Z</time></trkpt><trkpt lat="44.5177859794727" lon="0.9260910495298537"><ele>120.0</ele><time>2026-04-23T16:04:15.999Z</time></trkpt><trkpt lat="44.51776183778514" lon="0.9262036160142296"><ele>120.83333333333333</ele><time>2026-04-23T16:04:16.999Z</time></trkpt><trkpt lat="44.51768874006766" lon="0.9262876480184334"><ele>121.66666666666666</ele><time>2026-04-23T16:04:18.999Z</time></trkpt><trkpt lat="44.51761035388201" lon="0.926349419280266"><ele>122.5</ele><time>2026-04-23T16:04:29.999Z</time></trkpt><trkpt lat="44.51754790847543" lon="0.9264191317797793"><ele>123.33333333333333</ele><time>2026-04-23T16:04:32.999Z</time></trkpt><trkpt lat="44.51747433804054" lon="0.926472593457402"><ele>124.16666666666666</ele><time>2026-04-23T16:04:36.999Z</time></trkpt><trkpt lat="44.51740607619571" lon="0.9265214637618125"><ele>125.0</ele><time>2026-04-23T16:04:38.999Z</time></trkpt><trkpt lat="44.51734889498646" lon="0.9265624011638625"><ele>125.0</ele><time>2026-04-23T16:04:39.999Z</time></trkpt><trkpt lat="44.51728106548091" lon="0.9266108509764488"><ele>125.0</ele><time>2026-04-23T16:04:40.999Z</time></trkpt><trkpt lat="44.5172042863854" lon="0.926664470821544"><ele>125.0</ele><time>2026-04-23T16:04:41.999Z</time></trkpt><trkpt lat="44.5171337039462" lon="0.9267137631289443"><ele>125.0</ele><time>2026-04-23T16:04:42.999Z</time></trkpt><trkpt lat="44.517077298332566" lon="0.9267531548086338"><ele>125.0</ele><time>2026-04-23T16:04:43.999Z</time></trkpt><trkpt lat="44.51701615673527" lon="0.9267972654875769"><ele>125.0</ele><time>2026-04-23T16:04:45.999Z</time></trkpt><trkpt lat="44.51695138435632" lon="0.9268448592588939"><ele>125.0</ele><time>2026-04-23T16:04:48.999Z</time></trkpt><trkpt lat="44.51689790055316" lon="0.9269006820168254"><ele>127.0</ele><time>2026-04-23T16:04:49.999Z</time></trkpt><trkpt lat="44.51684253513307" lon="0.9269976074233625"><ele>129.0</ele><time>2026-04-23T16:04:51.999Z</time></trkpt><trkpt lat="44.516787089286225" lon="0.9270788726774359"><ele>131.0</ele><time>2026-04-23T16:04:52.999Z</time></trkpt><trkpt lat="44.51674691073619" lon="0.9272086803061601"><ele>133.0</ele><time>2026-04-23T16:04:55Z</time></trkpt><trkpt lat="44.51669169639619" lon="0.9273610371655113"><ele>135.0</ele><time>2026-04-23T16:04:57Z</time></trkpt><trkpt lat="44.51668419780527" lon="0.9274562665946455"><ele>133.6</ele><time>2026-04-23T16:04:58Z</time></trkpt><trkpt lat="44.51664599855467" lon="0.927597662146189"><ele>132.2</ele><time>2026-04-23T16:05:00Z</time></trkpt><trkpt lat="44.51662155099955" lon="0.9277068168587265"><ele>130.8</ele><time>2026-04-23T16:05:02Z</time></trkpt><trkpt lat="44.516608978849476" lon="0.927826705091792"><ele>129.4</ele><time>2026-04-23T16:05:04Z</time></trkpt><trkpt lat="44.51658213716805" lon="0.9279527705152877"><ele>128.0</ele><time>2026-04-23T16:05:06Z</time></trkpt><trkpt lat="44.51657717124301" lon="0.9281561550220553"><ele>128.0</ele><time>2026-04-23T16:05:08Z</time></trkpt><trkpt lat="44.51659055272359" lon="0.9282637722825613"><ele>128.0</ele><time>2026-04-23T16:05:09Z</time></trkpt><trkpt lat="44.516605917124636" lon="0.9283983160252623"><ele>128.0</ele><time>2026-04-23T16:05:10Z</time></trkpt><trkpt lat="44.5166281198017" lon="0.9285650262822265"><ele>128.0</ele><time>2026-04-23T16:05:11Z</time></trkpt><trkpt lat="44.51667069141293" lon="0.9287478618448838"><ele>128.0</ele><time>2026-04-23T16:05:12Z</time></trkpt><trkpt lat="44.51672559087292" lon="0.928946763571168"><ele>127.25</ele><time>2026-04-23T16:05:13Z</time></trkpt><trkpt lat="44.51678649375235" lon="0.929127011343107"><ele>126.5</ele><time>2026-04-23T16:05:14Z</time></trkpt><trkpt lat="44.51683187257737" lon="0.9292833185144324"><ele>125.75</ele><time>2026-04-23T16:05:15Z</time></trkpt><trkpt lat="44.51689697549364" lon="0.9294316974175804"><ele>125.0</ele><time>2026-04-23T16:05:16Z</time></trkpt><trkpt lat="44.51693200270713" lon="0.9295755942274662"><ele>124.33333333333333</ele><time>2026-04-23T16:05:17Z</time></trkpt><trkpt lat="44.516979938057545" lon="0.9296833527768962"><ele>123.66666666666666</ele><time>2026-04-23T16:05:18Z</time></trkpt><trkpt lat="44.51698992522726" lon="0.9298094981180756"><ele>123.0</ele><time>2026-04-23T16:05:19Z</time></trkpt><trkpt lat="44.51701548221658" lon="0.9299268854463013"><ele>122.33333333333334</ele><time>2026-04-23T16:05:20Z</time></trkpt><trkpt lat="44.51701933285186" lon="0.9300449442193693"><ele>121.66666666666667</ele><time>2026-04-23T16:05:21Z</time></trkpt><trkpt lat="44.51701356149865" lon="0.9301704185421951"><ele>121.0</ele><time>2026-04-23T16:05:22Z</time></trkpt><trkpt lat="44.51701109942821" lon="0.9302970330473156"><ele>120.0</ele><time>2026-04-23T16:05:23Z</time></trkpt><trkpt lat="44.51698546790967" lon="0.9304261461773468"><ele>119.0</ele><time>2026-04-23T16:05:24Z</time></trkpt><trkpt lat="44.51698311739385" lon="0.9305504212934577"><ele>118.0</ele><time>2026-04-23T16:05:25Z</time></trkpt><trkpt lat="44.51696906927818" lon="0.9306881085124795"><ele>117.0</ele><time>2026-04-23T16:05:26Z</time></trkpt><trkpt lat="44.516954064762686" lon="0.9308459795679039"><ele>116.0</ele><time>2026-04-23T16:05:27Z</time></trkpt><trkpt lat="44.51692983079071" lon="0.931033271199822"><ele>113.66666666666666</ele><time>2026-04-23T16:05:28Z</time></trkpt><trkpt lat="44.51691056472375" lon="0.9312478963604027"><ele>111.33333333333334</ele><time>2026-04-23T16:05:29Z</time></trkpt><trkpt lat="44.51689778845176" lon="0.9314896260947784"><ele>109.0</ele><time>2026-04-23T16:05:30Z</time></trkpt><trkpt lat="44.51688644131217" lon="0.9317400263853084"><ele>107.0</ele><time>2026-04-23T16:05:31Z</time></trkpt><trkpt lat="44.516871141430684" lon="0.9319915658644313"><ele>105.0</ele><time>2026-04-23T16:05:32Z</time></trkpt><trkpt lat="44.51689028421744" lon="0.9322472351727402"><ele>103.0</ele><time>2026-04-23T16:05:33Z</time></trkpt><trkpt lat="44.51690082502982" lon="0.932480147823916"><ele>102.2</ele><time>2026-04-23T16:05:34Z</time></trkpt><trkpt lat="44.51691655119909" lon="0.9326579233920891"><ele>101.4</ele><time>2026-04-23T16:05:35Z</time></trkpt><trkpt lat="44.51691600507599" lon="0.932829825048832"><ele>100.60000000000001</ele><time>2026-04-23T16:05:36Z</time></trkpt><trkpt lat="44.51692234863229" lon="0.9329705334066463"><ele>99.80000000000001</ele><time>2026-04-23T16:05:37Z</time></trkpt><trkpt lat="44.51692702322352" lon="0.9330899792337124"><ele>99.0</ele><time>2026-04-23T16:05:38Z</time></trkpt><trkpt lat="44.51693899628983" lon="0.9331880223410247"><ele>99.0</ele><time>2026-04-23T16:05:39Z</time></trkpt><trkpt lat="44.516936232564696" lon="0.9332997009748186"><ele>99.0</ele><time>2026-04-23T16:05:41Z</time></trkpt><trkpt lat="44.516812986053026" lon="0.9333063123976532"><ele>99.0</ele><time>2026-04-23T16:06:16.999Z</time></trkpt><trkpt lat="44.51672237144635" lon="0.9332920742727078"><ele>99.0</ele><time>2026-04-23T16:06:18.999Z</time></trkpt><trkpt lat="44.51665387352771" lon="0.9332870311157151"><ele>99.0</ele><time>2026-04-23T16:06:19.999Z</time></trkpt><trkpt lat="44.51658743577282" lon="0.9332843850843751"><ele>99.0</ele><time>2026-04-23T16:06:21.999Z</time></trkpt><trkpt lat="44.51650280098297" lon="0.9332832629401795"><ele>99.0</ele><time>2026-04-23T16:06:23.999Z</time></trkpt><trkpt lat="44.51643142070851" lon="0.9332873722418562"><ele>99.0</ele><time>2026-04-23T16:06:24.999Z</time></trkpt><trkpt lat="44.51636346255197" lon="0.9332948871230573"><ele>99.0</ele><time>2026-04-23T16:06:26.999Z</time></trkpt><trkpt lat="44.516219821683876" lon="0.9333227466458748"><ele>99.0</ele><time>2026-04-23T16:06:28.999Z</time></trkpt><trkpt lat="44.51612437980393" lon="0.9333449252151591"><ele>99.0</ele><time>2026-04-23T16:06:31.999Z</time></trkpt><trkpt lat="44.51606445574129" lon="0.9333979788579534"><ele>99.0</ele><time>2026-04-23T16:06:32.999Z</time></trkpt><trkpt lat="44.51597444630981" lon="0.9334112143455285"><ele>99.0</ele><time>2026-04-23T16:06:34.999Z</time></trkpt><trkpt lat="44.516066141942524" lon="0.9333841656362621"><ele>99.0</ele><time>2026-04-23T16:06:40.999Z</time></trkpt><trkpt lat="44.516148247329994" lon="0.9333364918420581"><ele>99.0</ele><time>2026-04-23T16:06:41.999Z</time></trkpt><trkpt lat="44.516265982345004" lon="0.9333591940071106"><ele>99.0</ele><time>2026-04-23T16:06:42.999Z</time></trkpt><trkpt lat="44.516356465641294" lon="0.9333204688872888"><ele>99.0</ele><time>2026-04-23T16:06:43.999Z</time></trkpt><trkpt lat="44.51642162216558" lon="0.9333268593493924"><ele>99.0</ele><time>2026-04-23T16:06:44.999Z</time></trkpt><trkpt lat="44.51653122591333" lon="0.9333172026861907"><ele>99.0</ele><time>2026-04-23T16:06:46.999Z</time></trkpt><trkpt lat="44.51663563077233" lon="0.9333225598979619"><ele>99.0</ele><time>2026-04-23T16:06:48.999Z</time></trkpt><trkpt lat="44.51672140864799" lon="0.9333213044559872"><ele>99.0</ele><time>2026-04-23T16:06:50.999Z</time></trkpt><trkpt lat="44.516810327350505" lon="0.9333374949451766"><ele>99.0</ele><time>2026-04-23T16:06:52.999Z</time></trkpt><trkpt lat="44.51691515592133" lon="0.9333573668788713"><ele>99.0</ele><time>2026-04-23T16:06:54.999Z</time></trkpt><trkpt lat="44.51698816902916" lon="0.9333856698477333"><ele>99.0</ele><time>2026-04-23T16:06:56.999Z</time></trkpt><trkpt lat="44.517063955776074" lon="0.9334051588853431"><ele>99.0</ele><time>2026-04-23T16:06:58.999Z</time></trkpt><trkpt lat="44.51717253631013" lon="0.9334246343594633"><ele>99.0</ele><time>2026-04-23T16:07:01Z</time></trkpt><trkpt lat="44.51725849496618" lon="0.9334433944421443"><ele>98.4</ele><time>2026-04-23T16:07:03Z</time></trkpt><trkpt lat="44.5173435220014" lon="0.933458058216976"><ele>97.80000000000001</ele><time>2026-04-23T16:07:04Z</time></trkpt><trkpt lat="44.51744437297015" lon="0.9334857939037565"><ele>97.19999999999999</ele><time>2026-04-23T16:07:05Z</time></trkpt><trkpt lat="44.517560426478454" lon="0.93351075020583"><ele>96.6</ele><time>2026-04-23T16:07:06Z</time></trkpt><trkpt lat="44.517694297523995" lon="0.9335173279720286"><ele>96.0</ele><time>2026-04-23T16:07:07Z</time></trkpt><trkpt lat="44.51783418468233" lon="0.9335044544432046"><ele>96.0</ele><time>2026-04-23T16:07:08Z</time></trkpt><trkpt lat="44.51798538745225" lon="0.9334659180924938"><ele>96.0</ele><time>2026-04-23T16:07:09Z</time></trkpt><trkpt lat="44.518136469755895" lon="0.9334011682013322"><ele>96.0</ele><time>2026-04-23T16:07:10Z</time></trkpt><trkpt lat="44.518272629772284" lon="0.9333457257454011"><ele>96.0</ele><time>2026-04-23T16:07:11Z</time></trkpt><trkpt lat="44.51839581875611" lon="0.9333016284713085"><ele>96.0</ele><time>2026-04-23T16:07:12Z</time></trkpt><trkpt lat="44.51850699441371" lon="0.933267346320605"><ele>96.0</ele><time>2026-04-23T16:07:13Z</time></trkpt><trkpt lat="44.51861730982319" lon="0.933221430118881"><ele>96.0</ele><time>2026-04-23T16:07:14Z</time></trkpt><trkpt lat="44.51872439615378" lon="0.9331777650435334"><ele>94.8</ele><time>2026-04-23T16:07:15Z</time></trkpt><trkpt lat="44.51882775911599" lon="0.9331188039282795"><ele>93.6</ele><time>2026-04-23T16:07:16Z</time></trkpt><trkpt lat="44.518917145215475" lon="0.9330520801235404"><ele>92.4</ele><time>2026-04-23T16:07:17Z</time></trkpt><trkpt lat="44.51901215231164" lon="0.9329887015800395"><ele>91.2</ele><time>2026-04-23T16:07:18Z</time></trkpt><trkpt lat="44.51909852485094" lon="0.9329156644812003"><ele>90.0</ele><time>2026-04-23T16:07:19Z</time></trkpt><trkpt lat="44.51918164394356" lon="0.9328539161789434"><ele>90.0</ele><time>2026-04-23T16:07:20Z</time></trkpt><trkpt lat="44.51925586391359" lon="0.9327872371497894"><ele>90.0</ele><time>2026-04-23T16:07:21Z</time></trkpt><trkpt lat="44.51932963970262" lon="0.9327361744015574"><ele>90.0</ele><time>2026-04-23T16:07:22Z</time></trkpt><trkpt lat="44.51939939544689" lon="0.9326723722501801"><ele>90.0</ele><time>2026-04-23T16:07:23Z</time></trkpt><trkpt lat="44.51946552649478" lon="0.9326212025997022"><ele>90.0</ele><time>2026-04-23T16:07:24Z</time></trkpt><trkpt lat="44.51953134982406" lon="0.9325749826149387"><ele>90.0</ele><time>2026-04-23T16:07:25Z</time></trkpt><trkpt lat="44.519594675862315" lon="0.9325191384237228"><ele>89.66666666666667</ele><time>2026-04-23T16:07:26Z</time></trkpt><trkpt lat="44.51966727521423" lon="0.932465969230034"><ele>89.33333333333333</ele><time>2026-04-23T16:07:27Z</time></trkpt><trkpt lat="44.519734531754295" lon="0.9324178010925086"><ele>89.0</ele><time>2026-04-23T16:07:28Z</time></trkpt><trkpt lat="44.51979764183098" lon="0.9323733537211671"><ele>88.66666666666666</ele><time>2026-04-23T16:07:29Z</time></trkpt><trkpt lat="44.51985665197496" lon="0.9323349543304724"><ele>88.33333333333333</ele><time>2026-04-23T16:07:30Z</time></trkpt><trkpt lat="44.51992066173229" lon="0.9323124091952866"><ele>88.0</ele><time>2026-04-23T16:07:31Z</time></trkpt><trkpt lat="44.520038036345774" lon="0.932265791610116"><ele>88.0</ele><time>2026-04-23T16:07:33Z</time></trkpt><trkpt lat="44.52009579199993" lon="0.9322271382981056"><ele>88.0</ele><time>2026-04-23T16:07:34Z</time></trkpt><trkpt lat="44.520208537313394" lon="0.9321764498637641"><ele>88.0</ele><time>2026-04-23T16:07:36Z</time></trkpt><trkpt lat="44.52027580950039" lon="0.9321463391476065"><ele>88.0</ele><time>2026-04-23T16:07:37Z</time></trkpt><trkpt lat="44.52033667334243" lon="0.9321135955997033"><ele>88.0</ele><time>2026-04-23T16:07:38Z</time></trkpt><trkpt lat="44.52045491179395" lon="0.932055175757367"><ele>88.0</ele><time>2026-04-23T16:07:40Z</time></trkpt><trkpt lat="44.52051494063503" lon="0.9320238774473203"><ele>87.5</ele><time>2026-04-23T16:07:41Z</time></trkpt><trkpt lat="44.520610857144355" lon="0.9319913585093854"><ele>87.0</ele><time>2026-04-23T16:07:43Z</time></trkpt><trkpt lat="44.52068787714917" lon="0.9319429092016911"><ele>86.5</ele><time>2026-04-23T16:07:45Z</time></trkpt><trkpt lat="44.52076675235155" lon="0.9318948394243091"><ele>86.0</ele><time>2026-04-23T16:07:47Z</time></trkpt><trkpt lat="44.520831254167" lon="0.9318674849424412"><ele>85.5</ele><time>2026-04-23T16:07:49Z</time></trkpt><trkpt lat="44.520897460957734" lon="0.9318628234886728"><ele>85.0</ele><time>2026-04-23T16:07:50Z</time></trkpt><trkpt lat="44.52097463204229" lon="0.9318419393604721"><ele>85.0</ele><time>2026-04-23T16:07:51Z</time></trkpt><trkpt lat="44.521038652579264" lon="0.9318389047395244"><ele>85.0</ele><time>2026-04-23T16:07:52Z</time></trkpt><trkpt lat="44.52112853664676" lon="0.9318468101363293"><ele>85.0</ele><time>2026-04-23T16:07:54Z</time></trkpt><trkpt lat="44.52125873493417" lon="0.9318531616039755"><ele>85.0</ele><time>2026-04-23T16:07:56Z</time></trkpt><trkpt lat="44.52127986169441" lon="0.9319648594376548"><ele>85.0</ele><time>2026-04-23T16:07:56.999Z</time></trkpt><trkpt lat="44.52133833933289" lon="0.9320051945199356"><ele>85.0</ele><time>2026-04-23T16:07:57.999Z</time></trkpt><trkpt lat="44.52140578225008" lon="0.932084994582256"><ele>87.66666666666666</ele><time>2026-04-23T16:07:59.999Z</time></trkpt><trkpt lat="44.52146564174545" lon="0.9321672430497678"><ele>90.33333333333333</ele><time>2026-04-23T16:08:01.999Z</time></trkpt><trkpt lat="44.52156139256741" lon="0.9322316467590688"><ele>93.0</ele><time>2026-04-23T16:08:03.999Z</time></trkpt><trkpt lat="44.52193034799718" lon="0.9316900983256725"><ele>93.2</ele><time>2026-04-23T16:08:04.999Z</time></trkpt><trkpt lat="44.52202018593844" lon="0.9316215897202068"><ele>93.4</ele><time>2026-04-23T16:08:05.999Z</time></trkpt><trkpt lat="44.52211750811181" lon="0.9315572645938514"><ele>93.60000000000001</ele><time>2026-04-23T16:08:06.999Z</time></trkpt><trkpt lat="44.522194745129674" lon="0.9315040651212119"><ele>93.80000000000001</ele><time>2026-04-23T16:08:07.999Z</time></trkpt><trkpt lat="44.52225248633941" lon="0.9314365126353255"><ele>94.0</ele><time>2026-04-23T16:08:08.999Z</time></trkpt><trkpt lat="44.522337315758726" lon="0.931355090806411"><ele>97.0</ele><time>2026-04-23T16:08:09.999Z</time></trkpt><trkpt lat="44.522416224815316" lon="0.9312915873223934"><ele>100.0</ele><time>2026-04-23T16:08:10.999Z</time></trkpt><trkpt lat="44.52250317139117" lon="0.9312445006693972"><ele>103.0</ele><time>2026-04-23T16:08:11.999Z</time></trkpt><trkpt lat="44.522609462993834" lon="0.9311756605579523"><ele>106.0</ele><time>2026-04-23T16:08:12.999Z</time></trkpt><trkpt lat="44.5227164321044" lon="0.9311209768242558"><ele>109.0</ele><time>2026-04-23T16:08:13.999Z</time></trkpt><trkpt lat="44.52279431792334" lon="0.9310620895630946"><ele>109.00000000000001</ele><time>2026-04-23T16:08:14.999Z</time></trkpt><trkpt lat="44.5228687581256" lon="0.9310117270922829"><ele>109.0</ele><time>2026-04-23T16:08:15.999Z</time></trkpt><trkpt lat="44.52292954648973" lon="0.9309826762724849"><ele>109.0</ele><time>2026-04-23T16:08:16.999Z</time></trkpt><trkpt lat="44.52306260886482" lon="0.9309523452978453"><ele>109.0</ele><time>2026-04-23T16:08:18.999Z</time></trkpt><trkpt lat="44.523152541021815" lon="0.9309580142189147"><ele>109.00000000000001</ele><time>2026-04-23T16:08:19.999Z</time></trkpt><trkpt lat="44.52321790757369" lon="0.9309608894966177"><ele>109.0</ele><time>2026-04-23T16:08:20.999Z</time></trkpt><trkpt lat="44.52328206037485" lon="0.9309698543990554"><ele>111.16666666666667</ele><time>2026-04-23T16:08:22.999Z</time></trkpt><trkpt lat="44.52338558519682" lon="0.930963434594137"><ele>113.33333333333334</ele><time>2026-04-23T16:08:24.999Z</time></trkpt><trkpt lat="44.52345856567221" lon="0.9309504957836436"><ele>115.5</ele><time>2026-04-23T16:08:25.999Z</time></trkpt><trkpt lat="44.52353172288152" lon="0.9309404557637674"><ele>117.66666666666666</ele><time>2026-04-23T16:08:26.999Z</time></trkpt><trkpt lat="44.52361580109481" lon="0.9309217752917563"><ele>119.83333333333333</ele><time>2026-04-23T16:08:28.999Z</time></trkpt><trkpt lat="44.52368351830428" lon="0.9309074813597731"><ele>122.0</ele><time>2026-04-23T16:08:30.999Z</time></trkpt><trkpt lat="44.52376760938976" lon="0.9308483590097036"><ele>122.28571428571428</ele><time>2026-04-23T16:08:32.999Z</time></trkpt><trkpt lat="44.52381851203918" lon="0.9307921006047911"><ele>122.57142857142857</ele><time>2026-04-23T16:08:33.999Z</time></trkpt><trkpt lat="44.52387163299776" lon="0.9307189575233107"><ele>122.85714285714286</ele><time>2026-04-23T16:08:34.999Z</time></trkpt><trkpt lat="44.52393774298424" lon="0.9306426744401063"><ele>123.14285714285714</ele><time>2026-04-23T16:08:35.999Z</time></trkpt><trkpt lat="44.52399977663479" lon="0.9305526231954996"><ele>123.42857142857144</ele><time>2026-04-23T16:08:37.999Z</time></trkpt><trkpt lat="44.52403403696716" lon="0.9304776579660706"><ele>123.71428571428572</ele><time>2026-04-23T16:08:39.999Z</time></trkpt><trkpt lat="44.5240851673268" lon="0.9304203979261179"><ele>124.0</ele><time>2026-04-23T16:08:41.999Z</time></trkpt><trkpt lat="44.52414466027818" lon="0.930312736479981"><ele>124.0</ele><time>2026-04-23T16:08:43.999Z</time></trkpt><trkpt lat="44.524201098619486" lon="0.9302496266882888"><ele>124.0</ele><time>2026-04-23T16:08:45.999Z</time></trkpt><trkpt lat="44.52428640196808" lon="0.9301604051013559"><ele>124.0</ele><time>2026-04-23T16:08:48.999Z</time></trkpt><trkpt lat="44.52438633467212" lon="0.9300480222803866"><ele>124.0</ele><time>2026-04-23T16:08:50.999Z</time></trkpt><trkpt lat="44.52446916386252" lon="0.9299579787887112"><ele>124.0</ele><time>2026-04-23T16:08:51.999Z</time></trkpt><trkpt lat="44.524570232620675" lon="0.929844717846547"><ele>124.66666666666667</ele><time>2026-04-23T16:08:52.999Z</time></trkpt><trkpt lat="44.52465396316295" lon="0.9297564781245065"><ele>125.33333333333334</ele><time>2026-04-23T16:08:53.999Z</time></trkpt><trkpt lat="44.52472076190959" lon="0.9296622845573692"><ele>126.0</ele><time>2026-04-23T16:08:54.999Z</time></trkpt><trkpt lat="44.5247749598231" lon="0.9295839128906987"><ele>126.66666666666666</ele><time>2026-04-23T16:08:55.999Z</time></trkpt><trkpt lat="44.52482834420121" lon="0.9295228275846815"><ele>127.33333333333333</ele><time>2026-04-23T16:08:56.999Z</time></trkpt><trkpt lat="44.524906474902934" lon="0.9294407692399919"><ele>128.0</ele><time>2026-04-23T16:08:58.999Z</time></trkpt><trkpt lat="44.524970441969614" lon="0.929352090680022"><ele>128.0</ele><time>2026-04-23T16:09:00.999Z</time></trkpt><trkpt lat="44.52502928131057" lon="0.9292863155338311"><ele>127.99999999999999</ele><time>2026-04-23T16:09:02.999Z</time></trkpt><trkpt lat="44.525076240335736" lon="0.9291958258241242"><ele>128.0</ele><time>2026-04-23T16:09:04.999Z</time></trkpt><trkpt lat="44.525142560551096" lon="0.9291337313662184"><ele>128.0</ele><time>2026-04-23T16:09:06Z</time></trkpt><trkpt lat="44.52519331961665" lon="0.9290561001899111"><ele>127.99999999999999</ele><time>2026-04-23T16:09:07Z</time></trkpt><trkpt lat="44.52523369832098" lon="0.9289712610405577"><ele>128.0</ele><time>2026-04-23T16:09:09Z</time></trkpt><trkpt lat="44.52527495115114" lon="0.9288976698412297"><ele>128.0</ele><time>2026-04-23T16:09:10Z</time></trkpt><trkpt lat="44.52532149306662" lon="0.9288212860962367"><ele>129.20000000000002</ele><time>2026-04-23T16:09:11Z</time></trkpt><trkpt lat="44.525412377333" lon="0.9286912334199946"><ele>130.4</ele><time>2026-04-23T16:09:13Z</time></trkpt><trkpt lat="44.52545913941561" lon="0.9286177895696283"><ele>131.60000000000002</ele><time>2026-04-23T16:09:14Z</time></trkpt><trkpt lat="44.525538895375405" lon="0.9285206646845222"><ele>132.8</ele><time>2026-04-23T16:09:16Z</time></trkpt><trkpt lat="44.52559812909498" lon="0.9284727585195631"><ele>134.0</ele><time>2026-04-23T16:09:17Z</time></trkpt><trkpt lat="44.52566428655627" lon="0.9283637765815089"><ele>134.0</ele><time>2026-04-23T16:09:19Z</time></trkpt><trkpt lat="44.52572198931871" lon="0.9282999215156468"><ele>134.0</ele><time>2026-04-23T16:09:21Z</time></trkpt><trkpt lat="44.52578047795878" lon="0.9282341256527735"><ele>134.0</ele><time>2026-04-23T16:09:23Z</time></trkpt><trkpt lat="44.52585410468383" lon="0.9281446136340312"><ele>134.0</ele><time>2026-04-23T16:09:27Z</time></trkpt><trkpt lat="44.525925156159566" lon="0.9280965209912756"><ele>134.0</ele><time>2026-04-23T16:09:30Z</time></trkpt><trkpt lat="44.52598874719201" lon="0.9280323707289297"><ele>134.0</ele><time>2026-04-23T16:09:35Z</time></trkpt><trkpt lat="44.52606756722191" lon="0.9279841514757546"><ele>134.0</ele><time>2026-04-23T16:09:38Z</time></trkpt><trkpt lat="44.52613306894211" lon="0.927929573390191"><ele>134.0</ele><time>2026-04-23T16:09:42Z</time></trkpt><trkpt lat="44.52618885910006" lon="0.927884557094451"><ele>134.0</ele><time>2026-04-23T16:09:45Z</time></trkpt><trkpt lat="44.52625653900295" lon="0.9278389182213389"><ele>134.0</ele><time>2026-04-23T16:09:48Z</time></trkpt><trkpt lat="44.5263174340848" lon="0.9277977753090589"><ele>134.0</ele><time>2026-04-23T16:09:51Z</time></trkpt><trkpt lat="44.52637967312894" lon="0.9277539880227811"><ele>134.0</ele><time>2026-04-23T16:09:54Z</time></trkpt><trkpt lat="44.52644067396427" lon="0.9277106408769207"><ele>134.0</ele><time>2026-04-23T16:09:57Z</time></trkpt><trkpt lat="44.5265088776115" lon="0.9276389531011102"><ele>133.8</ele><time>2026-04-23T16:10:42.999Z</time></trkpt><trkpt lat="44.52658483474578" lon="0.9276050257399944"><ele>133.60000000000002</ele><time>2026-04-23T16:10:45.999Z</time></trkpt><trkpt lat="44.52666321533951" lon="0.9275552948323231"><ele>133.4</ele><time>2026-04-23T16:10:47.999Z</time></trkpt><trkpt lat="44.52672524440901" lon="0.9274991904992017"><ele>133.20000000000002</ele><time>2026-04-23T16:10:48.999Z</time></trkpt><trkpt lat="44.526830667192" lon="0.9274536876431078"><ele>133.0</ele><time>2026-04-23T16:10:50.999Z</time></trkpt><trkpt lat="44.526933570943584" lon="0.9274020334136636"><ele>133.0</ele><time>2026-04-23T16:10:52.999Z</time></trkpt><trkpt lat="44.52702435598145" lon="0.9273661188732834"><ele>133.0</ele><time>2026-04-23T16:10:53.999Z</time></trkpt><trkpt lat="44.527138225637586" lon="0.927345876705541"><ele>133.0</ele><time>2026-04-23T16:10:54.999Z</time></trkpt><trkpt lat="44.52726725245745" lon="0.9273554781605798"><ele>133.0</ele><time>2026-04-23T16:10:55.999Z</time></trkpt><trkpt lat="44.52740404354006" lon="0.927343521471176"><ele>134.25</ele><time>2026-04-23T16:10:56.999Z</time></trkpt><trkpt lat="44.527549513091486" lon="0.9273307826314715"><ele>135.5</ele><time>2026-04-23T16:10:57.999Z</time></trkpt><trkpt lat="44.5276870398527" lon="0.9273467523083143"><ele>136.75</ele><time>2026-04-23T16:10:58.999Z</time></trkpt><trkpt lat="44.52780627443643" lon="0.9273653139064703"><ele>138.0</ele><time>2026-04-23T16:10:59.999Z</time></trkpt><trkpt lat="44.52789422189822" lon="0.9273824976942541"><ele>138.6</ele><time>2026-04-23T16:11:00.999Z</time></trkpt><trkpt lat="44.52801093793965" lon="0.9273963032763743"><ele>139.20000000000002</ele><time>2026-04-23T16:11:02.999Z</time></trkpt><trkpt lat="44.52806579171687" lon="0.927352167214141"><ele>139.8</ele><time>2026-04-23T16:11:03.999Z</time></trkpt><trkpt lat="44.528164540034176" lon="0.9272865048399663"><ele>140.4</ele><time>2026-04-23T16:11:05.999Z</time></trkpt><trkpt lat="44.52828047741256" lon="0.9272418538145506"><ele>141.0</ele><time>2026-04-23T16:11:07.999Z</time></trkpt><trkpt lat="44.528358144735336" lon="0.9272416828423815"><ele>141.0</ele><time>2026-04-23T16:11:08.999Z</time></trkpt><trkpt lat="44.52844324158078" lon="0.9272498715784788"><ele>141.0</ele><time>2026-04-23T16:11:09.999Z</time></trkpt><trkpt lat="44.52855610538563" lon="0.9272386509227825"><ele>141.0</ele><time>2026-04-23T16:11:10.999Z</time></trkpt><trkpt lat="44.52868986333335" lon="0.9271940252165531"><ele>141.0</ele><time>2026-04-23T16:11:12Z</time></trkpt><trkpt lat="44.52882759727624" lon="0.9271663453726795"><ele>142.33333333333334</ele><time>2026-04-23T16:11:13Z</time></trkpt><trkpt lat="44.5289702515945" lon="0.9271032749937276"><ele>143.66666666666669</ele><time>2026-04-23T16:11:14Z</time></trkpt><trkpt lat="44.529124730856736" lon="0.927054572754312"><ele>145.0</ele><time>2026-04-23T16:11:15Z</time></trkpt><trkpt lat="44.52926743778707" lon="0.9270182030726732"><ele>145.0</ele><time>2026-04-23T16:11:16Z</time></trkpt><trkpt lat="44.529415252370065" lon="0.9269934736320593"><ele>145.0</ele><time>2026-04-23T16:11:17Z</time></trkpt><trkpt lat="44.52957214938413" lon="0.9269767436081794"><ele>145.0</ele><time>2026-04-23T16:11:18Z</time></trkpt><trkpt lat="44.529728823363676" lon="0.9269565239684391"><ele>145.0</ele><time>2026-04-23T16:11:19Z</time></trkpt><trkpt lat="44.52988121219636" lon="0.9269392053243901"><ele>145.0</ele><time>2026-04-23T16:11:20Z</time></trkpt><trkpt lat="44.53004665912603" lon="0.9269174138084542"><ele>145.0</ele><time>2026-04-23T16:11:21Z</time></trkpt><trkpt lat="44.530162180566535" lon="0.9268886285005777"><ele>145.0</ele><time>2026-04-23T16:11:22Z</time></trkpt><trkpt lat="44.53026260736455" lon="0.926865952496557"><ele>144.25</ele><time>2026-04-23T16:11:23Z</time></trkpt><trkpt lat="44.5304455364285" lon="0.9268550146901373"><ele>143.5</ele><time>2026-04-23T16:11:24Z</time></trkpt><trkpt lat="44.53056308458789" lon="0.9268266598800643"><ele>142.75</ele><time>2026-04-23T16:11:25Z</time></trkpt><trkpt lat="44.53062520326684" lon="0.9267973696207322"><ele>142.0</ele><time>2026-04-23T16:11:26Z</time></trkpt><trkpt lat="44.530724486547506" lon="0.9267408478902148"><ele>142.0</ele><time>2026-04-23T16:11:28Z</time></trkpt><trkpt lat="44.53083203499442" lon="0.9266846384597367"><ele>142.0</ele><time>2026-04-23T16:11:30Z</time></trkpt><trkpt lat="44.53089736341916" lon="0.9266372752868793"><ele>142.0</ele><time>2026-04-23T16:11:33Z</time></trkpt><trkpt lat="44.53097187915635" lon="0.926659601564182"><ele>142.0</ele><time>2026-04-23T16:12:13.999Z</time></trkpt><trkpt lat="44.5309394466903" lon="0.9267593073580026"><ele>142.0</ele><time>2026-04-23T16:12:17.999Z</time></trkpt><trkpt lat="44.530887360215935" lon="0.926828645662967"><ele>142.0</ele><time>2026-04-23T16:12:19.999Z</time></trkpt><trkpt lat="44.530830774946" lon="0.9269033781044492"><ele>142.0</ele><time>2026-04-23T16:12:20.999Z</time></trkpt><trkpt lat="44.53077703710699" lon="0.927004296946983"><ele>142.0</ele><time>2026-04-23T16:12:21.999Z</time></trkpt><trkpt lat="44.53074349674153" lon="0.927083024586127"><ele>142.0</ele><time>2026-04-23T16:12:22.999Z</time></trkpt><trkpt lat="44.53066056843018" lon="0.927180865989489"><ele>142.0</ele><time>2026-04-23T16:12:24.999Z</time></trkpt><trkpt lat="44.53060701682656" lon="0.9272288811135745"><ele>142.0</ele><time>2026-04-23T16:12:26.999Z</time></trkpt><trkpt lat="44.53068654927447" lon="0.9272691932315803"><ele>142.0</ele><time>2026-04-23T16:12:33.999Z</time></trkpt><trkpt lat="44.53073853986489" lon="0.927168315030864"><ele>142.0</ele><time>2026-04-23T16:12:35.999Z</time></trkpt><trkpt lat="44.53079029999077" lon="0.927047288238428"><ele>142.0</ele><time>2026-04-23T16:12:38.999Z</time></trkpt><trkpt lat="44.530850850904265" lon="0.9269499511080216"><ele>142.0</ele><time>2026-04-23T16:12:40.999Z</time></trkpt><trkpt lat="44.530911563098044" lon="0.9268178047412888"><ele>142.0</ele><time>2026-04-23T16:12:43.999Z</time></trkpt><trkpt lat="44.53085060700108" lon="0.9268785894156263"><ele>142.0</ele><time>2026-04-23T16:12:47.999Z</time></trkpt><trkpt lat="44.5308040037933" lon="0.9269425909944715"><ele>142.0</ele><time>2026-04-23T16:12:51.999Z</time></trkpt><trkpt lat="44.53072931791658" lon="0.927079861239774"><ele>142.0</ele><time>2026-04-23T16:12:53.999Z</time></trkpt><trkpt lat="44.53068879979331" lon="0.9271502479991814"><ele>142.0</ele><time>2026-04-23T16:12:54.999Z</time></trkpt><trkpt lat="44.53063255891532" lon="0.9272183284111318"><ele>142.0</ele><time>2026-04-23T16:12:56.999Z</time></trkpt><trkpt lat="44.53062755634201" lon="0.9273234688813031"><ele>142.0</ele><time>2026-04-23T16:12:58.999Z</time></trkpt><trkpt lat="44.53073310743946" lon="0.9274834666507343"><ele>142.0</ele><time>2026-04-23T16:13:00.999Z</time></trkpt><trkpt lat="44.530802170629386" lon="0.9275593907857761"><ele>141.33333333333334</ele><time>2026-04-23T16:13:01.999Z</time></trkpt><trkpt lat="44.53088761440592" lon="0.92768154063407"><ele>140.66666666666669</ele><time>2026-04-23T16:13:03.999Z</time></trkpt><trkpt lat="44.530945050396845" lon="0.927784667232089"><ele>140.0</ele><time>2026-04-23T16:13:05.999Z</time></trkpt><trkpt lat="44.53099735593715" lon="0.9278628501984665"><ele>139.33333333333334</ele><time>2026-04-23T16:13:09.999Z</time></trkpt><trkpt lat="44.53105053376585" lon="0.9279534622048927"><ele>138.66666666666666</ele><time>2026-04-23T16:13:11.999Z</time></trkpt><trkpt lat="44.53109906121994" lon="0.9280309971766848"><ele>138.0</ele><time>2026-04-23T16:13:13.999Z</time></trkpt><trkpt lat="44.531137412764835" lon="0.9281072941025426"><ele>138.0</ele><time>2026-04-23T16:13:15.999Z</time></trkpt><trkpt lat="44.53119104046911" lon="0.9281938327174794"><ele>138.0</ele><time>2026-04-23T16:13:19Z</time></trkpt><trkpt lat="44.53125321530953" lon="0.928161536222586"><ele>138.0</ele><time>2026-04-23T16:13:21Z</time></trkpt><trkpt lat="44.531334581237395" lon="0.9280340715387243"><ele>138.0</ele><time>2026-04-23T16:13:23Z</time></trkpt><trkpt lat="44.53141971597863" lon="0.92792144633835"><ele>138.0</ele><time>2026-04-23T16:13:25Z</time></trkpt><trkpt lat="44.53148930800076" lon="0.9278285326425862"><ele>138.6</ele><time>2026-04-23T16:13:26Z</time></trkpt><trkpt lat="44.531547555906414" lon="0.9277456965657049"><ele>139.20000000000002</ele><time>2026-04-23T16:13:27Z</time></trkpt><trkpt lat="44.53165471408694" lon="0.9276195785736706"><ele>139.8</ele><time>2026-04-23T16:13:29Z</time></trkpt><trkpt lat="44.53172333569685" lon="0.9275317931717403"><ele>140.4</ele><time>2026-04-23T16:13:30Z</time></trkpt><trkpt lat="44.531794700092114" lon="0.9274297625662122"><ele>141.0</ele><time>2026-04-23T16:13:31Z</time></trkpt><trkpt lat="44.531879725419984" lon="0.9273155917491104"><ele>141.4</ele><time>2026-04-23T16:13:32Z</time></trkpt><trkpt lat="44.531975812216665" lon="0.9271963286976822"><ele>141.8</ele><time>2026-04-23T16:13:33Z</time></trkpt><trkpt lat="44.53206524083623" lon="0.9270865243431928"><ele>142.20000000000002</ele><time>2026-04-23T16:13:34Z</time></trkpt><trkpt lat="44.53213809328304" lon="0.9269991542814773"><ele>142.6</ele><time>2026-04-23T16:13:35Z</time></trkpt><trkpt lat="44.532206403576424" lon="0.9269074382842992"><ele>143.0</ele><time>2026-04-23T16:13:36Z</time></trkpt><trkpt lat="44.5322823680469" lon="0.9267996784794251"><ele>144.25</ele><time>2026-04-23T16:13:37Z</time></trkpt><trkpt lat="44.532372932595294" lon="0.9266746229047671"><ele>145.5</ele><time>2026-04-23T16:13:38Z</time></trkpt><trkpt lat="44.53246670516041" lon="0.9265499407748305"><ele>146.75</ele><time>2026-04-23T16:13:39Z</time></trkpt><trkpt lat="44.53258044622032" lon="0.926416954918864"><ele>148.0</ele><time>2026-04-23T16:13:40Z</time></trkpt><trkpt lat="44.53268040954629" lon="0.9262697495968572"><ele>148.0</ele><time>2026-04-23T16:13:41Z</time></trkpt><trkpt lat="44.532802604172154" lon="0.9261347498261844"><ele>148.0</ele><time>2026-04-23T16:13:42Z</time></trkpt><trkpt lat="44.53290480577872" lon="0.9260268927377956"><ele>148.0</ele><time>2026-04-23T16:13:43Z</time></trkpt><trkpt lat="44.532972355954406" lon="0.9259754172949746"><ele>148.0</ele><time>2026-04-23T16:13:44Z</time></trkpt><trkpt lat="44.53304287743378" lon="0.9259850948593756"><ele>148.0</ele><time>2026-04-23T16:13:47Z</time></trkpt><trkpt lat="44.53311928041108" lon="0.9262425885036509"><ele>148.16666666666669</ele><time>2026-04-23T16:13:50Z</time></trkpt><trkpt lat="44.5331684187238" lon="0.9263415507751717"><ele>148.33333333333334</ele><time>2026-04-23T16:13:52Z</time></trkpt><trkpt lat="44.53320977459602" lon="0.9264127493194156"><ele>148.5</ele><time>2026-04-23T16:13:57Z</time></trkpt><trkpt lat="44.53326619649745" lon="0.926313637076811"><ele>148.66666666666666</ele><time>2026-04-23T16:14:00Z</time></trkpt><trkpt lat="44.533297689860724" lon="0.9262307344404395"><ele>148.83333333333331</ele><time>2026-04-23T16:14:02Z</time></trkpt><trkpt lat="44.53337294660992" lon="0.9262204345509005"><ele>149.0</ele><time>2026-04-23T16:14:06Z</time></trkpt><trkpt lat="44.53343649655397" lon="0.9261853021668602"><ele>149.0</ele><time>2026-04-23T16:14:10Z</time></trkpt><trkpt lat="44.5335305895255" lon="0.9261476406655934"><ele>149.0</ele><time>2026-04-23T16:14:12Z</time></trkpt><trkpt lat="44.53360263787281" lon="0.9261163900005676"><ele>149.0</ele><time>2026-04-23T16:14:14Z</time></trkpt><trkpt lat="44.53371844575771" lon="0.9260354263864218"><ele>149.0</ele><time>2026-04-23T16:14:17Z</time></trkpt><trkpt lat="44.53379091915213" lon="0.9259978716682603"><ele>149.0</ele><time>2026-04-23T16:14:18Z</time></trkpt><trkpt lat="44.53386341566502" lon="0.9259543813943816"><ele>149.0</ele><time>2026-04-23T16:14:18.999Z</time></trkpt><trkpt lat="44.53392772571441" lon="0.9259519072514928"><ele>149.0</ele><time>2026-04-23T16:14:19.999Z</time></trkpt><trkpt lat="44.533840065932004" lon="0.925919464518688"><ele>149.0</ele><time>2026-04-23T16:14:25.999Z</time></trkpt><trkpt lat="44.53377893156616" lon="0.9259629413244749"><ele>149.0</ele><time>2026-04-23T16:14:27.999Z</time></trkpt><trkpt lat="44.533712110222716" lon="0.9260048991387896"><ele>149.0</ele><time>2026-04-23T16:14:28.999Z</time></trkpt><trkpt lat="44.5336195129906" lon="0.9260523508986779"><ele>149.0</ele><time>2026-04-23T16:14:29.999Z</time></trkpt><trkpt lat="44.533552395193404" lon="0.9260828953360967"><ele>149.0</ele><time>2026-04-23T16:14:30.999Z</time></trkpt><trkpt lat="44.533461989308186" lon="0.9261538896640374"><ele>149.0</ele><time>2026-04-23T16:14:31.999Z</time></trkpt><trkpt lat="44.53336245423548" lon="0.9262202136525978"><ele>149.0</ele><time>2026-04-23T16:14:32.999Z</time></trkpt><trkpt lat="44.53328147141716" lon="0.9262706112020516"><ele>149.0</ele><time>2026-04-23T16:14:33.999Z</time></trkpt><trkpt lat="44.53322676227679" lon="0.9263274607424187"><ele>149.0</ele><time>2026-04-23T16:14:34.999Z</time></trkpt><trkpt lat="44.53317260497639" lon="0.9264467391259801"><ele>149.0</ele><time>2026-04-23T16:14:36.999Z</time></trkpt><trkpt lat="44.533188062661786" lon="0.926557157505161"><ele>149.0</ele><time>2026-04-23T16:14:38.999Z</time></trkpt><trkpt lat="44.53316650596429" lon="0.9266664759080635"><ele>149.0</ele><time>2026-04-23T16:14:41.999Z</time></trkpt><trkpt lat="44.53316709797761" lon="0.926514855128438"><ele>149.0</ele><time>2026-04-23T16:14:48.999Z</time></trkpt><trkpt lat="44.533178142780585" lon="0.9264204485694459"><ele>149.0</ele><time>2026-04-23T16:14:49.999Z</time></trkpt><trkpt lat="44.533184386057435" lon="0.9263269158355477"><ele>149.0</ele><time>2026-04-23T16:14:50.999Z</time></trkpt><trkpt lat="44.53323331645961" lon="0.9262397087884502"><ele>149.0</ele><time>2026-04-23T16:14:52.999Z</time></trkpt><trkpt lat="44.53330088361323" lon="0.9262560898943908"><ele>149.0</ele><time>2026-04-23T16:14:54.999Z</time></trkpt><trkpt lat="44.53337868602857" lon="0.9261928509591714"><ele>149.0</ele><time>2026-04-23T16:14:57.999Z</time></trkpt><trkpt lat="44.533468001111736" lon="0.9261529048225867"><ele>149.0</ele><time>2026-04-23T16:15:00.999Z</time></trkpt><trkpt lat="44.533555687960366" lon="0.9260760442146435"><ele>149.0</ele><time>2026-04-23T16:15:02.999Z</time></trkpt><trkpt lat="44.53365195583056" lon="0.9260140557169042"><ele>149.0</ele><time>2026-04-23T16:15:05.999Z</time></trkpt><trkpt lat="44.53372615043853" lon="0.9259888324015003"><ele>149.0</ele><time>2026-04-23T16:15:07.999Z</time></trkpt><trkpt lat="44.53383921200657" lon="0.9259211522047939"><ele>149.0</ele><time>2026-04-23T16:15:09.999Z</time></trkpt><trkpt lat="44.53391343175792" lon="0.9259158032484782"><ele>149.0</ele><time>2026-04-23T16:15:11.999Z</time></trkpt><trkpt lat="44.53389192564682" lon="0.9260128659823053"><ele>149.0</ele><time>2026-04-23T16:15:14.999Z</time></trkpt><trkpt lat="44.533824622366595" lon="0.9260451091918512"><ele>149.0</ele><time>2026-04-23T16:15:16.999Z</time></trkpt><trkpt lat="44.53373584863032" lon="0.9260621019880254"><ele>149.0</ele><time>2026-04-23T16:15:19.999Z</time></trkpt><trkpt lat="44.533669425337145" lon="0.9260826478433307"><ele>149.0</ele><time>2026-04-23T16:15:20.999Z</time></trkpt><trkpt lat="44.53357923937537" lon="0.9261090888754534"><ele>149.0</ele><time>2026-04-23T16:15:22.999Z</time></trkpt><trkpt lat="44.53348979453315" lon="0.9261433123594756"><ele>149.0</ele><time>2026-04-23T16:15:26Z</time></trkpt><trkpt lat="44.53342719137944" lon="0.9261683840190315"><ele>149.0</ele><time>2026-04-23T16:15:28Z</time></trkpt><trkpt lat="44.53331696411727" lon="0.9262184869911066"><ele>149.0</ele><time>2026-04-23T16:15:30Z</time></trkpt><trkpt lat="44.53323693988169" lon="0.9262652736768358"><ele>149.0</ele><time>2026-04-23T16:15:31Z</time></trkpt><trkpt lat="44.53314888908925" lon="0.9263136399390645"><ele>149.0</ele><time>2026-04-23T16:15:32Z</time></trkpt><trkpt lat="44.53312587959272" lon="0.9264179390911287"><ele>149.0</ele><time>2026-04-23T16:15:34Z</time></trkpt><trkpt lat="44.53322515112227" lon="0.9263718763744259"><ele>149.0</ele><time>2026-04-23T16:15:39Z</time></trkpt><trkpt lat="44.53326411463337" lon="0.9262442557889788"><ele>149.0</ele><time>2026-04-23T16:15:41Z</time></trkpt><trkpt lat="44.53338218443573" lon="0.9262193379557174"><ele>149.0</ele><time>2026-04-23T16:15:44Z</time></trkpt><trkpt lat="44.533464590095576" lon="0.9261613859686043"><ele>149.0</ele><time>2026-04-23T16:15:46Z</time></trkpt><trkpt lat="44.53355916990806" lon="0.9261193567312723"><ele>149.0</ele><time>2026-04-23T16:15:48Z</time></trkpt><trkpt lat="44.53362302229458" lon="0.9260834183953501"><ele>149.0</ele><time>2026-04-23T16:15:51Z</time></trkpt><trkpt lat="44.53368733759193" lon="0.9260452483951834"><ele>149.0</ele><time>2026-04-23T16:15:53Z</time></trkpt><trkpt lat="44.53377994281472" lon="0.9259740096347951"><ele>149.0</ele><time>2026-04-23T16:15:55Z</time></trkpt><trkpt lat="44.533841371994946" lon="0.9259350280432219"><ele>149.0</ele><time>2026-04-23T16:15:57Z</time></trkpt><trkpt lat="44.533970440891125" lon="0.9258903982307503"><ele>149.0</ele><time>2026-04-23T16:15:59Z</time></trkpt><trkpt lat="44.53393825149839" lon="0.9259938464876231"><ele>149.0</ele><time>2026-04-23T16:16:34.999Z</time></trkpt><trkpt lat="44.533857024194525" lon="0.9260193015873017"><ele>149.0</ele><time>2026-04-23T16:16:36.999Z</time></trkpt><trkpt lat="44.533794295570296" lon="0.9260436989594122"><ele>149.0</ele><time>2026-04-23T16:16:38.999Z</time></trkpt><trkpt lat="44.533732155355445" lon="0.9260697236139456"><ele>149.0</ele><time>2026-04-23T16:16:39.999Z</time></trkpt><trkpt lat="44.533664783512215" lon="0.926076349706679"><ele>149.0</ele><time>2026-04-23T16:16:40.999Z</time></trkpt><trkpt lat="44.5335880443915" lon="0.9261167949472665"><ele>149.0</ele><time>2026-04-23T16:16:42.999Z</time></trkpt><trkpt lat="44.53352615349714" lon="0.9261458987831099"><ele>149.0</ele><time>2026-04-23T16:16:43.999Z</time></trkpt><trkpt lat="44.53345244382602" lon="0.9261664263509146"><ele>149.0</ele><time>2026-04-23T16:16:45.999Z</time></trkpt><trkpt lat="44.53336117698415" lon="0.9262035642094025"><ele>149.0</ele><time>2026-04-23T16:16:47.999Z</time></trkpt><trkpt lat="44.533278376888234" lon="0.9262569721455747"><ele>149.0</ele><time>2026-04-23T16:16:50.999Z</time></trkpt><trkpt lat="44.53320720948253" lon="0.9263084881144241"><ele>149.0</ele><time>2026-04-23T16:16:51.999Z</time></trkpt><trkpt lat="44.53315398321219" lon="0.9263729569337676"><ele>149.0</ele><time>2026-04-23T16:16:52.999Z</time></trkpt><trkpt lat="44.53319002182403" lon="0.92646404026139"><ele>149.0</ele><time>2026-04-23T16:17:02.999Z</time></trkpt><trkpt lat="44.53318941045648" lon="0.9265652753427112"><ele>149.0</ele><time>2026-04-23T16:17:05.999Z</time></trkpt><trkpt lat="44.53318207890278" lon="0.9266763999778788"><ele>149.0</ele><time>2026-04-23T16:17:08.999Z</time></trkpt><trkpt lat="44.53322262303721" lon="0.9267976043109138"><ele>149.0</ele><time>2026-04-23T16:17:10.999Z</time></trkpt><trkpt lat="44.53327339299868" lon="0.9269465789897192"><ele>148.8</ele><time>2026-04-23T16:17:12.999Z</time></trkpt><trkpt lat="44.53335288153757" lon="0.9270689381841094"><ele>148.60000000000002</ele><time>2026-04-23T16:17:14.999Z</time></trkpt><trkpt lat="44.53345640921706" lon="0.9271262101252533"><ele>148.4</ele><time>2026-04-23T16:17:16.999Z</time></trkpt><trkpt lat="44.533517647042856" lon="0.9271840521180316"><ele>148.20000000000002</ele><time>2026-04-23T16:17:17.999Z</time></trkpt><trkpt lat="44.533560077682395" lon="0.9272713908753843"><ele>148.0</ele><time>2026-04-23T16:17:18.999Z</time></trkpt><trkpt lat="44.53360120208086" lon="0.9273664269488431"><ele>148.0</ele><time>2026-04-23T16:17:19.999Z</time></trkpt><trkpt lat="44.53365087015792" lon="0.9274292485941464"><ele>148.0</ele><time>2026-04-23T16:17:20.999Z</time></trkpt><trkpt lat="44.5337080042962" lon="0.9274756526955349"><ele>148.0</ele><time>2026-04-23T16:17:21.999Z</time></trkpt><trkpt lat="44.53373501157783" lon="0.9276388930597874"><ele>148.0</ele><time>2026-04-23T16:17:23.999Z</time></trkpt><trkpt lat="44.5336994411033" lon="0.9277588314553081"><ele>148.0</ele><time>2026-04-23T16:17:24.999Z</time></trkpt><trkpt lat="44.533662642686245" lon="0.9278792021315367"><ele>148.0</ele><time>2026-04-23T16:17:25.999Z</time></trkpt><trkpt lat="44.533647819500864" lon="0.9280194741952371"><ele>147.0</ele><time>2026-04-23T16:17:26.999Z</time></trkpt><trkpt lat="44.53367203271819" lon="0.9281756106340305"><ele>146.0</ele><time>2026-04-23T16:17:27.999Z</time></trkpt><trkpt lat="44.5336809543642" lon="0.9283652826089819"><ele>145.0</ele><time>2026-04-23T16:17:28.999Z</time></trkpt><trkpt lat="44.53371954770266" lon="0.9285112855514984"><ele>144.0</ele><time>2026-04-23T16:17:30Z</time></trkpt><trkpt lat="44.53374529945717" lon="0.9286077734539491"><ele>143.0</ele><time>2026-04-23T16:17:32Z</time></trkpt><trkpt lat="44.533656244317854" lon="0.928601119946623"><ele>141.83333333333331</ele><time>2026-04-23T16:17:35Z</time></trkpt><trkpt lat="44.533558445998594" lon="0.9286398760225493"><ele>140.66666666666666</ele><time>2026-04-23T16:17:38Z</time></trkpt><trkpt lat="44.53345342664259" lon="0.9286477333711579"><ele>139.5</ele><time>2026-04-23T16:17:40Z</time></trkpt><trkpt lat="44.53339049496115" lon="0.9286794333556251"><ele>138.33333333333334</ele><time>2026-04-23T16:17:42Z</time></trkpt><trkpt lat="44.533413548101" lon="0.9288218506167991"><ele>137.16666666666669</ele><time>2026-04-23T16:17:45Z</time></trkpt><trkpt lat="44.53344636949517" lon="0.9289019997470147"><ele>136.0</ele><time>2026-04-23T16:17:46Z</time></trkpt><trkpt lat="44.533464654458015" lon="0.9289948573683298"><ele>136.0</ele><time>2026-04-23T16:17:47Z</time></trkpt><trkpt lat="44.533499149549506" lon="0.9291298235245552"><ele>136.0</ele><time>2026-04-23T16:17:48Z</time></trkpt><trkpt lat="44.53354117562445" lon="0.929270817674737"><ele>136.0</ele><time>2026-04-23T16:17:49Z</time></trkpt><trkpt lat="44.533563986552615" lon="0.9293843062899565"><ele>136.0</ele><time>2026-04-23T16:17:50Z</time></trkpt><trkpt lat="44.53357041880892" lon="0.9295325214547403"><ele>136.0</ele><time>2026-04-23T16:17:52Z</time></trkpt><trkpt lat="44.53353692808894" lon="0.9296551195976375"><ele>134.6</ele><time>2026-04-23T16:17:54Z</time></trkpt><trkpt lat="44.53353402265908" lon="0.9297802783409845"><ele>133.2</ele><time>2026-04-23T16:17:56Z</time></trkpt><trkpt lat="44.5334876258435" lon="0.9299136534450115"><ele>131.8</ele><time>2026-04-23T16:17:58Z</time></trkpt><trkpt lat="44.53347955273966" lon="0.930002341556002"><ele>130.4</ele><time>2026-04-23T16:17:59Z</time></trkpt><trkpt lat="44.53352045480523" lon="0.9301703384871446"><ele>129.0</ele><time>2026-04-23T16:18:01Z</time></trkpt><trkpt lat="44.5335501458788" lon="0.9303265333101455"><ele>128.2</ele><time>2026-04-23T16:18:03Z</time></trkpt><trkpt lat="44.53352469131342" lon="0.9304143578850691"><ele>127.4</ele><time>2026-04-23T16:18:04Z</time></trkpt><trkpt lat="44.53347719801367" lon="0.9305108295633218"><ele>126.6</ele><time>2026-04-23T16:18:05Z</time></trkpt><trkpt lat="44.53339743068968" lon="0.9306040648016327"><ele>125.8</ele><time>2026-04-23T16:18:06Z</time></trkpt><trkpt lat="44.53332323562708" lon="0.9306439909866402"><ele>125.0</ele><time>2026-04-23T16:18:08Z</time></trkpt><trkpt lat="44.533255577571786" lon="0.9305052859707483"><ele>124.99999999999999</ele><time>2026-04-23T16:18:10Z</time></trkpt><trkpt lat="44.533155380422926" lon="0.9304423735417395"><ele>125.0</ele><time>2026-04-23T16:18:12Z</time></trkpt><trkpt lat="44.533094682582295" lon="0.9304765368625393"><ele>125.0</ele><time>2026-04-23T16:18:13Z</time></trkpt><trkpt lat="44.53300477352802" lon="0.930525782463688"><ele>125.0</ele><time>2026-04-23T16:18:14Z</time></trkpt><trkpt lat="44.53293364436576" lon="0.9305970473202388"><ele>124.99999999999999</ele><time>2026-04-23T16:18:15Z</time></trkpt><trkpt lat="44.53287351564099" lon="0.9306888829345688"><ele>125.0</ele><time>2026-04-23T16:18:16Z</time></trkpt><trkpt lat="44.532812236266125" lon="0.9307655913681642"><ele>125.4</ele><time>2026-04-23T16:18:17Z</time></trkpt><trkpt lat="44.532737957384114" lon="0.9308716275413204"><ele>125.8</ele><time>2026-04-23T16:18:19Z</time></trkpt><trkpt lat="44.532689920814754" lon="0.9309931097479389"><ele>126.19999999999999</ele><time>2026-04-23T16:18:21Z</time></trkpt><trkpt lat="44.53264110689053" lon="0.9310628794985834"><ele>126.6</ele><time>2026-04-23T16:18:22Z</time></trkpt><trkpt lat="44.5325322486729" lon="0.9310793117042402"><ele>127.0</ele><time>2026-04-23T16:18:24Z</time></trkpt><trkpt lat="44.53244361329161" lon="0.9310884051652115"><ele>127.0</ele><time>2026-04-23T16:18:25Z</time></trkpt><trkpt lat="44.53236937709522" lon="0.9312311628729819"><ele>127.0</ele><time>2026-04-23T16:18:27Z</time></trkpt><trkpt lat="44.53235901193695" lon="0.9313193809315692"><ele>127.0</ele><time>2026-04-23T16:18:28Z</time></trkpt><trkpt lat="44.53223031631587" lon="0.9314730591744511"><ele>127.0</ele><time>2026-04-23T16:18:30Z</time></trkpt><trkpt lat="44.5321399006977" lon="0.9315944432300733"><ele>127.0</ele><time>2026-04-23T16:18:31Z</time></trkpt><trkpt lat="44.53207403741755" lon="0.9317236716702668"><ele>126.99999999999999</ele><time>2026-04-23T16:18:32Z</time></trkpt><trkpt lat="44.53200557974213" lon="0.9318358657129037"><ele>126.99999999999999</ele><time>2026-04-23T16:18:33Z</time></trkpt><trkpt lat="44.531968992197434" lon="0.9319463013007576"><ele>127.0</ele><time>2026-04-23T16:18:34Z</time></trkpt><trkpt lat="44.531981635216944" lon="0.9321080374546131"><ele>127.0</ele><time>2026-04-23T16:18:35.999Z</time></trkpt><trkpt lat="44.532021132370986" lon="0.9322107458116279"><ele>127.0</ele><time>2026-04-23T16:18:36.999Z</time></trkpt><trkpt lat="44.53204065009196" lon="0.9323207175751675"><ele>126.99999999999999</ele><time>2026-04-23T16:18:37.999Z</time></trkpt><trkpt lat="44.532015440822924" lon="0.9324438382028396"><ele>126.99999999999999</ele><time>2026-04-23T16:18:38.999Z</time></trkpt><trkpt lat="44.53199132495643" lon="0.9325901863183993"><ele>127.0</ele><time>2026-04-23T16:18:39.999Z</time></trkpt><trkpt lat="44.5319783023666" lon="0.9327138441123445"><ele>127.0</ele><time>2026-04-23T16:18:40.999Z</time></trkpt><trkpt lat="44.53199069533167" lon="0.9328367946536452"><ele>126.19999999999999</ele><time>2026-04-23T16:18:41.999Z</time></trkpt><trkpt lat="44.53196573840141" lon="0.9329545232360017"><ele>125.39999999999999</ele><time>2026-04-23T16:18:42.999Z</time></trkpt><trkpt lat="44.53192925839308" lon="0.9330562397642436"><ele>124.60000000000001</ele><time>2026-04-23T16:18:43.999Z</time></trkpt><trkpt lat="44.53183369234153" lon="0.9331569512961454"><ele>123.80000000000001</ele><time>2026-04-23T16:18:45.999Z</time></trkpt><trkpt lat="44.53176515569258" lon="0.933184015881662"><ele>123.0</ele><time>2026-04-23T16:18:46.999Z</time></trkpt><trkpt lat="44.531730788952395" lon="0.9333177211749615"><ele>122.5</ele><time>2026-04-23T16:18:48.999Z</time></trkpt><trkpt lat="44.531725724238086" lon="0.9335165056716715"><ele>122.0</ele><time>2026-04-23T16:18:50.999Z</time></trkpt><trkpt lat="44.53170022500704" lon="0.9336664876752524"><ele>121.5</ele><time>2026-04-23T16:18:51.999Z</time></trkpt><trkpt lat="44.53167630279294" lon="0.9338341089011534"><ele>121.0</ele><time>2026-04-23T16:18:52.999Z</time></trkpt><trkpt lat="44.531666747510045" lon="0.9339620352127651"><ele>121.00000000000001</ele><time>2026-04-23T16:18:53.999Z</time></trkpt><trkpt lat="44.53164764350571" lon="0.9340685667722919"><ele>121.0</ele><time>2026-04-23T16:18:54.999Z</time></trkpt><trkpt lat="44.53160583743971" lon="0.9341690755973903"><ele>121.0</ele><time>2026-04-23T16:18:55.999Z</time></trkpt><trkpt lat="44.531545008816984" lon="0.9342343882621927"><ele>121.0</ele><time>2026-04-23T16:18:56.999Z</time></trkpt><trkpt lat="44.53150469693105" lon="0.9343562143728451"><ele>121.00000000000001</ele><time>2026-04-23T16:18:57.999Z</time></trkpt><trkpt lat="44.53150908605388" lon="0.934457481513251"><ele>121.0</ele><time>2026-04-23T16:18:58.999Z</time></trkpt><trkpt lat="44.53151681177842" lon="0.9346126230951833"><ele>119.75</ele><time>2026-04-23T16:19:00.999Z</time></trkpt><trkpt lat="44.531454547424744" lon="0.9347132686402195"><ele>118.5</ele><time>2026-04-23T16:19:01.999Z</time></trkpt><trkpt lat="44.531400110913374" lon="0.9348725063236619"><ele>117.25</ele><time>2026-04-23T16:19:02.999Z</time></trkpt><trkpt lat="44.531349805712956" lon="0.9350280143954104"><ele>116.0</ele><time>2026-04-23T16:19:03.999Z</time></trkpt><trkpt lat="44.531285078249866" lon="0.9351790100832292"><ele>115.4</ele><time>2026-04-23T16:19:04.999Z</time></trkpt><trkpt lat="44.53122577517828" lon="0.9353137173818179"><ele>114.8</ele><time>2026-04-23T16:19:05.999Z</time></trkpt><trkpt lat="44.53117943383242" lon="0.9354552672765952"><ele>114.20000000000002</ele><time>2026-04-23T16:19:06.999Z</time></trkpt><trkpt lat="44.53112963430269" lon="0.9356035933597144"><ele>113.60000000000001</ele><time>2026-04-23T16:19:07.999Z</time></trkpt><trkpt lat="44.53107577889581" lon="0.9357236560701294"><ele>113.0</ele><time>2026-04-23T16:19:08.999Z</time></trkpt><trkpt lat="44.53099867211451" lon="0.9358548123180473"><ele>112.0</ele><time>2026-04-23T16:19:09.999Z</time></trkpt><trkpt lat="44.53093739417338" lon="0.936033285461022"><ele>111.0</ele><time>2026-04-23T16:19:10.999Z</time></trkpt><trkpt lat="44.530884506130356" lon="0.9361807623546539"><ele>110.0</ele><time>2026-04-23T16:19:11.999Z</time></trkpt><trkpt lat="44.53082251858956" lon="0.9363138606747393"><ele>109.0</ele><time>2026-04-23T16:19:12.999Z</time></trkpt><trkpt lat="44.53076679416256" lon="0.9364282794718193"><ele>109.00000000000001</ele><time>2026-04-23T16:19:13.999Z</time></trkpt><trkpt lat="44.53070811456217" lon="0.9365309892946665"><ele>109.0</ele><time>2026-04-23T16:19:14.999Z</time></trkpt><trkpt lat="44.530664643227134" lon="0.9366391152925155"><ele>109.0</ele><time>2026-04-23T16:19:15.999Z</time></trkpt><trkpt lat="44.53063280426445" lon="0.9367301710190269"><ele>109.0</ele><time>2026-04-23T16:19:16.999Z</time></trkpt><trkpt lat="44.53058767807391" lon="0.9368192661663471"><ele>109.00000000000001</ele><time>2026-04-23T16:19:17.999Z</time></trkpt><trkpt lat="44.53055111312167" lon="0.936895197177938"><ele>109.0</ele><time>2026-04-23T16:19:18.999Z</time></trkpt><trkpt lat="44.5305244014415" lon="0.9369781329050083"><ele>108.33333333333334</ele><time>2026-04-23T16:19:19.999Z</time></trkpt><trkpt lat="44.53052015886403" lon="0.9370762532661251"><ele>107.66666666666667</ele><time>2026-04-23T16:19:21.999Z</time></trkpt><trkpt lat="44.530503948349065" lon="0.9372176068441123"><ele>107.0</ele><time>2026-04-23T16:19:24.999Z</time></trkpt><trkpt lat="44.53051055341981" lon="0.9373566497085278"><ele>106.33333333333334</ele><time>2026-04-23T16:19:26.999Z</time></trkpt><trkpt lat="44.53047799311997" lon="0.937435770426427"><ele>105.66666666666667</ele><time>2026-04-23T16:19:28.999Z</time></trkpt><trkpt lat="44.530482083836326" lon="0.9375384159230421"><ele>105.0</ele><time>2026-04-23T16:19:40Z</time></trkpt><trkpt lat="44.5305070303736" lon="0.9373881035130397"><ele>105.0</ele><time>2026-04-23T16:19:44Z</time></trkpt><trkpt lat="44.53051872829931" lon="0.9372895926241255"><ele>105.0</ele><time>2026-04-23T16:19:45Z</time></trkpt><trkpt lat="44.530515117745054" lon="0.9371770996192952"><ele>105.0</ele><time>2026-04-23T16:19:46Z</time></trkpt><trkpt lat="44.53050988797153" lon="0.9370577426134961"><ele>105.0</ele><time>2026-04-23T16:19:48Z</time></trkpt><trkpt lat="44.53054120716522" lon="0.9369570603103626"><ele>105.0</ele><time>2026-04-23T16:19:52Z</time></trkpt><trkpt lat="44.53060072477596" lon="0.9368084536200874"><ele>105.0</ele><time>2026-04-23T16:19:54Z</time></trkpt><trkpt lat="44.53065600012066" lon="0.936690199028768"><ele>105.0</ele><time>2026-04-23T16:19:55Z</time></trkpt><trkpt lat="44.53071029580375" lon="0.9365739172560085"><ele>105.0</ele><time>2026-04-23T16:19:57Z</time></trkpt><trkpt lat="44.530727222231334" lon="0.9364876492807841"><ele>105.0</ele><time>2026-04-23T16:20:04Z</time></trkpt><trkpt lat="44.53069968387772" lon="0.9365769291926761"><ele>105.0</ele><time>2026-04-23T16:21:39.999Z</time></trkpt><trkpt lat="44.53065611313134" lon="0.9366740351586048"><ele>105.0</ele><time>2026-04-23T16:21:45Z</time></trkpt><trkpt lat="44.53059532492323" lon="0.9368276698320401"><ele>105.0</ele><time>2026-04-23T16:21:47Z</time></trkpt><trkpt lat="44.530558623268675" lon="0.9369180579765521"><ele>105.0</ele><time>2026-04-23T16:21:48Z</time></trkpt><trkpt lat="44.530520337788786" lon="0.9370468405109871"><ele>105.0</ele><time>2026-04-23T16:21:50Z</time></trkpt><trkpt lat="44.53052494759164" lon="0.9372146338683609"><ele>105.0</ele><time>2026-04-23T16:21:52Z</time></trkpt><trkpt lat="44.53052313854446" lon="0.9373900754500317"><ele>105.0</ele><time>2026-04-23T16:21:54Z</time></trkpt><trkpt lat="44.53050012639582" lon="0.9375119159985104"><ele>105.0</ele><time>2026-04-23T16:21:56Z</time></trkpt><trkpt lat="44.530582890111894" lon="0.9376522171898004"><ele>104.16666666666667</ele><time>2026-04-23T16:21:58Z</time></trkpt><trkpt lat="44.530653962943646" lon="0.9377752024165737"><ele>103.33333333333334</ele><time>2026-04-23T16:21:59Z</time></trkpt><trkpt lat="44.53070394194194" lon="0.9379118026925597"><ele>102.5</ele><time>2026-04-23T16:22:00Z</time></trkpt><trkpt lat="44.530734802081525" lon="0.9380188695428481"><ele>101.66666666666667</ele><time>2026-04-23T16:22:01Z</time></trkpt><trkpt lat="44.53077822747155" lon="0.9380980058436111"><ele>100.83333333333334</ele><time>2026-04-23T16:22:02Z</time></trkpt><trkpt lat="44.53083783600303" lon="0.9381373601608215"><ele>100.0</ele><time>2026-04-23T16:22:03Z</time></trkpt><trkpt lat="44.53090393573507" lon="0.9382153723348131"><ele>100.0</ele><time>2026-04-23T16:23:04.999Z</time></trkpt><trkpt lat="44.530989850867265" lon="0.9383489571681356"><ele>100.0</ele><time>2026-04-23T16:23:06.999Z</time></trkpt><trkpt lat="44.5310276830795" lon="0.9384395921978917"><ele>100.0</ele><time>2026-04-23T16:23:07.999Z</time></trkpt><trkpt lat="44.53106812404849" lon="0.938562855517569"><ele>100.0</ele><time>2026-04-23T16:23:09.999Z</time></trkpt><trkpt lat="44.53111087884863" lon="0.9386290420837652"><ele>100.0</ele><time>2026-04-23T16:23:12.999Z</time></trkpt><trkpt lat="44.53115103585835" lon="0.9384929133287805"><ele>100.0</ele><time>2026-04-23T16:23:15.999Z</time></trkpt><trkpt lat="44.53117099764734" lon="0.9383968783483944"><ele>100.0</ele><time>2026-04-23T16:23:16.999Z</time></trkpt><trkpt lat="44.53117512038198" lon="0.938219171777401"><ele>100.0</ele><time>2026-04-23T16:23:18.999Z</time></trkpt><trkpt lat="44.531184094612385" lon="0.9381313972200419"><ele>100.0</ele><time>2026-04-23T16:23:19.999Z</time></trkpt><trkpt lat="44.531210122046076" lon="0.938014643655659"><ele>100.0</ele><time>2026-04-23T16:23:21.999Z</time></trkpt><trkpt lat="44.53124764982557" lon="0.9378187402092856"><ele>102.8</ele><time>2026-04-23T16:23:23.999Z</time></trkpt><trkpt lat="44.53127004025356" lon="0.9376806846114519"><ele>105.6</ele><time>2026-04-23T16:23:24.999Z</time></trkpt><trkpt lat="44.53128196044512" lon="0.9375895543345483"><ele>108.4</ele><time>2026-04-23T16:23:25.999Z</time></trkpt><trkpt lat="44.53127360948764" lon="0.9374560104379591"><ele>111.2</ele><time>2026-04-23T16:23:27.999Z</time></trkpt><trkpt lat="44.53128521064552" lon="0.9372818028476637"><ele>114.0</ele><time>2026-04-23T16:23:29.999Z</time></trkpt><trkpt lat="44.531303381859324" lon="0.9371658788292033"><ele>115.0</ele><time>2026-04-23T16:23:30.999Z</time></trkpt><trkpt lat="44.53134242662874" lon="0.9370350167573418"><ele>116.0</ele><time>2026-04-23T16:23:31.999Z</time></trkpt><trkpt lat="44.53137207017916" lon="0.9368933533390477"><ele>117.0</ele><time>2026-04-23T16:23:32.999Z</time></trkpt><trkpt lat="44.53141972384946" lon="0.9367636156435439"><ele>118.0</ele><time>2026-04-23T16:23:33.999Z</time></trkpt><trkpt lat="44.53149510143876" lon="0.9366759386996826"><ele>119.0</ele><time>2026-04-23T16:23:34.999Z</time></trkpt><trkpt lat="44.53159088781664" lon="0.9365789478377772"><ele>119.0</ele><time>2026-04-23T16:23:35.999Z</time></trkpt><trkpt lat="44.53168416741146" lon="0.9364641566671726"><ele>119.0</ele><time>2026-04-23T16:23:36.999Z</time></trkpt><trkpt lat="44.531761900716695" lon="0.936317717973692"><ele>119.0</ele><time>2026-04-23T16:23:37.999Z</time></trkpt><trkpt lat="44.531833325033304" lon="0.9361789849373316"><ele>119.0</ele><time>2026-04-23T16:23:38.999Z</time></trkpt><trkpt lat="44.53189948814362" lon="0.9360564917784103"><ele>119.0</ele><time>2026-04-23T16:23:39.999Z</time></trkpt><trkpt lat="44.5319866653311" lon="0.9359526084814931"><ele>119.0</ele><time>2026-04-23T16:23:40.999Z</time></trkpt><trkpt lat="44.53206917237481" lon="0.935869433932581"><ele>119.0</ele><time>2026-04-23T16:23:41.999Z</time></trkpt><trkpt lat="44.532153195143685" lon="0.9357859198588889"><ele>119.0</ele><time>2026-04-23T16:23:42.999Z</time></trkpt><trkpt lat="44.53225426308246" lon="0.9357491249392914"><ele>119.0</ele><time>2026-04-23T16:23:43.999Z</time></trkpt><trkpt lat="44.53235670666456" lon="0.935734721482589"><ele>120.66666666666666</ele><time>2026-04-23T16:23:44.999Z</time></trkpt><trkpt lat="44.53246271066494" lon="0.9357438733471594"><ele>122.33333333333333</ele><time>2026-04-23T16:23:45.999Z</time></trkpt><trkpt lat="44.532551218469116" lon="0.9357790731631535"><ele>124.0</ele><time>2026-04-23T16:23:46.999Z</time></trkpt><trkpt lat="44.532620936534656" lon="0.935774930778383"><ele>125.66666666666666</ele><time>2026-04-23T16:23:48Z</time></trkpt><trkpt lat="44.532683527711384" lon="0.9357216384889115"><ele>127.33333333333333</ele><time>2026-04-23T16:23:49Z</time></trkpt><trkpt lat="44.53272616629394" lon="0.9356486214713792"><ele>129.0</ele><time>2026-04-23T16:23:50Z</time></trkpt><trkpt lat="44.532746011425544" lon="0.9355536173151918"><ele>129.0</ele><time>2026-04-23T16:23:51Z</time></trkpt><trkpt lat="44.53274743850965" lon="0.9354244900721155"><ele>129.0</ele><time>2026-04-23T16:23:52Z</time></trkpt><trkpt lat="44.53270341475082" lon="0.9353015579093629"><ele>129.0</ele><time>2026-04-23T16:23:53Z</time></trkpt><trkpt lat="44.532685761015486" lon="0.9351611744119621"><ele>129.0</ele><time>2026-04-23T16:23:54Z</time></trkpt><trkpt lat="44.53271814292613" lon="0.9350573686643092"><ele>129.0</ele><time>2026-04-23T16:23:55Z</time></trkpt><trkpt lat="44.53276449187063" lon="0.9349500495184934"><ele>128.83333333333334</ele><time>2026-04-23T16:23:56Z</time></trkpt><trkpt lat="44.53281225237307" lon="0.9348667278653958"><ele>128.66666666666666</ele><time>2026-04-23T16:23:57Z</time></trkpt><trkpt lat="44.532861025984374" lon="0.9347882397857755"><ele>128.5</ele><time>2026-04-23T16:23:58Z</time></trkpt><trkpt lat="44.53290286357621" lon="0.934688574589854"><ele>128.33333333333331</ele><time>2026-04-23T16:23:59Z</time></trkpt><trkpt lat="44.53294910654572" lon="0.9345813230018217"><ele>128.16666666666666</ele><time>2026-04-23T16:24:00Z</time></trkpt><trkpt lat="44.532987559719096" lon="0.9344958114652765"><ele>128.0</ele><time>2026-04-23T16:24:01Z</time></trkpt><trkpt lat="44.53302131225141" lon="0.934415056720281"><ele>129.66666666666666</ele><time>2026-04-23T16:24:02Z</time></trkpt><trkpt lat="44.533106687387146" lon="0.9342847950327576"><ele>131.33333333333331</ele><time>2026-04-23T16:24:04Z</time></trkpt><trkpt lat="44.5331563732363" lon="0.9342239754726135"><ele>133.0</ele><time>2026-04-23T16:24:05Z</time></trkpt><trkpt lat="44.533212731497244" lon="0.9341703652211066"><ele>134.66666666666666</ele><time>2026-04-23T16:24:06Z</time></trkpt><trkpt lat="44.53326519908298" lon="0.9341203309387693"><ele>136.33333333333334</ele><time>2026-04-23T16:24:07Z</time></trkpt><trkpt lat="44.53333657581635" lon="0.9340381557844506"><ele>138.0</ele><time>2026-04-23T16:24:09Z</time></trkpt><trkpt lat="44.533425910660284" lon="0.9339669156808506"><ele>138.8</ele><time>2026-04-23T16:24:11Z</time></trkpt><trkpt lat="44.533528906660926" lon="0.9339606143269632"><ele>139.60000000000002</ele><time>2026-04-23T16:24:13Z</time></trkpt><trkpt lat="44.533632204247716" lon="0.9339272858703769"><ele>140.39999999999998</ele><time>2026-04-23T16:24:15Z</time></trkpt><trkpt lat="44.533748820765645" lon="0.9338508544148802"><ele>141.2</ele><time>2026-04-23T16:24:17Z</time></trkpt><trkpt lat="44.53380569551506" lon="0.933796008525494"><ele>142.0</ele><time>2026-04-23T16:24:18Z</time></trkpt><trkpt lat="44.533895141776455" lon="0.9337336325104698"><ele>143.0</ele><time>2026-04-23T16:24:20Z</time></trkpt><trkpt lat="44.53397941158645" lon="0.9336533640927489"><ele>144.0</ele><time>2026-04-23T16:24:22Z</time></trkpt><trkpt lat="44.53403247528978" lon="0.9336054977152956"><ele>145.0</ele><time>2026-04-23T16:24:23Z</time></trkpt><trkpt lat="44.53412333560166" lon="0.9335661983318017"><ele>146.0</ele><time>2026-04-23T16:24:25Z</time></trkpt><trkpt lat="44.53420322192844" lon="0.9335716305212992"><ele>147.0</ele><time>2026-04-23T16:24:27Z</time></trkpt><trkpt lat="44.534284705034274" lon="0.9336497405511115"><ele>148.0</ele><time>2026-04-23T16:24:29Z</time></trkpt><trkpt lat="44.53436588777005" lon="0.933779723138067"><ele>148.0</ele><time>2026-04-23T16:24:31Z</time></trkpt><trkpt lat="44.53446304370032" lon="0.933852675529542"><ele>148.0</ele><time>2026-04-23T16:24:33Z</time></trkpt><trkpt lat="44.53452688541916" lon="0.933852104102775"><ele>148.0</ele><time>2026-04-23T16:24:34Z</time></trkpt><trkpt lat="44.53462468290595" lon="0.9338290973957717"><ele>148.0</ele><time>2026-04-23T16:24:36Z</time></trkpt><trkpt lat="44.534729335385116" lon="0.93378163147714"><ele>148.0</ele><time>2026-04-23T16:24:37.999Z</time></trkpt><trkpt lat="44.5348343450454" lon="0.9337125199700816"><ele>149.20000000000002</ele><time>2026-04-23T16:24:39.999Z</time></trkpt><trkpt lat="44.534914236259965" lon="0.9336749695293326"><ele>150.4</ele><time>2026-04-23T16:24:40.999Z</time></trkpt><trkpt lat="44.534984467247284" lon="0.9336381593146714"><ele>151.60000000000002</ele><time>2026-04-23T16:24:41.999Z</time></trkpt><trkpt lat="44.535051188206964" lon="0.933593692329175"><ele>152.8</ele><time>2026-04-23T16:24:42.999Z</time></trkpt><trkpt lat="44.535167686409224" lon="0.9335316779224023"><ele>154.0</ele><time>2026-04-23T16:24:44.999Z</time></trkpt><trkpt lat="44.53526803095769" lon="0.9335284393307163"><ele>154.0</ele><time>2026-04-23T16:24:46.999Z</time></trkpt><trkpt lat="44.535367285515385" lon="0.9336400267557757"><ele>154.0</ele><time>2026-04-23T16:24:48.999Z</time></trkpt><trkpt lat="44.5354153384102" lon="0.9337023675217183"><ele>154.0</ele><time>2026-04-23T16:24:49.999Z</time></trkpt><trkpt lat="44.535538666387275" lon="0.9336622719654554"><ele>154.0</ele><time>2026-04-23T16:24:51.999Z</time></trkpt><trkpt lat="44.53561156936988" lon="0.9336004756990022"><ele>154.0</ele><time>2026-04-23T16:24:52.999Z</time></trkpt><trkpt lat="44.53569378907949" lon="0.933550446589089"><ele>154.25</ele><time>2026-04-23T16:24:53.999Z</time></trkpt><trkpt lat="44.53578111853201" lon="0.9334463072209901"><ele>154.5</ele><time>2026-04-23T16:24:54.999Z</time></trkpt><trkpt lat="44.53588309613641" lon="0.9333552870655786"><ele>154.75</ele><time>2026-04-23T16:24:55.999Z</time></trkpt><trkpt lat="44.53599121421051" lon="0.9332573358286649"><ele>155.0</ele><time>2026-04-23T16:24:56.999Z</time></trkpt><trkpt lat="44.53609720332208" lon="0.9331481200538938"><ele>155.4</ele><time>2026-04-23T16:24:57.999Z</time></trkpt><trkpt lat="44.5361881513041" lon="0.933040084134824"><ele>155.8</ele><time>2026-04-23T16:24:58.999Z</time></trkpt><trkpt lat="44.53626568930818" lon="0.9329651755043687"><ele>156.2</ele><time>2026-04-23T16:24:59.999Z</time></trkpt><trkpt lat="44.53634068733984" lon="0.932905151833178"><ele>156.6</ele><time>2026-04-23T16:25:00.999Z</time></trkpt><trkpt lat="44.536408964778346" lon="0.9328889811873552"><ele>157.0</ele><time>2026-04-23T16:25:01.999Z</time></trkpt><trkpt lat="44.53647538593466" lon="0.9329557899740872"><ele>157.16666666666669</ele><time>2026-04-23T16:25:02.999Z</time></trkpt><trkpt lat="44.536519271007414" lon="0.9330512851610216"><ele>157.33333333333334</ele><time>2026-04-23T16:25:03.999Z</time></trkpt><trkpt lat="44.536561322744795" lon="0.9331440211421723"><ele>157.5</ele><time>2026-04-23T16:25:04.999Z</time></trkpt><trkpt lat="44.53659559936217" lon="0.9332229555134546"><ele>157.66666666666666</ele><time>2026-04-23T16:25:05.999Z</time></trkpt><trkpt lat="44.536633108801816" lon="0.9333000778678712"><ele>157.83333333333331</ele><time>2026-04-23T16:25:06.999Z</time></trkpt><trkpt lat="44.53667630910734" lon="0.9333871986783671"><ele>158.0</ele><time>2026-04-23T16:25:07.999Z</time></trkpt><trkpt lat="44.53672335784482" lon="0.9334820826326432"><ele>157.33333333333331</ele><time>2026-04-23T16:25:08.999Z</time></trkpt><trkpt lat="44.536773017145144" lon="0.9335841499383305"><ele>156.66666666666666</ele><time>2026-04-23T16:25:09.999Z</time></trkpt><trkpt lat="44.53681857318005" lon="0.9336827646115211"><ele>156.0</ele><time>2026-04-23T16:25:10.999Z</time></trkpt><trkpt lat="44.53686842066606" lon="0.9337952575247654"><ele>155.33333333333334</ele><time>2026-04-23T16:25:11.999Z</time></trkpt><trkpt lat="44.53692068628193" lon="0.933871450303872"><ele>154.66666666666669</ele><time>2026-04-23T16:25:12.999Z</time></trkpt><trkpt lat="44.53698493453135" lon="0.9339901230201088"><ele>154.0</ele><time>2026-04-23T16:25:14.999Z</time></trkpt><trkpt lat="44.53705449696294" lon="0.9340407320948673"><ele>153.33333333333334</ele><time>2026-04-23T16:25:16.999Z</time></trkpt><trkpt lat="44.53711365662831" lon="0.9339920916537666"><ele>152.66666666666669</ele><time>2026-04-23T16:25:18.999Z</time></trkpt><trkpt lat="44.53716958445622" lon="0.9339443484391923"><ele>152.0</ele><time>2026-04-23T16:25:19.999Z</time></trkpt><trkpt lat="44.53720647153831" lon="0.9338529273744216"><ele>151.33333333333334</ele><time>2026-04-23T16:25:20.999Z</time></trkpt><trkpt lat="44.53727845184292" lon="0.9337145426976187"><ele>150.66666666666666</ele><time>2026-04-23T16:25:22.999Z</time></trkpt><trkpt lat="44.537317804103324" lon="0.9336434958231314"><ele>150.0</ele><time>2026-04-23T16:25:23.999Z</time></trkpt><trkpt lat="44.53736968782124" lon="0.9335376096234725"><ele>150.0</ele><time>2026-04-23T16:25:25.999Z</time></trkpt><trkpt lat="44.53745951507109" lon="0.9334109752802043"><ele>150.0</ele><time>2026-04-23T16:25:27.999Z</time></trkpt><trkpt lat="44.5374879184949" lon="0.9332910253197114"><ele>150.0</ele><time>2026-04-23T16:25:28.999Z</time></trkpt><trkpt lat="44.537562975737536" lon="0.9331988328576445"><ele>150.0</ele><time>2026-04-23T16:25:29.999Z</time></trkpt><trkpt lat="44.53759774131528" lon="0.9330946635816698"><ele>150.0</ele><time>2026-04-23T16:25:30.999Z</time></trkpt><trkpt lat="44.53764707499442" lon="0.9329452359797396"><ele>150.6</ele><time>2026-04-23T16:25:32.999Z</time></trkpt><trkpt lat="44.53765385677006" lon="0.9327771393123013"><ele>151.2</ele><time>2026-04-23T16:25:34.999Z</time></trkpt><trkpt lat="44.53759285783558" lon="0.9326760620895823"><ele>151.8</ele><time>2026-04-23T16:25:35.999Z</time></trkpt><trkpt lat="44.53754036380627" lon="0.9325582542282554"><ele>152.4</ele><time>2026-04-23T16:25:36.999Z</time></trkpt><trkpt lat="44.537506118178825" lon="0.9324332430409451"><ele>153.0</ele><time>2026-04-23T16:25:37.999Z</time></trkpt><trkpt lat="44.53751623593584" lon="0.932319562934422"><ele>153.6</ele><time>2026-04-23T16:25:38.999Z</time></trkpt><trkpt lat="44.53754086806082" lon="0.9322134761938132"><ele>154.20000000000002</ele><time>2026-04-23T16:25:39.999Z</time></trkpt><trkpt lat="44.537589212960285" lon="0.9320855114489726"><ele>154.8</ele><time>2026-04-23T16:25:40.999Z</time></trkpt><trkpt lat="44.537636293031255" lon="0.9319280762832738"><ele>155.4</ele><time>2026-04-23T16:25:41.999Z</time></trkpt><trkpt lat="44.53770337332895" lon="0.9317822230343487"><ele>156.0</ele><time>2026-04-23T16:25:42.999Z</time></trkpt><trkpt lat="44.537775985264794" lon="0.9316275225415327"><ele>156.0</ele><time>2026-04-23T16:25:43.999Z</time></trkpt><trkpt lat="44.53784219336916" lon="0.9314496034144077"><ele>156.0</ele><time>2026-04-23T16:25:44.999Z</time></trkpt><trkpt lat="44.537908043362755" lon="0.9312864199620908"><ele>156.0</ele><time>2026-04-23T16:25:45.999Z</time></trkpt><trkpt lat="44.53797933125265" lon="0.9311536030447385"><ele>156.0</ele><time>2026-04-23T16:25:46.999Z</time></trkpt><trkpt lat="44.538036030990625" lon="0.931031692353849"><ele>156.2</ele><time>2026-04-23T16:25:47.999Z</time></trkpt><trkpt lat="44.538083252258424" lon="0.9309114218381465"><ele>156.39999999999998</ele><time>2026-04-23T16:25:48.999Z</time></trkpt><trkpt lat="44.538141278300905" lon="0.9307909474973026"><ele>156.6</ele><time>2026-04-23T16:25:49.999Z</time></trkpt><trkpt lat="44.53820174927578" lon="0.9306556925946732"><ele>156.79999999999998</ele><time>2026-04-23T16:25:50.999Z</time></trkpt><trkpt lat="44.538270846765414" lon="0.9304974963364728"><ele>157.0</ele><time>2026-04-23T16:25:51.999Z</time></trkpt><trkpt lat="44.5383496932862" lon="0.930328710195322"><ele>157.25</ele><time>2026-04-23T16:25:52.999Z</time></trkpt><trkpt lat="44.53843068398388" lon="0.930138452935757"><ele>157.5</ele><time>2026-04-23T16:25:54Z</time></trkpt><trkpt lat="44.53851051737584" lon="0.9299716162700683"><ele>157.75</ele><time>2026-04-23T16:25:55Z</time></trkpt><trkpt lat="44.53857365070262" lon="0.9298154091746507"><ele>158.0</ele><time>2026-04-23T16:25:56Z</time></trkpt><trkpt lat="44.53863868114333" lon="0.9296747180233571"><ele>158.0</ele><time>2026-04-23T16:25:57Z</time></trkpt><trkpt lat="44.538708094462535" lon="0.9295427026762394"><ele>158.0</ele><time>2026-04-23T16:25:58Z</time></trkpt><trkpt lat="44.538781064060636" lon="0.9294162067681057"><ele>158.0</ele><time>2026-04-23T16:25:59Z</time></trkpt><trkpt lat="44.53886235923358" lon="0.9292724473586286"><ele>158.0</ele><time>2026-04-23T16:26:00Z</time></trkpt><trkpt lat="44.538942162169434" lon="0.9291307544907309"><ele>158.0</ele><time>2026-04-23T16:26:01Z</time></trkpt><trkpt lat="44.53902409651127" lon="0.9289693563015197"><ele>158.0</ele><time>2026-04-23T16:26:02Z</time></trkpt><trkpt lat="44.53910691290333" lon="0.9288363490758684"><ele>158.0</ele><time>2026-04-23T16:26:03Z</time></trkpt><trkpt lat="44.53917047576339" lon="0.9287105933023359"><ele>158.0</ele><time>2026-04-23T16:26:04Z</time></trkpt><trkpt lat="44.53923561541091" lon="0.9285865473589645"><ele>158.0</ele><time>2026-04-23T16:26:05Z</time></trkpt><trkpt lat="44.539305080318194" lon="0.9284583045434235"><ele>158.0</ele><time>2026-04-23T16:26:06Z</time></trkpt><trkpt lat="44.5393782388918" lon="0.9283294963484893"><ele>158.0</ele><time>2026-04-23T16:26:07Z</time></trkpt><trkpt lat="44.53945352509363" lon="0.9281912724335374"><ele>158.0</ele><time>2026-04-23T16:26:08Z</time></trkpt><trkpt lat="44.53952397484047" lon="0.9280582155181436"><ele>157.5</ele><time>2026-04-23T16:26:09Z</time></trkpt><trkpt lat="44.53959435061936" lon="0.9279285053830996"><ele>157.0</ele><time>2026-04-23T16:26:10Z</time></trkpt><trkpt lat="44.53969376441003" lon="0.9278111092609849"><ele>156.5</ele><time>2026-04-23T16:26:11Z</time></trkpt><trkpt lat="44.5397921481104" lon="0.9276494055803706"><ele>156.0</ele><time>2026-04-23T16:26:12Z</time></trkpt><trkpt lat="44.53989374758593" lon="0.9274760048347739"><ele>156.8</ele><time>2026-04-23T16:26:13Z</time></trkpt><trkpt lat="44.53997316344731" lon="0.9273341931913233"><ele>157.6</ele><time>2026-04-23T16:26:14Z</time></trkpt><trkpt lat="44.54002965362921" lon="0.9272179693276151"><ele>158.4</ele><time>2026-04-23T16:26:15Z</time></trkpt><trkpt lat="44.54007206223068" lon="0.9270965396228497"><ele>159.2</ele><time>2026-04-23T16:26:16Z</time></trkpt><trkpt lat="44.54010524419595" lon="0.9269959258685097"><ele>160.0</ele><time>2026-04-23T16:26:17Z</time></trkpt><trkpt lat="44.54016824561679" lon="0.9268604809562345"><ele>160.0</ele><time>2026-04-23T16:26:19Z</time></trkpt><trkpt lat="44.54029444321634" lon="0.926884458310446"><ele>160.0</ele><time>2026-04-23T16:26:21Z</time></trkpt><trkpt lat="44.5403707610658" lon="0.926918851987556"><ele>160.0</ele><time>2026-04-23T16:26:22Z</time></trkpt><trkpt lat="44.540438056127144" lon="0.9269239556470281"><ele>160.0</ele><time>2026-04-23T16:26:23Z</time></trkpt><trkpt lat="44.54052130543094" lon="0.9269281947383465"><ele>160.0</ele><time>2026-04-23T16:26:24Z</time></trkpt><trkpt lat="44.54058681660026" lon="0.926930186185601"><ele>160.0</ele><time>2026-04-23T16:26:25Z</time></trkpt><trkpt lat="44.54069112873466" lon="0.9269655474255272"><ele>159.5</ele><time>2026-04-23T16:26:27Z</time></trkpt><trkpt lat="44.540760639647104" lon="0.9269944177827814"><ele>159.0</ele><time>2026-04-23T16:26:28Z</time></trkpt><trkpt lat="44.540825447323954" lon="0.9270590179554481"><ele>158.5</ele><time>2026-04-23T16:26:29Z</time></trkpt><trkpt lat="44.54087970148595" lon="0.9271306560058138"><ele>158.0</ele><time>2026-04-23T16:26:30Z</time></trkpt><trkpt lat="44.540939028754735" lon="0.927197732600306"><ele>157.5</ele><time>2026-04-23T16:26:31Z</time></trkpt><trkpt lat="44.541029600307894" lon="0.9272200145445101"><ele>157.0</ele><time>2026-04-23T16:26:32Z</time></trkpt><trkpt lat="44.54110704659728" lon="0.9272433567515117"><ele>157.0</ele><time>2026-04-23T16:26:33Z</time></trkpt><trkpt lat="44.54119086805858" lon="0.9272586453192567"><ele>157.0</ele><time>2026-04-23T16:26:34Z</time></trkpt><trkpt lat="44.54128527448732" lon="0.9272776488689136"><ele>157.0</ele><time>2026-04-23T16:26:36Z</time></trkpt><trkpt lat="44.54137771766388" lon="0.9273675304012828"><ele>157.0</ele><time>2026-04-23T16:26:38Z</time></trkpt><trkpt lat="44.54144028443626" lon="0.9274190187697844"><ele>157.0</ele><time>2026-04-23T16:26:40Z</time></trkpt><trkpt lat="44.54154849760617" lon="0.9274382032424578"><ele>154.75</ele><time>2026-04-23T16:26:42.999Z</time></trkpt><trkpt lat="44.541640571050664" lon="0.9274861181401249"><ele>152.5</ele><time>2026-04-23T16:26:43.999Z</time></trkpt><trkpt lat="44.54177054912205" lon="0.9275255650646447"><ele>150.25</ele><time>2026-04-23T16:26:44.999Z</time></trkpt><trkpt lat="44.541907449059494" lon="0.9275806767159925"><ele>148.0</ele><time>2026-04-23T16:26:45.999Z</time></trkpt><trkpt lat="44.542063635284414" lon="0.9276281674088083"><ele>147.5</ele><time>2026-04-23T16:26:46.999Z</time></trkpt><trkpt lat="44.542225396840905" lon="0.9276772636396784"><ele>147.0</ele><time>2026-04-23T16:26:47.999Z</time></trkpt><trkpt lat="44.54235010422112" lon="0.9277509613376049"><ele>146.5</ele><time>2026-04-23T16:26:48.999Z</time></trkpt><trkpt lat="44.542450035685064" lon="0.927794973545143"><ele>146.0</ele><time>2026-04-23T16:26:49.999Z</time></trkpt><trkpt lat="44.54252606499119" lon="0.9278974634640056"><ele>146.0</ele><time>2026-04-23T16:26:50.999Z</time></trkpt><trkpt lat="44.54256297753642" lon="0.9280419908787172"><ele>146.0</ele><time>2026-04-23T16:26:51.999Z</time></trkpt><trkpt lat="44.542627201512595" lon="0.9279410312248086"><ele>146.0</ele><time>2026-04-23T16:26:52.999Z</time></trkpt><trkpt lat="44.54262569714943" lon="0.9280511992851577"><ele>146.0</ele><time>2026-04-23T16:27:20.999Z</time></trkpt><trkpt lat="44.542721762806494" lon="0.9281655370593447"><ele>146.0</ele><time>2026-04-23T16:27:22.999Z</time></trkpt><trkpt lat="44.54279342742327" lon="0.9282077368384617"><ele>146.0</ele><time>2026-04-23T16:27:24.999Z</time></trkpt><trkpt lat="44.54287240690944" lon="0.9282478296000433"><ele>146.0</ele><time>2026-04-23T16:27:26.999Z</time></trkpt><trkpt lat="44.5429703959342" lon="0.9282562692129767"><ele>146.0</ele><time>2026-04-23T16:27:28.999Z</time></trkpt><trkpt lat="44.5430242128409" lon="0.9283496342317903"><ele>146.0</ele><time>2026-04-23T16:27:30.999Z</time></trkpt><trkpt lat="44.5430593933098" lon="0.9284365352943774"><ele>146.0</ele><time>2026-04-23T16:27:32.999Z</time></trkpt><trkpt lat="44.5431057051858" lon="0.9285354779890506"><ele>146.0</ele><time>2026-04-23T16:27:34.999Z</time></trkpt><trkpt lat="44.54319150892842" lon="0.9286648846294263"><ele>144.33333333333331</ele><time>2026-04-23T16:27:36.999Z</time></trkpt><trkpt lat="44.543233151749284" lon="0.9287476235448658"><ele>142.66666666666666</ele><time>2026-04-23T16:27:37.999Z</time></trkpt><trkpt lat="44.543289485562646" lon="0.9288506367497696"><ele>141.0</ele><time>2026-04-23T16:27:40.999Z</time></trkpt><trkpt lat="44.5433277126774" lon="0.9289474116028805"><ele>139.33333333333334</ele><time>2026-04-23T16:27:41.999Z</time></trkpt><trkpt lat="44.5433710732635" lon="0.929016794484938"><ele>137.66666666666669</ele><time>2026-04-23T16:27:42.999Z</time></trkpt><trkpt lat="44.543411679913376" lon="0.9290850328955856"><ele>136.0</ele><time>2026-04-23T16:27:43.999Z</time></trkpt><trkpt lat="44.54347008975876" lon="0.9292000227527383"><ele>135.2</ele><time>2026-04-23T16:27:45.999Z</time></trkpt><trkpt lat="44.543528694677285" lon="0.9293337854095491"><ele>134.39999999999998</ele><time>2026-04-23T16:27:47.999Z</time></trkpt><trkpt lat="44.54357183356467" lon="0.9294514412184963"><ele>133.6</ele><time>2026-04-23T16:27:49.999Z</time></trkpt><trkpt lat="44.543594956392425" lon="0.929565414853444"><ele>132.79999999999998</ele><time>2026-04-23T16:27:51.999Z</time></trkpt><trkpt lat="44.54362839519126" lon="0.9296865437817287"><ele>132.0</ele><time>2026-04-23T16:27:55.999Z</time></trkpt><trkpt lat="44.54361318173235" lon="0.9298136638742744"><ele>132.0</ele><time>2026-04-23T16:27:57.999Z</time></trkpt><trkpt lat="44.54359685467667" lon="0.9299242546233987"><ele>132.0</ele><time>2026-04-23T16:28:00Z</time></trkpt><trkpt lat="44.54358691188561" lon="0.9300125665748608"><ele>132.0</ele><time>2026-04-23T16:28:02Z</time></trkpt><trkpt lat="44.543578819103836" lon="0.9301088558178523"><ele>132.0</ele><time>2026-04-23T16:28:06Z</time></trkpt><trkpt lat="44.5436411370873" lon="0.9300434823570245"><ele>132.0</ele><time>2026-04-23T16:28:11Z</time></trkpt><trkpt lat="44.543646460101655" lon="0.9298775081954651"><ele>132.0</ele><time>2026-04-23T16:28:13Z</time></trkpt><trkpt lat="44.54368014327443" lon="0.9296948204615952"><ele>132.33333333333334</ele><time>2026-04-23T16:28:15Z</time></trkpt><trkpt lat="44.54372216897216" lon="0.9295839773476281"><ele>132.66666666666666</ele><time>2026-04-23T16:28:16Z</time></trkpt><trkpt lat="44.54379452629631" lon="0.9294783986040851"><ele>133.0</ele><time>2026-04-23T16:28:17Z</time></trkpt><trkpt lat="44.54383028840848" lon="0.9293670907621953"><ele>133.33333333333331</ele><time>2026-04-23T16:28:18Z</time></trkpt><trkpt lat="44.5438823389176" lon="0.9292823373654557"><ele>133.66666666666666</ele><time>2026-04-23T16:28:19Z</time></trkpt><trkpt lat="44.543919089651155" lon="0.929210390529637"><ele>134.0</ele><time>2026-04-23T16:28:20Z</time></trkpt><trkpt lat="44.54396247562256" lon="0.9291200176646764"><ele>134.5</ele><time>2026-04-23T16:28:23Z</time></trkpt><trkpt lat="44.54400771576816" lon="0.929038524130199"><ele>135.0</ele><time>2026-04-23T16:28:27Z</time></trkpt><trkpt lat="44.54404718700049" lon="0.9289529212628808"><ele>135.5</ele><time>2026-04-23T16:28:30Z</time></trkpt><trkpt lat="44.544096348553396" lon="0.9288346291933788"><ele>136.0</ele><time>2026-04-23T16:28:32Z</time></trkpt><trkpt lat="44.54414509850073" lon="0.9287093631043641"><ele>136.5</ele><time>2026-04-23T16:28:34Z</time></trkpt><trkpt lat="44.544171200766904" lon="0.9286088659905207"><ele>137.0</ele><time>2026-04-23T16:28:35Z</time></trkpt><trkpt lat="44.544202238285884" lon="0.9284869030923613"><ele>138.33333333333331</ele><time>2026-04-23T16:28:37Z</time></trkpt><trkpt lat="44.54420441276296" lon="0.9283717533036987"><ele>139.66666666666666</ele><time>2026-04-23T16:28:39Z</time></trkpt><trkpt lat="44.544217109383965" lon="0.9282808252350075"><ele>141.0</ele><time>2026-04-23T16:28:41Z</time></trkpt><trkpt lat="44.544227999273645" lon="0.9281898950773836"><ele>142.33333333333334</ele><time>2026-04-23T16:28:42Z</time></trkpt><trkpt lat="44.54423349308397" lon="0.928089896585805"><ele>143.66666666666669</ele><time>2026-04-23T16:28:43Z</time></trkpt><trkpt lat="44.54423267672673" lon="0.9279841226320676"><ele>145.0</ele><time>2026-04-23T16:28:45Z</time></trkpt><trkpt lat="44.54424447869965" lon="0.9278552372717433"><ele>145.0</ele><time>2026-04-23T16:28:48Z</time></trkpt><trkpt lat="44.54424717835944" lon="0.927697798155479"><ele>145.0</ele><time>2026-04-23T16:28:51Z</time></trkpt><trkpt lat="44.54424505226263" lon="0.9275914050092867"><ele>145.0</ele><time>2026-04-23T16:28:52Z</time></trkpt><trkpt lat="44.54426478993806" lon="0.9274579977951135"><ele>145.0</ele><time>2026-04-23T16:28:54Z</time></trkpt><trkpt lat="44.54438232507994" lon="0.9274840914878871"><ele>145.0</ele><time>2026-04-23T16:28:56.999Z</time></trkpt><trkpt lat="44.54444909514012" lon="0.9275457687759739"><ele>145.2</ele><time>2026-04-23T16:28:58.999Z</time></trkpt><trkpt lat="44.54454648277233" lon="0.9276687848795637"><ele>145.4</ele><time>2026-04-23T16:29:00.999Z</time></trkpt><trkpt lat="44.54461364809572" lon="0.9277675952502175"><ele>145.6</ele><time>2026-04-23T16:29:01.999Z</time></trkpt><trkpt lat="44.54465397896406" lon="0.9278772040891082"><ele>145.8</ele><time>2026-04-23T16:29:02.999Z</time></trkpt><trkpt lat="44.54472239587336" lon="0.9280142540236466"><ele>146.0</ele><time>2026-04-23T16:29:03.999Z</time></trkpt><trkpt lat="44.54480245108152" lon="0.9281709810630622"><ele>146.0</ele><time>2026-04-23T16:29:04.999Z</time></trkpt><trkpt lat="44.54489234558918" lon="0.9283489205672986"><ele>146.0</ele><time>2026-04-23T16:29:05.999Z</time></trkpt><trkpt lat="44.54498975461532" lon="0.9285403061102713"><ele>146.0</ele><time>2026-04-23T16:29:06.999Z</time></trkpt><trkpt lat="44.545117958223" lon="0.9287130933806333"><ele>143.5</ele><time>2026-04-23T16:29:07.999Z</time></trkpt><trkpt lat="44.54523589086758" lon="0.9288802280974173"><ele>141.0</ele><time>2026-04-23T16:29:08.999Z</time></trkpt><trkpt lat="44.54532441030819" lon="0.9290326358919353"><ele>138.5</ele><time>2026-04-23T16:29:09.999Z</time></trkpt><trkpt lat="44.545375899810715" lon="0.9291853468371307"><ele>136.0</ele><time>2026-04-23T16:29:10.999Z</time></trkpt><trkpt lat="44.54540748554872" lon="0.9293377854327904"><ele>136.0</ele><time>2026-04-23T16:29:11.999Z</time></trkpt><trkpt lat="44.54540484666609" lon="0.929507847692917"><ele>136.0</ele><time>2026-04-23T16:29:12.999Z</time></trkpt><trkpt lat="44.54535025811436" lon="0.929670498817788"><ele>136.0</ele><time>2026-04-23T16:29:13.999Z</time></trkpt><trkpt lat="44.545306663306405" lon="0.9298572365593514"><ele>136.0</ele><time>2026-04-23T16:29:14.999Z</time></trkpt><trkpt lat="44.54529095616527" lon="0.9300252909856933"><ele>133.6</ele><time>2026-04-23T16:29:15.999Z</time></trkpt><trkpt lat="44.54530072969627" lon="0.9301812015733887"><ele>131.2</ele><time>2026-04-23T16:29:16.999Z</time></trkpt><trkpt lat="44.54532417177865" lon="0.9303455018216603"><ele>128.8</ele><time>2026-04-23T16:29:17.999Z</time></trkpt><trkpt lat="44.54535441248953" lon="0.9304815051697601"><ele>126.4</ele><time>2026-04-23T16:29:18.999Z</time></trkpt><trkpt lat="44.54540367938705" lon="0.9305977362117593"><ele>124.0</ele><time>2026-04-23T16:29:19.999Z</time></trkpt><trkpt lat="44.545472083757446" lon="0.9306924309545702"><ele>124.0</ele><time>2026-04-23T16:29:20.999Z</time></trkpt><trkpt lat="44.54553693470396" lon="0.930794934712484"><ele>124.0</ele><time>2026-04-23T16:29:21.999Z</time></trkpt><trkpt lat="44.545612327073385" lon="0.9308777849754906"><ele>124.0</ele><time>2026-04-23T16:29:22.999Z</time></trkpt><trkpt lat="44.545681428162965" lon="0.9309584411392682"><ele>124.0</ele><time>2026-04-23T16:29:23.999Z</time></trkpt><trkpt lat="44.54574154981646" lon="0.9310437010005892"><ele>124.0</ele><time>2026-04-23T16:29:24.999Z</time></trkpt><trkpt lat="44.545790340680455" lon="0.9311384552958999"><ele>122.66666666666667</ele><time>2026-04-23T16:29:25.999Z</time></trkpt><trkpt lat="44.54581895149834" lon="0.9312488944476197"><ele>121.33333333333334</ele><time>2026-04-23T16:29:26.999Z</time></trkpt><trkpt lat="44.5458212391914" lon="0.9313562464293277"><ele>120.0</ele><time>2026-04-23T16:29:27.999Z</time></trkpt><trkpt lat="44.54580988673748" lon="0.9314599571959304"><ele>118.66666666666666</ele><time>2026-04-23T16:29:28.999Z</time></trkpt><trkpt lat="44.54578028419273" lon="0.9315642524992835"><ele>117.33333333333333</ele><time>2026-04-23T16:29:29.999Z</time></trkpt><trkpt lat="44.545745895512475" lon="0.9316687788447483"><ele>116.0</ele><time>2026-04-23T16:29:30.999Z</time></trkpt><trkpt lat="44.54571758379357" lon="0.9317669555332638"><ele>115.33333333333333</ele><time>2026-04-23T16:29:31.999Z</time></trkpt><trkpt lat="44.54571580074831" lon="0.9318793288271358"><ele>114.66666666666666</ele><time>2026-04-23T16:29:32.999Z</time></trkpt><trkpt lat="44.54569670626019" lon="0.9319825028301281"><ele>114.0</ele><time>2026-04-23T16:29:33.999Z</time></trkpt><trkpt lat="44.545715362115416" lon="0.9320920886113193"><ele>113.33333333333334</ele><time>2026-04-23T16:29:34.999Z</time></trkpt><trkpt lat="44.54576153138103" lon="0.9321854801666358"><ele>112.66666666666667</ele><time>2026-04-23T16:29:35.999Z</time></trkpt><trkpt lat="44.54581623370662" lon="0.9322656396231854"><ele>112.0</ele><time>2026-04-23T16:29:36.999Z</time></trkpt><trkpt lat="44.54588083607655" lon="0.9323093078007871"><ele>112.0</ele><time>2026-04-23T16:29:37.999Z</time></trkpt><trkpt lat="44.54593937620249" lon="0.9323537454473508"><ele>111.99999999999999</ele><time>2026-04-23T16:29:38.999Z</time></trkpt><trkpt lat="44.54601871165904" lon="0.9324341685365193"><ele>111.99999999999999</ele><time>2026-04-23T16:29:40.999Z</time></trkpt><trkpt lat="44.54608594383676" lon="0.9324918826493738"><ele>112.0</ele><time>2026-04-23T16:29:42.999Z</time></trkpt><trkpt lat="44.5461762623444" lon="0.9325482237963025"><ele>112.0</ele><time>2026-04-23T16:29:44.999Z</time></trkpt><trkpt lat="44.54625172567696" lon="0.9326608052957069"><ele>112.19999999999999</ele><time>2026-04-23T16:29:46.999Z</time></trkpt><trkpt lat="44.54630526766801" lon="0.9327223486793259"><ele>112.39999999999999</ele><time>2026-04-23T16:29:47.999Z</time></trkpt><trkpt lat="44.54637311874973" lon="0.9328003394001654"><ele>112.60000000000001</ele><time>2026-04-23T16:29:48.999Z</time></trkpt><trkpt lat="44.54645035922335" lon="0.9328905029943898"><ele>112.80000000000001</ele><time>2026-04-23T16:29:49.999Z</time></trkpt><trkpt lat="44.546539707228376" lon="0.9329992744646082"><ele>113.0</ele><time>2026-04-23T16:29:50.999Z</time></trkpt><trkpt lat="44.54663459021618" lon="0.9331154769345075"><ele>113.0</ele><time>2026-04-23T16:29:51.999Z</time></trkpt><trkpt lat="44.54673497530094" lon="0.9332509811685544"><ele>113.00000000000001</ele><time>2026-04-23T16:29:52.999Z</time></trkpt><trkpt lat="44.54680655937982" lon="0.9333831034177683"><ele>113.00000000000001</ele><time>2026-04-23T16:29:53.999Z</time></trkpt><trkpt lat="44.5468506765068" lon="0.9335111996729809"><ele>113.0</ele><time>2026-04-23T16:29:54.999Z</time></trkpt><trkpt lat="44.54687879072639" lon="0.933618665584923"><ele>113.0</ele><time>2026-04-23T16:29:55.999Z</time></trkpt><trkpt lat="44.546897550537025" lon="0.9337593078543853"><ele>113.2</ele><time>2026-04-23T16:29:57.999Z</time></trkpt><trkpt lat="44.54704086185303" lon="0.9337509192365298"><ele>113.4</ele><time>2026-04-23T16:29:59.999Z</time></trkpt><trkpt lat="44.54710447189396" lon="0.9336791849144022"><ele>113.60000000000001</ele><time>2026-04-23T16:30:00.999Z</time></trkpt><trkpt lat="44.54717329649721" lon="0.9335712141327488"><ele>113.80000000000001</ele><time>2026-04-23T16:30:01.999Z</time></trkpt><trkpt lat="44.547260948020984" lon="0.933461589493569"><ele>114.0</ele><time>2026-04-23T16:30:02.999Z</time></trkpt><trkpt lat="44.547360858423076" lon="0.9333424088737842"><ele>114.25</ele><time>2026-04-23T16:30:03.999Z</time></trkpt><trkpt lat="44.54746656220177" lon="0.9332262587924979"><ele>114.5</ele><time>2026-04-23T16:30:04.999Z</time></trkpt><trkpt lat="44.54757370243625" lon="0.9330856082039558"><ele>114.75</ele><time>2026-04-23T16:30:06Z</time></trkpt><trkpt lat="44.54769771989145" lon="0.9329425192441345"><ele>115.0</ele><time>2026-04-23T16:30:07Z</time></trkpt><trkpt lat="44.54782231344278" lon="0.9327959912998112"><ele>116.66666666666667</ele><time>2026-04-23T16:30:08Z</time></trkpt><trkpt lat="44.54795464705766" lon="0.9326429341673121"><ele>118.33333333333334</ele><time>2026-04-23T16:30:09Z</time></trkpt><trkpt lat="44.5480877379316" lon="0.9324789569068854"><ele>120.0</ele><time>2026-04-23T16:30:10Z</time></trkpt><trkpt lat="44.54822240022722" lon="0.932309630774294"><ele>120.0</ele><time>2026-04-23T16:30:11Z</time></trkpt><trkpt lat="44.54836005095643" lon="0.9321744075487878"><ele>120.0</ele><time>2026-04-23T16:30:12Z</time></trkpt><trkpt lat="44.54849692154396" lon="0.9320118770324742"><ele>120.0</ele><time>2026-04-23T16:30:13Z</time></trkpt><trkpt lat="44.54864224026709" lon="0.9318546736720885"><ele>120.0</ele><time>2026-04-23T16:30:14Z</time></trkpt><trkpt lat="44.548806033013875" lon="0.931698834841388"><ele>120.0</ele><time>2026-04-23T16:30:15Z</time></trkpt><trkpt lat="44.54895723679959" lon="0.9315355615214477"><ele>120.0</ele><time>2026-04-23T16:30:16Z</time></trkpt><trkpt lat="44.54910020115458" lon="0.9313546148138658"><ele>120.0</ele><time>2026-04-23T16:30:17Z</time></trkpt><trkpt lat="44.549232861088754" lon="0.9311576356541178"><ele>120.0</ele><time>2026-04-23T16:30:18Z</time></trkpt><trkpt lat="44.549348178153174" lon="0.9309378336147038"><ele>120.0</ele><time>2026-04-23T16:30:19Z</time></trkpt><trkpt lat="44.549439659652684" lon="0.9307106674591642"><ele>118.33333333333334</ele><time>2026-04-23T16:30:20Z</time></trkpt><trkpt lat="44.54949873104714" lon="0.9304786038222094"><ele>116.66666666666667</ele><time>2026-04-23T16:30:21Z</time></trkpt><trkpt lat="44.5495946530288" lon="0.9302843294916826"><ele>115.0</ele><time>2026-04-23T16:30:22Z</time></trkpt><trkpt lat="44.54970254124123" lon="0.9300937307647023"><ele>117.5</ele><time>2026-04-23T16:30:23Z</time></trkpt><trkpt lat="44.54981021833449" lon="0.9299294207200149"><ele>120.0</ele><time>2026-04-23T16:30:24Z</time></trkpt><trkpt lat="44.54989004659514" lon="0.9297662957196344"><ele>122.5</ele><time>2026-04-23T16:30:25Z</time></trkpt><trkpt lat="44.54996076963693" lon="0.9296289998377621"><ele>125.0</ele><time>2026-04-23T16:30:26Z</time></trkpt><trkpt lat="44.550023378624516" lon="0.9294806321157073"><ele>125.0</ele><time>2026-04-23T16:30:27Z</time></trkpt><trkpt lat="44.550082855691684" lon="0.9293463018756866"><ele>125.0</ele><time>2026-04-23T16:30:28Z</time></trkpt><trkpt lat="44.55012655597946" lon="0.9292162357226958"><ele>125.0</ele><time>2026-04-23T16:30:29Z</time></trkpt><trkpt lat="44.55017453454733" lon="0.9291343026203079"><ele>125.0</ele><time>2026-04-23T16:30:30Z</time></trkpt><trkpt lat="44.55021181786159" lon="0.9290379998907833"><ele>125.0</ele><time>2026-04-23T16:30:31Z</time></trkpt><trkpt lat="44.55027165815614" lon="0.9288856524264887"><ele>125.16666666666666</ele><time>2026-04-23T16:30:33Z</time></trkpt><trkpt lat="44.55032128485069" lon="0.9287619808539727"><ele>125.33333333333333</ele><time>2026-04-23T16:30:35Z</time></trkpt><trkpt lat="44.550355875799" lon="0.9286797267897283"><ele>125.5</ele><time>2026-04-23T16:30:37Z</time></trkpt><trkpt lat="44.550387967246735" lon="0.92860341633618"><ele>125.66666666666666</ele><time>2026-04-23T16:30:39Z</time></trkpt><trkpt lat="44.55042930534771" lon="0.9285072998462939"><ele>125.83333333333333</ele><time>2026-04-23T16:30:43Z</time></trkpt><trkpt lat="44.55047993225405" lon="0.9284069413256578"><ele>126.0</ele><time>2026-04-23T16:30:46Z</time></trkpt><trkpt lat="44.55053529476703" lon="0.9283028242519291"><ele>126.0</ele><time>2026-04-23T16:30:50Z</time></trkpt><trkpt lat="44.55057581811545" lon="0.9282266143402247"><ele>126.0</ele><time>2026-04-23T16:30:52Z</time></trkpt><trkpt lat="44.550595644814216" lon="0.9278568325386761"><ele>126.0</ele><time>2026-04-23T16:31:05.999Z</time></trkpt><trkpt lat="44.55063102102253" lon="0.9277669059231188"><ele>126.0</ele><time>2026-04-23T16:31:06.999Z</time></trkpt><trkpt lat="44.55064205525164" lon="0.9276697143438183"><ele>125.33333333333333</ele><time>2026-04-23T16:31:07.999Z</time></trkpt><trkpt lat="44.55068718662133" lon="0.9275506213464372"><ele>124.66666666666666</ele><time>2026-04-23T16:31:08.999Z</time></trkpt><trkpt lat="44.55073177375804" lon="0.9274641960183276"><ele>124.0</ele><time>2026-04-23T16:31:09.999Z</time></trkpt><trkpt lat="44.550794844183656" lon="0.9273068940191304"><ele>123.33333333333333</ele><time>2026-04-23T16:31:11.999Z</time></trkpt><trkpt lat="44.55083184206855" lon="0.9272201572320636"><ele>122.66666666666666</ele><time>2026-04-23T16:31:12.999Z</time></trkpt><trkpt lat="44.55086709741785" lon="0.9271394378191747"><ele>122.0</ele><time>2026-04-23T16:31:13.999Z</time></trkpt><trkpt lat="44.55089222443331" lon="0.9270411878425142"><ele>122.0</ele><time>2026-04-23T16:31:14.999Z</time></trkpt><trkpt lat="44.55095346076667" lon="0.9269518163224019"><ele>121.99999999999999</ele><time>2026-04-23T16:31:15.999Z</time></trkpt><trkpt lat="44.55100258783437" lon="0.926818130667534"><ele>121.99999999999999</ele><time>2026-04-23T16:31:16.999Z</time></trkpt><trkpt lat="44.551054947539726" lon="0.9266860682696728"><ele>122.0</ele><time>2026-04-23T16:31:17.999Z</time></trkpt><trkpt lat="44.551108169203935" lon="0.9265672550624453"><ele>122.0</ele><time>2026-04-23T16:31:18.999Z</time></trkpt><trkpt lat="44.551143624400346" lon="0.9264672441024888"><ele>121.83333333333333</ele><time>2026-04-23T16:31:19.999Z</time></trkpt><trkpt lat="44.55116412651869" lon="0.9263804673395332"><ele>121.66666666666666</ele><time>2026-04-23T16:31:20.999Z</time></trkpt><trkpt lat="44.55119185383579" lon="0.9262473266551904"><ele>121.5</ele><time>2026-04-23T16:31:22.999Z</time></trkpt><trkpt lat="44.55122176942663" lon="0.9261239942401097"><ele>121.33333333333334</ele><time>2026-04-23T16:31:24.999Z</time></trkpt><trkpt lat="44.55124148794818" lon="0.9260260372739799"><ele>121.16666666666667</ele><time>2026-04-23T16:31:25.999Z</time></trkpt><trkpt lat="44.55126351896147" lon="0.9259022060903422"><ele>121.0</ele><time>2026-04-23T16:31:26.999Z</time></trkpt><trkpt lat="44.551272434795784" lon="0.9257629434303011"><ele>123.6</ele><time>2026-04-23T16:31:27.999Z</time></trkpt><trkpt lat="44.551297170494344" lon="0.9256680849917317"><ele>126.19999999999999</ele><time>2026-04-23T16:31:28.999Z</time></trkpt><trkpt lat="44.55130160088542" lon="0.9255086062354614"><ele>128.8</ele><time>2026-04-23T16:31:30.999Z</time></trkpt><trkpt lat="44.55130629866252" lon="0.9253662936001013"><ele>131.4</ele><time>2026-04-23T16:31:32.999Z</time></trkpt><trkpt lat="44.55131038440231" lon="0.9252408836330275"><ele>134.0</ele><time>2026-04-23T16:31:34.999Z</time></trkpt><trkpt lat="44.551321960006696" lon="0.9251099558135725"><ele>134.33333333333331</ele><time>2026-04-23T16:31:36.999Z</time></trkpt><trkpt lat="44.55132910946914" lon="0.9249787221687776"><ele>134.66666666666666</ele><time>2026-04-23T16:31:38.999Z</time></trkpt><trkpt lat="44.55134726181509" lon="0.9248447536621893"><ele>135.0</ele><time>2026-04-23T16:31:40.999Z</time></trkpt><trkpt lat="44.55137056750432" lon="0.9247517823914866"><ele>135.33333333333334</ele><time>2026-04-23T16:31:41.999Z</time></trkpt><trkpt lat="44.55137168222891" lon="0.9246504008154719"><ele>135.66666666666669</ele><time>2026-04-23T16:31:42.999Z</time></trkpt><trkpt lat="44.55138642868496" lon="0.9245487886633434"><ele>136.0</ele><time>2026-04-23T16:31:43.999Z</time></trkpt><trkpt lat="44.551403026410156" lon="0.9243940497198238"><ele>136.0</ele><time>2026-04-23T16:31:45.999Z</time></trkpt><trkpt lat="44.55141692544183" lon="0.9242525921675784"><ele>136.0</ele><time>2026-04-23T16:31:47.999Z</time></trkpt><trkpt lat="44.55144088141685" lon="0.9240929225150405"><ele>136.0</ele><time>2026-04-23T16:31:49.999Z</time></trkpt><trkpt lat="44.55144809510649" lon="0.9239427247360197"><ele>136.0</ele><time>2026-04-23T16:31:51.999Z</time></trkpt><trkpt lat="44.55147307213783" lon="0.9238264083707763"><ele>136.0</ele><time>2026-04-23T16:31:53.999Z</time></trkpt><trkpt lat="44.55148335115852" lon="0.9237150828199923"><ele>135.8</ele><time>2026-04-23T16:31:55.999Z</time></trkpt><trkpt lat="44.55148151058333" lon="0.9235906554688107"><ele>135.6</ele><time>2026-04-23T16:31:58.999Z</time></trkpt><trkpt lat="44.551518344329665" lon="0.923495295408729"><ele>135.4</ele><time>2026-04-23T16:32:01.999Z</time></trkpt><trkpt lat="44.55153911553983" lon="0.9233982658846902"><ele>135.2</ele><time>2026-04-23T16:32:05.999Z</time></trkpt><trkpt lat="44.55156420941627" lon="0.923281043706694"><ele>135.0</ele><time>2026-04-23T16:32:09.999Z</time></trkpt><trkpt lat="44.55141742983889" lon="0.923030059767976"><ele>134.0</ele><time>2026-04-23T16:32:15Z</time></trkpt><trkpt lat="44.55134968999615" lon="0.9230211908578032"><ele>133.0</ele><time>2026-04-23T16:32:17Z</time></trkpt><trkpt lat="44.551264632356094" lon="0.9230190349978343"><ele>132.0</ele><time>2026-04-23T16:32:20Z</time></trkpt><trkpt lat="44.55122223090507" lon="0.9230902857344434"><ele>131.0</ele><time>2026-04-23T16:32:23Z</time></trkpt><trkpt lat="44.55121224656369" lon="0.9231819218175867"><ele>130.0</ele><time>2026-04-23T16:32:32Z</time></trkpt><trkpt lat="44.551271077429725" lon="0.9232967860061293"><ele>129.0</ele><time>2026-04-23T16:32:34Z</time></trkpt><trkpt lat="44.55132522169024" lon="0.923380264536378"><ele>129.0</ele><time>2026-04-23T16:32:36Z</time></trkpt><trkpt lat="44.551403966423365" lon="0.9233678806939872"><ele>129.0</ele><time>2026-04-23T16:32:38Z</time></trkpt><trkpt lat="44.551471628112665" lon="0.9233334294163354"><ele>129.0</ele><time>2026-04-23T16:32:39Z</time></trkpt><trkpt lat="44.55148400550174" lon="0.9232206681613856"><ele>129.0</ele><time>2026-04-23T16:32:41Z</time></trkpt><trkpt lat="44.55145374894618" lon="0.923099460960965"><ele>129.0</ele><time>2026-04-23T16:32:43Z</time></trkpt><trkpt lat="44.55142625834277" lon="0.922994888238778"><ele>129.0</ele><time>2026-04-23T16:32:45Z</time></trkpt><trkpt lat="44.5513394814189" lon="0.9230055091539194"><ele>129.0</ele><time>2026-04-23T16:32:47Z</time></trkpt><trkpt lat="44.55127045664557" lon="0.9230275624457909"><ele>129.0</ele><time>2026-04-23T16:32:49Z</time></trkpt><trkpt lat="44.551218897469255" lon="0.9231145237761388"><ele>129.0</ele><time>2026-04-23T16:32:52Z</time></trkpt><trkpt lat="44.551160023291516" lon="0.9230676117925336"><ele>129.0</ele><time>2026-04-23T16:51:22Z</time></trkpt><trkpt lat="44.55121660086984" lon="0.9231358798379065"><ele>129.0</ele><time>2026-04-23T17:04:12Z</time></trkpt><trkpt lat="44.551227143092746" lon="0.9229917937121425"><ele>129.0</ele><time>2026-04-23T17:04:59Z</time></trkpt><trkpt lat="44.5512919242435" lon="0.9229688001155577"><ele>129.0</ele><time>2026-04-23T17:05:01Z</time></trkpt><trkpt lat="44.55138227721178" lon="0.9229898268593347"><ele>129.0</ele><time>2026-04-23T17:05:03Z</time></trkpt><trkpt lat="44.551442607047555" lon="0.9229444675000364"><ele>129.0</ele><time>2026-04-23T17:05:05Z</time></trkpt><trkpt lat="44.551467364807976" lon="0.9228048491456203"><ele>129.0</ele><time>2026-04-23T17:05:07Z</time></trkpt><trkpt lat="44.55145374857791" lon="0.922693563850692"><ele>129.0</ele><time>2026-04-23T17:05:09Z</time></trkpt><trkpt lat="44.55145797423685" lon="0.9225588296577693"><ele>129.0</ele><time>2026-04-23T17:05:11Z</time></trkpt><trkpt lat="44.55148365722691" lon="0.9224457989624648"><ele>128.16666666666666</ele><time>2026-04-23T17:05:13Z</time></trkpt><trkpt lat="44.55152689525009" lon="0.9223375799629597"><ele>127.33333333333334</ele><time>2026-04-23T17:05:15Z</time></trkpt><trkpt lat="44.551545381616" lon="0.9222465281598503"><ele>126.5</ele><time>2026-04-23T17:05:17Z</time></trkpt><trkpt lat="44.5514993856692" lon="0.9221661623276813"><ele>125.66666666666667</ele><time>2026-04-23T17:05:19Z</time></trkpt><trkpt lat="44.55140331599997" lon="0.9221546779750698"><ele>124.83333333333334</ele><time>2026-04-23T17:05:21Z</time></trkpt><trkpt lat="44.551336310072216" lon="0.9221355976398816"><ele>124.0</ele><time>2026-04-23T17:05:22Z</time></trkpt><trkpt lat="44.551272769954366" lon="0.9221113086102586"><ele>123.50000000000001</ele><time>2026-04-23T17:05:27Z</time></trkpt><trkpt lat="44.55119779027579" lon="0.9220930167757992"><ele>123.0</ele><time>2026-04-23T17:05:31Z</time></trkpt><trkpt lat="44.55112845704151" lon="0.9220550437758086"><ele>122.5</ele><time>2026-04-23T17:05:34Z</time></trkpt><trkpt lat="44.551062158795474" lon="0.9220016629196554"><ele>122.0</ele><time>2026-04-23T17:05:37Z</time></trkpt><trkpt lat="44.55100514602872" lon="0.922053020978295"><ele>121.50000000000001</ele><time>2026-04-23T17:06:00Z</time></trkpt><trkpt lat="44.55097535755984" lon="0.9221576415854295"><ele>121.0</ele><time>2026-04-23T17:06:03Z</time></trkpt><trkpt lat="44.55093988670177" lon="0.9222566219206741"><ele>121.00000000000001</ele><time>2026-04-23T17:06:07Z</time></trkpt><trkpt lat="44.550967039644625" lon="0.922173982069886"><ele>121.0</ele><time>2026-04-23T17:06:47Z</time></trkpt><trkpt lat="44.55100075397517" lon="0.9220793821556879"><ele>121.0</ele><time>2026-04-23T17:06:50Z</time></trkpt><trkpt lat="44.55106159331531" lon="0.9220224596928763"><ele>121.0</ele><time>2026-04-23T17:17:20Z</time></trkpt><trkpt lat="44.55113203127938" lon="0.9220628404274165"><ele>121.00000000000001</ele><time>2026-04-23T17:17:59.999Z</time></trkpt><trkpt lat="44.55122866517878" lon="0.9221103224763546"><ele>121.0</ele><time>2026-04-23T17:18:02.999Z</time></trkpt><trkpt lat="44.55132079236694" lon="0.922115274439"><ele>121.6</ele><time>2026-04-23T17:18:05.999Z</time></trkpt><trkpt lat="44.55146356859461" lon="0.9221710142468227"><ele>122.19999999999999</ele><time>2026-04-23T17:18:07.999Z</time></trkpt><trkpt lat="44.55153355712038" lon="0.9221922842236547"><ele>122.80000000000001</ele><time>2026-04-23T17:18:08.999Z</time></trkpt><trkpt lat="44.55160643281816" lon="0.922194545637443"><ele>123.4</ele><time>2026-04-23T17:18:09.999Z</time></trkpt><trkpt lat="44.55173347159923" lon="0.9222394735268777"><ele>124.0</ele><time>2026-04-23T17:18:11.999Z</time></trkpt><trkpt lat="44.55183815197875" lon="0.9222642433128215"><ele>124.00000000000001</ele><time>2026-04-23T17:18:13.999Z</time></trkpt><trkpt lat="44.55191470173211" lon="0.9223254707118289"><ele>124.0</ele><time>2026-04-23T17:18:15.999Z</time></trkpt><trkpt lat="44.551965920202" lon="0.9224246940448165"><ele>124.0</ele><time>2026-04-23T17:18:20.999Z</time></trkpt><trkpt lat="44.55195931400991" lon="0.9225412471147991"><ele>124.0</ele><time>2026-04-23T17:18:26Z</time></trkpt><trkpt lat="44.55190137146191" lon="0.9226274455406229"><ele>124.00000000000001</ele><time>2026-04-23T17:18:29Z</time></trkpt><trkpt lat="44.551847086508076" lon="0.9226992069179316"><ele>124.0</ele><time>2026-04-23T17:18:31Z</time></trkpt><trkpt lat="44.55178747122826" lon="0.9227997734418862"><ele>124.83333333333334</ele><time>2026-04-23T17:18:33Z</time></trkpt><trkpt lat="44.55176635294935" lon="0.9229004303463507"><ele>125.66666666666667</ele><time>2026-04-23T17:18:35Z</time></trkpt><trkpt lat="44.55173712388097" lon="0.9230243232547803"><ele>126.5</ele><time>2026-04-23T17:18:37Z</time></trkpt><trkpt lat="44.55165284000658" lon="0.9231564280254022"><ele>127.33333333333334</ele><time>2026-04-23T17:18:39Z</time></trkpt><trkpt lat="44.55159766801589" lon="0.9232374216151101"><ele>128.16666666666666</ele><time>2026-04-23T17:18:40Z</time></trkpt><trkpt lat="44.55155749704201" lon="0.9233266548941866"><ele>129.0</ele><time>2026-04-23T17:18:41Z</time></trkpt><trkpt lat="44.55148873898586" lon="0.9234694770588646"><ele>130.2</ele><time>2026-04-23T17:18:43Z</time></trkpt><trkpt lat="44.55146477688325" lon="0.9235831769625082"><ele>131.4</ele><time>2026-04-23T17:18:44Z</time></trkpt><trkpt lat="44.551449200238885" lon="0.9237202028968494"><ele>132.6</ele><time>2026-04-23T17:18:45Z</time></trkpt><trkpt lat="44.55143502632726" lon="0.9238842451196948"><ele>133.8</ele><time>2026-04-23T17:18:46Z</time></trkpt><trkpt lat="44.55143892763527" lon="0.9240244869812649"><ele>135.0</ele><time>2026-04-23T17:18:47Z</time></trkpt><trkpt lat="44.55140992126679" lon="0.924168399565726"><ele>135.25</ele><time>2026-04-23T17:18:48Z</time></trkpt><trkpt lat="44.55139174832576" lon="0.9243192959090848"><ele>135.5</ele><time>2026-04-23T17:18:49Z</time></trkpt><trkpt lat="44.55136762171749" lon="0.9245081799686045"><ele>135.75</ele><time>2026-04-23T17:18:50Z</time></trkpt><trkpt lat="44.551342977271695" lon="0.9247011196529734"><ele>136.0</ele><time>2026-04-23T17:18:51Z</time></trkpt><trkpt lat="44.55133687944643" lon="0.9248887913938005"><ele>135.5</ele><time>2026-04-23T17:18:52Z</time></trkpt><trkpt lat="44.55130910360009" lon="0.9250986055577534"><ele>135.0</ele><time>2026-04-23T17:18:53Z</time></trkpt><trkpt lat="44.5513038568942" lon="0.9252959236137273"><ele>134.5</ele><time>2026-04-23T17:18:54Z</time></trkpt><trkpt lat="44.55128332904664" lon="0.9254648090192992"><ele>134.0</ele><time>2026-04-23T17:18:55Z</time></trkpt><trkpt lat="44.55128463176057" lon="0.9256116428065354"><ele>134.0</ele><time>2026-04-23T17:18:56Z</time></trkpt><trkpt lat="44.5512584416903" lon="0.9257194403768716"><ele>134.0</ele><time>2026-04-23T17:18:57Z</time></trkpt><trkpt lat="44.55125689452553" lon="0.9258331844696741"><ele>134.0</ele><time>2026-04-23T17:18:58Z</time></trkpt><trkpt lat="44.55124754493746" lon="0.925922101846423"><ele>134.0</ele><time>2026-04-23T17:18:59Z</time></trkpt><trkpt lat="44.55123116377978" lon="0.9260455483696387"><ele>134.0</ele><time>2026-04-23T17:19:01Z</time></trkpt><trkpt lat="44.551205788289245" lon="0.9261472747908864"><ele>134.0</ele><time>2026-04-23T17:19:03Z</time></trkpt><trkpt lat="44.55116477112595" lon="0.9262755325233569"><ele>132.28571428571428</ele><time>2026-04-23T17:19:05Z</time></trkpt><trkpt lat="44.551128728965935" lon="0.9264105981784702"><ele>130.57142857142856</ele><time>2026-04-23T17:19:07Z</time></trkpt><trkpt lat="44.55110194999794" lon="0.9264938104170023"><ele>128.85714285714283</ele><time>2026-04-23T17:19:08Z</time></trkpt><trkpt lat="44.55106827377352" lon="0.9265849334147493"><ele>127.14285714285714</ele><time>2026-04-23T17:19:09Z</time></trkpt><trkpt lat="44.551038017974086" lon="0.9266634728440462"><ele>125.42857142857142</ele><time>2026-04-23T17:19:10Z</time></trkpt><trkpt lat="44.5510166521018" lon="0.9267579427531087"><ele>123.7142857142857</ele><time>2026-04-23T17:19:11Z</time></trkpt><trkpt lat="44.55097599241427" lon="0.9268429614851106"><ele>121.99999999999999</ele><time>2026-04-23T17:19:12Z</time></trkpt><trkpt lat="44.55092932983306" lon="0.9269183256691989"><ele>121.99999999999999</ele><time>2026-04-23T17:19:13Z</time></trkpt><trkpt lat="44.550891898324956" lon="0.9269985550189391"><ele>122.0</ele><time>2026-04-23T17:19:14Z</time></trkpt><trkpt lat="44.55087172642733" lon="0.9270831872683369"><ele>122.0</ele><time>2026-04-23T17:19:15Z</time></trkpt><trkpt lat="44.55081994894297" lon="0.9271848528667361"><ele>122.0</ele><time>2026-04-23T17:19:17Z</time></trkpt><trkpt lat="44.55075032713857" lon="0.9273200380615982"><ele>121.99999999999999</ele><time>2026-04-23T17:19:19Z</time></trkpt><trkpt lat="44.55070389141645" lon="0.9274391950649624"><ele>122.0</ele><time>2026-04-23T17:19:21Z</time></trkpt><trkpt lat="44.55065810711515" lon="0.92760501034713"><ele>122.66666666666666</ele><time>2026-04-23T17:19:23Z</time></trkpt><trkpt lat="44.55061620923689" lon="0.9276926195644553"><ele>123.33333333333333</ele><time>2026-04-23T17:19:24Z</time></trkpt><trkpt lat="44.55058448439293" lon="0.927850822075627"><ele>124.0</ele><time>2026-04-23T17:19:26Z</time></trkpt><trkpt lat="44.550546122134875" lon="0.927973097825284"><ele>124.66666666666666</ele><time>2026-04-23T17:19:28Z</time></trkpt><trkpt lat="44.55050776349615" lon="0.9280500158938358"><ele>125.33333333333333</ele><time>2026-04-23T17:19:42.999Z</time></trkpt><trkpt lat="44.550505609003366" lon="0.928178825343636"><ele>126.0</ele><time>2026-04-23T17:20:10.999Z</time></trkpt><trkpt lat="44.550482855780515" lon="0.928275288256714"><ele>126.0</ele><time>2026-04-23T17:20:13.999Z</time></trkpt><trkpt lat="44.550463396990565" lon="0.9283649616000417"><ele>126.0</ele><time>2026-04-23T17:20:15.999Z</time></trkpt><trkpt lat="44.55041437263337" lon="0.9285215540024077"><ele>126.0</ele><time>2026-04-23T17:20:25.999Z</time></trkpt><trkpt lat="44.55034031655489" lon="0.9286864229891602"><ele>126.0</ele><time>2026-04-23T17:20:27.999Z</time></trkpt><trkpt lat="44.55028384941625" lon="0.9288153196896182"><ele>126.0</ele><time>2026-04-23T17:20:29Z</time></trkpt><trkpt lat="44.550208805528726" lon="0.9289479945511896"><ele>125.75</ele><time>2026-04-23T17:20:30Z</time></trkpt><trkpt lat="44.550144264183466" lon="0.9291146927699071"><ele>125.5</ele><time>2026-04-23T17:20:31Z</time></trkpt><trkpt lat="44.55008027598458" lon="0.9292799753347516"><ele>125.25</ele><time>2026-04-23T17:20:32Z</time></trkpt><trkpt lat="44.550011637765635" lon="0.9294516357030204"><ele>125.0</ele><time>2026-04-23T17:20:33Z</time></trkpt><trkpt lat="44.549952848164544" lon="0.9295879887301742"><ele>124.99999999999999</ele><time>2026-04-23T17:20:34Z</time></trkpt><trkpt lat="44.54989551325918" lon="0.9297085862922371"><ele>125.0</ele><time>2026-04-23T17:20:35Z</time></trkpt><trkpt lat="44.54984436375869" lon="0.9298003146448824"><ele>125.0</ele><time>2026-04-23T17:20:36Z</time></trkpt><trkpt lat="44.5497984347758" lon="0.9298770803154024"><ele>125.0</ele><time>2026-04-23T17:20:37Z</time></trkpt><trkpt lat="44.549767564325066" lon="0.9299599225743397"><ele>124.99999999999999</ele><time>2026-04-23T17:20:38Z</time></trkpt><trkpt lat="44.5496911690114" lon="0.9300722998781619"><ele>125.0</ele><time>2026-04-23T17:20:40Z</time></trkpt><trkpt lat="44.549633911618045" lon="0.9301366275835805"><ele>125.33333333333333</ele><time>2026-04-23T17:20:41Z</time></trkpt><trkpt lat="44.549584622092155" lon="0.930226167361792"><ele>125.66666666666666</ele><time>2026-04-23T17:20:42Z</time></trkpt><trkpt lat="44.54954852358588" lon="0.9302990425597897"><ele>126.0</ele><time>2026-04-23T17:20:43Z</time></trkpt><trkpt lat="44.54949905391352" lon="0.9304410234140756"><ele>126.33333333333334</ele><time>2026-04-23T17:20:45Z</time></trkpt><trkpt lat="44.54947758027483" lon="0.9305319300342539"><ele>126.66666666666667</ele><time>2026-04-23T17:20:46Z</time></trkpt><trkpt lat="44.54944769933098" lon="0.9306220190089417"><ele>127.0</ele><time>2026-04-23T17:20:47Z</time></trkpt><trkpt lat="44.5493989344362" lon="0.9307543654586833"><ele>125.25</ele><time>2026-04-23T17:20:48Z</time></trkpt><trkpt lat="44.54935148042331" lon="0.9309069375468841"><ele>123.5</ele><time>2026-04-23T17:20:49Z</time></trkpt><trkpt lat="44.54927130501311" lon="0.931059507089998"><ele>121.75</ele><time>2026-04-23T17:20:50Z</time></trkpt><trkpt lat="44.54918135558194" lon="0.9312231607458633"><ele>120.0</ele><time>2026-04-23T17:20:51Z</time></trkpt><trkpt lat="44.54908614145792" lon="0.9313655101756585"><ele>120.0</ele><time>2026-04-23T17:20:52Z</time></trkpt><trkpt lat="44.54896744846641" lon="0.9314729173666155"><ele>120.0</ele><time>2026-04-23T17:20:53Z</time></trkpt><trkpt lat="44.548853002952654" lon="0.9316164437951086"><ele>120.0</ele><time>2026-04-23T17:20:54Z</time></trkpt><trkpt lat="44.548731765574566" lon="0.9317334794915272"><ele>120.0</ele><time>2026-04-23T17:20:55Z</time></trkpt><trkpt lat="44.54860678971215" lon="0.9318523501243922"><ele>120.0</ele><time>2026-04-23T17:20:56Z</time></trkpt><trkpt lat="44.5484767666524" lon="0.9319906506641615"><ele>120.0</ele><time>2026-04-23T17:20:57Z</time></trkpt><trkpt lat="44.5483507344419" lon="0.9321328845058577"><ele>120.0</ele><time>2026-04-23T17:20:58Z</time></trkpt><trkpt lat="44.54822151632971" lon="0.9322811690881293"><ele>120.0</ele><time>2026-04-23T17:20:59Z</time></trkpt><trkpt lat="44.54809154197462" lon="0.9324473851879024"><ele>120.0</ele><time>2026-04-23T17:21:00Z</time></trkpt><trkpt lat="44.54797091726864" lon="0.9325946764971187"><ele>120.0</ele><time>2026-04-23T17:21:01Z</time></trkpt><trkpt lat="44.54785203701024" lon="0.9327097583991824"><ele>118.75</ele><time>2026-04-23T17:21:02Z</time></trkpt><trkpt lat="44.547755349961804" lon="0.9328279920063021"><ele>117.5</ele><time>2026-04-23T17:21:03Z</time></trkpt><trkpt lat="44.54766054620077" lon="0.9329439225473851"><ele>116.25</ele><time>2026-04-23T17:21:04Z</time></trkpt><trkpt lat="44.54757660547193" lon="0.9330465694095474"><ele>115.0</ele><time>2026-04-23T17:21:05Z</time></trkpt><trkpt lat="44.54749442135573" lon="0.933147068092778"><ele>115.0</ele><time>2026-04-23T17:21:06Z</time></trkpt><trkpt lat="44.54742543950897" lon="0.9332583146792742"><ele>115.0</ele><time>2026-04-23T17:21:07Z</time></trkpt><trkpt lat="44.54735196479728" lon="0.9333389909189621"><ele>115.0</ele><time>2026-04-23T17:21:08Z</time></trkpt><trkpt lat="44.5472775886671" lon="0.933426266585888"><ele>115.0</ele><time>2026-04-23T17:21:09Z</time></trkpt><trkpt lat="44.547207715397384" lon="0.9334938046726964"><ele>115.0</ele><time>2026-04-23T17:21:10Z</time></trkpt><trkpt lat="44.54715113692173" lon="0.9335629093411602"><ele>114.83333333333334</ele><time>2026-04-23T17:21:11Z</time></trkpt><trkpt lat="44.547114658306405" lon="0.9336369105041464"><ele>114.66666666666667</ele><time>2026-04-23T17:21:12Z</time></trkpt><trkpt lat="44.5470314840722" lon="0.9337268495072568"><ele>114.5</ele><time>2026-04-23T17:21:14Z</time></trkpt><trkpt lat="44.54695444382943" lon="0.9337602270020458"><ele>114.33333333333334</ele><time>2026-04-23T17:21:16Z</time></trkpt><trkpt lat="44.546881008654516" lon="0.9336475403815171"><ele>114.16666666666667</ele><time>2026-04-23T17:21:18Z</time></trkpt><trkpt lat="44.54685951731689" lon="0.9335375040986534"><ele>114.0</ele><time>2026-04-23T17:21:19Z</time></trkpt><trkpt lat="44.546830717709874" lon="0.9334027056222465"><ele>113.75</ele><time>2026-04-23T17:21:20Z</time></trkpt><trkpt lat="44.54677191117623" lon="0.933250536710061"><ele>113.5</ele><time>2026-04-23T17:21:21Z</time></trkpt><trkpt lat="44.54668793642463" lon="0.933106723463339"><ele>113.25</ele><time>2026-04-23T17:21:22Z</time></trkpt><trkpt lat="44.546564134770016" lon="0.9329719268169815"><ele>113.0</ele><time>2026-04-23T17:21:23Z</time></trkpt><trkpt lat="44.54643800560455" lon="0.9328299565922903"><ele>113.0</ele><time>2026-04-23T17:21:24Z</time></trkpt><trkpt lat="44.54632147931239" lon="0.9326901824069339"><ele>113.0</ele><time>2026-04-23T17:21:25Z</time></trkpt><trkpt lat="44.54620942958263" lon="0.9325679214161631"><ele>113.0</ele><time>2026-04-23T17:21:26Z</time></trkpt><trkpt lat="44.54612067064067" lon="0.9324602112036414"><ele>113.0</ele><time>2026-04-23T17:21:27Z</time></trkpt><trkpt lat="44.54603061636854" lon="0.9323715470523602"><ele>112.80000000000001</ele><time>2026-04-23T17:21:28Z</time></trkpt><trkpt lat="44.545929313545756" lon="0.9323122751734734"><ele>112.60000000000001</ele><time>2026-04-23T17:21:28.999Z</time></trkpt><trkpt lat="44.545836142790336" lon="0.93225231708968"><ele>112.39999999999999</ele><time>2026-04-23T17:21:29.999Z</time></trkpt><trkpt lat="44.545771279311296" lon="0.9321592006481128"><ele>112.19999999999999</ele><time>2026-04-23T17:21:30.999Z</time></trkpt><trkpt lat="44.545729199904656" lon="0.93201372152858"><ele>112.0</ele><time>2026-04-23T17:21:31.999Z</time></trkpt><trkpt lat="44.5457301539126" lon="0.9318625474361965"><ele>112.0</ele><time>2026-04-23T17:21:32.999Z</time></trkpt><trkpt lat="44.54574292722708" lon="0.9317269763243995"><ele>111.99999999999999</ele><time>2026-04-23T17:21:33.999Z</time></trkpt><trkpt lat="44.54579182774026" lon="0.9315983427519391"><ele>111.99999999999999</ele><time>2026-04-23T17:21:34.999Z</time></trkpt><trkpt lat="44.54583248191098" lon="0.931480447539514"><ele>112.0</ele><time>2026-04-23T17:21:35.999Z</time></trkpt><trkpt lat="44.54586149022907" lon="0.9313846302805522"><ele>112.0</ele><time>2026-04-23T17:21:36.999Z</time></trkpt><trkpt lat="44.545849703673284" lon="0.9312061294509304"><ele>112.57142857142857</ele><time>2026-04-23T17:21:38.999Z</time></trkpt><trkpt lat="44.54582243039278" lon="0.9311231731529683"><ele>113.14285714285714</ele><time>2026-04-23T17:21:39.999Z</time></trkpt><trkpt lat="44.54578338104848" lon="0.9310376546715654"><ele>113.71428571428572</ele><time>2026-04-23T17:21:40.999Z</time></trkpt><trkpt lat="44.54574759277067" lon="0.930964701074721"><ele>114.28571428571429</ele><time>2026-04-23T17:21:41.999Z</time></trkpt><trkpt lat="44.54568949781856" lon="0.9309157746331287"><ele>114.85714285714286</ele><time>2026-04-23T17:21:43.999Z</time></trkpt><trkpt lat="44.545630270156195" lon="0.9308378068773687"><ele>115.42857142857144</ele><time>2026-04-23T17:21:45.999Z</time></trkpt><trkpt lat="44.54556791144951" lon="0.9307932611396186"><ele>116.00000000000001</ele><time>2026-04-23T17:21:46.999Z</time></trkpt><trkpt lat="44.54550592901108" lon="0.9307252300716675"><ele>116.83333333333333</ele><time>2026-04-23T17:21:47.999Z</time></trkpt><trkpt lat="44.5454615107134" lon="0.9306380872209191"><ele>117.66666666666666</ele><time>2026-04-23T17:21:48.999Z</time></trkpt><trkpt lat="44.545410449948136" lon="0.9305424256829664"><ele>118.5</ele><time>2026-04-23T17:21:50.999Z</time></trkpt><trkpt lat="44.545365737300656" lon="0.9304267622552244"><ele>119.33333333333334</ele><time>2026-04-23T17:21:52.999Z</time></trkpt><trkpt lat="44.54534525134529" lon="0.9303431735750718"><ele>120.16666666666667</ele><time>2026-04-23T17:21:53.999Z</time></trkpt><trkpt lat="44.54532536294083" lon="0.9302241440285499"><ele>121.0</ele><time>2026-04-23T17:21:54.999Z</time></trkpt><trkpt lat="44.545323253049816" lon="0.9301254001784158"><ele>122.4</ele><time>2026-04-23T17:21:55.999Z</time></trkpt><trkpt lat="44.54532211604758" lon="0.9299995195950819"><ele>123.8</ele><time>2026-04-23T17:21:56.999Z</time></trkpt><trkpt lat="44.54533430169199" lon="0.9298959521597636"><ele>125.20000000000002</ele><time>2026-04-23T17:21:57.999Z</time></trkpt><trkpt lat="44.545342373322626" lon="0.9297892483757269"><ele>126.60000000000001</ele><time>2026-04-23T17:21:58.999Z</time></trkpt><trkpt lat="44.545365354582735" lon="0.9296974981022282"><ele>128.0</ele><time>2026-04-23T17:21:59.999Z</time></trkpt><trkpt lat="44.545414104047445" lon="0.9295088022915187"><ele>129.0</ele><time>2026-04-23T17:22:01.999Z</time></trkpt><trkpt lat="44.5454266402198" lon="0.9294169790765454"><ele>130.0</ele><time>2026-04-23T17:22:02.999Z</time></trkpt><trkpt lat="44.545419529389726" lon="0.9293034623682499"><ele>131.0</ele><time>2026-04-23T17:22:04.999Z</time></trkpt><trkpt lat="44.54541481122872" lon="0.9292063435715564"><ele>132.0</ele><time>2026-04-23T17:22:06.999Z</time></trkpt><trkpt lat="44.54538651800131" lon="0.9291052647976071"><ele>133.0</ele><time>2026-04-23T17:22:09.999Z</time></trkpt><trkpt lat="44.54532788140665" lon="0.9289941550766945"><ele>134.0</ele><time>2026-04-23T17:22:12.999Z</time></trkpt><trkpt lat="44.545285096835485" lon="0.92892303879127"><ele>134.0</ele><time>2026-04-23T17:22:13.999Z</time></trkpt><trkpt lat="44.54524153869983" lon="0.9288511351412442"><ele>134.0</ele><time>2026-04-23T17:22:14.999Z</time></trkpt><trkpt lat="44.54518140326753" lon="0.9287901933763619"><ele>134.0</ele><time>2026-04-23T17:22:17.999Z</time></trkpt><trkpt lat="44.54512528744385" lon="0.9286901277468184"><ele>134.0</ele><time>2026-04-23T17:22:19.999Z</time></trkpt><trkpt lat="44.54506835753" lon="0.9286071394771404"><ele>134.0</ele><time>2026-04-23T17:22:22.999Z</time></trkpt><trkpt lat="44.54499364880713" lon="0.9285031607586083"><ele>134.0</ele><time>2026-04-23T17:22:24.999Z</time></trkpt><trkpt lat="44.54495822830472" lon="0.9284063856954838"><ele>136.0</ele><time>2026-04-23T17:22:25.999Z</time></trkpt><trkpt lat="44.54491033218133" lon="0.9283170877595192"><ele>138.0</ele><time>2026-04-23T17:22:26.999Z</time></trkpt><trkpt lat="44.544847272421784" lon="0.9282717113781247"><ele>140.0</ele><time>2026-04-23T17:22:27.999Z</time></trkpt><trkpt lat="44.54481798643649" lon="0.9281845430628889"><ele>142.0</ele><time>2026-04-23T17:22:28.999Z</time></trkpt><trkpt lat="44.54478162673834" lon="0.9281058170342625"><ele>144.0</ele><time>2026-04-23T17:22:29.999Z</time></trkpt><trkpt lat="44.544753696822056" lon="0.9280223350074082"><ele>146.0</ele><time>2026-04-23T17:22:30.999Z</time></trkpt><trkpt lat="44.54469720658713" lon="0.9279100468851491"><ele>146.0</ele><time>2026-04-23T17:22:32.999Z</time></trkpt><trkpt lat="44.54464769861654" lon="0.9278158245348642"><ele>146.0</ele><time>2026-04-23T17:22:35Z</time></trkpt><trkpt lat="44.544588427888755" lon="0.9277080875958735"><ele>146.0</ele><time>2026-04-23T17:22:36Z</time></trkpt><trkpt lat="44.54453779286228" lon="0.9276107218155373"><ele>146.0</ele><time>2026-04-23T17:22:37Z</time></trkpt><trkpt lat="44.54446935968442" lon="0.927537381935662"><ele>146.0</ele><time>2026-04-23T17:22:39Z</time></trkpt><trkpt lat="44.54440329790863" lon="0.9274677070434358"><ele>146.0</ele><time>2026-04-23T17:22:44Z</time></trkpt><trkpt lat="44.544350846189616" lon="0.9273889369605859"><ele>146.0</ele><time>2026-04-23T17:22:46Z</time></trkpt><trkpt lat="44.54428977490534" lon="0.9273186860316551"><ele>146.0</ele><time>2026-04-23T17:22:48Z</time></trkpt><trkpt lat="44.54436645489101" lon="0.9274313656670115"><ele>146.0</ele><time>2026-04-23T17:22:55Z</time></trkpt><trkpt lat="44.544445813265355" lon="0.9274957456113658"><ele>146.0</ele><time>2026-04-23T17:22:56Z</time></trkpt><trkpt lat="44.54451628468336" lon="0.927580181609369"><ele>146.0</ele><time>2026-04-23T17:22:58Z</time></trkpt><trkpt lat="44.54458779430732" lon="0.927694580646723"><ele>146.0</ele><time>2026-04-23T17:23:13Z</time></trkpt><trkpt lat="44.54465011951241" lon="0.9278242232029363"><ele>146.0</ele><time>2026-04-23T17:23:15Z</time></trkpt><trkpt lat="44.544669794148156" lon="0.9279083273433961"><ele>146.0</ele><time>2026-04-23T17:23:16Z</time></trkpt><trkpt lat="44.544728113781225" lon="0.928025193850078"><ele>146.0</ele><time>2026-04-23T17:23:18Z</time></trkpt><trkpt lat="44.54469050341406" lon="0.9279092224165394"><ele>146.0</ele><time>2026-04-23T17:23:24Z</time></trkpt><trkpt lat="44.544632820289" lon="0.9278365779420485"><ele>146.0</ele><time>2026-04-23T17:23:27Z</time></trkpt><trkpt lat="44.544554986766876" lon="0.9277064816050713"><ele>145.83333333333331</ele><time>2026-04-23T17:23:30Z</time></trkpt><trkpt lat="44.544507108582245" lon="0.9276327269401999"><ele>145.66666666666666</ele><time>2026-04-23T17:23:31Z</time></trkpt><trkpt lat="44.54446592559359" lon="0.9275631316636949"><ele>145.5</ele><time>2026-04-23T17:23:32Z</time></trkpt><trkpt lat="44.54441267389301" lon="0.9274874723156987"><ele>145.33333333333334</ele><time>2026-04-23T17:23:35Z</time></trkpt><trkpt lat="44.54433862140997" lon="0.9274393642992804"><ele>145.16666666666669</ele><time>2026-04-23T17:23:36.999Z</time></trkpt><trkpt lat="44.54426965840061" lon="0.9273559298445686"><ele>145.0</ele><time>2026-04-23T17:23:39.999Z</time></trkpt><trkpt lat="44.54421372076807" lon="0.9272787886069516"><ele>146.4</ele><time>2026-04-23T17:23:40.999Z</time></trkpt><trkpt lat="44.544162117447726" lon="0.927206393905009"><ele>147.8</ele><time>2026-04-23T17:23:41.999Z</time></trkpt><trkpt lat="44.54411103469335" lon="0.9271347295031684"><ele>149.2</ele><time>2026-04-23T17:23:44.999Z</time></trkpt><trkpt lat="44.54412797442549" lon="0.9269239575693029"><ele>150.6</ele><time>2026-04-23T17:23:46.999Z</time></trkpt><trkpt lat="44.544116873237286" lon="0.9267898744636813"><ele>152.0</ele><time>2026-04-23T17:23:48.999Z</time></trkpt><trkpt lat="44.54412423030733" lon="0.9266997675077432"><ele>152.83333333333331</ele><time>2026-04-23T17:23:50.999Z</time></trkpt><trkpt lat="44.54412192347946" lon="0.9265985251852722"><ele>153.66666666666666</ele><time>2026-04-23T17:23:51.999Z</time></trkpt><trkpt lat="44.544128575703276" lon="0.9264857874909566"><ele>154.5</ele><time>2026-04-23T17:23:53.999Z</time></trkpt><trkpt lat="44.54413813775261" lon="0.9263681749255641"><ele>155.33333333333334</ele><time>2026-04-23T17:23:55.999Z</time></trkpt><trkpt lat="44.54414598451975" lon="0.9262781890811219"><ele>156.16666666666669</ele><time>2026-04-23T17:23:56.999Z</time></trkpt><trkpt lat="44.54414406844495" lon="0.9264063568270209"><ele>157.0</ele><time>2026-04-23T17:24:03.999Z</time></trkpt><trkpt lat="44.54413252130109" lon="0.926513644426343"><ele>157.0</ele><time>2026-04-23T17:24:05.999Z</time></trkpt><trkpt lat="44.54414975037627" lon="0.9264044336909546"><ele>157.0</ele><time>2026-04-23T17:24:09.999Z</time></trkpt><trkpt lat="44.54415949781523" lon="0.9262031952931074"><ele>157.0</ele><time>2026-04-23T17:24:11.999Z</time></trkpt><trkpt lat="44.5441621768275" lon="0.9260619318383804"><ele>157.0</ele><time>2026-04-23T17:24:12.999Z</time></trkpt><trkpt lat="44.544154935638936" lon="0.9259070419210894"><ele>157.0</ele><time>2026-04-23T17:24:13.999Z</time></trkpt><trkpt lat="44.544142746781304" lon="0.9257612598930777"><ele>157.75</ele><time>2026-04-23T17:24:14.999Z</time></trkpt><trkpt lat="44.54410833531049" lon="0.9256092394008008"><ele>158.5</ele><time>2026-04-23T17:24:15.999Z</time></trkpt><trkpt lat="44.544055500570884" lon="0.9254471375596062"><ele>159.25</ele><time>2026-04-23T17:24:16.999Z</time></trkpt><trkpt lat="44.544006686590485" lon="0.9252816709421681"><ele>160.0</ele><time>2026-04-23T17:24:17.999Z</time></trkpt><trkpt lat="44.54395721086444" lon="0.9251143299531043"><ele>161.0</ele><time>2026-04-23T17:24:18.999Z</time></trkpt><trkpt lat="44.5439030463372" lon="0.9249132262254731"><ele>162.0</ele><time>2026-04-23T17:24:19.999Z</time></trkpt><trkpt lat="44.543833463876" lon="0.9247229480698019"><ele>163.0</ele><time>2026-04-23T17:24:20.999Z</time></trkpt><trkpt lat="44.543750900255475" lon="0.924522284458278"><ele>163.33333333333334</ele><time>2026-04-23T17:24:21.999Z</time></trkpt><trkpt lat="44.54368205522916" lon="0.9243341567825074"><ele>163.66666666666666</ele><time>2026-04-23T17:24:22.999Z</time></trkpt><trkpt lat="44.54358657380211" lon="0.9241498701552926"><ele>164.0</ele><time>2026-04-23T17:24:23.999Z</time></trkpt><trkpt lat="44.54349520764359" lon="0.9239805635079097"><ele>164.0</ele><time>2026-04-23T17:24:24.999Z</time></trkpt><trkpt lat="44.54340596242001" lon="0.9238124299467414"><ele>164.0</ele><time>2026-04-23T17:24:25.999Z</time></trkpt><trkpt lat="44.54331380715738" lon="0.9236430561419622"><ele>164.0</ele><time>2026-04-23T17:24:26.999Z</time></trkpt><trkpt lat="44.543233788589376" lon="0.9234948951157765"><ele>164.0</ele><time>2026-04-23T17:24:27.999Z</time></trkpt><trkpt lat="44.54317098957293" lon="0.9233814931094718"><ele>164.5</ele><time>2026-04-23T17:24:28.999Z</time></trkpt><trkpt lat="44.54312309241666" lon="0.923295511760147"><ele>165.0</ele><time>2026-04-23T17:24:29.999Z</time></trkpt><trkpt lat="44.54308526309035" lon="0.9232209685704832"><ele>165.5</ele><time>2026-04-23T17:24:30.999Z</time></trkpt><trkpt lat="44.54304247857745" lon="0.9231370630238479"><ele>166.0</ele><time>2026-04-23T17:24:31.999Z</time></trkpt><trkpt lat="44.54300191450912" lon="0.9230359134394296"><ele>166.5</ele><time>2026-04-23T17:24:32.999Z</time></trkpt><trkpt lat="44.54294679201191" lon="0.9229489493940785"><ele>167.0</ele><time>2026-04-23T17:24:33.999Z</time></trkpt><trkpt lat="44.54290485605673" lon="0.9228624001597041"><ele>167.0</ele><time>2026-04-23T17:24:34.999Z</time></trkpt><trkpt lat="44.542866568238004" lon="0.9227811004243064"><ele>167.0</ele><time>2026-04-23T17:24:35.999Z</time></trkpt><trkpt lat="44.54280358945993" lon="0.9226380341905862"><ele>167.0</ele><time>2026-04-23T17:24:37.999Z</time></trkpt><trkpt lat="44.54273169618023" lon="0.922480162623292"><ele>167.0</ele><time>2026-04-23T17:24:39.999Z</time></trkpt><trkpt lat="44.54269248157498" lon="0.9223985968096692"><ele>167.0</ele><time>2026-04-23T17:24:41Z</time></trkpt><trkpt lat="44.542647819162994" lon="0.9223268470221135"><ele>167.0</ele><time>2026-04-23T17:24:42Z</time></trkpt><trkpt lat="44.542584864619656" lon="0.922199448104064"><ele>167.0</ele><time>2026-04-23T17:24:44Z</time></trkpt><trkpt lat="44.54252716401964" lon="0.9220838615239308"><ele>167.0</ele><time>2026-04-23T17:24:46Z</time></trkpt><trkpt lat="44.54247378973333" lon="0.9219832047045845"><ele>167.0</ele><time>2026-04-23T17:24:48Z</time></trkpt><trkpt lat="44.54242444763703" lon="0.9218378762745252"><ele>167.0</ele><time>2026-04-23T17:24:50Z</time></trkpt><trkpt lat="44.54234836442701" lon="0.9217129128650451"><ele>166.6</ele><time>2026-04-23T17:24:52Z</time></trkpt><trkpt lat="44.542306857118405" lon="0.9216179803113089"><ele>166.2</ele><time>2026-04-23T17:24:53Z</time></trkpt><trkpt lat="44.54224949057875" lon="0.9214996450209998"><ele>165.8</ele><time>2026-04-23T17:24:54Z</time></trkpt><trkpt lat="44.542182629751295" lon="0.921362176636447"><ele>165.4</ele><time>2026-04-23T17:24:55Z</time></trkpt><trkpt lat="44.54210461742904" lon="0.9212183849022629"><ele>165.0</ele><time>2026-04-23T17:24:56Z</time></trkpt><trkpt lat="44.54203550783423" lon="0.9210594945387367"><ele>165.83333333333334</ele><time>2026-04-23T17:24:57Z</time></trkpt><trkpt lat="44.54196269279662" lon="0.9209030322054679"><ele>166.66666666666666</ele><time>2026-04-23T17:24:58Z</time></trkpt><trkpt lat="44.54190676174966" lon="0.9208024628592599"><ele>167.5</ele><time>2026-04-23T17:24:59Z</time></trkpt><trkpt lat="44.54186918636811" lon="0.9206979182130575"><ele>168.33333333333331</ele><time>2026-04-23T17:25:00Z</time></trkpt><trkpt lat="44.54183824556628" lon="0.9206037699833013"><ele>169.16666666666666</ele><time>2026-04-23T17:25:01Z</time></trkpt><trkpt lat="44.54181774831925" lon="0.9205132992231457"><ele>170.0</ele><time>2026-04-23T17:25:02Z</time></trkpt><trkpt lat="44.541803183829074" lon="0.9204234879752023"><ele>170.0</ele><time>2026-04-23T17:25:03Z</time></trkpt><trkpt lat="44.541798338999264" lon="0.9203158755672182"><ele>170.0</ele><time>2026-04-23T17:25:04Z</time></trkpt><trkpt lat="44.54179272809694" lon="0.9202212581517132"><ele>170.0</ele><time>2026-04-23T17:25:05Z</time></trkpt><trkpt lat="44.54179631894381" lon="0.9200760276940716"><ele>170.0</ele><time>2026-04-23T17:25:07Z</time></trkpt><trkpt lat="44.5417922978675" lon="0.9199487772871802"><ele>170.0</ele><time>2026-04-23T17:25:09Z</time></trkpt><trkpt lat="44.54180312961256" lon="0.9198230579499276"><ele>170.0</ele><time>2026-04-23T17:25:11Z</time></trkpt><trkpt lat="44.541807420546654" lon="0.9197042403122941"><ele>169.2</ele><time>2026-04-23T17:25:13Z</time></trkpt><trkpt lat="44.5418278826748" lon="0.9195859542576892"><ele>168.4</ele><time>2026-04-23T17:25:15Z</time></trkpt><trkpt lat="44.541833481923476" lon="0.9194807289747848"><ele>167.60000000000002</ele><time>2026-04-23T17:25:18Z</time></trkpt><trkpt lat="44.54183564780075" lon="0.919333988755919"><ele>166.8</ele><time>2026-04-23T17:25:20Z</time></trkpt><trkpt lat="44.54184466197385" lon="0.9192364523746827"><ele>166.0</ele><time>2026-04-23T17:25:24Z</time></trkpt><trkpt lat="44.54172856141731" lon="0.9193569616464634"><ele>166.0</ele><time>2026-04-23T17:25:29Z</time></trkpt><trkpt lat="44.54165528816" lon="0.9194458262814832"><ele>166.0</ele><time>2026-04-23T17:25:31Z</time></trkpt><trkpt lat="44.541609591119226" lon="0.9195492715136496"><ele>166.0</ele><time>2026-04-23T17:25:32Z</time></trkpt><trkpt lat="44.54154598849472" lon="0.9196486188151357"><ele>166.0</ele><time>2026-04-23T17:25:33Z</time></trkpt><trkpt lat="44.541463311902824" lon="0.919740779284041"><ele>166.0</ele><time>2026-04-23T17:25:34Z</time></trkpt><trkpt lat="44.541397992509594" lon="0.9198398971968794"><ele>166.0</ele><time>2026-04-23T17:25:35Z</time></trkpt><trkpt lat="44.54133910810285" lon="0.9199292503846919"><ele>166.0</ele><time>2026-04-23T17:25:36Z</time></trkpt><trkpt lat="44.541284212985616" lon="0.9200125501197434"><ele>166.0</ele><time>2026-04-23T17:25:37Z</time></trkpt><trkpt lat="44.541231269559695" lon="0.9200924411364977"><ele>166.0</ele><time>2026-04-23T17:25:38Z</time></trkpt><trkpt lat="44.54117495717031" lon="0.9201760058750871"><ele>166.0</ele><time>2026-04-23T17:25:39Z</time></trkpt><trkpt lat="44.5411143608304" lon="0.9202644217916907"><ele>166.0</ele><time>2026-04-23T17:25:40Z</time></trkpt><trkpt lat="44.541050709319045" lon="0.9203547297492143"><ele>166.0</ele><time>2026-04-23T17:25:41Z</time></trkpt><trkpt lat="44.540987194745114" lon="0.9204703105786406"><ele>166.0</ele><time>2026-04-23T17:25:42Z</time></trkpt><trkpt lat="44.540909886540035" lon="0.9205610642764911"><ele>166.0</ele><time>2026-04-23T17:25:43Z</time></trkpt><trkpt lat="44.54083977477522" lon="0.9206458417691697"><ele>166.0</ele><time>2026-04-23T17:25:44Z</time></trkpt><trkpt lat="44.54077125528204" lon="0.9207172561025165"><ele>166.0</ele><time>2026-04-23T17:25:45Z</time></trkpt><trkpt lat="44.54069787751689" lon="0.9207902671778921"><ele>166.0</ele><time>2026-04-23T17:25:46Z</time></trkpt><trkpt lat="44.54062032569694" lon="0.9208632298192764"><ele>166.0</ele><time>2026-04-23T17:25:47Z</time></trkpt><trkpt lat="44.54055091254642" lon="0.9209231472780605"><ele>166.0</ele><time>2026-04-23T17:25:48Z</time></trkpt><trkpt lat="44.540482515100024" lon="0.9209852401135206"><ele>166.0</ele><time>2026-04-23T17:25:48.999Z</time></trkpt><trkpt lat="44.5404093234707" lon="0.9210528292533502"><ele>166.0</ele><time>2026-04-23T17:25:49.999Z</time></trkpt><trkpt lat="44.54033883416389" lon="0.9211098822951994"><ele>166.0</ele><time>2026-04-23T17:25:50.999Z</time></trkpt><trkpt lat="44.540266295334746" lon="0.9211533621859469"><ele>165.66666666666669</ele><time>2026-04-23T17:25:51.999Z</time></trkpt><trkpt lat="44.54019511930101" lon="0.9211961185533538"><ele>165.33333333333334</ele><time>2026-04-23T17:25:52.999Z</time></trkpt><trkpt lat="44.54012213105153" lon="0.9212387052888029"><ele>165.0</ele><time>2026-04-23T17:25:53.999Z</time></trkpt><trkpt lat="44.54003757641757" lon="0.9212832442642818"><ele>164.66666666666666</ele><time>2026-04-23T17:25:54.999Z</time></trkpt><trkpt lat="44.53995284837334" lon="0.9213175035775368"><ele>164.33333333333331</ele><time>2026-04-23T17:25:55.999Z</time></trkpt><trkpt lat="44.5398668161112" lon="0.9213466777664712"><ele>164.0</ele><time>2026-04-23T17:25:56.999Z</time></trkpt><trkpt lat="44.53979202135892" lon="0.9213553214694911"><ele>164.0</ele><time>2026-04-23T17:25:57.999Z</time></trkpt><trkpt lat="44.53971018277115" lon="0.9213757495342795"><ele>164.0</ele><time>2026-04-23T17:25:58.999Z</time></trkpt><trkpt lat="44.53964037757067" lon="0.9213890840224527"><ele>164.0</ele><time>2026-04-23T17:25:59.999Z</time></trkpt><trkpt lat="44.539568168772504" lon="0.9213942722995462"><ele>164.0</ele><time>2026-04-23T17:26:00.999Z</time></trkpt><trkpt lat="44.53948392476028" lon="0.9213980942209057"><ele>164.0</ele><time>2026-04-23T17:26:01.999Z</time></trkpt><trkpt lat="44.539383879046774" lon="0.9214107911583898"><ele>164.0</ele><time>2026-04-23T17:26:02.999Z</time></trkpt><trkpt lat="44.53926954900583" lon="0.9214314387947286"><ele>163.5</ele><time>2026-04-23T17:26:03.999Z</time></trkpt><trkpt lat="44.53916127577446" lon="0.921439237661971"><ele>163.0</ele><time>2026-04-23T17:26:04.999Z</time></trkpt><trkpt lat="44.53906639073143" lon="0.9214568087348426"><ele>162.5</ele><time>2026-04-23T17:26:05.999Z</time></trkpt><trkpt lat="44.53898371259656" lon="0.9214771138994354"><ele>162.0</ele><time>2026-04-23T17:26:06.999Z</time></trkpt><trkpt lat="44.53891088224649" lon="0.9215078659817475"><ele>161.5</ele><time>2026-04-23T17:26:07.999Z</time></trkpt><trkpt lat="44.53884730443898" lon="0.9215325224318709"><ele>161.0</ele><time>2026-04-23T17:26:08.999Z</time></trkpt><trkpt lat="44.53875297395604" lon="0.9215495479633242"><ele>159.8</ele><time>2026-04-23T17:26:10.999Z</time></trkpt><trkpt lat="44.538675876155466" lon="0.9215967939067982"><ele>158.60000000000002</ele><time>2026-04-23T17:26:18.999Z</time></trkpt><trkpt lat="44.5385973265344" lon="0.9216330065773597"><ele>157.4</ele><time>2026-04-23T17:26:19.999Z</time></trkpt><trkpt lat="44.53849394773736" lon="0.9216806336984696"><ele>156.2</ele><time>2026-04-23T17:26:20.999Z</time></trkpt><trkpt lat="44.538383859547466" lon="0.921733803904637"><ele>155.0</ele><time>2026-04-23T17:26:21.999Z</time></trkpt><trkpt lat="44.538295450311104" lon="0.9217765038385596"><ele>154.83333333333331</ele><time>2026-04-23T17:26:22.999Z</time></trkpt><trkpt lat="44.538219173358684" lon="0.9218355688320568"><ele>154.66666666666666</ele><time>2026-04-23T17:26:23.999Z</time></trkpt><trkpt lat="44.53814216672809" lon="0.9218668642637633"><ele>154.5</ele><time>2026-04-23T17:26:24.999Z</time></trkpt><trkpt lat="44.53807290143267" lon="0.9218946645728155"><ele>154.33333333333334</ele><time>2026-04-23T17:26:25.999Z</time></trkpt><trkpt lat="44.53799988411556" lon="0.9219342821768408"><ele>154.16666666666669</ele><time>2026-04-23T17:26:26.999Z</time></trkpt><trkpt lat="44.53792282572709" lon="0.9219748894574846"><ele>154.0</ele><time>2026-04-23T17:26:27.999Z</time></trkpt><trkpt lat="44.53784333774961" lon="0.9220096966465562"><ele>153.25</ele><time>2026-04-23T17:26:28.999Z</time></trkpt><trkpt lat="44.537728258776696" lon="0.9220638342844742"><ele>152.5</ele><time>2026-04-23T17:26:29.999Z</time></trkpt><trkpt lat="44.53759576773439" lon="0.9221094568468852"><ele>151.75</ele><time>2026-04-23T17:26:30.999Z</time></trkpt><trkpt lat="44.53745851245997" lon="0.9221747634669567"><ele>151.0</ele><time>2026-04-23T17:26:31.999Z</time></trkpt><trkpt lat="44.53731074269398" lon="0.9222450729051961"><ele>151.0</ele><time>2026-04-23T17:26:32.999Z</time></trkpt><trkpt lat="44.53715200130158" lon="0.922321064580885"><ele>151.0</ele><time>2026-04-23T17:26:33.999Z</time></trkpt><trkpt lat="44.53699234487717" lon="0.9224008173333006"><ele>151.0</ele><time>2026-04-23T17:26:34.999Z</time></trkpt><trkpt lat="44.53682638496933" lon="0.9224858324743437"><ele>152.0</ele><time>2026-04-23T17:26:35.999Z</time></trkpt><trkpt lat="44.536668709610254" lon="0.922600808875831"><ele>153.0</ele><time>2026-04-23T17:26:36.999Z</time></trkpt><trkpt lat="44.53651625487793" lon="0.9227258725602355"><ele>154.0</ele><time>2026-04-23T17:26:37.999Z</time></trkpt><trkpt lat="44.53635528064801" lon="0.9228532817815001"><ele>153.66666666666669</ele><time>2026-04-23T17:26:38.999Z</time></trkpt><trkpt lat="44.536200187908136" lon="0.9229935052669145"><ele>153.33333333333334</ele><time>2026-04-23T17:26:39.999Z</time></trkpt><trkpt lat="44.53604755807615" lon="0.9231315036712141"><ele>153.0</ele><time>2026-04-23T17:26:40.999Z</time></trkpt><trkpt lat="44.535899558725454" lon="0.923265365227985"><ele>151.66666666666666</ele><time>2026-04-23T17:26:41.999Z</time></trkpt><trkpt lat="44.53574291017425" lon="0.9234070855503269"><ele>150.33333333333331</ele><time>2026-04-23T17:26:42.999Z</time></trkpt><trkpt lat="44.53558999916978" lon="0.9235457516046244"><ele>149.0</ele><time>2026-04-23T17:26:43.999Z</time></trkpt><trkpt lat="44.53543069183328" lon="0.9236905571026561"><ele>150.33333333333331</ele><time>2026-04-23T17:26:44.999Z</time></trkpt><trkpt lat="44.535284285320174" lon="0.9238236221965326"><ele>151.66666666666666</ele><time>2026-04-23T17:26:45.999Z</time></trkpt><trkpt lat="44.53512580806452" lon="0.9239657778072279"><ele>153.0</ele><time>2026-04-23T17:26:47Z</time></trkpt><trkpt lat="44.5349750730081" lon="0.9241003967942657"><ele>153.33333333333334</ele><time>2026-04-23T17:26:48Z</time></trkpt><trkpt lat="44.53482939750997" lon="0.9242480315729065"><ele>153.66666666666669</ele><time>2026-04-23T17:26:49Z</time></trkpt><trkpt lat="44.5346731691812" lon="0.9243765716668965"><ele>154.0</ele><time>2026-04-23T17:26:50Z</time></trkpt><trkpt lat="44.53449364582407" lon="0.924522638168824"><ele>154.0</ele><time>2026-04-23T17:26:51Z</time></trkpt><trkpt lat="44.53431743343839" lon="0.9246740087888434"><ele>154.0</ele><time>2026-04-23T17:26:52Z</time></trkpt><trkpt lat="44.53414104465201" lon="0.9248270222532023"><ele>154.0</ele><time>2026-04-23T17:26:53Z</time></trkpt><trkpt lat="44.534002332545924" lon="0.9249516916227237"><ele>153.66666666666669</ele><time>2026-04-23T17:26:54Z</time></trkpt><trkpt lat="44.53386405983434" lon="0.9251070370295279"><ele>153.33333333333334</ele><time>2026-04-23T17:26:55Z</time></trkpt><trkpt lat="44.53369044252708" lon="0.9252452529546953"><ele>153.0</ele><time>2026-04-23T17:26:56Z</time></trkpt><trkpt lat="44.53354449902268" lon="0.9253848211220248"><ele>152.5</ele><time>2026-04-23T17:26:57Z</time></trkpt><trkpt lat="44.53342519020563" lon="0.9255268386360871"><ele>152.0</ele><time>2026-04-23T17:26:58Z</time></trkpt><trkpt lat="44.53329967405302" lon="0.9256401229575197"><ele>151.5</ele><time>2026-04-23T17:26:59Z</time></trkpt><trkpt lat="44.53317497176832" lon="0.9257315843497609"><ele>151.0</ele><time>2026-04-23T17:27:00Z</time></trkpt><trkpt lat="44.533067555333886" lon="0.9258338620952639"><ele>150.6</ele><time>2026-04-23T17:27:01Z</time></trkpt><trkpt lat="44.53297326777418" lon="0.9259259863231049"><ele>150.2</ele><time>2026-04-23T17:27:02Z</time></trkpt><trkpt lat="44.532890372785495" lon="0.9260332835063418"><ele>149.8</ele><time>2026-04-23T17:27:03Z</time></trkpt><trkpt lat="44.53280363813877" lon="0.926109361515752"><ele>149.4</ele><time>2026-04-23T17:27:04Z</time></trkpt><trkpt lat="44.53273286889508" lon="0.926190479274902"><ele>149.0</ele><time>2026-04-23T17:27:05Z</time></trkpt><trkpt lat="44.532672410833534" lon="0.9262564046033827"><ele>148.75</ele><time>2026-04-23T17:27:06Z</time></trkpt><trkpt lat="44.532595886342726" lon="0.9263534171291913"><ele>148.5</ele><time>2026-04-23T17:27:08Z</time></trkpt><trkpt lat="44.5325216540644" lon="0.9264456494915956"><ele>148.25</ele><time>2026-04-23T17:27:10Z</time></trkpt><trkpt lat="44.53246719102946" lon="0.9264911650807711"><ele>148.0</ele><time>2026-04-23T17:27:14Z</time></trkpt><trkpt lat="44.53232186586535" lon="0.926273412323719"><ele>148.0</ele><time>2026-04-23T17:27:30Z</time></trkpt><trkpt lat="44.532240347721036" lon="0.9261598655143426"><ele>148.0</ele><time>2026-04-23T17:27:32Z</time></trkpt><trkpt lat="44.53218523437074" lon="0.9260868271142562"><ele>148.0</ele><time>2026-04-23T17:27:33Z</time></trkpt><trkpt lat="44.53211432586087" lon="0.9259879582870724"><ele>148.0</ele><time>2026-04-23T17:27:35Z</time></trkpt><trkpt lat="44.5320563637426" lon="0.9260352326552469"><ele>148.0</ele><time>2026-04-23T17:27:37Z</time></trkpt><trkpt lat="44.532050090781965" lon="0.9261400548526126"><ele>148.0</ele><time>2026-04-23T17:27:39Z</time></trkpt><trkpt lat="44.53196751220661" lon="0.926145928359299"><ele>147.5</ele><time>2026-04-23T17:27:42Z</time></trkpt><trkpt lat="44.53188038999417" lon="0.9261052861192375"><ele>147.0</ele><time>2026-04-23T17:27:44Z</time></trkpt><trkpt lat="44.53179219691984" lon="0.926147629891075"><ele>146.5</ele><time>2026-04-23T17:27:46.999Z</time></trkpt><trkpt lat="44.53172019402717" lon="0.9261494454159724"><ele>146.0</ele><time>2026-04-23T17:27:48.999Z</time></trkpt><trkpt lat="44.531805465147166" lon="0.9261350586730585"><ele>145.5</ele><time>2026-04-23T17:28:09.999Z</time></trkpt><trkpt lat="44.531873602015494" lon="0.9261241062145572"><ele>145.0</ele><time>2026-04-23T17:28:11.999Z</time></trkpt><trkpt lat="44.53184846288303" lon="0.9262531299390654"><ele>145.0</ele><time>2026-04-23T17:28:14.999Z</time></trkpt><trkpt lat="44.531786705072335" lon="0.9262703370655729"><ele>145.0</ele><time>2026-04-23T17:28:15.999Z</time></trkpt><trkpt lat="44.531720721220125" lon="0.9262808654322903"><ele>145.0</ele><time>2026-04-23T17:28:16.999Z</time></trkpt><trkpt lat="44.53163017161449" lon="0.926299064846715"><ele>145.0</ele><time>2026-04-23T17:28:17.999Z</time></trkpt><trkpt lat="44.531516632422424" lon="0.9263450945543592"><ele>145.0</ele><time>2026-04-23T17:28:18.999Z</time></trkpt><trkpt lat="44.53140986929649" lon="0.926386765936874"><ele>145.0</ele><time>2026-04-23T17:28:19.999Z</time></trkpt><trkpt lat="44.53131556764072" lon="0.9264328695502095"><ele>145.0</ele><time>2026-04-23T17:28:20.999Z</time></trkpt><trkpt lat="44.53123162443603" lon="0.9264490410206744"><ele>145.0</ele><time>2026-04-23T17:28:21.999Z</time></trkpt><trkpt lat="44.531155601196176" lon="0.9264882905067579"><ele>145.0</ele><time>2026-04-23T17:28:22.999Z</time></trkpt><trkpt lat="44.53108976743721" lon="0.926504314893592"><ele>145.0</ele><time>2026-04-23T17:28:24.999Z</time></trkpt><trkpt lat="44.531008939640174" lon="0.9265313658312084"><ele>145.0</ele><time>2026-04-23T17:28:26.999Z</time></trkpt><trkpt lat="44.530904662739864" lon="0.9266323400092473"><ele>145.25</ele><time>2026-04-23T17:28:27.999Z</time></trkpt><trkpt lat="44.530804761214775" lon="0.9267134287045132"><ele>145.5</ele><time>2026-04-23T17:28:28.999Z</time></trkpt><trkpt lat="44.53069223168885" lon="0.9267690897612197"><ele>145.75</ele><time>2026-04-23T17:28:29.999Z</time></trkpt><trkpt lat="44.53057854862477" lon="0.9268136546907028"><ele>146.0</ele><time>2026-04-23T17:28:30.999Z</time></trkpt><trkpt lat="44.53046047652835" lon="0.9268325942160253"><ele>145.8</ele><time>2026-04-23T17:28:31.999Z</time></trkpt><trkpt lat="44.530353407555694" lon="0.9268488414223481"><ele>145.6</ele><time>2026-04-23T17:28:32.999Z</time></trkpt><trkpt lat="44.53023814677116" lon="0.9268614696902981"><ele>145.4</ele><time>2026-04-23T17:28:33.999Z</time></trkpt><trkpt lat="44.53013898687737" lon="0.926874260284455"><ele>145.2</ele><time>2026-04-23T17:28:34.999Z</time></trkpt><trkpt lat="44.53002657319799" lon="0.9268964948453018"><ele>145.0</ele><time>2026-04-23T17:28:35.999Z</time></trkpt><trkpt lat="44.52993543276532" lon="0.926904577323441"><ele>145.0</ele><time>2026-04-23T17:28:36.999Z</time></trkpt><trkpt lat="44.52985576390552" lon="0.9269085281122286"><ele>145.0</ele><time>2026-04-23T17:28:37.999Z</time></trkpt><trkpt lat="44.52972023766147" lon="0.926927171263921"><ele>145.0</ele><time>2026-04-23T17:28:39.999Z</time></trkpt><trkpt lat="44.52964156853878" lon="0.9269351618083528"><ele>145.0</ele><time>2026-04-23T17:28:40.999Z</time></trkpt><trkpt lat="44.52952619420347" lon="0.9269494551315605"><ele>145.0</ele><time>2026-04-23T17:28:42.999Z</time></trkpt><trkpt lat="44.52940616625354" lon="0.9269833113709751"><ele>145.0</ele><time>2026-04-23T17:28:44.999Z</time></trkpt><trkpt lat="44.52933971967633" lon="0.9269903799063203"><ele>145.0</ele><time>2026-04-23T17:28:45.999Z</time></trkpt><trkpt lat="44.52924891565804" lon="0.9270202695193454"><ele>145.0</ele><time>2026-04-23T17:28:46.999Z</time></trkpt><trkpt lat="44.52913580097486" lon="0.9270392583392291"><ele>145.0</ele><time>2026-04-23T17:28:47.999Z</time></trkpt><trkpt lat="44.52901045272674" lon="0.9270594903296789"><ele>145.0</ele><time>2026-04-23T17:28:48.999Z</time></trkpt><trkpt lat="44.52888495682462" lon="0.9271079603163084"><ele>145.0</ele><time>2026-04-23T17:28:49.999Z</time></trkpt><trkpt lat="44.52876051908008" lon="0.9271480157408566"><ele>145.0</ele><time>2026-04-23T17:28:50.999Z</time></trkpt><trkpt lat="44.52867927429836" lon="0.9271796808238914"><ele>145.0</ele><time>2026-04-23T17:28:51.999Z</time></trkpt><trkpt lat="44.52856958991923" lon="0.9272077691281297"><ele>145.0</ele><time>2026-04-23T17:28:53Z</time></trkpt><trkpt lat="44.52845162897871" lon="0.9272078265041598"><ele>145.0</ele><time>2026-04-23T17:28:54Z</time></trkpt><trkpt lat="44.5283178652919" lon="0.9272394953546105"><ele>144.2</ele><time>2026-04-23T17:28:55Z</time></trkpt><trkpt lat="44.52821665423461" lon="0.9272397683393191"><ele>143.4</ele><time>2026-04-23T17:28:56Z</time></trkpt><trkpt lat="44.528113737932415" lon="0.9272799922264057"><ele>142.6</ele><time>2026-04-23T17:28:57Z</time></trkpt><trkpt lat="44.5280098319738" lon="0.9273604893097673"><ele>141.8</ele><time>2026-04-23T17:28:58Z</time></trkpt><trkpt lat="44.52791209674447" lon="0.9273880413815301"><ele>141.0</ele><time>2026-04-23T17:28:59Z</time></trkpt><trkpt lat="44.52780462293306" lon="0.9273637404121133"><ele>140.25</ele><time>2026-04-23T17:29:00Z</time></trkpt><trkpt lat="44.527681302460564" lon="0.9273446752355162"><ele>139.5</ele><time>2026-04-23T17:29:01Z</time></trkpt><trkpt lat="44.527530851346654" lon="0.9273397282493006"><ele>138.75</ele><time>2026-04-23T17:29:02Z</time></trkpt><trkpt lat="44.527379177833964" lon="0.9273299919263173"><ele>138.0</ele><time>2026-04-23T17:29:03Z</time></trkpt><trkpt lat="44.527213308688616" lon="0.9273487275168325"><ele>138.0</ele><time>2026-04-23T17:29:04Z</time></trkpt><trkpt lat="44.5270654468645" lon="0.9273706586462674"><ele>138.0</ele><time>2026-04-23T17:29:05Z</time></trkpt><trkpt lat="44.52693398028953" lon="0.9274026387228361"><ele>138.0</ele><time>2026-04-23T17:29:06Z</time></trkpt><trkpt lat="44.52682629879572" lon="0.9274694450528077"><ele>138.0</ele><time>2026-04-23T17:29:07Z</time></trkpt><trkpt lat="44.52670170399008" lon="0.9275371083478949"><ele>138.33333333333334</ele><time>2026-04-23T17:29:08Z</time></trkpt><trkpt lat="44.52656909881161" lon="0.9276229914615589"><ele>138.66666666666669</ele><time>2026-04-23T17:29:09Z</time></trkpt><trkpt lat="44.5264226281111" lon="0.9277363268644913"><ele>139.0</ele><time>2026-04-23T17:29:10Z</time></trkpt><trkpt lat="44.52627050412343" lon="0.9278361407104917"><ele>137.33333333333334</ele><time>2026-04-23T17:29:11Z</time></trkpt><trkpt lat="44.52612816056543" lon="0.9279476668993143"><ele>135.66666666666666</ele><time>2026-04-23T17:29:12Z</time></trkpt><trkpt lat="44.525991725966314" lon="0.9280338879268397"><ele>134.0</ele><time>2026-04-23T17:29:13Z</time></trkpt><trkpt lat="44.52585864528238" lon="0.9281468961096421"><ele>134.0</ele><time>2026-04-23T17:29:14Z</time></trkpt><trkpt lat="44.52574240698333" lon="0.9282698345826154"><ele>134.0</ele><time>2026-04-23T17:29:15Z</time></trkpt><trkpt lat="44.52566107116869" lon="0.9283699215208855"><ele>134.0</ele><time>2026-04-23T17:29:16Z</time></trkpt><trkpt lat="44.525583582197164" lon="0.9284551523495066"><ele>134.0</ele><time>2026-04-23T17:29:17Z</time></trkpt><trkpt lat="44.52551356727194" lon="0.9285512512654324"><ele>134.0</ele><time>2026-04-23T17:29:18Z</time></trkpt><trkpt lat="44.525449631027925" lon="0.9286424289867816"><ele>134.0</ele><time>2026-04-23T17:29:19Z</time></trkpt><trkpt lat="44.52539451622214" lon="0.9287288172704253"><ele>134.0</ele><time>2026-04-23T17:29:20Z</time></trkpt><trkpt lat="44.52531775377666" lon="0.9288425286077945"><ele>134.0</ele><time>2026-04-23T17:29:21Z</time></trkpt><trkpt lat="44.52522942719678" lon="0.9289868843322225"><ele>134.0</ele><time>2026-04-23T17:29:22Z</time></trkpt><trkpt lat="44.52513705929114" lon="0.9291350601761461"><ele>132.5</ele><time>2026-04-23T17:29:23Z</time></trkpt><trkpt lat="44.52503666542129" lon="0.9292829818044759"><ele>131.0</ele><time>2026-04-23T17:29:24Z</time></trkpt><trkpt lat="44.524934683393994" lon="0.9294116954358316"><ele>129.5</ele><time>2026-04-23T17:29:25Z</time></trkpt><trkpt lat="44.52483874713894" lon="0.9295282543710773"><ele>128.0</ele><time>2026-04-23T17:29:26Z</time></trkpt><trkpt lat="44.52476062406053" lon="0.9296551593586003"><ele>128.0</ele><time>2026-04-23T17:29:27Z</time></trkpt><trkpt lat="44.52465893351672" lon="0.9297688729547047"><ele>128.0</ele><time>2026-04-23T17:29:28Z</time></trkpt><trkpt lat="44.52454541366096" lon="0.929898407693324"><ele>128.0</ele><time>2026-04-23T17:29:29Z</time></trkpt><trkpt lat="44.524439621211144" lon="0.9300011558298953"><ele>128.0</ele><time>2026-04-23T17:29:30Z</time></trkpt><trkpt lat="44.524337974626896" lon="0.9300768355255403"><ele>127.33333333333333</ele><time>2026-04-23T17:29:31Z</time></trkpt><trkpt lat="44.52425933481381" lon="0.9301536177362476"><ele>126.66666666666666</ele><time>2026-04-23T17:29:32Z</time></trkpt><trkpt lat="44.52418672255894" lon="0.9302608988056459"><ele>126.0</ele><time>2026-04-23T17:29:33Z</time></trkpt><trkpt lat="44.52412166662797" lon="0.9303439842102286"><ele>125.33333333333334</ele><time>2026-04-23T17:29:34Z</time></trkpt><trkpt lat="44.52407371397401" lon="0.9304205117034954"><ele>124.66666666666667</ele><time>2026-04-23T17:29:35Z</time></trkpt><trkpt lat="44.52402095375306" lon="0.930505625928531"><ele>124.0</ele><time>2026-04-23T17:29:37Z</time></trkpt><trkpt lat="44.52396930419668" lon="0.9306027990151732"><ele>124.0</ele><time>2026-04-23T17:29:39Z</time></trkpt><trkpt lat="44.52389023414127" lon="0.930703894278639"><ele>124.0</ele><time>2026-04-23T17:29:41Z</time></trkpt><trkpt lat="44.523799249448935" lon="0.9308210795201057"><ele>124.0</ele><time>2026-04-23T17:29:43Z</time></trkpt><trkpt lat="44.52374392967452" lon="0.9308891704494446"><ele>124.0</ele><time>2026-04-23T17:29:44Z</time></trkpt><trkpt lat="44.52366830008903" lon="0.9309256237360282"><ele>124.0</ele><time>2026-04-23T17:29:45Z</time></trkpt><trkpt lat="44.52357201277655" lon="0.9309377624302747"><ele>123.66666666666667</ele><time>2026-04-23T17:29:46Z</time></trkpt><trkpt lat="44.52348619927149" lon="0.9309485934755578"><ele>123.33333333333334</ele><time>2026-04-23T17:29:47Z</time></trkpt><trkpt lat="44.523406852926165" lon="0.9309508573838027"><ele>123.0</ele><time>2026-04-23T17:29:48Z</time></trkpt><trkpt lat="44.523323298929505" lon="0.9309605738280378"><ele>122.66666666666666</ele><time>2026-04-23T17:29:49Z</time></trkpt><trkpt lat="44.523233000112285" lon="0.9309565443441685"><ele>122.33333333333333</ele><time>2026-04-23T17:29:50Z</time></trkpt><trkpt lat="44.52314392213387" lon="0.9309473624868332"><ele>122.0</ele><time>2026-04-23T17:29:51Z</time></trkpt><trkpt lat="44.523067813184795" lon="0.9309377752911923"><ele>122.0</ele><time>2026-04-23T17:29:52Z</time></trkpt><trkpt lat="44.522996079135744" lon="0.9309442266284829"><ele>121.99999999999999</ele><time>2026-04-23T17:29:52.999Z</time></trkpt><trkpt lat="44.52290528851864" lon="0.9309783618676918"><ele>121.99999999999999</ele><time>2026-04-23T17:29:53.999Z</time></trkpt><trkpt lat="44.52282294776175" lon="0.9310295217424716"><ele>122.0</ele><time>2026-04-23T17:29:54.999Z</time></trkpt><trkpt lat="44.5227253395934" lon="0.931106816593364"><ele>122.0</ele><time>2026-04-23T17:29:55.999Z</time></trkpt><trkpt lat="44.522646299149514" lon="0.931170233915225"><ele>119.83333333333333</ele><time>2026-04-23T17:29:56.999Z</time></trkpt><trkpt lat="44.5225637250153" lon="0.9312134922108338"><ele>117.66666666666666</ele><time>2026-04-23T17:29:57.999Z</time></trkpt><trkpt lat="44.52247414835042" lon="0.9312639994632128"><ele>115.5</ele><time>2026-04-23T17:29:58.999Z</time></trkpt><trkpt lat="44.52240441221487" lon="0.9312906777433354"><ele>113.33333333333334</ele><time>2026-04-23T17:29:59.999Z</time></trkpt><trkpt lat="44.52232961153143" lon="0.9313556009874165"><ele>111.16666666666667</ele><time>2026-04-23T17:30:00.999Z</time></trkpt><trkpt lat="44.52225236307865" lon="0.9314357763696858"><ele>109.0</ele><time>2026-04-23T17:30:01.999Z</time></trkpt><trkpt lat="44.522181910305996" lon="0.9314940451513317"><ele>109.00000000000001</ele><time>2026-04-23T17:30:02.999Z</time></trkpt><trkpt lat="44.5221063117056" lon="0.9315471958201978"><ele>109.0</ele><time>2026-04-23T17:30:03.999Z</time></trkpt><trkpt lat="44.52202891316065" lon="0.931607050147386"><ele>109.0</ele><time>2026-04-23T17:30:04.999Z</time></trkpt><trkpt lat="44.52195529178179" lon="0.9316760222757632"><ele>109.0</ele><time>2026-04-23T17:30:05.999Z</time></trkpt><trkpt lat="44.52188438425707" lon="0.9317381596241633"><ele>109.00000000000001</ele><time>2026-04-23T17:30:06.999Z</time></trkpt><trkpt lat="44.52179337075239" lon="0.9317570403367612"><ele>109.0</ele><time>2026-04-23T17:30:07.999Z</time></trkpt><trkpt lat="44.521712062783315" lon="0.9317621933728528"><ele>106.71428571428572</ele><time>2026-04-23T17:30:08.999Z</time></trkpt><trkpt lat="44.521630223512005" lon="0.9317829471530278"><ele>104.42857142857143</ele><time>2026-04-23T17:30:09.999Z</time></trkpt><trkpt lat="44.52154349028782" lon="0.9317839352601495"><ele>102.14285714285714</ele><time>2026-04-23T17:30:10.999Z</time></trkpt><trkpt lat="44.52147210099614" lon="0.9317935608925647"><ele>99.85714285714286</ele><time>2026-04-23T17:30:11.999Z</time></trkpt><trkpt lat="44.52140305239522" lon="0.9317767409019566"><ele>97.57142857142857</ele><time>2026-04-23T17:30:12.999Z</time></trkpt><trkpt lat="44.52133801776694" lon="0.9317662613658396"><ele>95.28571428571429</ele><time>2026-04-23T17:30:13.999Z</time></trkpt><trkpt lat="44.52126903817567" lon="0.9317698575967099"><ele>93.0</ele><time>2026-04-23T17:30:14.999Z</time></trkpt><trkpt lat="44.52118336695312" lon="0.9317788398138849"><ele>91.66666666666667</ele><time>2026-04-23T17:30:16.999Z</time></trkpt><trkpt lat="44.521113396424546" lon="0.9317900700673538"><ele>90.33333333333333</ele><time>2026-04-23T17:31:46Z</time></trkpt><trkpt lat="44.52101937913963" lon="0.9317950894589521"><ele>89.0</ele><time>2026-04-23T17:31:48Z</time></trkpt><trkpt lat="44.52092444056249" lon="0.9318051391881443"><ele>87.66666666666666</ele><time>2026-04-23T17:31:50Z</time></trkpt><trkpt lat="44.52083701248613" lon="0.9318376107591789"><ele>86.33333333333333</ele><time>2026-04-23T17:31:52.999Z</time></trkpt><trkpt lat="44.52077236878594" lon="0.9318664678008061"><ele>85.0</ele><time>2026-04-23T17:31:53.999Z</time></trkpt><trkpt lat="44.52066177813489" lon="0.9319169778289866"><ele>85.0</ele><time>2026-04-23T17:31:55.999Z</time></trkpt><trkpt lat="44.52056780040991" lon="0.9319608559826591"><ele>85.0</ele><time>2026-04-23T17:31:56.999Z</time></trkpt><trkpt lat="44.52045931162187" lon="0.9320146171876409"><ele>85.0</ele><time>2026-04-23T17:31:57.999Z</time></trkpt><trkpt lat="44.52037203448808" lon="0.9320568956285512"><ele>85.0</ele><time>2026-04-23T17:31:58.999Z</time></trkpt><trkpt lat="44.52030571005379" lon="0.9320890242416178"><ele>85.0</ele><time>2026-04-23T17:31:59.999Z</time></trkpt><trkpt lat="44.520240954235646" lon="0.9321200845265637"><ele>85.0</ele><time>2026-04-23T17:32:00.999Z</time></trkpt><trkpt lat="44.52017180704263" lon="0.932153173661414"><ele>85.5</ele><time>2026-04-23T17:32:01.999Z</time></trkpt><trkpt lat="44.52009581372852" lon="0.9321895388862017"><ele>86.0</ele><time>2026-04-23T17:32:02.999Z</time></trkpt><trkpt lat="44.52002145479431" lon="0.9322251220058868"><ele>86.5</ele><time>2026-04-23T17:32:03.999Z</time></trkpt><trkpt lat="44.519943788285154" lon="0.9322707056531225"><ele>87.0</ele><time>2026-04-23T17:32:04.999Z</time></trkpt><trkpt lat="44.519856647870625" lon="0.9323164492949805"><ele>87.5</ele><time>2026-04-23T17:32:05.999Z</time></trkpt><trkpt lat="44.519768780896236" lon="0.9323639402115578"><ele>88.0</ele><time>2026-04-23T17:32:06.999Z</time></trkpt><trkpt lat="44.51969513187373" lon="0.9324105443910582"><ele>88.0</ele><time>2026-04-23T17:32:07.999Z</time></trkpt><trkpt lat="44.51957212438714" lon="0.9325086354818766"><ele>88.0</ele><time>2026-04-23T17:32:09.999Z</time></trkpt><trkpt lat="44.51950608920791" lon="0.9325612515858654"><ele>88.0</ele><time>2026-04-23T17:32:10.999Z</time></trkpt><trkpt lat="44.51942778771016" lon="0.9326160270316735"><ele>88.0</ele><time>2026-04-23T17:32:11.999Z</time></trkpt><trkpt lat="44.51935636131963" lon="0.932680080009398"><ele>88.0</ele><time>2026-04-23T17:32:12.999Z</time></trkpt><trkpt lat="44.51929198704993" lon="0.9327341296549052"><ele>88.28571428571429</ele><time>2026-04-23T17:32:13.999Z</time></trkpt><trkpt lat="44.51922819284984" lon="0.9327852090227151"><ele>88.57142857142857</ele><time>2026-04-23T17:32:14.999Z</time></trkpt><trkpt lat="44.519162565403875" lon="0.9328358597668839"><ele>88.85714285714286</ele><time>2026-04-23T17:32:15.999Z</time></trkpt><trkpt lat="44.5191023705485" lon="0.9328879258193793"><ele>89.14285714285714</ele><time>2026-04-23T17:32:16.999Z</time></trkpt><trkpt lat="44.51904157312371" lon="0.9329320069733353"><ele>89.42857142857143</ele><time>2026-04-23T17:32:17.999Z</time></trkpt><trkpt lat="44.51898196123802" lon="0.9329822145885012"><ele>89.71428571428571</ele><time>2026-04-23T17:32:18.999Z</time></trkpt><trkpt lat="44.518925335932316" lon="0.9330224445632402"><ele>90.0</ele><time>2026-04-23T17:32:19.999Z</time></trkpt><trkpt lat="44.51881954262274" lon="0.9330940694527642"><ele>90.0</ele><time>2026-04-23T17:32:21.999Z</time></trkpt><trkpt lat="44.518753356188824" lon="0.9331315717604032"><ele>90.0</ele><time>2026-04-23T17:32:22.999Z</time></trkpt><trkpt lat="44.518680857651844" lon="0.9331656365839344"><ele>90.0</ele><time>2026-04-23T17:32:23.999Z</time></trkpt><trkpt lat="44.51858582111055" lon="0.9331881269587553"><ele>90.0</ele><time>2026-04-23T17:32:24.999Z</time></trkpt><trkpt lat="44.518475831181526" lon="0.9332308939427232"><ele>90.0</ele><time>2026-04-23T17:32:25.999Z</time></trkpt><trkpt lat="44.51837448507482" lon="0.9332846069235614"><ele>90.4</ele><time>2026-04-23T17:32:26.999Z</time></trkpt><trkpt lat="44.51829103179363" lon="0.9333099457907645"><ele>90.8</ele><time>2026-04-23T17:32:27.999Z</time></trkpt><trkpt lat="44.51820248050629" lon="0.933346096267465"><ele>91.19999999999999</ele><time>2026-04-23T17:32:28.999Z</time></trkpt><trkpt lat="44.518110946026894" lon="0.9333728725280931"><ele>91.6</ele><time>2026-04-23T17:32:29.999Z</time></trkpt><trkpt lat="44.518002384056544" lon="0.9334085668044445"><ele>92.0</ele><time>2026-04-23T17:32:30.999Z</time></trkpt><trkpt lat="44.517875552059344" lon="0.933464737002099"><ele>93.0</ele><time>2026-04-23T17:32:31.999Z</time></trkpt><trkpt lat="44.517737430419515" lon="0.9335005839821514"><ele>94.0</ele><time>2026-04-23T17:32:32.999Z</time></trkpt><trkpt lat="44.517592073919495" lon="0.9334760036610512"><ele>95.0</ele><time>2026-04-23T17:32:33.999Z</time></trkpt><trkpt lat="44.517440677816204" lon="0.9334508157761887"><ele>96.0</ele><time>2026-04-23T17:32:34.999Z</time></trkpt><trkpt lat="44.51730921799925" lon="0.9334168583189794"><ele>96.0</ele><time>2026-04-23T17:32:35.999Z</time></trkpt><trkpt lat="44.517196381721384" lon="0.9334088214502955"><ele>96.0</ele><time>2026-04-23T17:32:36.999Z</time></trkpt><trkpt lat="44.5171022929579" lon="0.9333818803763533"><ele>96.0</ele><time>2026-04-23T17:32:37.999Z</time></trkpt><trkpt lat="44.51701473361355" lon="0.9333643555412433"><ele>96.0</ele><time>2026-04-23T17:32:38.999Z</time></trkpt><trkpt lat="44.5169394713392" lon="0.9333486187917577"><ele>96.0</ele><time>2026-04-23T17:32:39.999Z</time></trkpt><trkpt lat="44.516871311815734" lon="0.9333236894451885"><ele>96.0</ele><time>2026-04-23T17:32:40.999Z</time></trkpt><trkpt lat="44.516752870358005" lon="0.9333131921683916"><ele>96.5</ele><time>2026-04-23T17:32:42.999Z</time></trkpt><trkpt lat="44.51665276287173" lon="0.933303778804618"><ele>97.0</ele><time>2026-04-23T17:32:44.999Z</time></trkpt><trkpt lat="44.51657478910324" lon="0.9332959865801277"><ele>97.5</ele><time>2026-04-23T17:32:46.999Z</time></trkpt><trkpt lat="44.51649015126304" lon="0.9333057719069063"><ele>98.0</ele><time>2026-04-23T17:32:48.999Z</time></trkpt><trkpt lat="44.516406879040154" lon="0.9333065172043117"><ele>98.5</ele><time>2026-04-23T17:32:50.999Z</time></trkpt><trkpt lat="44.516310018030104" lon="0.933317349963893"><ele>99.0</ele><time>2026-04-23T17:32:53.999Z</time></trkpt><trkpt lat="44.51621796542569" lon="0.9333351511882785"><ele>98.66666666666667</ele><time>2026-04-23T17:32:56.999Z</time></trkpt><trkpt lat="44.516143782242615" lon="0.9333607491712421"><ele>98.33333333333334</ele><time>2026-04-23T17:32:58.999Z</time></trkpt><trkpt lat="44.51608085263478" lon="0.9333717192649181"><ele>98.0</ele><time>2026-04-23T17:33:00.999Z</time></trkpt><trkpt lat="44.51600844492668" lon="0.9333554909543417"><ele>97.66666666666667</ele><time>2026-04-23T17:33:02.999Z</time></trkpt><trkpt lat="44.51589199127435" lon="0.9333866924436769"><ele>97.33333333333334</ele><time>2026-04-23T17:33:05Z</time></trkpt><trkpt lat="44.51582845527379" lon="0.9334029141837519"><ele>97.0</ele><time>2026-04-23T17:33:06Z</time></trkpt><trkpt lat="44.515752822934324" lon="0.9334223386484123"><ele>97.0</ele><time>2026-04-23T17:33:07Z</time></trkpt><trkpt lat="44.51566415370205" lon="0.9334294015591261"><ele>97.0</ele><time>2026-04-23T17:33:08Z</time></trkpt><trkpt lat="44.515557450034734" lon="0.9334307689566222"><ele>97.0</ele><time>2026-04-23T17:33:09Z</time></trkpt><trkpt lat="44.51545706197473" lon="0.9334279919282862"><ele>97.0</ele><time>2026-04-23T17:33:10Z</time></trkpt><trkpt lat="44.515380658368485" lon="0.9334150598517459"><ele>97.0</ele><time>2026-04-23T17:33:11Z</time></trkpt><trkpt lat="44.515267444332416" lon="0.9334009767719345"><ele>96.75</ele><time>2026-04-23T17:33:13Z</time></trkpt><trkpt lat="44.51516100302001" lon="0.933396095983364"><ele>96.5</ele><time>2026-04-23T17:33:15Z</time></trkpt><trkpt lat="44.51502476460628" lon="0.9333880947959586"><ele>96.25</ele><time>2026-04-23T17:33:17Z</time></trkpt><trkpt lat="44.51491867134622" lon="0.9333580400074876"><ele>96.0</ele><time>2026-04-23T17:33:18Z</time></trkpt><trkpt lat="44.51478384605335" lon="0.9333238363673612"><ele>95.75</ele><time>2026-04-23T17:33:19Z</time></trkpt><trkpt lat="44.51464880387424" lon="0.9332989696020237"><ele>95.5</ele><time>2026-04-23T17:33:20Z</time></trkpt><trkpt lat="44.514553203091126" lon="0.9333043668413891"><ele>95.25</ele><time>2026-04-23T17:33:21Z</time></trkpt><trkpt lat="44.51443701071625" lon="0.9333795439671664"><ele>95.0</ele><time>2026-04-23T17:33:22Z</time></trkpt><trkpt lat="44.514344980908554" lon="0.9334747531102453"><ele>95.0</ele><time>2026-04-23T17:33:23Z</time></trkpt><trkpt lat="44.51427687427944" lon="0.933527740172652"><ele>95.0</ele><time>2026-04-23T17:33:24Z</time></trkpt><trkpt lat="44.51423872847093" lon="0.9333198789053692"><ele>95.0</ele><time>2026-04-23T17:33:30Z</time></trkpt><trkpt lat="44.51419496604812" lon="0.933219571740357"><ele>95.0</ele><time>2026-04-23T17:33:31Z</time></trkpt><trkpt lat="44.514140437331605" lon="0.9330890867476502"><ele>95.0</ele><time>2026-04-23T17:33:32Z</time></trkpt><trkpt lat="44.51409869690662" lon="0.9329344637684728"><ele>95.0</ele><time>2026-04-23T17:33:33Z</time></trkpt><trkpt lat="44.514043433665066" lon="0.9327372660216153"><ele>95.0</ele><time>2026-04-23T17:33:34Z</time></trkpt><trkpt lat="44.51399339260363" lon="0.932532625033264"><ele>95.0</ele><time>2026-04-23T17:33:35Z</time></trkpt><trkpt lat="44.513945146836974" lon="0.9323171156979086"><ele>97.0</ele><time>2026-04-23T17:33:36Z</time></trkpt><trkpt lat="44.51390041099216" lon="0.9320978437729752"><ele>99.0</ele><time>2026-04-23T17:33:37Z</time></trkpt><trkpt lat="44.51386838749091" lon="0.9319204211143697"><ele>101.0</ele><time>2026-04-23T17:33:38Z</time></trkpt><trkpt lat="44.51383972396354" lon="0.9317209409583976"><ele>103.0</ele><time>2026-04-23T17:33:39Z</time></trkpt><trkpt lat="44.51381367779061" lon="0.9315072412102868"><ele>104.0</ele><time>2026-04-23T17:33:40Z</time></trkpt><trkpt lat="44.51378641933989" lon="0.9312891106930342"><ele>105.0</ele><time>2026-04-23T17:33:41Z</time></trkpt><trkpt lat="44.51375809012886" lon="0.9310687175940942"><ele>106.0</ele><time>2026-04-23T17:33:42Z</time></trkpt><trkpt lat="44.51372834786105" lon="0.930845025170882"><ele>106.0</ele><time>2026-04-23T17:33:43Z</time></trkpt><trkpt lat="44.51369178765882" lon="0.9306359482451753"><ele>106.0</ele><time>2026-04-23T17:33:44Z</time></trkpt><trkpt lat="44.5136490891781" lon="0.9304349208681807"><ele>106.0</ele><time>2026-04-23T17:33:45Z</time></trkpt><trkpt lat="44.51360118885822" lon="0.9302709317535074"><ele>106.0</ele><time>2026-04-23T17:33:46Z</time></trkpt><trkpt lat="44.513569271039984" lon="0.9301162699432122"><ele>106.6</ele><time>2026-04-23T17:33:47Z</time></trkpt><trkpt lat="44.51352842693523" lon="0.9299818448482453"><ele>107.19999999999999</ele><time>2026-04-23T17:33:47.999Z</time></trkpt><trkpt lat="44.51347381437909" lon="0.929837036416193"><ele>107.80000000000001</ele><time>2026-04-23T17:33:48.999Z</time></trkpt><trkpt lat="44.51342265267038" lon="0.9297064447178375"><ele>108.4</ele><time>2026-04-23T17:33:49.999Z</time></trkpt><trkpt lat="44.513382926025194" lon="0.9296057818262554"><ele>109.0</ele><time>2026-04-23T17:33:50.999Z</time></trkpt><trkpt lat="44.51334222155575" lon="0.929491075440778"><ele>109.0</ele><time>2026-04-23T17:33:51.999Z</time></trkpt><trkpt lat="44.51330303142791" lon="0.9293773322629151"><ele>109.0</ele><time>2026-04-23T17:33:52.999Z</time></trkpt><trkpt lat="44.513254301158774" lon="0.9292384522408066"><ele>109.0</ele><time>2026-04-23T17:33:54.999Z</time></trkpt><trkpt lat="44.5132200499209" lon="0.9291427764334169"><ele>109.0</ele><time>2026-04-23T17:33:56.999Z</time></trkpt><trkpt lat="44.51308565356238" lon="0.9292593183734242"><ele>109.0</ele><time>2026-04-23T17:34:04.999Z</time></trkpt><trkpt lat="44.51300528286531" lon="0.9293270141487687"><ele>109.0</ele><time>2026-04-23T17:34:07.999Z</time></trkpt><trkpt lat="44.512926677658314" lon="0.9293913698416308"><ele>109.0</ele><time>2026-04-23T17:34:10.999Z</time></trkpt><trkpt lat="44.5128363204265" lon="0.9294708326534633"><ele>109.0</ele><time>2026-04-23T17:34:12.999Z</time></trkpt><trkpt lat="44.512744924542304" lon="0.9295396892206071"><ele>109.0</ele><time>2026-04-23T17:34:14.999Z</time></trkpt><trkpt lat="44.512649336576466" lon="0.9296056518302659"><ele>109.0</ele><time>2026-04-23T17:34:16.999Z</time></trkpt><trkpt lat="44.512548549221776" lon="0.9297083231188624"><ele>107.80000000000001</ele><time>2026-04-23T17:34:18.999Z</time></trkpt><trkpt lat="44.51248834924443" lon="0.9297372345834208"><ele>106.60000000000001</ele><time>2026-04-23T17:34:19.999Z</time></trkpt><trkpt lat="44.512405091644794" lon="0.9297681170008636"><ele>105.4</ele><time>2026-04-23T17:34:20.999Z</time></trkpt><trkpt lat="44.51230398460735" lon="0.929883761708364"><ele>104.2</ele><time>2026-04-23T17:34:22.999Z</time></trkpt><trkpt lat="44.5122153706839" lon="0.9299214828775386"><ele>103.0</ele><time>2026-04-23T17:34:24.999Z</time></trkpt><trkpt lat="44.512155988281286" lon="0.9298144520748874"><ele>103.0</ele><time>2026-04-23T17:34:26.999Z</time></trkpt><trkpt lat="44.512127119910886" lon="0.9297164569412003"><ele>103.0</ele><time>2026-04-23T17:34:31.999Z</time></trkpt><trkpt lat="44.51208257753993" lon="0.9295924976329325"><ele>103.0</ele><time>2026-04-23T17:34:34.999Z</time></trkpt><trkpt lat="44.512026198972585" lon="0.9294440984345651"><ele>103.0</ele><time>2026-04-23T17:34:36.999Z</time></trkpt><trkpt lat="44.51197208010388" lon="0.9293544810421479"><ele>103.0</ele><time>2026-04-23T17:34:38.999Z</time></trkpt><trkpt lat="44.51189294809999" lon="0.929264647833352"><ele>104.33333333333334</ele><time>2026-04-23T17:34:41.999Z</time></trkpt><trkpt lat="44.51183418514769" lon="0.9292146936291801"><ele>105.66666666666667</ele><time>2026-04-23T17:34:43.999Z</time></trkpt><trkpt lat="44.51175701870475" lon="0.929195563248094"><ele>107.0</ele><time>2026-04-23T17:34:45.999Z</time></trkpt><trkpt lat="44.51169400764923" lon="0.9291377579507166"><ele>108.33333333333334</ele><time>2026-04-23T17:35:30Z</time></trkpt><trkpt lat="44.51168306269543" lon="0.9289886471447177"><ele>109.66666666666667</ele><time>2026-04-23T17:35:32Z</time></trkpt><trkpt lat="44.5116933704751" lon="0.9288657199067479"><ele>111.0</ele><time>2026-04-23T17:35:33Z</time></trkpt><trkpt lat="44.51168762717393" lon="0.928713970614357"><ele>111.0</ele><time>2026-04-23T17:35:34Z</time></trkpt><trkpt lat="44.51165956487054" lon="0.9285367017192924"><ele>111.0</ele><time>2026-04-23T17:35:35Z</time></trkpt><trkpt lat="44.511604574133884" lon="0.9283569592606592"><ele>111.0</ele><time>2026-04-23T17:35:36Z</time></trkpt><trkpt lat="44.51159035980025" lon="0.9282209958216876"><ele>111.0</ele><time>2026-04-23T17:35:37Z</time></trkpt><trkpt lat="44.51155454818927" lon="0.9281123087199996"><ele>110.83333333333333</ele><time>2026-04-23T17:35:38Z</time></trkpt><trkpt lat="44.51149034951542" lon="0.927971969311824"><ele>110.66666666666666</ele><time>2026-04-23T17:35:40Z</time></trkpt><trkpt lat="44.51146221637279" lon="0.9278621410635204"><ele>110.5</ele><time>2026-04-23T17:35:42Z</time></trkpt><trkpt lat="44.51143624796182" lon="0.9277716464839526"><ele>110.33333333333333</ele><time>2026-04-23T17:35:44Z</time></trkpt><trkpt lat="44.51140785962283" lon="0.9276871055181247"><ele>110.16666666666666</ele><time>2026-04-23T17:35:46Z</time></trkpt><trkpt lat="44.511370034800365" lon="0.9276151166324581"><ele>110.0</ele><time>2026-04-23T17:35:48Z</time></trkpt><trkpt lat="44.51131970362768" lon="0.9275190417548003"><ele>109.99999999999999</ele><time>2026-04-23T17:35:51Z</time></trkpt><trkpt lat="44.51127716770976" lon="0.9274526679686211"><ele>110.0</ele><time>2026-04-23T17:35:53Z</time></trkpt><trkpt lat="44.51119861140786" lon="0.9273925709347737"><ele>110.0</ele><time>2026-04-23T17:35:55.999Z</time></trkpt><trkpt lat="44.51113074063866" lon="0.9273980828755409"><ele>110.0</ele><time>2026-04-23T17:35:57.999Z</time></trkpt><trkpt lat="44.511067665054625" lon="0.9274066612634372"><ele>109.99999999999999</ele><time>2026-04-23T17:35:59.999Z</time></trkpt><trkpt lat="44.51096987547704" lon="0.9273660642165097"><ele>110.0</ele><time>2026-04-23T17:36:02.999Z</time></trkpt><trkpt lat="44.510910303635804" lon="0.9273324921602404"><ele>112.0</ele><time>2026-04-23T17:36:03.999Z</time></trkpt><trkpt lat="44.51083270877228" lon="0.9272738487988511"><ele>114.0</ele><time>2026-04-23T17:36:04.999Z</time></trkpt><trkpt lat="44.510741735084224" lon="0.9271878500108225"><ele>116.0</ele><time>2026-04-23T17:36:05.999Z</time></trkpt><trkpt lat="44.51064831478468" lon="0.9270863184035196"><ele>118.0</ele><time>2026-04-23T17:36:06.999Z</time></trkpt><trkpt lat="44.510550860735506" lon="0.92697205037531"><ele>120.0</ele><time>2026-04-23T17:36:07.999Z</time></trkpt><trkpt lat="44.51046000078577" lon="0.926880008154241"><ele>122.25</ele><time>2026-04-23T17:36:08.999Z</time></trkpt><trkpt lat="44.510369849306" lon="0.9268251615836506"><ele>124.5</ele><time>2026-04-23T17:36:09.999Z</time></trkpt><trkpt lat="44.510253338639885" lon="0.9267823552841226"><ele>126.75</ele><time>2026-04-23T17:36:10.999Z</time></trkpt><trkpt lat="44.51012359079521" lon="0.9267711066931311"><ele>129.0</ele><time>2026-04-23T17:36:11.999Z</time></trkpt><trkpt lat="44.50998630957773" lon="0.9267953821688979"><ele>129.0</ele><time>2026-04-23T17:36:12.999Z</time></trkpt><trkpt lat="44.50987883218542" lon="0.9267927926221963"><ele>129.0</ele><time>2026-04-23T17:36:13.999Z</time></trkpt><trkpt lat="44.509790546707286" lon="0.9267749849250989"><ele>129.0</ele><time>2026-04-23T17:36:14.999Z</time></trkpt><trkpt lat="44.50971521650433" lon="0.9267389844327705"><ele>129.0</ele><time>2026-04-23T17:36:15.999Z</time></trkpt><trkpt lat="44.509656600901046" lon="0.9267017087773398"><ele>129.0</ele><time>2026-04-23T17:36:16.999Z</time></trkpt><trkpt lat="44.50959464126733" lon="0.9266535359864909"><ele>129.0</ele><time>2026-04-23T17:36:17.999Z</time></trkpt><trkpt lat="44.50953522606939" lon="0.9265694437067853"><ele>128.4</ele><time>2026-04-23T17:36:18.999Z</time></trkpt><trkpt lat="44.509489779616274" lon="0.9264567273363506"><ele>127.80000000000001</ele><time>2026-04-23T17:36:19.999Z</time></trkpt><trkpt lat="44.509433772978845" lon="0.9263595562609165"><ele>127.19999999999999</ele><time>2026-04-23T17:36:20.999Z</time></trkpt><trkpt lat="44.509388666736214" lon="0.9262358873916001"><ele>126.6</ele><time>2026-04-23T17:36:22.999Z</time></trkpt><trkpt lat="44.5094045514076" lon="0.9261408159464014"><ele>126.0</ele><time>2026-04-23T17:36:23.999Z</time></trkpt><trkpt lat="44.509441945585564" lon="0.9260051664029135"><ele>125.5</ele><time>2026-04-23T17:36:24.999Z</time></trkpt><trkpt lat="44.509477852855255" lon="0.9258930156572334"><ele>125.0</ele><time>2026-04-23T17:36:25.999Z</time></trkpt><trkpt lat="44.50949104299049" lon="0.9258015170806747"><ele>124.5</ele><time>2026-04-23T17:36:26.999Z</time></trkpt><trkpt lat="44.50950904652083" lon="0.9257162479815322"><ele>124.0</ele><time>2026-04-23T17:36:27.999Z</time></trkpt><trkpt lat="44.50953703263565" lon="0.9255873049087979"><ele>123.5</ele><time>2026-04-23T17:36:29.999Z</time></trkpt><trkpt lat="44.509560730429264" lon="0.9254668238525868"><ele>123.0</ele><time>2026-04-23T17:36:31.999Z</time></trkpt><trkpt lat="44.50959317318607" lon="0.9253321942585702"><ele>121.60000000000001</ele><time>2026-04-23T17:36:33.999Z</time></trkpt><trkpt lat="44.509614031519185" lon="0.9251864439952634"><ele>120.20000000000002</ele><time>2026-04-23T17:36:35.999Z</time></trkpt><trkpt lat="44.50963419012727" lon="0.9250444837178802"><ele>118.8</ele><time>2026-04-23T17:36:37.999Z</time></trkpt><trkpt lat="44.50965243460489" lon="0.924906359648601"><ele>117.4</ele><time>2026-04-23T17:36:39.999Z</time></trkpt><trkpt lat="44.50970096472196" lon="0.9247939287007356"><ele>116.0</ele><time>2026-04-23T17:36:41.999Z</time></trkpt><trkpt lat="44.50979799695004" lon="0.9248014974162755"><ele>115.83333333333333</ele><time>2026-04-23T17:36:43.999Z</time></trkpt><trkpt lat="44.50991282167305" lon="0.9248680708839462"><ele>115.66666666666666</ele><time>2026-04-23T17:36:45.999Z</time></trkpt><trkpt lat="44.50999297173172" lon="0.924898155338149"><ele>115.5</ele><time>2026-04-23T17:36:47.999Z</time></trkpt><trkpt lat="44.51005652269373" lon="0.9249345874103861"><ele>115.33333333333334</ele><time>2026-04-23T17:36:50.999Z</time></trkpt><trkpt lat="44.510122243521586" lon="0.9249483625253994"><ele>115.16666666666667</ele><time>2026-04-23T17:36:52.999Z</time></trkpt><trkpt lat="44.51018389412621" lon="0.9249913227810858"><ele>115.0</ele><time>2026-04-23T17:36:56.999Z</time></trkpt><trkpt lat="44.510275655554295" lon="0.9250165541460346"><ele>115.0</ele><time>2026-04-23T17:36:59.999Z</time></trkpt><trkpt lat="44.51035313066916" lon="0.925049664455451"><ele>115.0</ele><time>2026-04-23T17:37:01.999Z</time></trkpt><trkpt lat="44.51042574570766" lon="0.9250848614464986"><ele>115.0</ele><time>2026-04-23T17:37:04.999Z</time></trkpt><trkpt lat="44.51049943264074" lon="0.9251301148177143"><ele>115.0</ele><time>2026-04-23T17:37:07.999Z</time></trkpt><trkpt lat="44.51060190402967" lon="0.9251963706606867"><ele>115.0</ele><time>2026-04-23T17:37:10.999Z</time></trkpt><trkpt lat="44.510699635645736" lon="0.9252573578233264"><ele>115.2</ele><time>2026-04-23T17:37:12.999Z</time></trkpt><trkpt lat="44.51077051461716" lon="0.9252856591245018"><ele>115.4</ele><time>2026-04-23T17:37:13.999Z</time></trkpt><trkpt lat="44.51087561403557" lon="0.9253141664758975"><ele>115.6</ele><time>2026-04-23T17:37:14.999Z</time></trkpt><trkpt lat="44.510967696701904" lon="0.9253722933724928"><ele>115.8</ele><time>2026-04-23T17:37:15.999Z</time></trkpt><trkpt lat="44.51105851517643" lon="0.9254379177204071"><ele>116.0</ele><time>2026-04-23T17:37:17Z</time></trkpt><trkpt lat="44.5111289005629" lon="0.9254923768087648"><ele>115.99999999999999</ele><time>2026-04-23T17:37:18Z</time></trkpt><trkpt lat="44.511200392924444" lon="0.9255300403522689"><ele>116.0</ele><time>2026-04-23T17:37:19Z</time></trkpt><trkpt lat="44.511264016343425" lon="0.9255624071484938"><ele>116.0</ele><time>2026-04-23T17:37:20Z</time></trkpt><trkpt lat="44.51134710746995" lon="0.9256280811126434"><ele>116.0</ele><time>2026-04-23T17:37:22Z</time></trkpt><trkpt lat="44.51141513657916" lon="0.92569563332428"><ele>115.99999999999999</ele><time>2026-04-23T17:37:40Z</time></trkpt><trkpt lat="44.51152024654382" lon="0.9257164438183773"><ele>116.0</ele><time>2026-04-23T17:37:42Z</time></trkpt><trkpt lat="44.511583505961774" lon="0.9257350082241518"><ele>116.0</ele><time>2026-04-23T17:37:43Z</time></trkpt><trkpt lat="44.51166105957792" lon="0.9256809464176879"><ele>116.0</ele><time>2026-04-23T17:37:45Z</time></trkpt><trkpt lat="44.51175438330026" lon="0.9255823229953262"><ele>116.0</ele><time>2026-04-23T17:37:47Z</time></trkpt><trkpt lat="44.511854840315394" lon="0.9254624100748023"><ele>116.0</ele><time>2026-04-23T17:37:49Z</time></trkpt><trkpt lat="44.51191050649532" lon="0.9253357200410073"><ele>116.0</ele><time>2026-04-23T17:37:51Z</time></trkpt><trkpt lat="44.5119406065289" lon="0.9252283691909099"><ele>115.99999999999999</ele><time>2026-04-23T17:37:52Z</time></trkpt><trkpt lat="44.51197611146638" lon="0.9251315263711288"><ele>116.0</ele><time>2026-04-23T17:37:53Z</time></trkpt><trkpt lat="44.51202223828648" lon="0.9250243842592277"><ele>116.0</ele><time>2026-04-23T17:37:54Z</time></trkpt><trkpt lat="44.51206963891668" lon="0.9248982860587668"><ele>116.0</ele><time>2026-04-23T17:37:55Z</time></trkpt><trkpt lat="44.51209277027027" lon="0.9248013574237465"><ele>115.99999999999999</ele><time>2026-04-23T17:37:56Z</time></trkpt><trkpt lat="44.51214825585782" lon="0.9246745381593826"><ele>116.0</ele><time>2026-04-23T17:37:58Z</time></trkpt><trkpt lat="44.51219991306461" lon="0.9245464799248191"><ele>116.33333333333333</ele><time>2026-04-23T17:38:00Z</time></trkpt><trkpt lat="44.51221473363595" lon="0.9244592684760085"><ele>116.66666666666666</ele><time>2026-04-23T17:38:01Z</time></trkpt><trkpt lat="44.51222893291978" lon="0.9243591664937115"><ele>117.0</ele><time>2026-04-23T17:38:02Z</time></trkpt><trkpt lat="44.5122602301793" lon="0.9242604828916714"><ele>117.33333333333334</ele><time>2026-04-23T17:38:03Z</time></trkpt><trkpt lat="44.51230852627421" lon="0.9241577840217117"><ele>117.66666666666667</ele><time>2026-04-23T17:38:04Z</time></trkpt><trkpt lat="44.5123591107046" lon="0.9240316817582251"><ele>118.0</ele><time>2026-04-23T17:38:05Z</time></trkpt><trkpt lat="44.51241442264729" lon="0.9238928663018375"><ele>120.25</ele><time>2026-04-23T17:38:06Z</time></trkpt><trkpt lat="44.51247391480373" lon="0.9237389880567377"><ele>122.5</ele><time>2026-04-23T17:38:07Z</time></trkpt><trkpt lat="44.512518630238745" lon="0.9235770308908315"><ele>124.75</ele><time>2026-04-23T17:38:08Z</time></trkpt><trkpt lat="44.51257258202507" lon="0.9234196721308496"><ele>127.0</ele><time>2026-04-23T17:38:09Z</time></trkpt><trkpt lat="44.512637277154816" lon="0.9232933807157169"><ele>127.83333333333334</ele><time>2026-04-23T17:38:09.999Z</time></trkpt><trkpt lat="44.5126944498057" lon="0.923174468873306"><ele>128.66666666666669</ele><time>2026-04-23T17:38:10.999Z</time></trkpt><trkpt lat="44.512732853003264" lon="0.9230758225034289"><ele>129.5</ele><time>2026-04-23T17:38:11.999Z</time></trkpt><trkpt lat="44.51273810963534" lon="0.922940617580996"><ele>130.33333333333334</ele><time>2026-04-23T17:38:13.999Z</time></trkpt><trkpt lat="44.51269190403664" lon="0.9228644010373815"><ele>131.16666666666666</ele><time>2026-04-23T17:38:15.999Z</time></trkpt><trkpt lat="44.51262173445475" lon="0.922840869898784"><ele>132.0</ele><time>2026-04-23T17:38:16.999Z</time></trkpt><trkpt lat="44.512534838147396" lon="0.9228522162409816"><ele>132.0</ele><time>2026-04-23T17:38:17.999Z</time></trkpt><trkpt lat="44.51244201247334" lon="0.9228852356487565"><ele>132.0</ele><time>2026-04-23T17:38:18.999Z</time></trkpt><trkpt lat="44.51232976017761" lon="0.9228915595790989"><ele>132.0</ele><time>2026-04-23T17:38:19.999Z</time></trkpt><trkpt lat="44.51221179180585" lon="0.9228734733353967"><ele>132.0</ele><time>2026-04-23T17:38:20.999Z</time></trkpt><trkpt lat="44.51207889701384" lon="0.9228728113544702"><ele>131.25</ele><time>2026-04-23T17:38:21.999Z</time></trkpt><trkpt lat="44.5119320779093" lon="0.9228753285924837"><ele>130.5</ele><time>2026-04-23T17:38:22.999Z</time></trkpt><trkpt lat="44.51179276536687" lon="0.922870385445496"><ele>129.75</ele><time>2026-04-23T17:38:23.999Z</time></trkpt><trkpt lat="44.5116848860752" lon="0.9228421301029844"><ele>129.0</ele><time>2026-04-23T17:38:24.999Z</time></trkpt><trkpt lat="44.511576211989876" lon="0.9227960999093926"><ele>129.0</ele><time>2026-04-23T17:38:25.999Z</time></trkpt><trkpt lat="44.511493561070466" lon="0.9227028595581941"><ele>129.0</ele><time>2026-04-23T17:38:26.999Z</time></trkpt><trkpt lat="44.51139082693425" lon="0.9226680053465206"><ele>129.0</ele><time>2026-04-23T17:38:27.999Z</time></trkpt><trkpt lat="44.511307422794886" lon="0.922591519620584"><ele>129.0</ele><time>2026-04-23T17:38:28.999Z</time></trkpt><trkpt lat="44.511233535760134" lon="0.9225291053351569"><ele>129.0</ele><time>2026-04-23T17:38:29.999Z</time></trkpt><trkpt lat="44.511157761461746" lon="0.9224635137449411"><ele>128.5</ele><time>2026-04-23T17:38:30.999Z</time></trkpt><trkpt lat="44.511077762974985" lon="0.9223983233291205"><ele>128.0</ele><time>2026-04-23T17:38:31.999Z</time></trkpt><trkpt lat="44.51102654481411" lon="0.9223372933236763"><ele>127.5</ele><time>2026-04-23T17:38:32.999Z</time></trkpt><trkpt lat="44.510917315943274" lon="0.9222788825637942"><ele>127.0</ele><time>2026-04-23T17:38:34.999Z</time></trkpt><trkpt lat="44.51088630388275" lon="0.9221961090674144"><ele>126.5</ele><time>2026-04-23T17:38:37.999Z</time></trkpt><trkpt lat="44.510952827673805" lon="0.9221450639295435"><ele>126.0</ele><time>2026-04-23T17:38:56.999Z</time></trkpt><trkpt lat="44.511018011800104" lon="0.9221465717031946"><ele>126.0</ele><time>2026-04-23T17:38:58.999Z</time></trkpt><trkpt lat="44.51108826727978" lon="0.9221295614176074"><ele>126.0</ele><time>2026-04-23T17:39:00.999Z</time></trkpt><trkpt lat="44.511186868485694" lon="0.9221182382961655"><ele>126.0</ele><time>2026-04-23T17:39:02.999Z</time></trkpt><trkpt lat="44.511259685701205" lon="0.9220577019396681"><ele>126.0</ele><time>2026-04-23T17:39:04.999Z</time></trkpt><trkpt lat="44.5113132791073" lon="0.9220016081427432"><ele>126.0</ele><time>2026-04-23T17:39:05.999Z</time></trkpt><trkpt lat="44.51137852850307" lon="0.92192403418185"><ele>126.0</ele><time>2026-04-23T17:39:06.999Z</time></trkpt><trkpt lat="44.51144784536651" lon="0.9218363096759049"><ele>125.5</ele><time>2026-04-23T17:39:07.999Z</time></trkpt><trkpt lat="44.5115302512319" lon="0.9217321885772978"><ele>125.0</ele><time>2026-04-23T17:39:08.999Z</time></trkpt><trkpt lat="44.51161796292109" lon="0.9216213634765592"><ele>124.5</ele><time>2026-04-23T17:39:09.999Z</time></trkpt><trkpt lat="44.51170303136808" lon="0.9215138781691897"><ele>124.0</ele><time>2026-04-23T17:39:10.999Z</time></trkpt><trkpt lat="44.51178581470997" lon="0.9214124714656735"><ele>124.0</ele><time>2026-04-23T17:39:11.999Z</time></trkpt><trkpt lat="44.51187069322322" lon="0.9213144489724503"><ele>124.0</ele><time>2026-04-23T17:39:12.999Z</time></trkpt><trkpt lat="44.51194251101503" lon="0.9212151746160179"><ele>124.0</ele><time>2026-04-23T17:39:13.999Z</time></trkpt><trkpt lat="44.512036433045225" lon="0.9211398366707644"><ele>124.0</ele><time>2026-04-23T17:39:14.999Z</time></trkpt><trkpt lat="44.51212281321449" lon="0.921039604410668"><ele>124.0</ele><time>2026-04-23T17:39:15.999Z</time></trkpt><trkpt lat="44.512235735424085" lon="0.9209271946003895"><ele>120.66666666666667</ele><time>2026-04-23T17:39:16.999Z</time></trkpt><trkpt lat="44.51236370254125" lon="0.9208107548670853"><ele>117.33333333333334</ele><time>2026-04-23T17:39:17.999Z</time></trkpt><trkpt lat="44.51251002297033" lon="0.9206941260535099"><ele>114.0</ele><time>2026-04-23T17:39:18.999Z</time></trkpt><trkpt lat="44.512674370756514" lon="0.9206025295356773"><ele>114.0</ele><time>2026-04-23T17:39:19.999Z</time></trkpt><trkpt lat="44.51282175535715" lon="0.9204914943143726"><ele>114.0</ele><time>2026-04-23T17:39:20.999Z</time></trkpt><trkpt lat="44.51296222447275" lon="0.9204149990918872"><ele>114.0</ele><time>2026-04-23T17:39:21.999Z</time></trkpt><trkpt lat="44.51308087863822" lon="0.9203515241062703"><ele>114.0</ele><time>2026-04-23T17:39:23Z</time></trkpt><trkpt lat="44.513190111722" lon="0.920300704365318"><ele>113.66666666666667</ele><time>2026-04-23T17:39:24Z</time></trkpt><trkpt lat="44.51327849300424" lon="0.9202629320231226"><ele>113.33333333333334</ele><time>2026-04-23T17:39:25Z</time></trkpt><trkpt lat="44.51335832063697" lon="0.9202339023638947"><ele>113.0</ele><time>2026-04-23T17:39:26Z</time></trkpt><trkpt lat="44.51343455215971" lon="0.9202196105399293"><ele>112.66666666666667</ele><time>2026-04-23T17:39:27Z</time></trkpt><trkpt lat="44.51350402967778" lon="0.9202115024418989"><ele>112.33333333333334</ele><time>2026-04-23T17:39:28Z</time></trkpt><trkpt lat="44.51357026169916" lon="0.9201963900225564"><ele>112.0</ele><time>2026-04-23T17:39:29Z</time></trkpt><trkpt lat="44.51368815045893" lon="0.9201752807723629"><ele>112.16666666666667</ele><time>2026-04-23T17:39:31Z</time></trkpt><trkpt lat="44.513780056078566" lon="0.920163642860954"><ele>112.33333333333334</ele><time>2026-04-23T17:39:33Z</time></trkpt><trkpt lat="44.51387932406514" lon="0.9201455317226587"><ele>112.5</ele><time>2026-04-23T17:39:35Z</time></trkpt><trkpt lat="44.5139636560701" lon="0.920123003284251"><ele>112.66666666666666</ele><time>2026-04-23T17:39:37Z</time></trkpt><trkpt lat="44.51404033589148" lon="0.9201101398532301"><ele>112.83333333333333</ele><time>2026-04-23T17:39:39Z</time></trkpt><trkpt lat="44.51412730641039" lon="0.9200947182812192"><ele>113.0</ele><time>2026-04-23T17:39:41Z</time></trkpt><trkpt lat="44.5142444570134" lon="0.9200738679417522"><ele>113.0</ele><time>2026-04-23T17:39:43Z</time></trkpt><trkpt lat="44.51431703115465" lon="0.9200564427882233"><ele>113.0</ele><time>2026-04-23T17:39:44Z</time></trkpt><trkpt lat="44.51439149209714" lon="0.9200729666972742"><ele>113.0</ele><time>2026-04-23T17:39:45Z</time></trkpt><trkpt lat="44.51446938654485" lon="0.9200745422878809"><ele>113.0</ele><time>2026-04-23T17:39:46Z</time></trkpt><trkpt lat="44.51454252737511" lon="0.9200912528704699"><ele>113.0</ele><time>2026-04-23T17:39:47Z</time></trkpt><trkpt lat="44.51460409549844" lon="0.9201139240830685"><ele>113.0</ele><time>2026-04-23T17:39:48Z</time></trkpt><trkpt lat="44.514664488852844" lon="0.920143595982583"><ele>113.0</ele><time>2026-04-23T17:39:50Z</time></trkpt><trkpt lat="44.514709673615876" lon="0.9199968751336771"><ele>111.80000000000001</ele><time>2026-04-23T17:39:51Z</time></trkpt><trkpt lat="44.5147352540727" lon="0.9198918415295587"><ele>110.60000000000001</ele><time>2026-04-23T17:39:52Z</time></trkpt><trkpt lat="44.5147675562191" lon="0.9197996541566471"><ele>109.39999999999999</ele><time>2026-04-23T17:39:53Z</time></trkpt><trkpt lat="44.51480971542292" lon="0.9196320445932424"><ele>108.19999999999999</ele><time>2026-04-23T17:39:55Z</time></trkpt><trkpt lat="44.51481928288443" lon="0.9195410324781668"><ele>107.0</ele><time>2026-04-23T17:39:56Z</time></trkpt><trkpt lat="44.51487396038257" lon="0.9193932519305532"><ele>107.0</ele><time>2026-04-23T17:39:58Z</time></trkpt><trkpt lat="44.514917534538895" lon="0.9192370799151289"><ele>106.99999999999999</ele><time>2026-04-23T17:40:00Z</time></trkpt><trkpt lat="44.51495766121784" lon="0.9190870117766489"><ele>106.99999999999999</ele><time>2026-04-23T17:40:02Z</time></trkpt><trkpt lat="44.51497916802836" lon="0.918939202172195"><ele>107.0</ele><time>2026-04-23T17:40:04Z</time></trkpt><trkpt lat="44.51500858011312" lon="0.9187993738232723"><ele>107.0</ele><time>2026-04-23T17:40:06Z</time></trkpt><trkpt lat="44.515020039047634" lon="0.9186194082139271"><ele>106.16666666666666</ele><time>2026-04-23T17:40:08Z</time></trkpt><trkpt lat="44.51501630173817" lon="0.9185091393702552"><ele>105.33333333333333</ele><time>2026-04-23T17:40:09Z</time></trkpt><trkpt lat="44.51500369885485" lon="0.9183948216567291"><ele>104.5</ele><time>2026-04-23T17:40:10Z</time></trkpt><trkpt lat="44.51497747621417" lon="0.9182916612685899"><ele>103.66666666666666</ele><time>2026-04-23T17:40:11Z</time></trkpt><trkpt lat="44.51494336879857" lon="0.9182000778513576"><ele>102.83333333333333</ele><time>2026-04-23T17:40:13Z</time></trkpt><trkpt lat="44.515032387420064" lon="0.9182054589717665"><ele>102.0</ele><time>2026-04-23T17:40:15Z</time></trkpt><trkpt lat="44.5151063458191" lon="0.9181492593881149"><ele>101.83333333333333</ele><time>2026-04-23T17:40:16Z</time></trkpt><trkpt lat="44.515177940778386" lon="0.918095451720309"><ele>101.66666666666666</ele><time>2026-04-23T17:40:17Z</time></trkpt><trkpt lat="44.51524414056433" lon="0.9180465557395936"><ele>101.5</ele><time>2026-04-23T17:40:18Z</time></trkpt><trkpt lat="44.51530671123876" lon="0.9180026909026201"><ele>101.33333333333333</ele><time>2026-04-23T17:40:19Z</time></trkpt><trkpt lat="44.515361721713106" lon="0.9179464375037304"><ele>101.16666666666666</ele><time>2026-04-23T17:40:20Z</time></trkpt><trkpt lat="44.51540213530426" lon="0.9178771651906998"><ele>101.0</ele><time>2026-04-23T17:40:21Z</time></trkpt><trkpt lat="44.51548866975413" lon="0.9177695152601302"><ele>101.33333333333333</ele><time>2026-04-23T17:40:23Z</time></trkpt><trkpt lat="44.51555251041712" lon="0.9176861407359779"><ele>101.66666666666666</ele><time>2026-04-23T17:40:26Z</time></trkpt><trkpt lat="44.51563976555247" lon="0.9177111700402657"><ele>102.0</ele><time>2026-04-23T17:40:26.999Z</time></trkpt><trkpt lat="44.51569861467432" lon="0.9176666198650854"><ele>102.33333333333334</ele><time>2026-04-23T17:40:27.999Z</time></trkpt><trkpt lat="44.5157447014409" lon="0.9175832247717621"><ele>102.66666666666667</ele><time>2026-04-23T17:40:28.999Z</time></trkpt><trkpt lat="44.51575359076791" lon="0.9174708351079213"><ele>103.0</ele><time>2026-04-23T17:40:29.999Z</time></trkpt><trkpt lat="44.51573361471182" lon="0.9173778569036455"><ele>103.00000000000001</ele><time>2026-04-23T17:40:30.999Z</time></trkpt><trkpt lat="44.51571201617132" lon="0.9172946261641833"><ele>103.0</ele><time>2026-04-23T17:40:31.999Z</time></trkpt><trkpt lat="44.51566064040868" lon="0.9171240648033482"><ele>103.0</ele><time>2026-04-23T17:40:33.999Z</time></trkpt><trkpt lat="44.51562468639829" lon="0.9170360919897187"><ele>103.0</ele><time>2026-04-23T17:40:35.999Z</time></trkpt><trkpt lat="44.51561102742281" lon="0.9169437117449838"><ele>103.00000000000001</ele><time>2026-04-23T17:40:37.999Z</time></trkpt><trkpt lat="44.51557625749869" lon="0.916847903480576"><ele>103.0</ele><time>2026-04-23T17:40:39.999Z</time></trkpt><trkpt lat="44.51545899734669" lon="0.9168935979043977"><ele>103.00000000000001</ele><time>2026-04-23T17:40:40.999Z</time></trkpt><trkpt lat="44.5154204574681" lon="0.9167915356463102"><ele>103.0</ele><time>2026-04-23T17:40:42.999Z</time></trkpt><trkpt lat="44.51538009558928" lon="0.9166955239910238"><ele>103.0</ele><time>2026-04-23T17:40:44.999Z</time></trkpt><trkpt lat="44.51534319434415" lon="0.9166077446883688"><ele>103.0</ele><time>2026-04-23T17:40:46.999Z</time></trkpt><trkpt lat="44.51529006187061" lon="0.9164813551104367"><ele>103.00000000000001</ele><time>2026-04-23T17:40:48.999Z</time></trkpt><trkpt lat="44.51525661975427" lon="0.9164018042489523"><ele>103.0</ele><time>2026-04-23T17:40:49.999Z</time></trkpt><trkpt lat="44.51522160217355" lon="0.9163188807179395"><ele>103.33333333333334</ele><time>2026-04-23T17:40:50.999Z</time></trkpt><trkpt lat="44.51516823444587" lon="0.916186768436921"><ele>103.66666666666667</ele><time>2026-04-23T17:40:52.999Z</time></trkpt><trkpt lat="44.515113938845154" lon="0.9160523592717468"><ele>104.0</ele><time>2026-04-23T17:40:54.999Z</time></trkpt><trkpt lat="44.515077415303196" lon="0.915961944948994"><ele>104.33333333333334</ele><time>2026-04-23T17:40:56.999Z</time></trkpt><trkpt lat="44.51504363441845" lon="0.9158791229139345"><ele>104.66666666666667</ele><time>2026-04-23T17:40:58.999Z</time></trkpt><trkpt lat="44.51500647329444" lon="0.9158013370964527"><ele>105.0</ele><time>2026-04-23T17:41:02.999Z</time></trkpt><trkpt lat="44.514976244277655" lon="0.915713326226096"><ele>105.4</ele><time>2026-04-23T17:41:16.999Z</time></trkpt><trkpt lat="44.51493600008552" lon="0.915634352777225"><ele>105.8</ele><time>2026-04-23T17:41:17.999Z</time></trkpt><trkpt lat="44.51489966672155" lon="0.9155457294053716"><ele>106.19999999999999</ele><time>2026-04-23T17:41:18.999Z</time></trkpt><trkpt lat="44.51485308773949" lon="0.9154368893019775"><ele>106.6</ele><time>2026-04-23T17:41:19.999Z</time></trkpt><trkpt lat="44.51479842373373" lon="0.9153117907329256"><ele>107.0</ele><time>2026-04-23T17:41:20.999Z</time></trkpt><trkpt lat="44.51473076832002" lon="0.9151580284301601"><ele>107.6</ele><time>2026-04-23T17:41:21.999Z</time></trkpt><trkpt lat="44.51468506473585" lon="0.9150541566446326"><ele>108.19999999999999</ele><time>2026-04-23T17:41:22.999Z</time></trkpt><trkpt lat="44.51461894341318" lon="0.9149474582746936"><ele>108.8</ele><time>2026-04-23T17:41:23.999Z</time></trkpt><trkpt lat="44.51455871722988" lon="0.9148034188664202"><ele>109.4</ele><time>2026-04-23T17:41:24.999Z</time></trkpt><trkpt lat="44.514501723454714" lon="0.9146398000919578"><ele>110.0</ele><time>2026-04-23T17:41:25.999Z</time></trkpt><trkpt lat="44.51445096990502" lon="0.9145258040660342"><ele>110.0</ele><time>2026-04-23T17:41:26.999Z</time></trkpt><trkpt lat="44.51439975617464" lon="0.914451968456696"><ele>110.0</ele><time>2026-04-23T17:41:27.999Z</time></trkpt><trkpt lat="44.51437652432289" lon="0.9143585941031864"><ele>110.0</ele><time>2026-04-23T17:41:29Z</time></trkpt><trkpt lat="44.51430727834707" lon="0.9142030628116871"><ele>110.0</ele><time>2026-04-23T17:41:31Z</time></trkpt><trkpt lat="44.51423733063942" lon="0.9140676954159316"><ele>110.0</ele><time>2026-04-23T17:41:33Z</time></trkpt><trkpt lat="44.51418773166461" lon="0.9140129298988982"><ele>111.0</ele><time>2026-04-23T17:41:34Z</time></trkpt><trkpt lat="44.51412433898924" lon="0.9138810209262875"><ele>112.0</ele><time>2026-04-23T17:41:36Z</time></trkpt><trkpt lat="44.51407346567037" lon="0.9137871520772306"><ele>113.0</ele><time>2026-04-23T17:41:38Z</time></trkpt><trkpt lat="44.514046777134794" lon="0.9137024695588918"><ele>114.0</ele><time>2026-04-23T17:41:40Z</time></trkpt><trkpt lat="44.5137081033389" lon="0.913696541479702"><ele>112.85714285714285</ele><time>2026-04-23T17:41:52Z</time></trkpt><trkpt lat="44.513647020075716" lon="0.9136581798245381"><ele>111.7142857142857</ele><time>2026-04-23T17:41:54Z</time></trkpt><trkpt lat="44.51355896373857" lon="0.9136221753240806"><ele>110.57142857142857</ele><time>2026-04-23T17:41:56Z</time></trkpt><trkpt lat="44.51350109962783" lon="0.9135781946133128"><ele>109.42857142857142</ele><time>2026-04-23T17:41:58Z</time></trkpt><trkpt lat="44.51344750988445" lon="0.9135238737497338"><ele>108.28571428571428</ele><time>2026-04-23T17:42:00Z</time></trkpt><trkpt lat="44.51338080528677" lon="0.9135340308329158"><ele>107.14285714285714</ele><time>2026-04-23T17:42:02Z</time></trkpt><trkpt lat="44.51333897052056" lon="0.9136360444845771"><ele>106.0</ele><time>2026-04-23T17:42:04Z</time></trkpt><trkpt lat="44.51328841038066" lon="0.9137312158568228"><ele>106.00000000000001</ele><time>2026-04-23T17:42:06Z</time></trkpt><trkpt lat="44.51321914651987" lon="0.9138469197244338"><ele>106.0</ele><time>2026-04-23T17:42:08Z</time></trkpt><trkpt lat="44.51316987677366" lon="0.9139244319408353"><ele>106.0</ele><time>2026-04-23T17:42:10Z</time></trkpt><trkpt lat="44.51311863266239" lon="0.9139934691667725"><ele>106.0</ele><time>2026-04-23T17:42:12Z</time></trkpt><trkpt lat="44.51305637679141" lon="0.9140394696003737"><ele>106.00000000000001</ele><time>2026-04-23T17:42:38.999Z</time></trkpt><trkpt lat="44.51314698148395" lon="0.9139371956446928"><ele>106.0</ele><time>2026-04-23T17:42:42.999Z</time></trkpt><trkpt lat="44.513197782612245" lon="0.9138563962475479"><ele>106.00000000000001</ele><time>2026-04-23T17:42:43.999Z</time></trkpt><trkpt lat="44.51324181711023" lon="0.9137854164913056"><ele>106.0</ele><time>2026-04-23T17:42:44.999Z</time></trkpt><trkpt lat="44.513293063848955" lon="0.9137161304399172"><ele>106.0</ele><time>2026-04-23T17:42:45.999Z</time></trkpt><trkpt lat="44.51334452567688" lon="0.9136403657545071"><ele>106.0</ele><time>2026-04-23T17:42:46.999Z</time></trkpt><trkpt lat="44.51338758497431" lon="0.9135497782518329"><ele>106.00000000000001</ele><time>2026-04-23T17:42:47.999Z</time></trkpt><trkpt lat="44.513396836271355" lon="0.9134530231983403"><ele>106.0</ele><time>2026-04-23T17:42:48.999Z</time></trkpt><trkpt lat="44.51353213924141" lon="0.9133556965787187"><ele>106.8</ele><time>2026-04-23T17:42:50.999Z</time></trkpt><trkpt lat="44.51360747067082" lon="0.9132611073495879"><ele>107.6</ele><time>2026-04-23T17:42:52.999Z</time></trkpt><trkpt lat="44.513686362698735" lon="0.9131421443793327"><ele>108.4</ele><time>2026-04-23T17:42:54.999Z</time></trkpt><trkpt lat="44.5137544410847" lon="0.9130535206911538"><ele>109.2</ele><time>2026-04-23T17:42:56.999Z</time></trkpt><trkpt lat="44.51385867651834" lon="0.9129531118485185"><ele>110.0</ele><time>2026-04-23T17:42:58.999Z</time></trkpt><trkpt lat="44.51392821790048" lon="0.9129165954795107"><ele>111.4</ele><time>2026-04-23T17:42:59.999Z</time></trkpt><trkpt lat="44.514011175803084" lon="0.9128688186111343"><ele>112.8</ele><time>2026-04-23T17:43:00.999Z</time></trkpt><trkpt lat="44.514099765750565" lon="0.9128114618582972"><ele>114.19999999999999</ele><time>2026-04-23T17:43:01.999Z</time></trkpt><trkpt lat="44.514193608704666" lon="0.9127507039255198"><ele>115.6</ele><time>2026-04-23T17:43:02.999Z</time></trkpt><trkpt lat="44.51426582640801" lon="0.9127039469321127"><ele>117.0</ele><time>2026-04-23T17:43:03.999Z</time></trkpt><trkpt lat="44.514313606402325" lon="0.912517122825898"><ele>117.39999999999999</ele><time>2026-04-23T17:43:04.999Z</time></trkpt><trkpt lat="44.51439737513808" lon="0.9124046097951656"><ele>117.79999999999998</ele><time>2026-04-23T17:43:05.999Z</time></trkpt><trkpt lat="44.514456863240305" lon="0.9123064955292246"><ele>118.2</ele><time>2026-04-23T17:43:06.999Z</time></trkpt><trkpt lat="44.51450736691548" lon="0.9122401472454251"><ele>118.6</ele><time>2026-04-23T17:43:07.999Z</time></trkpt><trkpt lat="44.51458150159721" lon="0.9121585721351518"><ele>119.0</ele><time>2026-04-23T17:43:09.999Z</time></trkpt><trkpt lat="44.51451313877579" lon="0.912265097762591"><ele>119.2</ele><time>2026-04-23T17:43:15.999Z</time></trkpt><trkpt lat="44.51444043196698" lon="0.9122087217532848"><ele>119.4</ele><time>2026-04-23T17:43:17.999Z</time></trkpt><trkpt lat="44.514373680384615" lon="0.9120422781317877"><ele>119.6</ele><time>2026-04-23T17:43:19.999Z</time></trkpt><trkpt lat="44.514310052853396" lon="0.911957182460369"><ele>119.8</ele><time>2026-04-23T17:43:20.999Z</time></trkpt><trkpt lat="44.51424743014694" lon="0.9118551043381844"><ele>120.0</ele><time>2026-04-23T17:43:21.999Z</time></trkpt><trkpt lat="44.5142014383821" lon="0.9117776345366971"><ele>120.16666666666667</ele><time>2026-04-23T17:43:22.999Z</time></trkpt><trkpt lat="44.514159927429766" lon="0.9117091349657237"><ele>120.33333333333334</ele><time>2026-04-23T17:43:23.999Z</time></trkpt><trkpt lat="44.51410529527463" lon="0.9116276759273696"><ele>120.5</ele><time>2026-04-23T17:43:24.999Z</time></trkpt><trkpt lat="44.51405834417261" lon="0.9115521030655713"><ele>120.66666666666667</ele><time>2026-04-23T17:43:25.999Z</time></trkpt><trkpt lat="44.513992077787336" lon="0.911433935909512"><ele>120.83333333333334</ele><time>2026-04-23T17:43:27.999Z</time></trkpt><trkpt lat="44.51392050789751" lon="0.9113221417303489"><ele>121.0</ele><time>2026-04-23T17:43:29.999Z</time></trkpt><trkpt lat="44.51386871796242" lon="0.9112508000407508"><ele>121.0</ele><time>2026-04-23T17:43:30.999Z</time></trkpt><trkpt lat="44.51381547734959" lon="0.9111380284553068"><ele>121.0</ele><time>2026-04-23T17:43:32.999Z</time></trkpt><trkpt lat="44.51374210242601" lon="0.9110305074787663"><ele>121.0</ele><time>2026-04-23T17:43:35Z</time></trkpt><trkpt lat="44.513675565266965" lon="0.9109220474121101"><ele>121.0</ele><time>2026-04-23T17:43:37Z</time></trkpt><trkpt lat="44.51362554070779" lon="0.9108449955336272"><ele>121.0</ele><time>2026-04-23T17:43:39Z</time></trkpt><trkpt lat="44.513568587866416" lon="0.9107429785332112"><ele>120.83333333333334</ele><time>2026-04-23T17:43:41Z</time></trkpt><trkpt lat="44.51349356262444" lon="0.9106210038964762"><ele>120.66666666666667</ele><time>2026-04-23T17:43:43Z</time></trkpt><trkpt lat="44.51344412481276" lon="0.910552349660159"><ele>120.5</ele><time>2026-04-23T17:43:44Z</time></trkpt><trkpt lat="44.5133963675253" lon="0.9104749297183049"><ele>120.33333333333334</ele><time>2026-04-23T17:43:45Z</time></trkpt><trkpt lat="44.51334531392094" lon="0.9103726945002631"><ele>120.16666666666667</ele><time>2026-04-23T17:43:46Z</time></trkpt><trkpt lat="44.51328900616389" lon="0.9102650978303448"><ele>120.0</ele><time>2026-04-23T17:43:47Z</time></trkpt><trkpt lat="44.51327735359926" lon="0.9101076870810788"><ele>120.8</ele><time>2026-04-23T17:43:49Z</time></trkpt><trkpt lat="44.51334555131891" lon="0.9100471405791027"><ele>121.6</ele><time>2026-04-23T17:43:51Z</time></trkpt><trkpt lat="44.51342228803885" lon="0.9099640941367538"><ele>122.4</ele><time>2026-04-23T17:45:14.999Z</time></trkpt><trkpt lat="44.51349936074913" lon="0.909865872776289"><ele>123.2</ele><time>2026-04-23T17:45:17.999Z</time></trkpt><trkpt lat="44.513566729224785" lon="0.9097678134686309"><ele>124.0</ele><time>2026-04-23T17:45:19.999Z</time></trkpt><trkpt lat="44.513647915595975" lon="0.9096746875593602"><ele>124.00000000000001</ele><time>2026-04-23T17:45:21.999Z</time></trkpt><trkpt lat="44.51370664372948" lon="0.9096137408060418"><ele>124.0</ele><time>2026-04-23T17:45:22.999Z</time></trkpt><trkpt lat="44.51375941235216" lon="0.9095496845967885"><ele>124.0</ele><time>2026-04-23T17:45:23.999Z</time></trkpt><trkpt lat="44.51381709747489" lon="0.9094687610802208"><ele>124.0</ele><time>2026-04-23T17:45:24.999Z</time></trkpt><trkpt lat="44.513887709320464" lon="0.9093801171068339"><ele>124.00000000000001</ele><time>2026-04-23T17:45:25.999Z</time></trkpt><trkpt lat="44.513968039691285" lon="0.9092667524354973"><ele>124.0</ele><time>2026-04-23T17:45:26.999Z</time></trkpt><trkpt lat="44.51405012408794" lon="0.9091572394874196"><ele>124.80000000000001</ele><time>2026-04-23T17:45:27.999Z</time></trkpt><trkpt lat="44.51414382092311" lon="0.9090297153895558"><ele>125.60000000000001</ele><time>2026-04-23T17:45:28.999Z</time></trkpt><trkpt lat="44.51421712043329" lon="0.9089087534480211"><ele>126.4</ele><time>2026-04-23T17:45:29.999Z</time></trkpt><trkpt lat="44.514289070936336" lon="0.9088340732108512"><ele>127.2</ele><time>2026-04-23T17:45:30.999Z</time></trkpt><trkpt lat="44.51435081077445" lon="0.9087598635892359"><ele>128.0</ele><time>2026-04-23T17:45:31.999Z</time></trkpt><trkpt lat="44.51441801539912" lon="0.9086679675130578"><ele>127.99999999999999</ele><time>2026-04-23T17:45:32.999Z</time></trkpt><trkpt lat="44.51448403683615" lon="0.908583997994958"><ele>128.0</ele><time>2026-04-23T17:45:33.999Z</time></trkpt><trkpt lat="44.51454667948692" lon="0.9084917274828307"><ele>128.0</ele><time>2026-04-23T17:45:34.999Z</time></trkpt><trkpt lat="44.51459487778081" lon="0.9083910689238675"><ele>128.0</ele><time>2026-04-23T17:45:35.999Z</time></trkpt><trkpt lat="44.51464862244055" lon="0.9083051177204933"><ele>127.99999999999999</ele><time>2026-04-23T17:45:36.999Z</time></trkpt><trkpt lat="44.51469608863331" lon="0.9082228425865835"><ele>128.0</ele><time>2026-04-23T17:45:37.999Z</time></trkpt><trkpt lat="44.514742959119786" lon="0.9081341596397805"><ele>128.16666666666666</ele><time>2026-04-23T17:45:38.999Z</time></trkpt><trkpt lat="44.514812182908926" lon="0.9080260471897077"><ele>128.33333333333331</ele><time>2026-04-23T17:45:41Z</time></trkpt><trkpt lat="44.514863660773415" lon="0.9079391903198706"><ele>128.5</ele><time>2026-04-23T17:45:43Z</time></trkpt><trkpt lat="44.51489980694528" lon="0.9078616181044138"><ele>128.66666666666666</ele><time>2026-04-23T17:45:46Z</time></trkpt><trkpt lat="44.51495041484888" lon="0.9077693861484414"><ele>128.83333333333334</ele><time>2026-04-23T17:45:51Z</time></trkpt><trkpt lat="44.51500680774277" lon="0.9076571844027088"><ele>129.0</ele><time>2026-04-23T17:46:14Z</time></trkpt><trkpt lat="44.51504361620355" lon="0.907583099179852"><ele>129.83333333333334</ele><time>2026-04-23T17:46:15Z</time></trkpt><trkpt lat="44.51507832582168" lon="0.9074973933798385"><ele>130.66666666666666</ele><time>2026-04-23T17:46:16Z</time></trkpt><trkpt lat="44.515104379420606" lon="0.9073874265125474"><ele>131.5</ele><time>2026-04-23T17:46:17Z</time></trkpt><trkpt lat="44.51511957618846" lon="0.9072770698020132"><ele>132.33333333333331</ele><time>2026-04-23T17:46:18Z</time></trkpt><trkpt lat="44.515129485593334" lon="0.9071411321001959"><ele>133.16666666666666</ele><time>2026-04-23T17:46:19Z</time></trkpt><trkpt lat="44.51513251444277" lon="0.9069799581156374"><ele>134.0</ele><time>2026-04-23T17:46:20Z</time></trkpt><trkpt lat="44.51514231314054" lon="0.9068526400827044"><ele>134.0</ele><time>2026-04-23T17:46:21Z</time></trkpt><trkpt lat="44.51516717684764" lon="0.9067176973223506"><ele>134.0</ele><time>2026-04-23T17:46:23Z</time></trkpt><trkpt lat="44.51526481154799" lon="0.9067483117205664"><ele>134.0</ele><time>2026-04-23T17:46:25Z</time></trkpt><trkpt lat="44.51533014257637" lon="0.9067736389362948"><ele>134.0</ele><time>2026-04-23T17:46:26Z</time></trkpt><trkpt lat="44.51540377710721" lon="0.9067859243305442"><ele>134.0</ele><time>2026-04-23T17:46:27Z</time></trkpt><trkpt lat="44.515509061170505" lon="0.9067867496422269"><ele>134.0</ele><time>2026-04-23T17:46:29Z</time></trkpt><trkpt lat="44.51543740838891" lon="0.9068091310780966"><ele>134.0</ele><time>2026-04-23T17:47:37.999Z</time></trkpt><trkpt lat="44.5152464220263" lon="0.9067592712240793"><ele>134.0</ele><time>2026-04-23T17:47:40.999Z</time></trkpt><trkpt lat="44.51515226771218" lon="0.906757158325956"><ele>134.0</ele><time>2026-04-23T17:47:42.999Z</time></trkpt><trkpt lat="44.51506751779156" lon="0.9067521126404013"><ele>134.0</ele><time>2026-04-23T17:47:43.999Z</time></trkpt><trkpt lat="44.514976419902965" lon="0.9067407615976442"><ele>134.66666666666666</ele><time>2026-04-23T17:47:44.999Z</time></trkpt><trkpt lat="44.51490381020715" lon="0.9067400122958514"><ele>135.33333333333331</ele><time>2026-04-23T17:47:45.999Z</time></trkpt><trkpt lat="44.51484071700836" lon="0.9067249425911559"><ele>136.0</ele><time>2026-04-23T17:47:47Z</time></trkpt><trkpt lat="44.51476428434481" lon="0.9067065181310884"><ele>136.66666666666666</ele><time>2026-04-23T17:47:48Z</time></trkpt><trkpt lat="44.514692443220675" lon="0.9067004155042088"><ele>137.33333333333334</ele><time>2026-04-23T17:47:49Z</time></trkpt><trkpt lat="44.514629089341945" lon="0.9066880797170577"><ele>138.0</ele><time>2026-04-23T17:47:50Z</time></trkpt><trkpt lat="44.5145258230413" lon="0.9066703270708417"><ele>138.0</ele><time>2026-04-23T17:47:52Z</time></trkpt><trkpt lat="44.514414296879536" lon="0.9066595297545283"><ele>138.0</ele><time>2026-04-23T17:47:54Z</time></trkpt><trkpt lat="44.51434182504637" lon="0.9066433040475262"><ele>138.0</ele><time>2026-04-23T17:47:56Z</time></trkpt><trkpt lat="44.51427858765481" lon="0.9066270304154389"><ele>138.0</ele><time>2026-04-23T17:47:58Z</time></trkpt><trkpt lat="44.514191669667404" lon="0.9065848895682517"><ele>138.0</ele><time>2026-04-23T17:48:01Z</time></trkpt><trkpt lat="44.51413346241487" lon="0.9065448161112066"><ele>138.0</ele><time>2026-04-23T17:48:03Z</time></trkpt><trkpt lat="44.514082541023456" lon="0.9064895357995862"><ele>138.0</ele><time>2026-04-23T17:48:05Z</time></trkpt><trkpt lat="44.51402161379667" lon="0.9064212498715294"><ele>138.0</ele><time>2026-04-23T17:48:07Z</time></trkpt><trkpt lat="44.51398260715789" lon="0.9063347938281944"><ele>138.0</ele><time>2026-04-23T17:48:09Z</time></trkpt><trkpt lat="44.51396697668046" lon="0.9062353635428464"><ele>138.0</ele><time>2026-04-23T17:48:11Z</time></trkpt><trkpt lat="44.51389828925744" lon="0.9061440812420978"><ele>138.0</ele><time>2026-04-23T17:48:14Z</time></trkpt><trkpt lat="44.51387992787752" lon="0.906048726885151"><ele>138.0</ele><time>2026-04-23T17:48:16Z</time></trkpt><trkpt lat="44.51383766306871" lon="0.9059416926723057"><ele>138.20000000000002</ele><time>2026-04-23T17:48:18Z</time></trkpt><trkpt lat="44.51378309121645" lon="0.9058206148773265"><ele>138.4</ele><time>2026-04-23T17:48:20Z</time></trkpt><trkpt lat="44.51370048594665" lon="0.9056963121978996"><ele>138.60000000000002</ele><time>2026-04-23T17:48:22Z</time></trkpt><trkpt lat="44.51360416180415" lon="0.9056151844098687"><ele>138.8</ele><time>2026-04-23T17:48:24Z</time></trkpt><trkpt lat="44.51350376824217" lon="0.9055633599668291"><ele>139.0</ele><time>2026-04-23T17:48:26Z</time></trkpt><trkpt lat="44.513391141543394" lon="0.9055211864828366"><ele>136.8</ele><time>2026-04-23T17:48:28Z</time></trkpt><trkpt lat="44.51327992444393" lon="0.9054887905784854"><ele>134.60000000000002</ele><time>2026-04-23T17:48:30Z</time></trkpt><trkpt lat="44.5131822656512" lon="0.9054657450658414"><ele>132.4</ele><time>2026-04-23T17:48:32Z</time></trkpt><trkpt lat="44.51307759199506" lon="0.9054466963798982"><ele>130.20000000000002</ele><time>2026-04-23T17:48:34Z</time></trkpt><trkpt lat="44.51297353952031" lon="0.9054443806206137"><ele>128.0</ele><time>2026-04-23T17:48:36Z</time></trkpt><trkpt lat="44.51287239132898" lon="0.9054600871227927"><ele>127.0</ele><time>2026-04-23T17:48:38Z</time></trkpt><trkpt lat="44.51276476112203" lon="0.9054972562003214"><ele>126.00000000000001</ele><time>2026-04-23T17:48:40Z</time></trkpt><trkpt lat="44.512674921514495" lon="0.9055471934117528"><ele>125.00000000000001</ele><time>2026-04-23T17:48:42Z</time></trkpt><trkpt lat="44.51257180640261" lon="0.9056188936562976"><ele>124.0</ele><time>2026-04-23T17:48:44Z</time></trkpt><trkpt lat="44.51246584770166" lon="0.9057021322901143"><ele>123.0</ele><time>2026-04-23T17:48:46Z</time></trkpt><trkpt lat="44.51240293985166" lon="0.9057515511914914"><ele>123.0</ele><time>2026-04-23T17:48:47Z</time></trkpt><trkpt lat="44.51233731946659" lon="0.9058043844313403"><ele>123.00000000000001</ele><time>2026-04-23T17:48:48Z</time></trkpt><trkpt lat="44.512272369879895" lon="0.9058809594419851"><ele>123.00000000000001</ele><time>2026-04-23T17:48:49Z</time></trkpt><trkpt lat="44.512189403419704" lon="0.9059442498638715"><ele>123.0</ele><time>2026-04-23T17:48:50Z</time></trkpt><trkpt lat="44.51209887439308" lon="0.9060226822247625"><ele>123.0</ele><time>2026-04-23T17:48:51Z</time></trkpt><trkpt lat="44.51200049961182" lon="0.9060972402205193"><ele>124.25</ele><time>2026-04-23T17:48:52Z</time></trkpt><trkpt lat="44.51190154765586" lon="0.9061746606404277"><ele>125.5</ele><time>2026-04-23T17:48:53Z</time></trkpt><trkpt lat="44.511793800631054" lon="0.9062398725642644"><ele>126.75</ele><time>2026-04-23T17:48:54Z</time></trkpt><trkpt lat="44.51168831155394" lon="0.906323886568774"><ele>128.0</ele><time>2026-04-23T17:48:55Z</time></trkpt><trkpt lat="44.51160081818801" lon="0.906394425684318"><ele>128.0</ele><time>2026-04-23T17:48:56Z</time></trkpt><trkpt lat="44.51151966717444" lon="0.9064602520403944"><ele>128.0</ele><time>2026-04-23T17:48:57Z</time></trkpt><trkpt lat="44.511428529623416" lon="0.9065341790600525"><ele>128.0</ele><time>2026-04-23T17:48:58Z</time></trkpt><trkpt lat="44.51133785560933" lon="0.9066072995649244"><ele>128.0</ele><time>2026-04-23T17:48:58.999Z</time></trkpt><trkpt lat="44.511254443108406" lon="0.9067003944214344"><ele>128.0</ele><time>2026-04-23T17:48:59.999Z</time></trkpt><trkpt lat="44.51116997883875" lon="0.906769499158987"><ele>127.83333333333333</ele><time>2026-04-23T17:49:00.999Z</time></trkpt><trkpt lat="44.511089010855514" lon="0.9068190227702604"><ele>127.66666666666666</ele><time>2026-04-23T17:49:01.999Z</time></trkpt><trkpt lat="44.51103597180192" lon="0.9068700813270117"><ele>127.5</ele><time>2026-04-23T17:49:02.999Z</time></trkpt><trkpt lat="44.51095131529471" lon="0.9068871795416796"><ele>127.33333333333334</ele><time>2026-04-23T17:49:04.999Z</time></trkpt><trkpt lat="44.51088266694789" lon="0.9068751377262825"><ele>127.16666666666667</ele><time>2026-04-23T17:49:07.999Z</time></trkpt><trkpt lat="44.51094680161361" lon="0.9068842039369759"><ele>127.0</ele><time>2026-04-23T17:49:21.999Z</time></trkpt><trkpt lat="44.510973976390254" lon="0.906993308654994"><ele>127.00000000000001</ele><time>2026-04-23T17:49:23.999Z</time></trkpt><trkpt lat="44.511019809259416" lon="0.9071117623154433"><ele>127.0</ele><time>2026-04-23T17:49:26.999Z</time></trkpt><trkpt lat="44.51104162809691" lon="0.9072012091741072"><ele>127.0</ele><time>2026-04-23T17:49:27.999Z</time></trkpt><trkpt lat="44.511070445489494" lon="0.9073305806148346"><ele>127.0</ele><time>2026-04-23T17:49:29.999Z</time></trkpt><trkpt lat="44.51108871909662" lon="0.907445222618565"><ele>127.00000000000001</ele><time>2026-04-23T17:49:31.999Z</time></trkpt><trkpt lat="44.51110943491212" lon="0.907562314607025"><ele>127.0</ele><time>2026-04-23T17:49:33.999Z</time></trkpt><trkpt lat="44.51112516468633" lon="0.9076890005084854"><ele>126.50000000000001</ele><time>2026-04-23T17:49:35.999Z</time></trkpt><trkpt lat="44.51115377496802" lon="0.9078053605045678"><ele>126.0</ele><time>2026-04-23T17:49:37.999Z</time></trkpt><trkpt lat="44.51117687685872" lon="0.9079077536178312"><ele>125.5</ele><time>2026-04-23T17:49:40.999Z</time></trkpt><trkpt lat="44.511201049383565" lon="0.9079962064865382"><ele>125.0</ele><time>2026-04-23T17:49:43.999Z</time></trkpt><trkpt lat="44.51127107502847" lon="0.9080706755195179"><ele>124.50000000000001</ele><time>2026-04-23T17:49:46.999Z</time></trkpt><trkpt lat="44.51132926552777" lon="0.9081341235554932"><ele>124.0</ele><time>2026-04-23T17:49:48.999Z</time></trkpt><trkpt lat="44.51139284103677" lon="0.9082050576512269"><ele>123.0</ele><time>2026-04-23T17:49:50.999Z</time></trkpt><trkpt lat="44.51145317402436" lon="0.9083058715408229"><ele>122.0</ele><time>2026-04-23T17:49:53Z</time></trkpt><trkpt lat="44.511529885633294" lon="0.9084259831761644"><ele>121.0</ele><time>2026-04-23T17:49:55Z</time></trkpt><trkpt lat="44.51161499399946" lon="0.9085386488532553"><ele>120.0</ele><time>2026-04-23T17:49:57Z</time></trkpt><trkpt lat="44.51168745694005" lon="0.908665137769591"><ele>119.0</ele><time>2026-04-23T17:49:59Z</time></trkpt><trkpt lat="44.51177136970088" lon="0.9087700127519802"><ele>118.99999999999999</ele><time>2026-04-23T17:50:01Z</time></trkpt><trkpt lat="44.51185223434313" lon="0.9088744795612762"><ele>119.0</ele><time>2026-04-23T17:50:03Z</time></trkpt><trkpt lat="44.511901859689345" lon="0.9089489455404686"><ele>119.0</ele><time>2026-04-23T17:50:05Z</time></trkpt><trkpt lat="44.51195037378073" lon="0.9090286021849652"><ele>119.0</ele><time>2026-04-23T17:50:14Z</time></trkpt><trkpt lat="44.51201439954233" lon="0.9091147395703123"><ele>118.99999999999999</ele><time>2026-04-23T17:50:17Z</time></trkpt><trkpt lat="44.51210237903805" lon="0.9091356627065214"><ele>119.0</ele><time>2026-04-23T17:50:19Z</time></trkpt><trkpt lat="44.512229622043094" lon="0.90904414178259"><ele>118.99999999999999</ele><time>2026-04-23T17:50:21Z</time></trkpt><trkpt lat="44.512299507227844" lon="0.9090044119559211"><ele>119.0</ele><time>2026-04-23T17:50:22Z</time></trkpt><trkpt lat="44.51237261221486" lon="0.908958652975322"><ele>119.0</ele><time>2026-04-23T17:50:23Z</time></trkpt><trkpt lat="44.51241646627796" lon="0.9088506528417929"><ele>119.0</ele><time>2026-04-23T17:50:25Z</time></trkpt><trkpt lat="44.51250587511509" lon="0.9088669699701395"><ele>118.99999999999999</ele><time>2026-04-23T17:50:26Z</time></trkpt><trkpt lat="44.512569780633235" lon="0.9088361561254154"><ele>119.0</ele><time>2026-04-23T17:50:28Z</time></trkpt><trkpt lat="44.5126275479852" lon="0.9087778523152913"><ele>118.99999999999999</ele><time>2026-04-23T17:50:30Z</time></trkpt><trkpt lat="44.5127078901262" lon="0.9087403536541023"><ele>119.0</ele><time>2026-04-23T17:50:33Z</time></trkpt><trkpt lat="44.51279455865585" lon="0.9087568564526645"><ele>119.0</ele><time>2026-04-23T17:50:36Z</time></trkpt><trkpt lat="44.512858025201616" lon="0.9087568856815087"><ele>119.0</ele><time>2026-04-23T17:50:38Z</time></trkpt><trkpt lat="44.51293462231305" lon="0.9087669788144968"><ele>118.99999999999999</ele><time>2026-04-23T17:50:40Z</time></trkpt><trkpt lat="44.51299129212162" lon="0.9088467798436372"><ele>119.0</ele><time>2026-04-23T17:50:46Z</time></trkpt><trkpt lat="44.51301660960337" lon="0.9089614207543268"><ele>119.83333333333333</ele><time>2026-04-23T17:50:48Z</time></trkpt><trkpt lat="44.51308028710752" lon="0.9090188447376352"><ele>120.66666666666666</ele><time>2026-04-23T17:50:51Z</time></trkpt><trkpt lat="44.51306497979911" lon="0.9091174915669419"><ele>121.5</ele><time>2026-04-23T17:50:52.999Z</time></trkpt><trkpt lat="44.51309400606051" lon="0.9092242078887713"><ele>122.33333333333334</ele><time>2026-04-23T17:50:55.999Z</time></trkpt><trkpt lat="44.51315864940018" lon="0.9092739802713703"><ele>123.16666666666667</ele><time>2026-04-23T17:50:57.999Z</time></trkpt><trkpt lat="44.513212685251005" lon="0.9093597941891591"><ele>124.0</ele><time>2026-04-23T17:50:59.999Z</time></trkpt><trkpt lat="44.51327726640721" lon="0.9094055632885146"><ele>124.00000000000001</ele><time>2026-04-23T17:51:01.999Z</time></trkpt><trkpt lat="44.51326164078763" lon="0.9094982362117929"><ele>124.0</ele><time>2026-04-23T17:51:03.999Z</time></trkpt><trkpt lat="44.513234077966715" lon="0.9096090565751449"><ele>124.0</ele><time>2026-04-23T17:51:06.999Z</time></trkpt><trkpt lat="44.51322878844524" lon="0.9097177299969674"><ele>124.0</ele><time>2026-04-23T17:51:10.999Z</time></trkpt><trkpt lat="44.51320471900857" lon="0.9098325766194495"><ele>124.00000000000001</ele><time>2026-04-23T17:51:14.999Z</time></trkpt><trkpt lat="44.513185409657865" lon="0.909955705779978"><ele>124.0</ele><time>2026-04-23T17:51:18.999Z</time></trkpt><trkpt lat="44.513171576520094" lon="0.91007028523109"><ele>123.33333333333334</ele><time>2026-04-23T17:51:21.999Z</time></trkpt><trkpt lat="44.5131970609329" lon="0.9101686884873122"><ele>122.66666666666667</ele><time>2026-04-23T17:51:24.999Z</time></trkpt><trkpt lat="44.51327233262413" lon="0.9102251301367121"><ele>122.0</ele><time>2026-04-23T17:51:27.999Z</time></trkpt><trkpt lat="44.5133298930576" lon="0.9103199476895838"><ele>121.33333333333334</ele><time>2026-04-23T17:51:29.999Z</time></trkpt><trkpt lat="44.51337228877362" lon="0.9104167948417737"><ele>120.66666666666667</ele><time>2026-04-23T17:51:30.999Z</time></trkpt><trkpt lat="44.51344674201995" lon="0.9105217173539957"><ele>120.0</ele><time>2026-04-23T17:51:31.999Z</time></trkpt><trkpt lat="44.51352747215307" lon="0.910644571644959"><ele>120.0</ele><time>2026-04-23T17:51:32.999Z</time></trkpt><trkpt lat="44.51361087680332" lon="0.9107806446777983"><ele>120.0</ele><time>2026-04-23T17:51:33.999Z</time></trkpt><trkpt lat="44.51369441494241" lon="0.9109304155130359"><ele>120.0</ele><time>2026-04-23T17:51:34.999Z</time></trkpt><trkpt lat="44.51379566602685" lon="0.9110790034676048"><ele>120.0</ele><time>2026-04-23T17:51:35.999Z</time></trkpt><trkpt lat="44.513906369476075" lon="0.9112457601521123"><ele>120.0</ele><time>2026-04-23T17:51:36.999Z</time></trkpt><trkpt lat="44.51400705470583" lon="0.9114113383712797"><ele>120.0</ele><time>2026-04-23T17:51:37.999Z</time></trkpt><trkpt lat="44.51408620734229" lon="0.9115676368433304"><ele>120.0</ele><time>2026-04-23T17:51:38.999Z</time></trkpt><trkpt lat="44.51417315929134" lon="0.9116966594532364"><ele>120.0</ele><time>2026-04-23T17:51:39.999Z</time></trkpt><trkpt lat="44.51424073254988" lon="0.9118104354152189"><ele>120.0</ele><time>2026-04-23T17:51:40.999Z</time></trkpt><trkpt lat="44.514303572639925" lon="0.9119033941007816"><ele>120.0</ele><time>2026-04-23T17:51:41.999Z</time></trkpt><trkpt lat="44.51436352801661" lon="0.911986568366794"><ele>120.0</ele><time>2026-04-23T17:51:42.999Z</time></trkpt><trkpt lat="44.51441614917836" lon="0.9120723806316141"><ele>120.0</ele><time>2026-04-23T17:51:43.999Z</time></trkpt><trkpt lat="44.514463519195836" lon="0.9121544380384035"><ele>120.0</ele><time>2026-04-23T17:51:44.999Z</time></trkpt><trkpt lat="44.51449181110767" lon="0.9123046893599686"><ele>120.0</ele><time>2026-04-23T17:51:46.999Z</time></trkpt><trkpt lat="44.514414855734636" lon="0.9124241027753799"><ele>120.0</ele><time>2026-04-23T17:51:48.999Z</time></trkpt><trkpt lat="44.51435532402907" lon="0.9124860287304569"><ele>120.0</ele><time>2026-04-23T17:51:49.999Z</time></trkpt><trkpt lat="44.5142923290895" lon="0.912551403558917"><ele>120.0</ele><time>2026-04-23T17:51:50.999Z</time></trkpt><trkpt lat="44.51423018371706" lon="0.9126127911592846"><ele>120.0</ele><time>2026-04-23T17:51:51.999Z</time></trkpt><trkpt lat="44.51418297049874" lon="0.9126897396490146"><ele>120.0</ele><time>2026-04-23T17:51:52.999Z</time></trkpt><trkpt lat="44.51413845246911" lon="0.9127666612937323"><ele>120.0</ele><time>2026-04-23T17:51:53.999Z</time></trkpt><trkpt lat="44.51412233974814" lon="0.9128600470458343"><ele>120.0</ele><time>2026-04-23T17:51:54.999Z</time></trkpt><trkpt lat="44.51407660082411" lon="0.9129488967506414"><ele>119.5</ele><time>2026-04-23T17:51:55.999Z</time></trkpt><trkpt lat="44.51407413964263" lon="0.9130618196376485"><ele>119.0</ele><time>2026-04-23T17:51:56.999Z</time></trkpt><trkpt lat="44.51407473866662" lon="0.9131622971274794"><ele>118.5</ele><time>2026-04-23T17:51:57.999Z</time></trkpt><trkpt lat="44.51408887520685" lon="0.9132590018382761"><ele>118.0</ele><time>2026-04-23T17:51:59Z</time></trkpt><trkpt lat="44.51411044338041" lon="0.9133596410085286"><ele>117.5</ele><time>2026-04-23T17:52:00Z</time></trkpt><trkpt lat="44.51413035513426" lon="0.9134489319924647"><ele>117.0</ele><time>2026-04-23T17:52:01Z</time></trkpt><trkpt lat="44.51409985808094" lon="0.9135720190760308"><ele>116.5</ele><time>2026-04-23T17:52:03Z</time></trkpt><trkpt lat="44.51405187594078" lon="0.9136442551645677"><ele>116.0</ele><time>2026-04-23T17:52:04Z</time></trkpt><trkpt lat="44.51402202861907" lon="0.9137235866254682"><ele>115.5</ele><time>2026-04-23T17:52:05Z</time></trkpt><trkpt lat="44.514026826266196" lon="0.9138216977266668"><ele>115.0</ele><time>2026-04-23T17:52:06Z</time></trkpt><trkpt lat="44.51411970264332" lon="0.9139262062872356"><ele>114.5</ele><time>2026-04-23T17:52:07Z</time></trkpt><trkpt lat="44.51416730340573" lon="0.9140142180493518"><ele>114.0</ele><time>2026-04-23T17:52:08Z</time></trkpt><trkpt lat="44.51421499077207" lon="0.914073326905212"><ele>114.0</ele><time>2026-04-23T17:52:09Z</time></trkpt><trkpt lat="44.51425644218445" lon="0.9141476161784503"><ele>114.0</ele><time>2026-04-23T17:52:10Z</time></trkpt><trkpt lat="44.514287834922136" lon="0.9142360061849265"><ele>114.0</ele><time>2026-04-23T17:52:11Z</time></trkpt><trkpt lat="44.514339458114854" lon="0.9143357567839419"><ele>114.0</ele><time>2026-04-23T17:52:12Z</time></trkpt><trkpt lat="44.51437544418962" lon="0.9144132144260572"><ele>114.0</ele><time>2026-04-23T17:52:13Z</time></trkpt><trkpt lat="44.51442249734386" lon="0.9145061622949258"><ele>114.0</ele><time>2026-04-23T17:52:15Z</time></trkpt><trkpt lat="44.51445284048748" lon="0.9146180861265595"><ele>114.2</ele><time>2026-04-23T17:52:18Z</time></trkpt><trkpt lat="44.51458064529617" lon="0.9145631243188772"><ele>114.4</ele><time>2026-04-23T17:52:24Z</time></trkpt><trkpt lat="44.51465328389121" lon="0.9144618887791546"><ele>114.6</ele><time>2026-04-23T17:52:26Z</time></trkpt><trkpt lat="44.514723082459966" lon="0.9143704775374235"><ele>114.8</ele><time>2026-04-23T17:52:27Z</time></trkpt><trkpt lat="44.514791249079764" lon="0.914293863299977"><ele>115.0</ele><time>2026-04-23T17:52:28Z</time></trkpt><trkpt lat="44.51487041021435" lon="0.9141695680528542"><ele>115.0</ele><time>2026-04-23T17:52:29Z</time></trkpt><trkpt lat="44.514935799019106" lon="0.9140746995018738"><ele>115.0</ele><time>2026-04-23T17:52:30Z</time></trkpt><trkpt lat="44.51502087169692" lon="0.9139740051513418"><ele>115.0</ele><time>2026-04-23T17:52:32Z</time></trkpt><trkpt lat="44.51506403178214" lon="0.9139048202463818"><ele>115.0</ele><time>2026-04-23T17:52:33Z</time></trkpt><trkpt lat="44.51516429176946" lon="0.9138113562157906"><ele>115.0</ele><time>2026-04-23T17:52:35Z</time></trkpt><trkpt lat="44.515227777190304" lon="0.9137978554406915"><ele>115.00000000000001</ele><time>2026-04-23T17:52:37Z</time></trkpt><trkpt lat="44.51532497928237" lon="0.9138295887062148"><ele>115.0</ele><time>2026-04-23T17:52:39Z</time></trkpt><trkpt lat="44.51541090834055" lon="0.9138868681126485"><ele>115.0</ele><time>2026-04-23T17:52:41Z</time></trkpt><trkpt lat="44.5154974261454" lon="0.9139398681113312"><ele>115.0</ele><time>2026-04-23T17:52:43Z</time></trkpt><trkpt lat="44.51556006894248" lon="0.9139789184283305"><ele>115.00000000000001</ele><time>2026-04-23T17:52:45Z</time></trkpt><trkpt lat="44.51563930755237" lon="0.9140302677133365"><ele>115.0</ele><time>2026-04-23T17:52:47Z</time></trkpt><trkpt lat="44.5157243537115" lon="0.9140727190156346"><ele>115.16666666666667</ele><time>2026-04-23T17:52:49Z</time></trkpt><trkpt lat="44.51579185980639" lon="0.9141431693136545"><ele>115.33333333333334</ele><time>2026-04-23T17:52:51Z</time></trkpt><trkpt lat="44.515872959948496" lon="0.9141970802062995"><ele>115.5</ele><time>2026-04-23T17:52:53Z</time></trkpt><trkpt lat="44.515949376650504" lon="0.9141831437034534"><ele>115.66666666666666</ele><time>2026-04-23T17:52:55Z</time></trkpt><trkpt lat="44.51601478386446" lon="0.9141319306705751"><ele>115.83333333333333</ele><time>2026-04-23T17:52:56.999Z</time></trkpt><trkpt lat="44.51607178660893" lon="0.9140173667340032"><ele>116.0</ele><time>2026-04-23T17:52:58.999Z</time></trkpt><trkpt lat="44.51614020422924" lon="0.9139297677256601"><ele>115.99999999999999</ele><time>2026-04-23T17:53:00.999Z</time></trkpt><trkpt lat="44.51621885583358" lon="0.9138802286342106"><ele>116.0</ele><time>2026-04-23T17:53:02.999Z</time></trkpt><trkpt lat="44.51629430426352" lon="0.913832207169481"><ele>116.0</ele><time>2026-04-23T17:53:04.999Z</time></trkpt><trkpt lat="44.51635505438618" lon="0.9137857655733739"><ele>116.0</ele><time>2026-04-23T17:53:06.999Z</time></trkpt><trkpt lat="44.51642955232472" lon="0.9137821693103985"><ele>115.99999999999999</ele><time>2026-04-23T17:53:08.999Z</time></trkpt><trkpt lat="44.516509239873436" lon="0.9138647418674607"><ele>116.0</ele><time>2026-04-23T17:53:10.999Z</time></trkpt><trkpt lat="44.51657052832835" lon="0.9139862295706866"><ele>115.33333333333333</ele><time>2026-04-23T17:53:12.999Z</time></trkpt><trkpt lat="44.5166095079144" lon="0.9140769915029427"><ele>114.66666666666666</ele><time>2026-04-23T17:53:13.999Z</time></trkpt><trkpt lat="44.516652126338684" lon="0.9141634686903792"><ele>114.0</ele><time>2026-04-23T17:53:14.999Z</time></trkpt><trkpt lat="44.516675565925766" lon="0.9142794844248803"><ele>113.33333333333334</ele><time>2026-04-23T17:53:16.999Z</time></trkpt><trkpt lat="44.516662363219375" lon="0.9143734711477467"><ele>112.66666666666667</ele><time>2026-04-23T17:53:18.999Z</time></trkpt><trkpt lat="44.516641411542174" lon="0.9144961284005928"><ele>112.0</ele><time>2026-04-23T17:53:21.999Z</time></trkpt><trkpt lat="44.51661133158997" lon="0.9145886136240539"><ele>111.8</ele><time>2026-04-23T17:53:23.999Z</time></trkpt><trkpt lat="44.516595923284704" lon="0.9146908087037925"><ele>111.6</ele><time>2026-04-23T17:53:25.999Z</time></trkpt><trkpt lat="44.51655718205976" lon="0.9147859929308022"><ele>111.39999999999999</ele><time>2026-04-23T17:53:27.999Z</time></trkpt><trkpt lat="44.51648029199816" lon="0.9149159209548501"><ele>111.19999999999999</ele><time>2026-04-23T17:53:29.999Z</time></trkpt><trkpt lat="44.51644090238987" lon="0.915028472208479"><ele>111.0</ele><time>2026-04-23T17:53:30.999Z</time></trkpt><trkpt lat="44.5164071354523" lon="0.9151973603147796"><ele>110.66666666666667</ele><time>2026-04-23T17:53:32.999Z</time></trkpt><trkpt lat="44.51640751108009" lon="0.9153100300879655"><ele>110.33333333333334</ele><time>2026-04-23T17:53:35.999Z</time></trkpt><trkpt lat="44.51640413560478" lon="0.9154288646209991"><ele>110.0</ele><time>2026-04-23T17:53:40.999Z</time></trkpt><trkpt lat="44.51640409957024" lon="0.9155525222856684"><ele>109.66666666666667</ele><time>2026-04-23T17:53:44.999Z</time></trkpt><trkpt lat="44.51640355235888" lon="0.9156574518660442"><ele>109.33333333333334</ele><time>2026-04-23T17:53:46.999Z</time></trkpt><trkpt lat="44.51644323798824" lon="0.9157721996198426"><ele>109.0</ele><time>2026-04-23T17:53:49.999Z</time></trkpt><trkpt lat="44.51649084395216" lon="0.9158387760255978"><ele>109.00000000000001</ele><time>2026-04-23T17:53:51.999Z</time></trkpt><trkpt lat="44.51656819981122" lon="0.9158177734114353"><ele>109.0</ele><time>2026-04-23T17:53:55.999Z</time></trkpt><trkpt lat="44.51662223751235" lon="0.9157699826430237"><ele>109.0</ele><time>2026-04-23T17:53:56.999Z</time></trkpt><trkpt lat="44.51668569994619" lon="0.9156676359876321"><ele>109.0</ele><time>2026-04-23T17:53:57.999Z</time></trkpt><trkpt lat="44.516743366017245" lon="0.9155725376587831"><ele>109.00000000000001</ele><time>2026-04-23T17:53:58.999Z</time></trkpt><trkpt lat="44.516783207556855" lon="0.9154654129279614"><ele>109.0</ele><time>2026-04-23T17:53:59.999Z</time></trkpt><trkpt lat="44.516816395212494" lon="0.9153064908291085"><ele>109.0</ele><time>2026-04-23T17:54:00.999Z</time></trkpt><trkpt lat="44.51683960706678" lon="0.915134866774272"><ele>109.0</ele><time>2026-04-23T17:54:01.999Z</time></trkpt><trkpt lat="44.51686901209755" lon="0.9149664563509486"><ele>109.0</ele><time>2026-04-23T17:54:02.999Z</time></trkpt><trkpt lat="44.516908332085585" lon="0.91479947977493"><ele>109.0</ele><time>2026-04-23T17:54:03.999Z</time></trkpt><trkpt lat="44.516925533974685" lon="0.9146520914713797"><ele>109.33333333333334</ele><time>2026-04-23T17:54:05Z</time></trkpt><trkpt lat="44.516949449500544" lon="0.9145222236143704"><ele>109.66666666666667</ele><time>2026-04-23T17:54:06Z</time></trkpt><trkpt lat="44.51694093297155" lon="0.9143867058175367"><ele>110.0</ele><time>2026-04-23T17:54:07Z</time></trkpt><trkpt lat="44.51693214594513" lon="0.9142887056918689"><ele>110.33333333333334</ele><time>2026-04-23T17:54:08Z</time></trkpt><trkpt lat="44.51701013817084" lon="0.914245349568984"><ele>110.66666666666667</ele><time>2026-04-23T17:54:11Z</time></trkpt><trkpt lat="44.517066479213184" lon="0.9142006381761011"><ele>111.0</ele><time>2026-04-23T17:54:12Z</time></trkpt><trkpt lat="44.51712984312241" lon="0.9141406400792165"><ele>112.0</ele><time>2026-04-23T17:54:13Z</time></trkpt><trkpt lat="44.51717543103399" lon="0.914065704895938"><ele>113.0</ele><time>2026-04-23T17:54:14Z</time></trkpt><trkpt lat="44.517213161087206" lon="0.913967712078073"><ele>114.0</ele><time>2026-04-23T17:54:15Z</time></trkpt><trkpt lat="44.517261609720315" lon="0.9138548041117182"><ele>115.0</ele><time>2026-04-23T17:54:17Z</time></trkpt><trkpt lat="44.51731760888163" lon="0.9137524392953411"><ele>116.0</ele><time>2026-04-23T17:54:19Z</time></trkpt><trkpt lat="44.51735131524671" lon="0.9136577295153185"><ele>117.0</ele><time>2026-04-23T17:54:21Z</time></trkpt><trkpt lat="44.51748280584266" lon="0.9136718599868612"><ele>117.0</ele><time>2026-04-23T17:54:23Z</time></trkpt><trkpt lat="44.51757289354154" lon="0.9137330299607527"><ele>116.99999999999999</ele><time>2026-04-23T17:54:24Z</time></trkpt><trkpt lat="44.5176813590179" lon="0.9137965168247146"><ele>116.99999999999999</ele><time>2026-04-23T17:54:25Z</time></trkpt><trkpt lat="44.51775549393115" lon="0.913833083834653"><ele>117.0</ele><time>2026-04-23T17:54:26Z</time></trkpt><trkpt lat="44.51783626224733" lon="0.9138154179270632"><ele>117.0</ele><time>2026-04-23T17:54:28Z</time></trkpt><trkpt lat="44.51790089163094" lon="0.9136211370771735"><ele>118.0</ele><time>2026-04-23T17:54:30Z</time></trkpt><trkpt lat="44.51795476492744" lon="0.9134867511563364"><ele>118.99999999999999</ele><time>2026-04-23T17:54:31Z</time></trkpt><trkpt lat="44.518007311856955" lon="0.9133660932693112"><ele>119.99999999999999</ele><time>2026-04-23T17:54:32Z</time></trkpt><trkpt lat="44.51806229658102" lon="0.9132693483599587"><ele>121.0</ele><time>2026-04-23T17:54:33Z</time></trkpt><trkpt lat="44.51811771568995" lon="0.9132071947190561"><ele>122.0</ele><time>2026-04-23T17:54:34Z</time></trkpt><trkpt lat="44.51819054778344" lon="0.9130964254946624"><ele>121.99999999999999</ele><time>2026-04-23T17:54:36Z</time></trkpt><trkpt lat="44.51822522542048" lon="0.912986430138076"><ele>122.0</ele><time>2026-04-23T17:54:38Z</time></trkpt><trkpt lat="44.51826981170546" lon="0.9128872107313339"><ele>122.0</ele><time>2026-04-23T17:54:45Z</time></trkpt><trkpt lat="44.51836253810061" lon="0.9127948321956004"><ele>122.0</ele><time>2026-04-23T17:54:47Z</time></trkpt><trkpt lat="44.51845317429078" lon="0.9128298192324605"><ele>121.99999999999999</ele><time>2026-04-23T17:54:49Z</time></trkpt><trkpt lat="44.518518292453436" lon="0.9128609006144177"><ele>122.0</ele><time>2026-04-23T17:55:05.999Z</time></trkpt><trkpt lat="44.518584318741055" lon="0.912899112410097"><ele>121.99999999999999</ele><time>2026-04-23T17:55:09.999Z</time></trkpt><trkpt lat="44.51864710623436" lon="0.9129252672458644"><ele>122.0</ele><time>2026-04-23T17:55:10.999Z</time></trkpt><trkpt lat="44.51874447371506" lon="0.9129878177245886"><ele>122.0</ele><time>2026-04-23T17:55:12.999Z</time></trkpt><trkpt lat="44.51884884874366" lon="0.9130369734439453"><ele>122.0</ele><time>2026-04-23T17:55:14.999Z</time></trkpt><trkpt lat="44.51891951718558" lon="0.913044742123673"><ele>121.99999999999999</ele><time>2026-04-23T17:55:16.999Z</time></trkpt><trkpt lat="44.51896315006709" lon="0.9129654020841608"><ele>122.0</ele><time>2026-04-23T17:55:18.999Z</time></trkpt><trkpt lat="44.51897406767225" lon="0.9128750556870908"><ele>122.66666666666666</ele><time>2026-04-23T17:55:21.999Z</time></trkpt><trkpt lat="44.51899527879382" lon="0.912786705829579"><ele>123.33333333333333</ele><time>2026-04-23T17:55:24.999Z</time></trkpt><trkpt lat="44.51901411408907" lon="0.9127007140987388"><ele>124.0</ele><time>2026-04-23T17:55:26.999Z</time></trkpt><trkpt lat="44.51903923206408" lon="0.9125793027293633"><ele>124.66666666666666</ele><time>2026-04-23T17:55:28.999Z</time></trkpt><trkpt lat="44.519070468058054" lon="0.9124548926794999"><ele>125.33333333333333</ele><time>2026-04-23T17:55:30.999Z</time></trkpt><trkpt lat="44.51910734179215" lon="0.912349355757914"><ele>126.0</ele><time>2026-04-23T17:55:32.999Z</time></trkpt><trkpt lat="44.519129163021134" lon="0.9122304973845332"><ele>126.0</ele><time>2026-04-23T17:55:34.999Z</time></trkpt><trkpt lat="44.51915255455963" lon="0.9121107462258399"><ele>126.0</ele><time>2026-04-23T17:55:36.999Z</time></trkpt><trkpt lat="44.51918116846721" lon="0.9120019276680383"><ele>126.0</ele><time>2026-04-23T17:55:38.999Z</time></trkpt><trkpt lat="44.51921441082902" lon="0.9119202003469598"><ele>126.0</ele><time>2026-04-23T17:55:40.999Z</time></trkpt><trkpt lat="44.519263057065544" lon="0.9118191295225453"><ele>126.0</ele><time>2026-04-23T17:55:42.999Z</time></trkpt><trkpt lat="44.51931859919779" lon="0.9117028388764816"><ele>126.0</ele><time>2026-04-23T17:55:44.999Z</time></trkpt><trkpt lat="44.51937687672854" lon="0.9115951896263924"><ele>126.0</ele><time>2026-04-23T17:55:46.999Z</time></trkpt><trkpt lat="44.5194279774835" lon="0.9114852744852617"><ele>126.0</ele><time>2026-04-23T17:55:48.999Z</time></trkpt><trkpt lat="44.51947985881035" lon="0.9113769926124684"><ele>126.0</ele><time>2026-04-23T17:55:50.999Z</time></trkpt><trkpt lat="44.519512734696754" lon="0.9112913113850897"><ele>126.0</ele><time>2026-04-23T17:55:52.999Z</time></trkpt><trkpt lat="44.51954974488677" lon="0.9112111147732355"><ele>126.0</ele><time>2026-04-23T17:55:54.999Z</time></trkpt><trkpt lat="44.51953069029333" lon="0.9111226123467979"><ele>126.0</ele><time>2026-04-23T17:56:29Z</time></trkpt><trkpt lat="44.51948560624798" lon="0.9110487279363333"><ele>126.0</ele><time>2026-04-23T17:56:34Z</time></trkpt><trkpt lat="44.51949926413123" lon="0.9109503491030455"><ele>126.0</ele><time>2026-04-23T17:56:52Z</time></trkpt><trkpt lat="44.519464510651524" lon="0.9110364687133067"><ele>126.0</ele><time>2026-04-23T18:05:16Z</time></trkpt><trkpt lat="44.51951716512888" lon="0.9110855074653713"><ele>126.0</ele><time>2026-04-23T18:05:25Z</time></trkpt><trkpt lat="44.51955107323658" lon="0.9111625281340322"><ele>126.0</ele><time>2026-04-23T18:05:27Z</time></trkpt><trkpt lat="44.51953787700795" lon="0.9112590463411083"><ele>126.0</ele><time>2026-04-23T18:05:29Z</time></trkpt><trkpt lat="44.51949934971688" lon="0.9113307007597704"><ele>126.0</ele><time>2026-04-23T18:05:30Z</time></trkpt><trkpt lat="44.519448477095324" lon="0.9114370353152914"><ele>126.0</ele><time>2026-04-23T18:05:32Z</time></trkpt><trkpt lat="44.51940946361053" lon="0.9115326536493948"><ele>126.0</ele><time>2026-04-23T18:05:34Z</time></trkpt><trkpt lat="44.51936438792113" lon="0.9116225330595978"><ele>126.0</ele><time>2026-04-23T18:05:36Z</time></trkpt><trkpt lat="44.519321938023616" lon="0.9117095475925993"><ele>126.0</ele><time>2026-04-23T18:05:38Z</time></trkpt><trkpt lat="44.51928144892393" lon="0.9117952194821929"><ele>126.0</ele><time>2026-04-23T18:05:40Z</time></trkpt><trkpt lat="44.519228698771116" lon="0.9118943206078367"><ele>126.0</ele><time>2026-04-23T18:05:42Z</time></trkpt><trkpt lat="44.51919369928056" lon="0.9119872661719631"><ele>126.0</ele><time>2026-04-23T18:05:43.999Z</time></trkpt><trkpt lat="44.51915543398067" lon="0.912106624627654"><ele>126.0</ele><time>2026-04-23T18:05:46.999Z</time></trkpt><trkpt lat="44.51914050752724" lon="0.9122146751166778"><ele>126.0</ele><time>2026-04-23T18:05:48.999Z</time></trkpt><trkpt lat="44.51910666380501" lon="0.9123647242400085"><ele>126.0</ele><time>2026-04-23T18:05:50.999Z</time></trkpt><trkpt lat="44.51908360981564" lon="0.9124511041965176"><ele>126.0</ele><time>2026-04-23T18:05:51.999Z</time></trkpt><trkpt lat="44.519052698907416" lon="0.9125572232589206"><ele>126.0</ele><time>2026-04-23T18:05:53.999Z</time></trkpt><trkpt lat="44.519023776262635" lon="0.9126921827562067"><ele>126.0</ele><time>2026-04-23T18:05:55.999Z</time></trkpt><trkpt lat="44.51899380568673" lon="0.9128156726457952"><ele>126.0</ele><time>2026-04-23T18:05:58.999Z</time></trkpt><trkpt lat="44.51895307074094" lon="0.9129810273692028"><ele>126.0</ele><time>2026-04-23T18:06:00.999Z</time></trkpt><trkpt lat="44.518890936839874" lon="0.9130624871690188"><ele>126.0</ele><time>2026-04-23T18:06:02.999Z</time></trkpt><trkpt lat="44.51882157214797" lon="0.913027686270679"><ele>126.0</ele><time>2026-04-23T18:06:04.999Z</time></trkpt><trkpt lat="44.51874628791946" lon="0.9129869673377796"><ele>125.33333333333333</ele><time>2026-04-23T18:06:07.999Z</time></trkpt><trkpt lat="44.51868749510379" lon="0.9129537877769126"><ele>124.66666666666666</ele><time>2026-04-23T18:06:09.999Z</time></trkpt><trkpt lat="44.51862655048064" lon="0.912915971392603"><ele>124.0</ele><time>2026-04-23T18:06:11.999Z</time></trkpt><trkpt lat="44.518563785630356" lon="0.9128924461345341"><ele>123.33333333333333</ele><time>2026-04-23T18:06:13.999Z</time></trkpt><trkpt lat="44.51847647390062" lon="0.9128517601043908"><ele>122.66666666666666</ele><time>2026-04-23T18:06:16.999Z</time></trkpt><trkpt lat="44.51841239557202" lon="0.9128280467931573"><ele>122.0</ele><time>2026-04-23T18:06:17.999Z</time></trkpt><trkpt lat="44.518306909640785" lon="0.9128384915102854"><ele>121.99999999999999</ele><time>2026-04-23T18:06:19.999Z</time></trkpt><trkpt lat="44.51824966573374" lon="0.91292241687932"><ele>122.0</ele><time>2026-04-23T18:06:20.999Z</time></trkpt><trkpt lat="44.51820814394962" lon="0.9130358242938856"><ele>122.0</ele><time>2026-04-23T18:06:21.999Z</time></trkpt><trkpt lat="44.518179954605834" lon="0.9131187229860439"><ele>122.0</ele><time>2026-04-23T18:06:22.999Z</time></trkpt><trkpt lat="44.518125999955274" lon="0.9132405276632981"><ele>121.99999999999999</ele><time>2026-04-23T18:06:24.999Z</time></trkpt><trkpt lat="44.51806196226253" lon="0.9133057311331719"><ele>122.0</ele><time>2026-04-23T18:06:26.999Z</time></trkpt><trkpt lat="44.51797823795665" lon="0.913419724974092"><ele>122.8</ele><time>2026-04-23T18:06:29.999Z</time></trkpt><trkpt lat="44.51794691168964" lon="0.9135053795268606"><ele>123.6</ele><time>2026-04-23T18:06:30.999Z</time></trkpt><trkpt lat="44.517884181500655" lon="0.9136819715841207"><ele>124.39999999999999</ele><time>2026-04-23T18:06:32.999Z</time></trkpt><trkpt lat="44.51784407571814" lon="0.9138062674695709"><ele>125.19999999999999</ele><time>2026-04-23T18:06:34.999Z</time></trkpt><trkpt lat="44.517754185793606" lon="0.9138286141527793"><ele>126.0</ele><time>2026-04-23T18:06:38.999Z</time></trkpt><trkpt lat="44.517691043050625" lon="0.9137983585548991"><ele>124.5</ele><time>2026-04-23T18:06:41Z</time></trkpt><trkpt lat="44.51760434611785" lon="0.9137632431862306"><ele>123.0</ele><time>2026-04-23T18:06:44Z</time></trkpt><trkpt lat="44.5175167451521" lon="0.9137266146569573"><ele>121.5</ele><time>2026-04-23T18:06:46Z</time></trkpt><trkpt lat="44.517455902674435" lon="0.9136945413273044"><ele>120.0</ele><time>2026-04-23T18:06:47Z</time></trkpt><trkpt lat="44.51737672339233" lon="0.9136537744200016"><ele>118.5</ele><time>2026-04-23T18:06:49Z</time></trkpt><trkpt lat="44.517313163746984" lon="0.9137439054203808"><ele>117.0</ele><time>2026-04-23T18:06:51Z</time></trkpt><trkpt lat="44.51727933695214" lon="0.9138920646405767"><ele>117.0</ele><time>2026-04-23T18:06:53Z</time></trkpt><trkpt lat="44.51718416490529" lon="0.9140060753962606"><ele>117.0</ele><time>2026-04-23T18:06:55Z</time></trkpt><trkpt lat="44.517169599879104" lon="0.9141010369359952"><ele>117.0</ele><time>2026-04-23T18:06:56Z</time></trkpt><trkpt lat="44.51712119045818" lon="0.91417305871056"><ele>117.0</ele><time>2026-04-23T18:06:57Z</time></trkpt><trkpt lat="44.517060256026056" lon="0.9142438765871588"><ele>117.0</ele><time>2026-04-23T18:06:58Z</time></trkpt><trkpt lat="44.516998754028876" lon="0.9143207437779362"><ele>117.0</ele><time>2026-04-23T18:06:59Z</time></trkpt><trkpt lat="44.516934533822116" lon="0.9144170447420064"><ele>117.16666666666667</ele><time>2026-04-23T18:07:01Z</time></trkpt><trkpt lat="44.51697377254044" lon="0.914293771983424"><ele>117.33333333333334</ele><time>2026-04-23T18:07:20Z</time></trkpt><trkpt lat="44.517066934412085" lon="0.9142642714755255"><ele>117.5</ele><time>2026-04-23T18:07:22Z</time></trkpt><trkpt lat="44.51711302956407" lon="0.914361701457176"><ele>117.66666666666667</ele><time>2026-04-23T18:07:25Z</time></trkpt><trkpt lat="44.517215511693784" lon="0.9143906791350255"><ele>117.83333333333334</ele><time>2026-04-23T18:07:28Z</time></trkpt><trkpt lat="44.5172775862686" lon="0.9144151663548189"><ele>118.0</ele><time>2026-04-23T18:07:29Z</time></trkpt><trkpt lat="44.51735982795321" lon="0.9144330334765702"><ele>118.00000000000001</ele><time>2026-04-23T18:07:30Z</time></trkpt><trkpt lat="44.51742846951065" lon="0.9144703905129171"><ele>118.0</ele><time>2026-04-23T18:07:31Z</time></trkpt><trkpt lat="44.51748729085897" lon="0.914508878673178"><ele>118.0</ele><time>2026-04-23T18:07:32Z</time></trkpt><trkpt lat="44.517554020488596" lon="0.9144813476427072"><ele>118.0</ele><time>2026-04-23T18:07:33Z</time></trkpt><trkpt lat="44.51762709708759" lon="0.9143811836720053"><ele>118.00000000000001</ele><time>2026-04-23T18:07:35Z</time></trkpt><trkpt lat="44.517657094989815" lon="0.9142813688196816"><ele>118.0</ele><time>2026-04-23T18:07:36Z</time></trkpt><trkpt lat="44.5176785326475" lon="0.9141839862778216"><ele>118.00000000000001</ele><time>2026-04-23T18:07:38Z</time></trkpt><trkpt lat="44.51772288195319" lon="0.9141045368610171"><ele>118.0</ele><time>2026-04-23T18:07:40Z</time></trkpt><trkpt lat="44.5177840883703" lon="0.9140811344913732"><ele>118.0</ele><time>2026-04-23T18:07:42Z</time></trkpt><trkpt lat="44.51784979046249" lon="0.9141997760235682"><ele>118.0</ele><time>2026-04-23T18:07:44Z</time></trkpt><trkpt lat="44.517886667890814" lon="0.9143096777315035"><ele>118.00000000000001</ele><time>2026-04-23T18:07:45Z</time></trkpt><trkpt lat="44.51794413546472" lon="0.9143735609687014"><ele>118.0</ele><time>2026-04-23T18:07:46Z</time></trkpt><trkpt lat="44.51801943766584" lon="0.9144008851524557"><ele>119.00000000000001</ele><time>2026-04-23T18:07:48Z</time></trkpt><trkpt lat="44.51810417748141" lon="0.9144804390906763"><ele>120.0</ele><time>2026-04-23T18:07:51Z</time></trkpt><trkpt lat="44.5181680644525" lon="0.9144909813504509"><ele>121.0</ele><time>2026-04-23T18:07:52Z</time></trkpt><trkpt lat="44.51823557492738" lon="0.9145378075338317"><ele>122.0</ele><time>2026-04-23T18:07:53Z</time></trkpt><trkpt lat="44.51827690077402" lon="0.9146200944261571"><ele>123.00000000000001</ele><time>2026-04-23T18:07:53.999Z</time></trkpt><trkpt lat="44.518358992449755" lon="0.9145782213612811"><ele>124.0</ele><time>2026-04-23T18:07:55.999Z</time></trkpt><trkpt lat="44.518396806931165" lon="0.914651836516769"><ele>124.00000000000001</ele><time>2026-04-23T18:07:58.999Z</time></trkpt><trkpt lat="44.51839944250431" lon="0.9147806348445734"><ele>124.0</ele><time>2026-04-23T18:08:01.999Z</time></trkpt><trkpt lat="44.518348276457985" lon="0.9148619835213064"><ele>124.0</ele><time>2026-04-23T18:08:04.999Z</time></trkpt><trkpt lat="44.51829220749995" lon="0.914978729932374"><ele>124.0</ele><time>2026-04-23T18:08:36.999Z</time></trkpt><trkpt lat="44.518314879246745" lon="0.9150642808604306"><ele>124.00000000000001</ele><time>2026-04-23T18:08:39.999Z</time></trkpt><trkpt lat="44.518383853567855" lon="0.9150044191503657"><ele>124.0</ele><time>2026-04-23T18:08:41.999Z</time></trkpt><trkpt lat="44.51842020877453" lon="0.9149183476056185"><ele>124.00000000000001</ele><time>2026-04-23T18:08:42.999Z</time></trkpt><trkpt lat="44.518468685215424" lon="0.9148528299557284"><ele>124.0</ele><time>2026-04-23T18:08:43.999Z</time></trkpt><trkpt lat="44.51859384678175" lon="0.9149123520334428"><ele>124.0</ele><time>2026-04-23T18:08:45.999Z</time></trkpt><trkpt lat="44.51869072678952" lon="0.9148875085464673"><ele>124.0</ele><time>2026-04-23T18:08:48Z</time></trkpt><trkpt lat="44.51874959280971" lon="0.9149206747432116"><ele>124.00000000000001</ele><time>2026-04-23T18:08:50Z</time></trkpt><trkpt lat="44.51882326343126" lon="0.9148574230235974"><ele>124.0</ele><time>2026-04-23T18:08:52Z</time></trkpt><trkpt lat="44.51885131283451" lon="0.9147448433521801"><ele>123.4</ele><time>2026-04-23T18:08:54Z</time></trkpt><trkpt lat="44.51892069292727" lon="0.9147299579239195"><ele>122.80000000000001</ele><time>2026-04-23T18:08:58Z</time></trkpt><trkpt lat="44.51899313487118" lon="0.9146831875297817"><ele>122.19999999999999</ele><time>2026-04-23T18:09:24Z</time></trkpt><trkpt lat="44.519078836122425" lon="0.9145782887298188"><ele>121.6</ele><time>2026-04-23T18:09:26Z</time></trkpt><trkpt lat="44.51912154987275" lon="0.9145130427352324"><ele>121.0</ele><time>2026-04-23T18:09:27Z</time></trkpt><trkpt lat="44.51908076656571" lon="0.914319494048335"><ele>121.00000000000001</ele><time>2026-04-23T18:09:31Z</time></trkpt><trkpt lat="44.51901059640685" lon="0.9142583773619852"><ele>121.0</ele><time>2026-04-23T18:09:32Z</time></trkpt><trkpt lat="44.51894184181462" lon="0.9142017516784597"><ele>121.0</ele><time>2026-04-23T18:09:33Z</time></trkpt><trkpt lat="44.51887415714921" lon="0.9141075407548356"><ele>121.0</ele><time>2026-04-23T18:09:34Z</time></trkpt><trkpt lat="44.518814526745935" lon="0.9140105353194726"><ele>121.00000000000001</ele><time>2026-04-23T18:09:35Z</time></trkpt><trkpt lat="44.51873380523289" lon="0.9139276231706162"><ele>121.0</ele><time>2026-04-23T18:09:36Z</time></trkpt><trkpt lat="44.51868457996318" lon="0.913868342399952"><ele>121.83333333333334</ele><time>2026-04-23T18:09:37Z</time></trkpt><trkpt lat="44.51860789938274" lon="0.9138008871249818"><ele>122.66666666666667</ele><time>2026-04-23T18:09:39Z</time></trkpt><trkpt lat="44.518557370398035" lon="0.9137373670495176"><ele>123.5</ele><time>2026-04-23T18:09:41Z</time></trkpt><trkpt lat="44.51847554766522" lon="0.9136971524458787"><ele>124.33333333333334</ele><time>2026-04-23T18:09:44Z</time></trkpt><trkpt lat="44.51844069592145" lon="0.913609067941545"><ele>125.16666666666667</ele><time>2026-04-23T18:09:58.999Z</time></trkpt><trkpt lat="44.518389209261635" lon="0.9135362949627043"><ele>126.0</ele><time>2026-04-23T18:10:01.999Z</time></trkpt><trkpt lat="44.51831757561417" lon="0.9134683484357985"><ele>126.0</ele><time>2026-04-23T18:10:03.999Z</time></trkpt><trkpt lat="44.51818613338455" lon="0.9133731127845193"><ele>126.0</ele><time>2026-04-23T18:10:05.999Z</time></trkpt><trkpt lat="44.51813023076245" lon="0.9133102499627281"><ele>126.0</ele><time>2026-04-23T18:10:06.999Z</time></trkpt><trkpt lat="44.51806908073697" lon="0.913273729485719"><ele>126.0</ele><time>2026-04-23T18:10:08.999Z</time></trkpt><trkpt lat="44.51800155287204" lon="0.9133597772490291"><ele>126.0</ele><time>2026-04-23T18:10:12.999Z</time></trkpt><trkpt lat="44.51796651815979" lon="0.9134372037240363"><ele>126.0</ele><time>2026-04-23T18:10:13.999Z</time></trkpt><trkpt lat="44.5179251953977" lon="0.9135703224573456"><ele>124.19999999999999</ele><time>2026-04-23T18:10:14.999Z</time></trkpt><trkpt lat="44.51787524318143" lon="0.9136975871063696"><ele>122.39999999999999</ele><time>2026-04-23T18:10:15.999Z</time></trkpt><trkpt lat="44.51784242540248" lon="0.9137961422108138"><ele>120.6</ele><time>2026-04-23T18:10:16.999Z</time></trkpt><trkpt lat="44.517789056484716" lon="0.913929476457788"><ele>118.8</ele><time>2026-04-23T18:10:18.999Z</time></trkpt><trkpt lat="44.517762608212934" lon="0.9140324864034955"><ele>117.0</ele><time>2026-04-23T18:10:19.999Z</time></trkpt><trkpt lat="44.517717977652175" lon="0.9141358356265623"><ele>117.19999999999999</ele><time>2026-04-23T18:10:20.999Z</time></trkpt><trkpt lat="44.51767190810473" lon="0.9142578387979547"><ele>117.39999999999999</ele><time>2026-04-23T18:10:21.999Z</time></trkpt><trkpt lat="44.517616131157595" lon="0.914360602443234"><ele>117.60000000000001</ele><time>2026-04-23T18:10:22.999Z</time></trkpt><trkpt lat="44.5175277941812" lon="0.9144000819817636"><ele>117.80000000000001</ele><time>2026-04-23T18:10:23.999Z</time></trkpt><trkpt lat="44.51748430102487" lon="0.9144733206383141"><ele>118.0</ele><time>2026-04-23T18:10:25.999Z</time></trkpt><trkpt lat="44.517381903403134" lon="0.9144102781104585"><ele>118.0</ele><time>2026-04-23T18:10:27.999Z</time></trkpt><trkpt lat="44.51728203061215" lon="0.9143481048833293"><ele>118.00000000000001</ele><time>2026-04-23T18:10:29.999Z</time></trkpt><trkpt lat="44.51722334249994" lon="0.9142812694061901"><ele>118.00000000000001</ele><time>2026-04-23T18:10:30.999Z</time></trkpt><trkpt lat="44.51716887919793" lon="0.9143342337501593"><ele>118.0</ele><time>2026-04-23T18:10:31.999Z</time></trkpt><trkpt lat="44.51705221871775" lon="0.9143570266953613"><ele>118.0</ele><time>2026-04-23T18:10:33.999Z</time></trkpt><trkpt lat="44.51697980331416" lon="0.914436267458247"><ele>116.83333333333334</ele><time>2026-04-23T18:10:37.999Z</time></trkpt><trkpt lat="44.51692589838502" lon="0.9145349913882919"><ele>115.66666666666667</ele><time>2026-04-23T18:10:39.999Z</time></trkpt><trkpt lat="44.51690386569262" lon="0.9146883058920301"><ele>114.5</ele><time>2026-04-23T18:10:41.999Z</time></trkpt><trkpt lat="44.51689129840038" lon="0.9147844930625861"><ele>113.33333333333334</ele><time>2026-04-23T18:10:42.999Z</time></trkpt><trkpt lat="44.5168764515999" lon="0.9148917034447938"><ele>112.16666666666667</ele><time>2026-04-23T18:10:43.999Z</time></trkpt><trkpt lat="44.51685338551872" lon="0.9150245265603713"><ele>111.0</ele><time>2026-04-23T18:10:44.999Z</time></trkpt><trkpt lat="44.516818431101086" lon="0.915180710160971"><ele>110.6</ele><time>2026-04-23T18:10:45.999Z</time></trkpt><trkpt lat="44.51679881610614" lon="0.9153649651030802"><ele>110.19999999999999</ele><time>2026-04-23T18:10:46.999Z</time></trkpt><trkpt lat="44.516774054138565" lon="0.9154969086062391"><ele>109.80000000000001</ele><time>2026-04-23T18:10:47.999Z</time></trkpt><trkpt lat="44.51673742028748" lon="0.9156112130951896"><ele>109.4</ele><time>2026-04-23T18:10:48.999Z</time></trkpt><trkpt lat="44.51669291159036" lon="0.9156889407391121"><ele>109.0</ele><time>2026-04-23T18:10:49.999Z</time></trkpt><trkpt lat="44.5166340523989" lon="0.9157551848746295"><ele>109.00000000000001</ele><time>2026-04-23T18:10:50.999Z</time></trkpt><trkpt lat="44.516571464811925" lon="0.9158144776342627"><ele>109.0</ele><time>2026-04-23T18:10:51.999Z</time></trkpt><trkpt lat="44.51652383947444" lon="0.915878069548989"><ele>109.0</ele><time>2026-04-23T18:10:53Z</time></trkpt><trkpt lat="44.51648017737572" lon="0.9159556943680336"><ele>109.0</ele><time>2026-04-23T18:10:54Z</time></trkpt><trkpt lat="44.51639982683874" lon="0.9160401779340925"><ele>109.00000000000001</ele><time>2026-04-23T18:10:56Z</time></trkpt><trkpt lat="44.51633394795822" lon="0.9160456809823544"><ele>109.0</ele><time>2026-04-23T18:11:06Z</time></trkpt><trkpt lat="44.516248412624776" lon="0.9160345782017028"><ele>109.00000000000001</ele><time>2026-04-23T18:11:10Z</time></trkpt><trkpt lat="44.516187316734495" lon="0.9159776009990429"><ele>109.0</ele><time>2026-04-23T18:11:15Z</time></trkpt><trkpt lat="44.51617543919444" lon="0.9158890028010007"><ele>109.0</ele><time>2026-04-23T18:11:16Z</time></trkpt><trkpt lat="44.51618194328278" lon="0.9157822490332806"><ele>109.0</ele><time>2026-04-23T18:11:17Z</time></trkpt><trkpt lat="44.51618485656696" lon="0.9156779572862374"><ele>109.00000000000001</ele><time>2026-04-23T18:11:18Z</time></trkpt><trkpt lat="44.516161899365336" lon="0.9155774130802041"><ele>109.0</ele><time>2026-04-23T18:11:19Z</time></trkpt><trkpt lat="44.51614868547785" lon="0.9154533186598021"><ele>109.00000000000001</ele><time>2026-04-23T18:11:20Z</time></trkpt><trkpt lat="44.516141042858976" lon="0.9153608235660502"><ele>109.0</ele><time>2026-04-23T18:11:21Z</time></trkpt><trkpt lat="44.51612485736826" lon="0.9152722711975024"><ele>109.0</ele><time>2026-04-23T18:11:22Z</time></trkpt><trkpt lat="44.51613286446198" lon="0.9151790143110118"><ele>109.0</ele><time>2026-04-23T18:11:23Z</time></trkpt><trkpt lat="44.51615121394823" lon="0.915046499974963"><ele>109.00000000000001</ele><time>2026-04-23T18:11:25Z</time></trkpt><trkpt lat="44.516154393337054" lon="0.9149365696445477"><ele>109.0</ele><time>2026-04-23T18:11:27Z</time></trkpt><trkpt lat="44.51614333597224" lon="0.9148115223407357"><ele>110.16666666666667</ele><time>2026-04-23T18:11:29Z</time></trkpt><trkpt lat="44.51607626863387" lon="0.9146901379427731"><ele>111.33333333333334</ele><time>2026-04-23T18:11:31Z</time></trkpt><trkpt lat="44.516005655328904" lon="0.9146691808301416"><ele>112.5</ele><time>2026-04-23T18:11:33Z</time></trkpt><trkpt lat="44.51591537304392" lon="0.9146376421691746"><ele>113.66666666666666</ele><time>2026-04-23T18:11:39Z</time></trkpt><trkpt lat="44.515849221452974" lon="0.9146275857798601"><ele>114.83333333333333</ele><time>2026-04-23T18:11:41Z</time></trkpt><trkpt lat="44.515818115187145" lon="0.9147310961289483"><ele>116.0</ele><time>2026-04-23T18:11:45Z</time></trkpt><trkpt lat="44.515881463707686" lon="0.9149437847106517"><ele>114.6</ele><time>2026-04-23T18:11:47Z</time></trkpt><trkpt lat="44.515906704253254" lon="0.9150708919666376"><ele>113.19999999999999</ele><time>2026-04-23T18:11:48Z</time></trkpt><trkpt lat="44.51593441375399" lon="0.9152251488337546"><ele>111.80000000000001</ele><time>2026-04-23T18:11:49Z</time></trkpt><trkpt lat="44.51594902229382" lon="0.9153432356832798"><ele>110.4</ele><time>2026-04-23T18:11:50Z</time></trkpt><trkpt lat="44.51597597654377" lon="0.9154546683797001"><ele>109.0</ele><time>2026-04-23T18:11:50.999Z</time></trkpt><trkpt lat="44.51600089625442" lon="0.9155918541203448"><ele>109.00000000000001</ele><time>2026-04-23T18:11:51.999Z</time></trkpt><trkpt lat="44.51605633747719" lon="0.9157303364491272"><ele>109.0</ele><time>2026-04-23T18:11:52.999Z</time></trkpt><trkpt lat="44.516147620828384" lon="0.9156954369344792"><ele>109.0</ele><time>2026-04-23T18:11:55.999Z</time></trkpt><trkpt lat="44.516195073259006" lon="0.9156334969096571"><ele>109.0</ele><time>2026-04-23T18:11:57.999Z</time></trkpt><trkpt lat="44.516170217342534" lon="0.915720065875726"><ele>109.00000000000001</ele><time>2026-04-23T18:12:13.999Z</time></trkpt><trkpt lat="44.51617612410599" lon="0.9158645727601787"><ele>109.0</ele><time>2026-04-23T18:12:15.999Z</time></trkpt><trkpt lat="44.51617232402642" lon="0.9159738798839071"><ele>109.00000000000001</ele><time>2026-04-23T18:12:18.999Z</time></trkpt><trkpt lat="44.51623921332268" lon="0.915975622649544"><ele>109.0</ele><time>2026-04-23T18:12:29.999Z</time></trkpt><trkpt lat="44.51617601991324" lon="0.9158738630015103"><ele>109.0</ele><time>2026-04-23T18:12:38.999Z</time></trkpt><trkpt lat="44.516179293223615" lon="0.9157532476629389"><ele>109.0</ele><time>2026-04-23T18:12:39.999Z</time></trkpt><trkpt lat="44.516179777085654" lon="0.9156404900777771"><ele>109.00000000000001</ele><time>2026-04-23T18:12:40.999Z</time></trkpt><trkpt lat="44.51615899181884" lon="0.9154957282261834"><ele>109.0</ele><time>2026-04-23T18:12:41.999Z</time></trkpt><trkpt lat="44.516136629575016" lon="0.9153552423063295"><ele>109.0</ele><time>2026-04-23T18:12:42.999Z</time></trkpt><trkpt lat="44.51612486655041" lon="0.9152211812062352"><ele>109.0</ele><time>2026-04-23T18:12:43.999Z</time></trkpt><trkpt lat="44.5161408857629" lon="0.9150983778242456"><ele>109.0</ele><time>2026-04-23T18:12:44.999Z</time></trkpt><trkpt lat="44.516163165765526" lon="0.9149755448628341"><ele>109.0</ele><time>2026-04-23T18:12:45.999Z</time></trkpt><trkpt lat="44.51614761839313" lon="0.914828851771997"><ele>109.0</ele><time>2026-04-23T18:12:47.999Z</time></trkpt><trkpt lat="44.516084248917934" lon="0.9146901035584427"><ele>110.16666666666667</ele><time>2026-04-23T18:12:49.999Z</time></trkpt><trkpt lat="44.515989387966556" lon="0.9146407169981726"><ele>111.33333333333334</ele><time>2026-04-23T18:12:51.999Z</time></trkpt><trkpt lat="44.51592815245427" lon="0.9146182942742863"><ele>112.5</ele><time>2026-04-23T18:12:52.999Z</time></trkpt><trkpt lat="44.515841762780404" lon="0.9146136003169827"><ele>113.66666666666666</ele><time>2026-04-23T18:12:54.999Z</time></trkpt><trkpt lat="44.51580829468702" lon="0.9146931057256591"><ele>114.83333333333333</ele><time>2026-04-23T18:12:56.999Z</time></trkpt><trkpt lat="44.51584849030077" lon="0.9148610867513818"><ele>116.0</ele><time>2026-04-23T18:12:59Z</time></trkpt><trkpt lat="44.51587242674953" lon="0.9149490601305655"><ele>114.83333333333333</ele><time>2026-04-23T18:13:00Z</time></trkpt><trkpt lat="44.51589272544681" lon="0.9150969650916193"><ele>113.66666666666666</ele><time>2026-04-23T18:13:01Z</time></trkpt><trkpt lat="44.51592603311423" lon="0.915248130283285"><ele>112.5</ele><time>2026-04-23T18:13:02Z</time></trkpt><trkpt lat="44.51594246471134" lon="0.915346903932691"><ele>111.33333333333334</ele><time>2026-04-23T18:13:03Z</time></trkpt><trkpt lat="44.51596931205438" lon="0.9154552714255708"><ele>110.16666666666667</ele><time>2026-04-23T18:13:04Z</time></trkpt><trkpt lat="44.515980802969196" lon="0.9155569971754951"><ele>109.0</ele><time>2026-04-23T18:13:05Z</time></trkpt><trkpt lat="44.51600383253862" lon="0.9156557678673936"><ele>109.00000000000001</ele><time>2026-04-23T18:13:06Z</time></trkpt><trkpt lat="44.516045961738996" lon="0.9157644652847399"><ele>109.0</ele><time>2026-04-23T18:13:08Z</time></trkpt><trkpt lat="44.51612773295438" lon="0.9158070008773154"><ele>109.0</ele><time>2026-04-23T18:13:11Z</time></trkpt><trkpt lat="44.51619426279133" lon="0.9158387290751088"><ele>109.0</ele><time>2026-04-23T18:13:14Z</time></trkpt><trkpt lat="44.516191513139596" lon="0.9159343332733444"><ele>109.00000000000001</ele><time>2026-04-23T18:13:17Z</time></trkpt><trkpt lat="44.516167514239626" lon="0.916027993416596"><ele>109.0</ele><time>2026-04-23T18:13:21Z</time></trkpt><trkpt lat="44.51617899348982" lon="0.9159000959519377"><ele>109.0</ele><time>2026-04-23T18:13:34Z</time></trkpt><trkpt lat="44.516171296329155" lon="0.9157730744452026"><ele>109.0</ele><time>2026-04-23T18:13:35Z</time></trkpt><trkpt lat="44.51615322169124" lon="0.9156329010985965"><ele>109.0</ele><time>2026-04-23T18:13:36Z</time></trkpt><trkpt lat="44.51614557204832" lon="0.9155002400920226"><ele>109.0</ele><time>2026-04-23T18:13:37Z</time></trkpt><trkpt lat="44.516136636373695" lon="0.9153565831408617"><ele>109.0</ele><time>2026-04-23T18:13:38Z</time></trkpt><trkpt lat="44.516125654853255" lon="0.9152191067307528"><ele>109.0</ele><time>2026-04-23T18:13:39Z</time></trkpt><trkpt lat="44.51614383120159" lon="0.9150716674363428"><ele>109.0</ele><time>2026-04-23T18:13:41Z</time></trkpt><trkpt lat="44.51615267292709" lon="0.9149152318374506"><ele>109.0</ele><time>2026-04-23T18:13:43Z</time></trkpt><trkpt lat="44.51612855676257" lon="0.9147738802988655"><ele>109.0</ele><time>2026-04-23T18:13:45Z</time></trkpt><trkpt lat="44.51608550273749" lon="0.9146974323087194"><ele>109.0</ele><time>2026-04-23T18:13:46Z</time></trkpt><trkpt lat="44.51601236833496" lon="0.9146494134501101"><ele>110.16666666666667</ele><time>2026-04-23T18:13:48Z</time></trkpt><trkpt lat="44.51590644120943" lon="0.9146320366521465"><ele>111.33333333333334</ele><time>2026-04-23T18:13:50Z</time></trkpt><trkpt lat="44.51582603325361" lon="0.9146515249113347"><ele>112.5</ele><time>2026-04-23T18:13:52Z</time></trkpt><trkpt lat="44.51581838328319" lon="0.9147500146554826"><ele>113.66666666666666</ele><time>2026-04-23T18:13:53.999Z</time></trkpt><trkpt lat="44.51584772616046" lon="0.914834762783778"><ele>114.83333333333333</ele><time>2026-04-23T18:13:56.999Z</time></trkpt><trkpt lat="44.51578315875831" lon="0.9149288362168865"><ele>116.0</ele><time>2026-04-23T18:14:41.999Z</time></trkpt><trkpt lat="44.51572453745164" lon="0.9150058481886195"><ele>114.83333333333333</ele><time>2026-04-23T18:14:44.999Z</time></trkpt><trkpt lat="44.51568494311208" lon="0.9150889814797893"><ele>113.66666666666666</ele><time>2026-04-23T18:14:46.999Z</time></trkpt><trkpt lat="44.515621549647555" lon="0.9151987642645468"><ele>112.5</ele><time>2026-04-23T18:14:49.999Z</time></trkpt><trkpt lat="44.515608505100516" lon="0.9153021551434645"><ele>111.33333333333334</ele><time>2026-04-23T18:14:51.999Z</time></trkpt><trkpt lat="44.515635104880154" lon="0.9154123948236513"><ele>110.16666666666667</ele><time>2026-04-23T18:14:53.999Z</time></trkpt><trkpt lat="44.51564783926188" lon="0.9155079434209168"><ele>109.0</ele><time>2026-04-23T18:14:54.999Z</time></trkpt><trkpt lat="44.51573278676048" lon="0.9155534407670932"><ele>109.00000000000001</ele><time>2026-04-23T18:14:55.999Z</time></trkpt><trkpt lat="44.51575955418906" lon="0.9156710990218235"><ele>109.0</ele><time>2026-04-23T18:14:56.999Z</time></trkpt><trkpt lat="44.51580756262514" lon="0.9157573162228267"><ele>109.0</ele><time>2026-04-23T18:14:57.999Z</time></trkpt><trkpt lat="44.51584681029935" lon="0.9158402182457792"><ele>109.0</ele><time>2026-04-23T18:14:59.999Z</time></trkpt><trkpt lat="44.515889391633685" lon="0.9159627583511164"><ele>109.00000000000001</ele><time>2026-04-23T18:15:01.999Z</time></trkpt><trkpt lat="44.51593964491032" lon="0.9160736509559261"><ele>109.0</ele><time>2026-04-23T18:15:03.999Z</time></trkpt><trkpt lat="44.515973700640494" lon="0.9161854658849777"><ele>108.4</ele><time>2026-04-23T18:15:06Z</time></trkpt><trkpt lat="44.51602061634545" lon="0.9163384496793373"><ele>107.80000000000001</ele><time>2026-04-23T18:15:08Z</time></trkpt><trkpt lat="44.51606497677616" lon="0.9165062098289662"><ele>107.19999999999999</ele><time>2026-04-23T18:15:10Z</time></trkpt><trkpt lat="44.516056493164676" lon="0.9165939035981375"><ele>106.6</ele><time>2026-04-23T18:15:11Z</time></trkpt><trkpt lat="44.51602807008846" lon="0.9167156229841698"><ele>106.0</ele><time>2026-04-23T18:15:13Z</time></trkpt><trkpt lat="44.51600035561541" lon="0.9168579182483779"><ele>105.50000000000001</ele><time>2026-04-23T18:15:15Z</time></trkpt><trkpt lat="44.51596833433213" lon="0.916935918442556"><ele>105.0</ele><time>2026-04-23T18:15:16Z</time></trkpt><trkpt lat="44.51588796771578" lon="0.9170791828308482"><ele>104.5</ele><time>2026-04-23T18:15:18Z</time></trkpt><trkpt lat="44.515827031354874" lon="0.9171363373829481"><ele>104.0</ele><time>2026-04-23T18:15:19Z</time></trkpt><trkpt lat="44.51576864084292" lon="0.9171881762564051"><ele>103.50000000000001</ele><time>2026-04-23T18:15:20Z</time></trkpt><trkpt lat="44.51569429179638" lon="0.9172938960873371"><ele>103.0</ele><time>2026-04-23T18:15:21Z</time></trkpt><trkpt lat="44.5156219987464" lon="0.9174145702047865"><ele>103.0</ele><time>2026-04-23T18:15:22Z</time></trkpt><trkpt lat="44.51555383065657" lon="0.917541041787224"><ele>103.0</ele><time>2026-04-23T18:15:23Z</time></trkpt><trkpt lat="44.51550248024707" lon="0.9176380916667441"><ele>103.0</ele><time>2026-04-23T18:15:26Z</time></trkpt><trkpt lat="44.51545300183731" lon="0.9177318793479345"><ele>103.0</ele><time>2026-04-23T18:15:28Z</time></trkpt><trkpt lat="44.515401393592214" lon="0.9178215637292757"><ele>103.0</ele><time>2026-04-23T18:15:30Z</time></trkpt><trkpt lat="44.515347119824504" lon="0.9179436466339349"><ele>102.60000000000001</ele><time>2026-04-23T18:15:32Z</time></trkpt><trkpt lat="44.51521965904573" lon="0.9180112613328077"><ele>102.2</ele><time>2026-04-23T18:15:34Z</time></trkpt><trkpt lat="44.515144622508565" lon="0.9180676554407791"><ele>101.8</ele><time>2026-04-23T18:15:35Z</time></trkpt><trkpt lat="44.51505817511058" lon="0.9181326255480968"><ele>101.4</ele><time>2026-04-23T18:15:36Z</time></trkpt><trkpt lat="44.51499920025875" lon="0.9181803219270618"><ele>101.0</ele><time>2026-04-23T18:15:37Z</time></trkpt><trkpt lat="44.51493979582102" lon="0.9182636762377658"><ele>101.19999999999999</ele><time>2026-04-23T18:15:39Z</time></trkpt><trkpt lat="44.5149823038983" lon="0.9184258387995928"><ele>101.39999999999999</ele><time>2026-04-23T18:15:41Z</time></trkpt><trkpt lat="44.51499783455012" lon="0.9185572780821798"><ele>101.6</ele><time>2026-04-23T18:15:42Z</time></trkpt><trkpt lat="44.51499909186511" lon="0.9187121000186299"><ele>101.8</ele><time>2026-04-23T18:15:43Z</time></trkpt><trkpt lat="44.51497901907777" lon="0.9188691922455221"><ele>102.0</ele><time>2026-04-23T18:15:44Z</time></trkpt><trkpt lat="44.51493550567286" lon="0.9190366523937854"><ele>103.25</ele><time>2026-04-23T18:15:45Z</time></trkpt><trkpt lat="44.51489569281705" lon="0.9192489480194317"><ele>104.5</ele><time>2026-04-23T18:15:46Z</time></trkpt><trkpt lat="44.514827917832925" lon="0.9194301834997746"><ele>105.75</ele><time>2026-04-23T18:15:47Z</time></trkpt><trkpt lat="44.51478879346763" lon="0.9196244466295734"><ele>107.0</ele><time>2026-04-23T18:15:48Z</time></trkpt><trkpt lat="44.514735283377036" lon="0.9197876447629345"><ele>107.0</ele><time>2026-04-23T18:15:49Z</time></trkpt><trkpt lat="44.51469888438728" lon="0.9199323535966958"><ele>106.99999999999999</ele><time>2026-04-23T18:15:50Z</time></trkpt><trkpt lat="44.514670329073" lon="0.9200280080773222"><ele>106.99999999999999</ele><time>2026-04-23T18:15:51Z</time></trkpt><trkpt lat="44.51464133813585" lon="0.9201173071511933"><ele>107.0</ele><time>2026-04-23T18:15:53Z</time></trkpt><trkpt lat="44.514525048310546" lon="0.9200395620104276"><ele>107.0</ele><time>2026-04-23T18:15:55Z</time></trkpt><trkpt lat="44.514447319418224" lon="0.9200406615134681"><ele>107.16666666666666</ele><time>2026-04-23T18:15:56Z</time></trkpt><trkpt lat="44.51437710192461" lon="0.9200452075051956"><ele>107.33333333333333</ele><time>2026-04-23T18:15:57Z</time></trkpt><trkpt lat="44.51430311624052" lon="0.9200519085053885"><ele>107.5</ele><time>2026-04-23T18:15:58Z</time></trkpt><trkpt lat="44.51423045215863" lon="0.9200515100895608"><ele>107.66666666666666</ele><time>2026-04-23T18:15:59Z</time></trkpt><trkpt lat="44.514160921637796" lon="0.9200719441815995"><ele>107.83333333333333</ele><time>2026-04-23T18:16:00Z</time></trkpt><trkpt lat="44.51404183438337" lon="0.9200906239632898"><ele>108.0</ele><time>2026-04-23T18:16:01.999Z</time></trkpt><trkpt lat="44.51393094638142" lon="0.9201140780967866"><ele>108.80000000000001</ele><time>2026-04-23T18:16:03.999Z</time></trkpt><trkpt lat="44.51381390035586" lon="0.9201158228403322"><ele>109.60000000000001</ele><time>2026-04-23T18:16:05.999Z</time></trkpt><trkpt lat="44.51373375412632" lon="0.9201451902225506"><ele>110.39999999999999</ele><time>2026-04-23T18:16:07.999Z</time></trkpt><trkpt lat="44.51363481725044" lon="0.9201564792390852"><ele>111.19999999999999</ele><time>2026-04-23T18:16:09.999Z</time></trkpt><trkpt lat="44.51351657353165" lon="0.9201858093074163"><ele>112.0</ele><time>2026-04-23T18:16:11.999Z</time></trkpt><trkpt lat="44.51345314219448" lon="0.9201989108662433"><ele>112.00000000000001</ele><time>2026-04-23T18:16:12.999Z</time></trkpt><trkpt lat="44.51339024177429" lon="0.920218404100166"><ele>112.0</ele><time>2026-04-23T18:16:13.999Z</time></trkpt><trkpt lat="44.513313482193304" lon="0.9202149130646057"><ele>112.0</ele><time>2026-04-23T18:16:14.999Z</time></trkpt><trkpt lat="44.51323842601464" lon="0.9202382531070159"><ele>112.0</ele><time>2026-04-23T18:16:15.999Z</time></trkpt><trkpt lat="44.51315529479302" lon="0.9202892277926619"><ele>112.00000000000001</ele><time>2026-04-23T18:16:16.999Z</time></trkpt><trkpt lat="44.513072791034695" lon="0.9203216887106811"><ele>112.0</ele><time>2026-04-23T18:16:17.999Z</time></trkpt><trkpt lat="44.51300261743658" lon="0.9203616286499575"><ele>112.0</ele><time>2026-04-23T18:16:18.999Z</time></trkpt><trkpt lat="44.5129457778308" lon="0.9204059158066517"><ele>111.99999999999999</ele><time>2026-04-23T18:16:19.999Z</time></trkpt><trkpt lat="44.51285082972032" lon="0.9204571555644999"><ele>111.99999999999999</ele><time>2026-04-23T18:16:21.999Z</time></trkpt><trkpt lat="44.51274532653219" lon="0.9205269588544577"><ele>112.0</ele><time>2026-04-23T18:16:23.999Z</time></trkpt><trkpt lat="44.51263482827068" lon="0.9205943828624102"><ele>112.0</ele><time>2026-04-23T18:16:25.999Z</time></trkpt><trkpt lat="44.51257243595287" lon="0.9206317951710131"><ele>112.39999999999999</ele><time>2026-04-23T18:16:26.999Z</time></trkpt><trkpt lat="44.51251100549457" lon="0.9206646628337399"><ele>112.79999999999998</ele><time>2026-04-23T18:16:27.999Z</time></trkpt><trkpt lat="44.51240493361098" lon="0.9207635956739556"><ele>113.2</ele><time>2026-04-23T18:16:29.999Z</time></trkpt><trkpt lat="44.5123205408759" lon="0.9208092172508857"><ele>113.6</ele><time>2026-04-23T18:16:30.999Z</time></trkpt><trkpt lat="44.51222869324188" lon="0.9208933089337081"><ele>114.0</ele><time>2026-04-23T18:16:31.999Z</time></trkpt><trkpt lat="44.51213129728455" lon="0.9209887218954688"><ele>115.66666666666667</ele><time>2026-04-23T18:16:32.999Z</time></trkpt><trkpt lat="44.51203273680305" lon="0.9210859323272221"><ele>117.33333333333334</ele><time>2026-04-23T18:16:33.999Z</time></trkpt><trkpt lat="44.51195549495034" lon="0.9211650372909106"><ele>119.0</ele><time>2026-04-23T18:16:34.999Z</time></trkpt><trkpt lat="44.51189138323258" lon="0.9212330707784057"><ele>120.66666666666667</ele><time>2026-04-23T18:16:35.999Z</time></trkpt><trkpt lat="44.51183793710995" lon="0.9212916604682193"><ele>122.33333333333334</ele><time>2026-04-23T18:16:36.999Z</time></trkpt><trkpt lat="44.51177409270288" lon="0.9213651131116963"><ele>124.0</ele><time>2026-04-23T18:16:38.999Z</time></trkpt><trkpt lat="44.511710868457364" lon="0.9214415597024295"><ele>124.0</ele><time>2026-04-23T18:19:03.999Z</time></trkpt><trkpt lat="44.51167298854519" lon="0.9215184471373153"><ele>124.0</ele><time>2026-04-23T18:19:09.999Z</time></trkpt><trkpt lat="44.511618210026015" lon="0.9215719185360157"><ele>124.0</ele><time>2026-04-23T18:19:11.999Z</time></trkpt><trkpt lat="44.511510232202404" lon="0.9217180510844527"><ele>124.0</ele><time>2026-04-23T18:19:13.999Z</time></trkpt><trkpt lat="44.5114416315617" lon="0.9218069192767475"><ele>124.0</ele><time>2026-04-23T18:19:14.999Z</time></trkpt><trkpt lat="44.511391132228866" lon="0.9218814338204595"><ele>124.33333333333334</ele><time>2026-04-23T18:19:15.999Z</time></trkpt><trkpt lat="44.511336572553866" lon="0.9219555617042835"><ele>124.66666666666667</ele><time>2026-04-23T18:19:17Z</time></trkpt><trkpt lat="44.51127876451759" lon="0.9220282817012114"><ele>125.0</ele><time>2026-04-23T18:19:18Z</time></trkpt><trkpt lat="44.511223082056134" lon="0.9220835920237235"><ele>125.33333333333334</ele><time>2026-04-23T18:19:19Z</time></trkpt><trkpt lat="44.51112715333878" lon="0.9221487199866459"><ele>125.66666666666667</ele><time>2026-04-23T18:19:21Z</time></trkpt><trkpt lat="44.51105072734986" lon="0.922171250793034"><ele>126.0</ele><time>2026-04-23T18:19:23Z</time></trkpt><trkpt lat="44.51097971280882" lon="0.9221652116463089"><ele>126.0</ele><time>2026-04-23T18:19:25Z</time></trkpt><trkpt lat="44.51091036193902" lon="0.922154996307571"><ele>126.0</ele><time>2026-04-23T18:19:27Z</time></trkpt><trkpt lat="44.510842197359175" lon="0.922143217909296"><ele>126.0</ele><time>2026-04-23T18:19:29Z</time></trkpt><trkpt lat="44.51094607985686" lon="0.9221829665120729"><ele>126.0</ele><time>2026-04-23T18:19:37Z</time></trkpt><trkpt lat="44.511021355763" lon="0.9221844105626417"><ele>126.0</ele><time>2026-04-23T18:19:38Z</time></trkpt><trkpt lat="44.51111216692057" lon="0.922162157569286"><ele>126.0</ele><time>2026-04-23T18:19:39Z</time></trkpt><trkpt lat="44.51121849489961" lon="0.9221013966524184"><ele>125.6</ele><time>2026-04-23T18:19:40Z</time></trkpt><trkpt lat="44.51131143699117" lon="0.9219824118121153"><ele>125.19999999999999</ele><time>2026-04-23T18:19:41Z</time></trkpt><trkpt lat="44.51140715147907" lon="0.9218877668876438"><ele>124.80000000000001</ele><time>2026-04-23T18:19:42Z</time></trkpt><trkpt lat="44.511481412630324" lon="0.9217938969119839"><ele>124.4</ele><time>2026-04-23T18:19:43Z</time></trkpt><trkpt lat="44.511547676540594" lon="0.9217101714275985"><ele>124.0</ele><time>2026-04-23T18:19:44Z</time></trkpt><trkpt lat="44.51161002823586" lon="0.9216313890858383"><ele>124.0</ele><time>2026-04-23T18:19:45Z</time></trkpt><trkpt lat="44.51167057070238" lon="0.9215548927858157"><ele>124.0</ele><time>2026-04-23T18:19:46Z</time></trkpt><trkpt lat="44.511725406076934" lon="0.9214856073743001"><ele>124.0</ele><time>2026-04-23T18:19:47Z</time></trkpt><trkpt lat="44.51177556934097" lon="0.9214248594872197"><ele>124.0</ele><time>2026-04-23T18:19:48Z</time></trkpt><trkpt lat="44.51186923364883" lon="0.9213161030045395"><ele>124.0</ele><time>2026-04-23T18:19:50Z</time></trkpt><trkpt lat="44.51197111451784" lon="0.9212067306849433"><ele>124.0</ele><time>2026-04-23T18:19:52Z</time></trkpt><trkpt lat="44.512026745313854" lon="0.9211497580599884"><ele>124.0</ele><time>2026-04-23T18:19:53Z</time></trkpt><trkpt lat="44.512092030102046" lon="0.9210842395378684"><ele>124.0</ele><time>2026-04-23T18:19:54Z</time></trkpt><trkpt lat="44.512175707704586" lon="0.9210025114954926"><ele>124.0</ele><time>2026-04-23T18:19:55Z</time></trkpt><trkpt lat="44.51226581370901" lon="0.9208885805976945"><ele>124.0</ele><time>2026-04-23T18:19:56Z</time></trkpt><trkpt lat="44.51238233789532" lon="0.9207896961553332"><ele>120.66666666666667</ele><time>2026-04-23T18:19:57Z</time></trkpt><trkpt lat="44.512522830770905" lon="0.9207007018207104"><ele>117.33333333333334</ele><time>2026-04-23T18:19:58Z</time></trkpt><trkpt lat="44.51267973314818" lon="0.9205990840383504"><ele>114.0</ele><time>2026-04-23T18:19:59Z</time></trkpt><trkpt lat="44.51283021226667" lon="0.920505516182931"><ele>113.33333333333334</ele><time>2026-04-23T18:20:00Z</time></trkpt><trkpt lat="44.51297032192412" lon="0.9203977514851943"><ele>112.66666666666667</ele><time>2026-04-23T18:20:01Z</time></trkpt><trkpt lat="44.51310989473486" lon="0.9203429448825394"><ele>112.0</ele><time>2026-04-23T18:20:02Z</time></trkpt><trkpt lat="44.513253782898815" lon="0.9202807780391935"><ele>112.0</ele><time>2026-04-23T18:20:03Z</time></trkpt><trkpt lat="44.5134132519553" lon="0.9202163509795908"><ele>112.0</ele><time>2026-04-23T18:20:04Z</time></trkpt><trkpt lat="44.51358710016902" lon="0.9202029000944354"><ele>112.0</ele><time>2026-04-23T18:20:05Z</time></trkpt><trkpt lat="44.513765005171535" lon="0.9201714444548486"><ele>112.33333333333334</ele><time>2026-04-23T18:20:06Z</time></trkpt><trkpt lat="44.51394622293749" lon="0.9201390436171251"><ele>112.66666666666666</ele><time>2026-04-23T18:20:07Z</time></trkpt><trkpt lat="44.51410394425773" lon="0.9200944599885459"><ele>113.0</ele><time>2026-04-23T18:20:08Z</time></trkpt><trkpt lat="44.51424101239722" lon="0.9200657500663261"><ele>113.0</ele><time>2026-04-23T18:20:09Z</time></trkpt><trkpt lat="44.51435244033254" lon="0.9200739617623317"><ele>113.00000000000001</ele><time>2026-04-23T18:20:10Z</time></trkpt><trkpt lat="44.51445005550934" lon="0.9200740273246513"><ele>113.00000000000001</ele><time>2026-04-23T18:20:11Z</time></trkpt><trkpt lat="44.51452852132082" lon="0.9200849600968373"><ele>113.0</ele><time>2026-04-23T18:20:12Z</time></trkpt><trkpt lat="44.514625562462534" lon="0.9201259112197453"><ele>113.0</ele><time>2026-04-23T18:20:14Z</time></trkpt><trkpt lat="44.514728035117145" lon="0.9199673990370713"><ele>111.99999999999999</ele><time>2026-04-23T18:20:17.999Z</time></trkpt><trkpt lat="44.514742599281035" lon="0.9198758887551355"><ele>111.0</ele><time>2026-04-23T18:20:18.999Z</time></trkpt><trkpt lat="44.51476405026513" lon="0.9197843050111898"><ele>110.0</ele><time>2026-04-23T18:20:19.999Z</time></trkpt><trkpt lat="44.51479278119945" lon="0.9196903707805637"><ele>109.0</ele><time>2026-04-23T18:20:20.999Z</time></trkpt><trkpt lat="44.51481226600425" lon="0.9195824633945929"><ele>107.99999999999999</ele><time>2026-04-23T18:20:21.999Z</time></trkpt><trkpt lat="44.51483304930467" lon="0.9194932492983351"><ele>107.0</ele><time>2026-04-23T18:20:22.999Z</time></trkpt><trkpt lat="44.51487109980991" lon="0.9193557224174137"><ele>106.0</ele><time>2026-04-23T18:20:24.999Z</time></trkpt><trkpt lat="44.51491697924828" lon="0.9191873377814195"><ele>104.99999999999999</ele><time>2026-04-23T18:20:26.999Z</time></trkpt><trkpt lat="44.514946452621686" lon="0.9190834342456594"><ele>104.0</ele><time>2026-04-23T18:20:27.999Z</time></trkpt><trkpt lat="44.514982884905116" lon="0.9189351447548805"><ele>103.0</ele><time>2026-04-23T18:20:28.999Z</time></trkpt><trkpt lat="44.51501237297135" lon="0.9187952473901767"><ele>102.0</ele><time>2026-04-23T18:20:29.999Z</time></trkpt><trkpt lat="44.51502915664605" lon="0.9186692099879368"><ele>102.0</ele><time>2026-04-23T18:20:30.999Z</time></trkpt><trkpt lat="44.51503194728781" lon="0.9185307309910081"><ele>102.0</ele><time>2026-04-23T18:20:31.999Z</time></trkpt><trkpt lat="44.5150107392097" lon="0.9183874686908579"><ele>102.0</ele><time>2026-04-23T18:20:32.999Z</time></trkpt><trkpt lat="44.51496699032388" lon="0.9182693657027621"><ele>102.0</ele><time>2026-04-23T18:20:33.999Z</time></trkpt><trkpt lat="44.514927596415795" lon="0.9181538379012544"><ele>102.0</ele><time>2026-04-23T18:20:34.999Z</time></trkpt><trkpt lat="44.51485035342089" lon="0.9180670972678859"><ele>101.8</ele><time>2026-04-23T18:20:35.999Z</time></trkpt><trkpt lat="44.51478768958157" lon="0.917983213294484"><ele>101.6</ele><time>2026-04-23T18:20:36.999Z</time></trkpt><trkpt lat="44.51471787087733" lon="0.917897512484663"><ele>101.39999999999999</ele><time>2026-04-23T18:20:37.999Z</time></trkpt><trkpt lat="44.514629668034566" lon="0.9177743999462761"><ele>101.19999999999999</ele><time>2026-04-23T18:20:38.999Z</time></trkpt><trkpt lat="44.51454094635192" lon="0.9176986504507378"><ele>101.0</ele><time>2026-04-23T18:20:39.999Z</time></trkpt><trkpt lat="44.514489220019755" lon="0.9176127442036687"><ele>102.0</ele><time>2026-04-23T18:20:40.999Z</time></trkpt><trkpt lat="44.51443671092661" lon="0.9175586348059458"><ele>103.0</ele><time>2026-04-23T18:20:41.999Z</time></trkpt><trkpt lat="44.514370226317396" lon="0.917491919972966"><ele>104.0</ele><time>2026-04-23T18:20:43.999Z</time></trkpt><trkpt lat="44.51427093199422" lon="0.9174257819999408"><ele>105.0</ele><time>2026-04-23T18:21:01.999Z</time></trkpt><trkpt lat="44.51420337022049" lon="0.9173820979479128"><ele>106.0</ele><time>2026-04-23T18:21:03.999Z</time></trkpt><trkpt lat="44.51430129410905" lon="0.9170401213749506"><ele>106.00000000000001</ele><time>2026-04-23T18:21:08.999Z</time></trkpt><trkpt lat="44.51437133208904" lon="0.9169959488008119"><ele>106.0</ele><time>2026-04-23T18:21:10.999Z</time></trkpt><trkpt lat="44.51443660709282" lon="0.9169146277663253"><ele>106.0</ele><time>2026-04-23T18:21:12.999Z</time></trkpt><trkpt lat="44.51448909618735" lon="0.9168494036929887"><ele>106.0</ele><time>2026-04-23T18:21:13.999Z</time></trkpt><trkpt lat="44.514566233903345" lon="0.9167673087861283"><ele>106.00000000000001</ele><time>2026-04-23T18:21:15.999Z</time></trkpt><trkpt lat="44.51463919371669" lon="0.9166611619614279"><ele>106.0</ele><time>2026-04-23T18:21:17.999Z</time></trkpt><trkpt lat="44.51469559344281" lon="0.91655749704249"><ele>105.83333333333334</ele><time>2026-04-23T18:21:20.999Z</time></trkpt><trkpt lat="44.51475573032375" lon="0.9164700718249497"><ele>105.66666666666667</ele><time>2026-04-23T18:21:23Z</time></trkpt><trkpt lat="44.51479297716752" lon="0.9163936507957916"><ele>105.5</ele><time>2026-04-23T18:21:25Z</time></trkpt><trkpt lat="44.51483406055847" lon="0.9163083150169609"><ele>105.33333333333334</ele><time>2026-04-23T18:21:28Z</time></trkpt><trkpt lat="44.51488007145425" lon="0.9162325105985148"><ele>105.16666666666667</ele><time>2026-04-23T18:21:31Z</time></trkpt><trkpt lat="44.51481892833983" lon="0.9163138006531856"><ele>105.0</ele><time>2026-04-23T18:21:54Z</time></trkpt><trkpt lat="44.51476674607873" lon="0.916399051689942"><ele>105.0</ele><time>2026-04-23T18:21:55Z</time></trkpt><trkpt lat="44.51472684817004" lon="0.9165279557442529"><ele>105.0</ele><time>2026-04-23T18:21:56Z</time></trkpt><trkpt lat="44.51466496367644" lon="0.91667073746538"><ele>105.0</ele><time>2026-04-23T18:21:57Z</time></trkpt><trkpt lat="44.514549431823845" lon="0.9167967393720476"><ele>105.0</ele><time>2026-04-23T18:21:59Z</time></trkpt><trkpt lat="44.51446327250931" lon="0.9169027073968342"><ele>105.2</ele><time>2026-04-23T18:22:00Z</time></trkpt><trkpt lat="44.51437220760474" lon="0.9170107236085324"><ele>105.4</ele><time>2026-04-23T18:22:01Z</time></trkpt><trkpt lat="44.51431721084305" lon="0.9170960538196793"><ele>105.6</ele><time>2026-04-23T18:22:02Z</time></trkpt><trkpt lat="44.51426384043811" lon="0.917149890419953"><ele>105.8</ele><time>2026-04-23T18:22:04Z</time></trkpt><trkpt lat="44.51413461206573" lon="0.9172774249205655"><ele>106.0</ele><time>2026-04-23T18:22:06Z</time></trkpt><trkpt lat="44.514083498136955" lon="0.9173698215120362"><ele>106.0</ele><time>2026-04-23T18:22:08Z</time></trkpt><trkpt lat="44.51401316906916" lon="0.9174407814070389"><ele>106.0</ele><time>2026-04-23T18:22:10Z</time></trkpt><trkpt lat="44.51390334246002" lon="0.9174095320274228"><ele>106.0</ele><time>2026-04-23T18:22:12Z</time></trkpt><trkpt lat="44.51382181889904" lon="0.9173380598343462"><ele>106.0</ele><time>2026-04-23T18:22:13Z</time></trkpt><trkpt lat="44.5137484378148" lon="0.9172112423311816"><ele>106.0</ele><time>2026-04-23T18:22:14Z</time></trkpt><trkpt lat="44.51365852530459" lon="0.9171257711988945"><ele>107.8</ele><time>2026-04-23T18:22:15Z</time></trkpt><trkpt lat="44.51359504646561" lon="0.9170346151629213"><ele>109.6</ele><time>2026-04-23T18:22:16Z</time></trkpt><trkpt lat="44.51351138152749" lon="0.9169401609216492"><ele>111.4</ele><time>2026-04-23T18:22:18Z</time></trkpt><trkpt lat="44.513455472631904" lon="0.9168663481891113"><ele>113.2</ele><time>2026-04-23T18:22:20.999Z</time></trkpt><trkpt lat="44.513522157363674" lon="0.9169266953891738"><ele>115.0</ele><time>2026-04-23T18:22:24.999Z</time></trkpt><trkpt lat="44.51370839478922" lon="0.9168366160642445"><ele>113.50000000000001</ele><time>2026-04-23T18:22:28.999Z</time></trkpt><trkpt lat="44.51377760517708" lon="0.9168454586810206"><ele>112.0</ele><time>2026-04-23T18:22:29.999Z</time></trkpt><trkpt lat="44.513874018587906" lon="0.9168761351365566"><ele>110.5</ele><time>2026-04-23T18:22:31.999Z</time></trkpt><trkpt lat="44.513970755625" lon="0.9168294439515943"><ele>109.0</ele><time>2026-04-23T18:22:33.999Z</time></trkpt><trkpt lat="44.51399018761294" lon="0.916935782537753"><ele>107.50000000000001</ele><time>2026-04-23T18:22:35.999Z</time></trkpt><trkpt lat="44.514039608117635" lon="0.9170321019749746"><ele>106.0</ele><time>2026-04-23T18:22:38.999Z</time></trkpt><trkpt lat="44.51408228421615" lon="0.9171273966773299"><ele>106.00000000000001</ele><time>2026-04-23T18:22:42.999Z</time></trkpt><trkpt lat="44.51411878050369" lon="0.9172248321986581"><ele>106.0</ele><time>2026-04-23T18:22:44.999Z</time></trkpt><trkpt lat="44.514142851333936" lon="0.917317458926197"><ele>106.0</ele><time>2026-04-23T18:22:46.999Z</time></trkpt><trkpt lat="44.514202980675556" lon="0.9173917948670524"><ele>106.0</ele><time>2026-04-23T18:22:49.999Z</time></trkpt><trkpt lat="44.51428363850979" lon="0.9174141597524038"><ele>106.00000000000001</ele><time>2026-04-23T18:22:53.999Z</time></trkpt><trkpt lat="44.5143598095336" lon="0.9173804014778666"><ele>106.0</ele><time>2026-04-23T18:22:57.999Z</time></trkpt><trkpt lat="44.514400839963805" lon="0.9174771200884781"><ele>105.4</ele><time>2026-04-23T18:23:07.999Z</time></trkpt><trkpt lat="44.51443428829625" lon="0.9176139534646818"><ele>104.8</ele><time>2026-04-23T18:23:10.999Z</time></trkpt><trkpt lat="44.51451095862631" lon="0.9176949369036402"><ele>104.2</ele><time>2026-04-23T18:23:12.999Z</time></trkpt><trkpt lat="44.51458044071557" lon="0.9177542738707806"><ele>103.60000000000001</ele><time>2026-04-23T18:23:14.999Z</time></trkpt><trkpt lat="44.51466017635381" lon="0.9178733255492868"><ele>103.0</ele><time>2026-04-23T18:23:16.999Z</time></trkpt><trkpt lat="44.51473273796002" lon="0.9179617623040881"><ele>102.83333333333334</ele><time>2026-04-23T18:23:17.999Z</time></trkpt><trkpt lat="44.51478303156772" lon="0.9180230592382187"><ele>102.66666666666667</ele><time>2026-04-23T18:23:18.999Z</time></trkpt><trkpt lat="44.51485878171246" lon="0.91812541792579"><ele>102.5</ele><time>2026-04-23T18:23:20.999Z</time></trkpt><trkpt lat="44.51491111103365" lon="0.9182197093533252"><ele>102.33333333333334</ele><time>2026-04-23T18:23:22.999Z</time></trkpt><trkpt lat="44.514956401049155" lon="0.9183284726054356"><ele>102.16666666666667</ele><time>2026-04-23T18:23:24.999Z</time></trkpt><trkpt lat="44.51497868463501" lon="0.9184329229954419"><ele>102.0</ele><time>2026-04-23T18:23:26.999Z</time></trkpt><trkpt lat="44.51499343386518" lon="0.9185188397886213"><ele>101.8</ele><time>2026-04-23T18:23:29Z</time></trkpt><trkpt lat="44.514971012704144" lon="0.9183897198429541"><ele>101.6</ele><time>2026-04-23T18:23:37Z</time></trkpt><trkpt lat="44.51496374357332" lon="0.9182975295941206"><ele>101.39999999999999</ele><time>2026-04-23T18:23:38Z</time></trkpt><trkpt lat="44.51504745767907" lon="0.9181907543823244"><ele>101.19999999999999</ele><time>2026-04-23T18:23:41Z</time></trkpt><trkpt lat="44.51514313513254" lon="0.9181216101491843"><ele>101.0</ele><time>2026-04-23T18:23:42Z</time></trkpt><trkpt lat="44.5152465901179" lon="0.9180448385172498"><ele>101.0</ele><time>2026-04-23T18:23:43Z</time></trkpt><trkpt lat="44.515368373765945" lon="0.917939708850937"><ele>101.0</ele><time>2026-04-23T18:23:44Z</time></trkpt><trkpt lat="44.51546325614357" lon="0.9178027077787129"><ele>101.0</ele><time>2026-04-23T18:23:45Z</time></trkpt><trkpt lat="44.51550915004014" lon="0.9176603438437645"><ele>101.0</ele><time>2026-04-23T18:23:46Z</time></trkpt><trkpt lat="44.51556394768416" lon="0.9175622309652219"><ele>101.66666666666666</ele><time>2026-04-23T18:23:47Z</time></trkpt><trkpt lat="44.515377720143796" lon="0.9173608638438605"><ele>102.33333333333334</ele><time>2026-04-23T18:23:48Z</time></trkpt><trkpt lat="44.5154130985902" lon="0.9172743270626388"><ele>103.0</ele><time>2026-04-23T18:23:49Z</time></trkpt><trkpt lat="44.515738963010776" lon="0.9178000981875757"><ele>103.00000000000001</ele><time>2026-04-23T18:23:52Z</time></trkpt><trkpt lat="44.51565331928639" lon="0.9178808127761077"><ele>103.0</ele><time>2026-04-23T18:23:53Z</time></trkpt><trkpt lat="44.515554884465196" lon="0.9179285678112695"><ele>103.0</ele><time>2026-04-23T18:23:54Z</time></trkpt><trkpt lat="44.51548207975553" lon="0.9179355517723305"><ele>103.0</ele><time>2026-04-23T18:23:56Z</time></trkpt><trkpt lat="44.5154414048279" lon="0.9178427945977867"><ele>103.00000000000001</ele><time>2026-04-23T18:23:58Z</time></trkpt><trkpt lat="44.51535920756183" lon="0.9177862965877295"><ele>103.0</ele><time>2026-04-23T18:23:59Z</time></trkpt><trkpt lat="44.51534172636272" lon="0.9175921138360135"><ele>102.99999999999999</ele><time>2026-04-23T18:24:01Z</time></trkpt><trkpt lat="44.51534522303125" lon="0.9174956797571769"><ele>103.0</ele><time>2026-04-23T18:24:02Z</time></trkpt><trkpt lat="44.51532983651626" lon="0.9175834993108877"><ele>103.0</ele><time>2026-04-23T18:24:08Z</time></trkpt><trkpt lat="44.5153446889555" lon="0.9176776184961338"><ele>103.0</ele><time>2026-04-23T18:24:09Z</time></trkpt><trkpt lat="44.51536243110156" lon="0.9178076981238283"><ele>103.0</ele><time>2026-04-23T18:24:11Z</time></trkpt><trkpt lat="44.515398415862066" lon="0.9179034200220475"><ele>102.99999999999999</ele><time>2026-04-23T18:24:13Z</time></trkpt><trkpt lat="44.51546687379993" lon="0.917904816517537"><ele>103.0</ele><time>2026-04-23T18:24:15Z</time></trkpt><trkpt lat="44.51548971675739" lon="0.9177920034333291"><ele>103.0</ele><time>2026-04-23T18:24:17Z</time></trkpt><trkpt lat="44.51546588210527" lon="0.9176386453695765"><ele>103.0</ele><time>2026-04-23T18:24:19Z</time></trkpt><trkpt lat="44.51546204483664" lon="0.9174984442881534"><ele>103.0</ele><time>2026-04-23T18:24:22Z</time></trkpt><trkpt lat="44.51535986146832" lon="0.917401148867865"><ele>103.0</ele><time>2026-04-23T18:24:23Z</time></trkpt><trkpt lat="44.515351021389044" lon="0.9175398489710758"><ele>103.0</ele><time>2026-04-23T18:24:25.999Z</time></trkpt><trkpt lat="44.5153312482346" lon="0.9176454011818074"><ele>103.0</ele><time>2026-04-23T18:24:26.999Z</time></trkpt><trkpt lat="44.51534381691623" lon="0.9177410312706912"><ele>103.0</ele><time>2026-04-23T18:24:27.999Z</time></trkpt><trkpt lat="44.51537335453054" lon="0.917884294136863"><ele>103.0</ele><time>2026-04-23T18:24:29.999Z</time></trkpt><trkpt lat="44.5154348743781" lon="0.9179370767942462"><ele>103.0</ele><time>2026-04-23T18:24:31.999Z</time></trkpt><trkpt lat="44.51548120923972" lon="0.9178307871743221"><ele>103.0</ele><time>2026-04-23T18:24:33.999Z</time></trkpt><trkpt lat="44.515492290526694" lon="0.917664164593377"><ele>103.00000000000001</ele><time>2026-04-23T18:24:35.999Z</time></trkpt><trkpt lat="44.51548343279983" lon="0.9174988578714246"><ele>103.0</ele><time>2026-04-23T18:24:37.999Z</time></trkpt><trkpt lat="44.51540091015111" lon="0.9175100016606192"><ele>103.0</ele><time>2026-04-23T18:24:40.999Z</time></trkpt><trkpt lat="44.51535004523356" lon="0.9176167944365063"><ele>103.0</ele><time>2026-04-23T18:24:42.999Z</time></trkpt><trkpt lat="44.51533893043527" lon="0.9177322976628441"><ele>103.00000000000001</ele><time>2026-04-23T18:24:44.999Z</time></trkpt><trkpt lat="44.51535834420433" lon="0.9178277309921863"><ele>103.0</ele><time>2026-04-23T18:24:46.999Z</time></trkpt><trkpt lat="44.51538940070859" lon="0.9179062359426658"><ele>103.00000000000001</ele><time>2026-04-23T18:24:48.999Z</time></trkpt><trkpt lat="44.51544996105515" lon="0.9179601565951544"><ele>103.0</ele><time>2026-04-23T18:24:50.999Z</time></trkpt><trkpt lat="44.515516149889905" lon="0.9179399775441741"><ele>103.0</ele><time>2026-04-23T18:24:53.999Z</time></trkpt><trkpt lat="44.51545826391517" lon="0.9178697521977522"><ele>103.0</ele><time>2026-04-23T18:25:03.999Z</time></trkpt><trkpt lat="44.51535721007989" lon="0.9177660979526624"><ele>103.00000000000001</ele><time>2026-04-23T18:25:05.999Z</time></trkpt><trkpt lat="44.51534520726096" lon="0.9176578299360443"><ele>103.0</ele><time>2026-04-23T18:25:06.999Z</time></trkpt><trkpt lat="44.51533928069837" lon="0.9175637852527039"><ele>103.0</ele><time>2026-04-23T18:25:07.999Z</time></trkpt><trkpt lat="44.51537664777785" lon="0.9173557391392935"><ele>103.0</ele><time>2026-04-23T18:25:09.999Z</time></trkpt><trkpt lat="44.515414178187505" lon="0.9172262277569097"><ele>103.0</ele><time>2026-04-23T18:25:11.999Z</time></trkpt><trkpt lat="44.5154628518452" lon="0.9171398726567335"><ele>103.0</ele><time>2026-04-23T18:25:14.999Z</time></trkpt><trkpt lat="44.515509973670106" lon="0.9170483344186939"><ele>103.0</ele><time>2026-04-23T18:25:18.999Z</time></trkpt><trkpt lat="44.51549049828487" lon="0.9169481391635264"><ele>103.00000000000001</ele><time>2026-04-23T18:25:37Z</time></trkpt><trkpt lat="44.515444491935725" lon="0.9168565184353467"><ele>103.0</ele><time>2026-04-23T18:25:39Z</time></trkpt><trkpt lat="44.515414210247464" lon="0.9167553149793755"><ele>103.0</ele><time>2026-04-23T18:25:44Z</time></trkpt><trkpt lat="44.515362300320824" lon="0.9166738292605094"><ele>103.0</ele><time>2026-04-23T18:25:47Z</time></trkpt><trkpt lat="44.51532335609161" lon="0.9165928879295285"><ele>103.00000000000001</ele><time>2026-04-23T18:25:49Z</time></trkpt><trkpt lat="44.51527726287879" lon="0.9164815956910018"><ele>103.0</ele><time>2026-04-23T18:25:52Z</time></trkpt><trkpt lat="44.51521157041346" lon="0.9163241901412048"><ele>103.4</ele><time>2026-04-23T18:25:54Z</time></trkpt><trkpt lat="44.515159465749875" lon="0.9161972812330617"><ele>103.80000000000001</ele><time>2026-04-23T18:25:55Z</time></trkpt><trkpt lat="44.51510378534518" lon="0.9160616332906856"><ele>104.2</ele><time>2026-04-23T18:25:56Z</time></trkpt><trkpt lat="44.51505520699337" lon="0.9159069681325169"><ele>104.6</ele><time>2026-04-23T18:25:57Z</time></trkpt><trkpt lat="44.515000496088035" lon="0.9157775223201605"><ele>105.0</ele><time>2026-04-23T18:25:58Z</time></trkpt><trkpt lat="44.51492806757205" lon="0.9156536723715605"><ele>105.5</ele><time>2026-04-23T18:25:59Z</time></trkpt><trkpt lat="44.51487558810558" lon="0.9154886800397262"><ele>106.0</ele><time>2026-04-23T18:26:00Z</time></trkpt><trkpt lat="44.514786241242135" lon="0.9153162655641778"><ele>106.5</ele><time>2026-04-23T18:26:01Z</time></trkpt><trkpt lat="44.51471608266085" lon="0.9151470951349144"><ele>107.0</ele><time>2026-04-23T18:26:02Z</time></trkpt><trkpt lat="44.5146452091259" lon="0.9149989817223045"><ele>107.49999999999999</ele><time>2026-04-23T18:26:03Z</time></trkpt><trkpt lat="44.514601292909134" lon="0.9148637661382806"><ele>108.0</ele><time>2026-04-23T18:26:04Z</time></trkpt><trkpt lat="44.514549657230404" lon="0.9147905818402521"><ele>108.5</ele><time>2026-04-23T18:26:05Z</time></trkpt><trkpt lat="44.51451356431878" lon="0.9147038676397204"><ele>109.0</ele><time>2026-04-23T18:26:06Z</time></trkpt><trkpt lat="44.514469827997395" lon="0.9146090194077596"><ele>109.49999999999999</ele><time>2026-04-23T18:26:07Z</time></trkpt><trkpt lat="44.514431311745255" lon="0.914481650431214"><ele>110.0</ele><time>2026-04-23T18:26:08Z</time></trkpt><trkpt lat="44.51437330697984" lon="0.9143513676925515"><ele>110.8</ele><time>2026-04-23T18:26:09Z</time></trkpt><trkpt lat="44.51431281781942" lon="0.9142155048551774"><ele>111.6</ele><time>2026-04-23T18:26:10Z</time></trkpt><trkpt lat="44.51424845443799" lon="0.9141145185129734"><ele>112.4</ele><time>2026-04-23T18:26:11Z</time></trkpt><trkpt lat="44.5142084177269" lon="0.9140134565321133"><ele>113.2</ele><time>2026-04-23T18:26:12Z</time></trkpt><trkpt lat="44.514140471298035" lon="0.9139254083540713"><ele>114.0</ele><time>2026-04-23T18:26:13Z</time></trkpt><trkpt lat="44.51410308424515" lon="0.913850477440802"><ele>114.0</ele><time>2026-04-23T18:26:14Z</time></trkpt><trkpt lat="44.51407567712773" lon="0.9137418773830172"><ele>114.0</ele><time>2026-04-23T18:26:16Z</time></trkpt><trkpt lat="44.514099390327175" lon="0.9136525087618894"><ele>114.0</ele><time>2026-04-23T18:26:19Z</time></trkpt><trkpt lat="44.514212181270494" lon="0.9139101076647126"><ele>114.0</ele><time>2026-04-23T18:26:44.999Z</time></trkpt><trkpt lat="44.5142449471605" lon="0.9140314833838348"><ele>114.0</ele><time>2026-04-23T18:26:46.999Z</time></trkpt><trkpt lat="44.51430764135386" lon="0.9141708480712417"><ele>114.0</ele><time>2026-04-23T18:26:49.999Z</time></trkpt><trkpt lat="44.514344050335495" lon="0.9142822579872769"><ele>114.0</ele><time>2026-04-23T18:26:50.999Z</time></trkpt><trkpt lat="44.51439429174113" lon="0.9144068709701666"><ele>114.0</ele><time>2026-04-23T18:26:51.999Z</time></trkpt><trkpt lat="44.51446050445488" lon="0.9145427678097685"><ele>114.0</ele><time>2026-04-23T18:26:52.999Z</time></trkpt><trkpt lat="44.51453272053121" lon="0.9146808010123108"><ele>113.5</ele><time>2026-04-23T18:26:53.999Z</time></trkpt><trkpt lat="44.51457945120393" lon="0.914790215304957"><ele>113.0</ele><time>2026-04-23T18:26:54.999Z</time></trkpt><trkpt lat="44.51458825146872" lon="0.9149229619754042"><ele>112.5</ele><time>2026-04-23T18:26:55.999Z</time></trkpt><trkpt lat="44.51462903671218" lon="0.9150156556964774"><ele>112.0</ele><time>2026-04-23T18:26:56.999Z</time></trkpt><trkpt lat="44.514669713749285" lon="0.9151081035381513"><ele>111.5</ele><time>2026-04-23T18:26:57.999Z</time></trkpt><trkpt lat="44.51472646916536" lon="0.9152370931044768"><ele>111.0</ele><time>2026-04-23T18:26:58.999Z</time></trkpt><trkpt lat="44.5147967861163" lon="0.9153969564659372"><ele>109.66666666666666</ele><time>2026-04-23T18:26:59.999Z</time></trkpt><trkpt lat="44.51487702807417" lon="0.9155816553803008"><ele>108.33333333333333</ele><time>2026-04-23T18:27:00.999Z</time></trkpt><trkpt lat="44.51496443498962" lon="0.9157837769948681"><ele>107.0</ele><time>2026-04-23T18:27:01.999Z</time></trkpt><trkpt lat="44.51503370036404" lon="0.9159483812891994"><ele>106.5</ele><time>2026-04-23T18:27:02.999Z</time></trkpt><trkpt lat="44.515091294666775" lon="0.9160909564669382"><ele>106.0</ele><time>2026-04-23T18:27:03.999Z</time></trkpt><trkpt lat="44.51514333400526" lon="0.916219780135299"><ele>105.5</ele><time>2026-04-23T18:27:04.999Z</time></trkpt><trkpt lat="44.51521073328689" lon="0.9163845127802864"><ele>105.0</ele><time>2026-04-23T18:27:05.999Z</time></trkpt><trkpt lat="44.515288185127545" lon="0.9165687523432717"><ele>105.0</ele><time>2026-04-23T18:27:06.999Z</time></trkpt><trkpt lat="44.51534023753224" lon="0.9166925728048716"><ele>105.0</ele><time>2026-04-23T18:27:07.999Z</time></trkpt><trkpt lat="44.51538863921286" lon="0.9168107480953395"><ele>105.0</ele><time>2026-04-23T18:27:08.999Z</time></trkpt><trkpt lat="44.515423490865146" lon="0.9168998375730991"><ele>105.0</ele><time>2026-04-23T18:27:09.999Z</time></trkpt><trkpt lat="44.51546600519874" lon="0.9170085140404249"><ele>105.0</ele><time>2026-04-23T18:27:10.999Z</time></trkpt><trkpt lat="44.51547923288265" lon="0.9171386810963419"><ele>104.6</ele><time>2026-04-23T18:27:13.999Z</time></trkpt><trkpt lat="44.51542027811527" lon="0.9171915955367974"><ele>104.2</ele><time>2026-04-23T18:27:15.999Z</time></trkpt><trkpt lat="44.51537369312531" lon="0.9172731428272267"><ele>103.80000000000001</ele><time>2026-04-23T18:27:17.999Z</time></trkpt><trkpt lat="44.5153333435903" lon="0.917399632845997"><ele>103.4</ele><time>2026-04-23T18:27:19.999Z</time></trkpt><trkpt lat="44.51531158566975" lon="0.9175312943841704"><ele>103.0</ele><time>2026-04-23T18:27:21.999Z</time></trkpt><trkpt lat="44.51531823884963" lon="0.917719151371588"><ele>102.60000000000001</ele><time>2026-04-23T18:27:23.999Z</time></trkpt><trkpt lat="44.51533323559989" lon="0.9178681872571136"><ele>102.2</ele><time>2026-04-23T18:27:25.999Z</time></trkpt><trkpt lat="44.51531909809833" lon="0.917959638069531"><ele>101.8</ele><time>2026-04-23T18:27:27.999Z</time></trkpt><trkpt lat="44.51518355309912" lon="0.9180383985093916"><ele>101.4</ele><time>2026-04-23T18:27:29.999Z</time></trkpt><trkpt lat="44.51509249732261" lon="0.918106832126822"><ele>101.0</ele><time>2026-04-23T18:27:30.999Z</time></trkpt><trkpt lat="44.51502030269137" lon="0.9181885099538187"><ele>101.0</ele><time>2026-04-23T18:27:31.999Z</time></trkpt><trkpt lat="44.51496460843736" lon="0.9182297312477347"><ele>101.0</ele><time>2026-04-23T18:27:32.999Z</time></trkpt><trkpt lat="44.51495713908893" lon="0.9183419198137034"><ele>101.0</ele><time>2026-04-23T18:27:36.999Z</time></trkpt><trkpt lat="44.514987006239636" lon="0.9184680712582112"><ele>101.0</ele><time>2026-04-23T18:27:38.999Z</time></trkpt><trkpt lat="44.51499772857703" lon="0.9185565361799949"><ele>101.0</ele><time>2026-04-23T18:27:41Z</time></trkpt><trkpt lat="44.51499985251489" lon="0.9186621246392525"><ele>101.0</ele><time>2026-04-23T18:27:46Z</time></trkpt><trkpt lat="44.51499539461531" lon="0.9187521953140385"><ele>101.0</ele><time>2026-04-23T18:27:54Z</time></trkpt><trkpt lat="44.51503672401243" lon="0.9186855560279288"><ele>100.99999999999999</ele><time>2026-04-23T18:29:47Z</time></trkpt><trkpt lat="44.51503239115588" lon="0.9185972823822554"><ele>101.0</ele><time>2026-04-23T18:29:57Z</time></trkpt><trkpt lat="44.51501004877342" lon="0.9184625163617539"><ele>101.0</ele><time>2026-04-23T18:30:36Z</time></trkpt><trkpt lat="44.51498693239998" lon="0.9183564343020133"><ele>101.0</ele><time>2026-04-23T18:30:38Z</time></trkpt><trkpt lat="44.5149563492721" lon="0.9182603968520424"><ele>100.99999999999999</ele><time>2026-04-23T18:30:40Z</time></trkpt><trkpt lat="44.515008292877404" lon="0.9181994488806189"><ele>101.0</ele><time>2026-04-23T18:30:42Z</time></trkpt><trkpt lat="44.51508860669498" lon="0.9181413019609677"><ele>101.0</ele><time>2026-04-23T18:30:43Z</time></trkpt><trkpt lat="44.51519611941265" lon="0.9180712755473018"><ele>101.0</ele><time>2026-04-23T18:30:44Z</time></trkpt><trkpt lat="44.515312983330666" lon="0.917978999827375"><ele>101.0</ele><time>2026-04-23T18:30:45Z</time></trkpt><trkpt lat="44.51543466770941" lon="0.9178844768521458"><ele>101.0</ele><time>2026-04-23T18:30:46Z</time></trkpt><trkpt lat="44.515500339275526" lon="0.9177542787988834"><ele>101.5</ele><time>2026-04-23T18:30:47Z</time></trkpt><trkpt lat="44.51563676617168" lon="0.9177175274906778"><ele>102.0</ele><time>2026-04-23T18:30:48Z</time></trkpt><trkpt lat="44.51569589620007" lon="0.917660855244147"><ele>102.5</ele><time>2026-04-23T18:30:49Z</time></trkpt><trkpt lat="44.51569720568373" lon="0.9174989505018443"><ele>103.0</ele><time>2026-04-23T18:30:51Z</time></trkpt><trkpt lat="44.51563314142214" lon="0.9173395659450782"><ele>103.00000000000001</ele><time>2026-04-23T18:30:51.999Z</time></trkpt><trkpt lat="44.51557620197141" lon="0.9172032636990473"><ele>103.0</ele><time>2026-04-23T18:30:52.999Z</time></trkpt><trkpt lat="44.5155161579894" lon="0.9171345724526285"><ele>103.0</ele><time>2026-04-23T18:30:55.999Z</time></trkpt><trkpt lat="44.515576637247236" lon="0.9170395451151104"><ele>103.0</ele><time>2026-04-23T18:30:56.999Z</time></trkpt><trkpt lat="44.515507461670104" lon="0.9170174833494316"><ele>103.00000000000001</ele><time>2026-04-23T18:30:57.999Z</time></trkpt><trkpt lat="44.515467167352845" lon="0.9169144823364582"><ele>103.0</ele><time>2026-04-23T18:30:59.999Z</time></trkpt><trkpt lat="44.51541959675242" lon="0.9167928801201963"><ele>103.5</ele><time>2026-04-23T18:31:01.999Z</time></trkpt><trkpt lat="44.51534182249609" lon="0.9166044813583775"><ele>104.0</ele><time>2026-04-23T18:31:03.999Z</time></trkpt><trkpt lat="44.51528625338414" lon="0.9164722956414317"><ele>104.5</ele><time>2026-04-23T18:31:04.999Z</time></trkpt><trkpt lat="44.51522732979033" lon="0.9163321303467268"><ele>105.0</ele><time>2026-04-23T18:31:05.999Z</time></trkpt><trkpt lat="44.51516376976561" lon="0.9161757161113391"><ele>105.0</ele><time>2026-04-23T18:31:06.999Z</time></trkpt><trkpt lat="44.515098675609885" lon="0.9160145750068212"><ele>105.0</ele><time>2026-04-23T18:31:07.999Z</time></trkpt><trkpt lat="44.51503025810446" lon="0.9158476186781546"><ele>105.0</ele><time>2026-04-23T18:31:08.999Z</time></trkpt><trkpt lat="44.51496806854044" lon="0.9156618592684657"><ele>105.0</ele><time>2026-04-23T18:31:09.999Z</time></trkpt><trkpt lat="44.51488575966493" lon="0.915471805528355"><ele>105.66666666666666</ele><time>2026-04-23T18:31:10.999Z</time></trkpt><trkpt lat="44.51480141296338" lon="0.915275873792467"><ele>106.33333333333333</ele><time>2026-04-23T18:31:11.999Z</time></trkpt><trkpt lat="44.514712220688644" lon="0.9150843658737532"><ele>107.0</ele><time>2026-04-23T18:31:12.999Z</time></trkpt><trkpt lat="44.514633745676356" lon="0.9149128480827828"><ele>107.75</ele><time>2026-04-23T18:31:13.999Z</time></trkpt><trkpt lat="44.51456294351941" lon="0.9147474746111905"><ele>108.5</ele><time>2026-04-23T18:31:14.999Z</time></trkpt><trkpt lat="44.51449496499738" lon="0.9146003487184974"><ele>109.25</ele><time>2026-04-23T18:31:15.999Z</time></trkpt><trkpt lat="44.51440607325752" lon="0.9144590610323726"><ele>110.0</ele><time>2026-04-23T18:31:16.999Z</time></trkpt><trkpt lat="44.514343874458014" lon="0.914285260225151"><ele>110.8</ele><time>2026-04-23T18:31:17.999Z</time></trkpt><trkpt lat="44.51425936981471" lon="0.9141433513169773"><ele>111.6</ele><time>2026-04-23T18:31:18.999Z</time></trkpt><trkpt lat="44.51421481507878" lon="0.9140276114782181"><ele>112.4</ele><time>2026-04-23T18:31:19.999Z</time></trkpt><trkpt lat="44.514154905058895" lon="0.9139238988733879"><ele>113.2</ele><time>2026-04-23T18:31:20.999Z</time></trkpt><trkpt lat="44.51412108333353" lon="0.913840725291295"><ele>114.0</ele><time>2026-04-23T18:31:21.999Z</time></trkpt><trkpt lat="44.51406420384052" lon="0.9137265764341183"><ele>114.0</ele><time>2026-04-23T18:31:23.999Z</time></trkpt><trkpt lat="44.51409471941303" lon="0.9136410066082487"><ele>114.0</ele><time>2026-04-23T18:31:25.999Z</time></trkpt><trkpt lat="44.51414406584574" lon="0.9135496620482455"><ele>114.0</ele><time>2026-04-23T18:31:28.999Z</time></trkpt><trkpt lat="44.51410283545072" lon="0.9136248159387225"><ele>114.0</ele><time>2026-04-23T18:31:42.999Z</time></trkpt><trkpt lat="44.5140638527969" lon="0.9137124076519841"><ele>114.0</ele><time>2026-04-23T18:31:47.999Z</time></trkpt><trkpt lat="44.5141342993804" lon="0.9138683191227572"><ele>114.0</ele><time>2026-04-23T18:31:54Z</time></trkpt><trkpt lat="44.51421036599887" lon="0.9138771829760355"><ele>114.0</ele><time>2026-04-23T18:31:56Z</time></trkpt><trkpt lat="44.51426012750235" lon="0.9138034437015314"><ele>114.0</ele><time>2026-04-23T18:31:58Z</time></trkpt><trkpt lat="44.51423430721003" lon="0.9137055214608287"><ele>114.0</ele><time>2026-04-23T18:32:00Z</time></trkpt><trkpt lat="44.51416603000373" lon="0.9136544928161053"><ele>114.0</ele><time>2026-04-23T18:32:02Z</time></trkpt><trkpt lat="44.514098049028576" lon="0.9137153843138078"><ele>114.0</ele><time>2026-04-23T18:32:04Z</time></trkpt><trkpt lat="44.514118290626534" lon="0.9138646977645531"><ele>114.0</ele><time>2026-04-23T18:32:07Z</time></trkpt><trkpt lat="44.51415114773026" lon="0.9139839110200475"><ele>114.0</ele><time>2026-04-23T18:32:08Z</time></trkpt><trkpt lat="44.51420990241317" lon="0.9140941312472238"><ele>114.0</ele><time>2026-04-23T18:32:09Z</time></trkpt><trkpt lat="44.51428875251118" lon="0.9142163059266778"><ele>114.0</ele><time>2026-04-23T18:32:10Z</time></trkpt><trkpt lat="44.51434918573859" lon="0.914385270337438"><ele>114.0</ele><time>2026-04-23T18:32:11Z</time></trkpt><trkpt lat="44.51442201421298" lon="0.9145488481685001"><ele>113.25</ele><time>2026-04-23T18:32:12Z</time></trkpt><trkpt lat="44.51450432271994" lon="0.9147337187622638"><ele>112.5</ele><time>2026-04-23T18:32:13Z</time></trkpt><trkpt lat="44.51458568537087" lon="0.9149171299620924"><ele>111.75</ele><time>2026-04-23T18:32:14Z</time></trkpt><trkpt lat="44.51465684013378" lon="0.9150788453318219"><ele>111.0</ele><time>2026-04-23T18:32:15Z</time></trkpt><trkpt lat="44.51473126487412" lon="0.9152479924666788"><ele>109.66666666666666</ele><time>2026-04-23T18:32:16Z</time></trkpt><trkpt lat="44.51481137637056" lon="0.9154305399528816"><ele>108.33333333333333</ele><time>2026-04-23T18:32:17Z</time></trkpt><trkpt lat="44.514898477975414" lon="0.9156310282876764"><ele>107.0</ele><time>2026-04-23T18:32:18Z</time></trkpt><trkpt lat="44.514976451889524" lon="0.9158120795650878"><ele>106.5</ele><time>2026-04-23T18:32:19Z</time></trkpt><trkpt lat="44.515034964234154" lon="0.9159515100358909"><ele>106.0</ele><time>2026-04-23T18:32:20Z</time></trkpt><trkpt lat="44.515085612974254" lon="0.9160768913947137"><ele>105.5</ele><time>2026-04-23T18:32:21Z</time></trkpt><trkpt lat="44.515143032199184" lon="0.9162190330465608"><ele>105.0</ele><time>2026-04-23T18:32:22Z</time></trkpt><trkpt lat="44.51521495192089" lon="0.9163945479815264"><ele>105.0</ele><time>2026-04-23T18:32:23Z</time></trkpt><trkpt lat="44.51529068998843" lon="0.9165747108457484"><ele>105.0</ele><time>2026-04-23T18:32:24Z</time></trkpt><trkpt lat="44.515366412175304" lon="0.9167548360363014"><ele>105.0</ele><time>2026-04-23T18:32:25Z</time></trkpt><trkpt lat="44.51541174268777" lon="0.9168698063581292"><ele>105.0</ele><time>2026-04-23T18:32:26Z</time></trkpt><trkpt lat="44.51545279777764" lon="0.9169747529322981"><ele>104.6</ele><time>2026-04-23T18:32:27Z</time></trkpt><trkpt lat="44.51547458561441" lon="0.9171207645420281"><ele>104.2</ele><time>2026-04-23T18:32:29Z</time></trkpt><trkpt lat="44.51539113872922" lon="0.9172364249189848"><ele>103.80000000000001</ele><time>2026-04-23T18:32:31Z</time></trkpt><trkpt lat="44.51533201358512" lon="0.9173493060179041"><ele>103.4</ele><time>2026-04-23T18:32:33Z</time></trkpt><trkpt lat="44.51528609644941" lon="0.9174228205041897"><ele>103.0</ele><time>2026-04-23T18:32:37Z</time></trkpt><trkpt lat="44.515152688148994" lon="0.9172732458862732"><ele>103.00000000000001</ele><time>2026-04-23T18:32:39Z</time></trkpt><trkpt lat="44.51508588507671" lon="0.9172025449173626"><ele>103.0</ele><time>2026-04-23T18:32:41Z</time></trkpt><trkpt lat="44.515009986966064" lon="0.9171690996720725"><ele>103.0</ele><time>2026-04-23T18:32:43Z</time></trkpt><trkpt lat="44.514947198727356" lon="0.9172201884715837"><ele>103.0</ele><time>2026-04-23T18:32:45Z</time></trkpt><trkpt lat="44.514839477211595" lon="0.9172805870396096"><ele>103.00000000000001</ele><time>2026-04-23T18:32:47Z</time></trkpt><trkpt lat="44.51474682897622" lon="0.9172780426437793"><ele>103.0</ele><time>2026-04-23T18:32:49Z</time></trkpt><trkpt lat="44.51467990991561" lon="0.9172515784530441"><ele>103.00000000000001</ele><time>2026-04-23T18:32:51Z</time></trkpt><trkpt lat="44.51461584819509" lon="0.9172315417541889"><ele>103.0</ele><time>2026-04-23T18:32:52Z</time></trkpt><trkpt lat="44.51451870628588" lon="0.9172093946310932"><ele>103.0</ele><time>2026-04-23T18:32:54Z</time></trkpt><trkpt lat="44.5144477535252" lon="0.9172015526633432"><ele>103.0</ele><time>2026-04-23T18:33:06.999Z</time></trkpt><trkpt lat="44.514491108718985" lon="0.9171234125595739"><ele>103.00000000000001</ele><time>2026-04-23T18:35:06.999Z</time></trkpt><trkpt lat="44.51458030905648" lon="0.9171252067428187"><ele>103.0</ele><time>2026-04-23T18:35:08.999Z</time></trkpt><trkpt lat="44.51462576222535" lon="0.917199028969334"><ele>103.0</ele><time>2026-04-23T18:35:11.999Z</time></trkpt><trkpt lat="44.5145299829251" lon="0.9172270134605395"><ele>103.0</ele><time>2026-04-23T18:35:14.999Z</time></trkpt><trkpt lat="44.514550567390565" lon="0.9171179069426587"><ele>103.0</ele><time>2026-04-23T18:35:45.999Z</time></trkpt><trkpt lat="44.51464219992667" lon="0.9170142984004284"><ele>103.0</ele><time>2026-04-23T18:35:47.999Z</time></trkpt><trkpt lat="44.514724256819036" lon="0.9170208965805989"><ele>103.0</ele><time>2026-04-23T18:35:49.999Z</time></trkpt><trkpt lat="44.51472792332418" lon="0.917156238330982"><ele>103.0</ele><time>2026-04-23T18:35:51.999Z</time></trkpt><trkpt lat="44.51464800969717" lon="0.9172226700608038"><ele>103.0</ele><time>2026-04-23T18:35:53.999Z</time></trkpt><trkpt lat="44.51452056378059" lon="0.9171899858771947"><ele>103.0</ele><time>2026-04-23T18:35:55.999Z</time></trkpt><trkpt lat="44.51442411512792" lon="0.9172020188054364"><ele>103.0</ele><time>2026-04-23T18:35:56.999Z</time></trkpt><trkpt lat="44.51434771348509" lon="0.9172240066699249"><ele>103.0</ele><time>2026-04-23T18:35:57.999Z</time></trkpt><trkpt lat="44.51429990622296" lon="0.9172839195077886"><ele>103.0</ele><time>2026-04-23T18:36:41Z</time></trkpt><trkpt lat="44.51436065361755" lon="0.9173837952902343"><ele>103.0</ele><time>2026-04-23T18:36:44Z</time></trkpt><trkpt lat="44.514344674511186" lon="0.9175288398040508"><ele>103.0</ele><time>2026-04-23T18:36:45Z</time></trkpt><trkpt lat="44.51443432352399" lon="0.917613989764447"><ele>103.0</ele><time>2026-04-23T18:36:48Z</time></trkpt><trkpt lat="44.51451753661773" lon="0.9176969615396773"><ele>103.0</ele><time>2026-04-23T18:36:49Z</time></trkpt><trkpt lat="44.51461068141978" lon="0.9178130020234858"><ele>102.33333333333334</ele><time>2026-04-23T18:36:50Z</time></trkpt><trkpt lat="44.514685947885" lon="0.917904735421747"><ele>101.66666666666666</ele><time>2026-04-23T18:36:51Z</time></trkpt><trkpt lat="44.514755726183395" lon="0.917989779886663"><ele>101.0</ele><time>2026-04-23T18:36:53Z</time></trkpt><trkpt lat="44.51506416042146" lon="0.918174456875986"><ele>101.0</ele><time>2026-04-23T18:36:56Z</time></trkpt><trkpt lat="44.5153411542995" lon="0.9175935165292748"><ele>103.0</ele><time>2026-04-23T18:36:57Z</time></trkpt><trkpt lat="44.514640224216386" lon="0.9172437455509412"><ele>103.0</ele><time>2026-04-23T18:37:03.999Z</time></trkpt><trkpt lat="44.51454324261003" lon="0.9171994995463075"><ele>103.0</ele><time>2026-04-23T18:37:05.999Z</time></trkpt><trkpt lat="44.51445404490177" lon="0.9172190099728277"><ele>103.0</ele><time>2026-04-23T18:37:07.999Z</time></trkpt><trkpt lat="44.5145011730386" lon="0.9173624289658209"><ele>103.0</ele><time>2026-04-23T18:37:09.999Z</time></trkpt><trkpt lat="44.51458070949535" lon="0.9174210045048948"><ele>103.0</ele><time>2026-04-23T18:37:10.999Z</time></trkpt><trkpt lat="44.51466183388944" lon="0.9174379426700333"><ele>103.00000000000001</ele><time>2026-04-23T18:37:11.999Z</time></trkpt><trkpt lat="44.51472584498943" lon="0.9173883485336966"><ele>103.0</ele><time>2026-04-23T18:37:13.999Z</time></trkpt><trkpt lat="44.5147187404435" lon="0.9172959695069545"><ele>103.0</ele><time>2026-04-23T18:37:15.999Z</time></trkpt><trkpt lat="44.51465727195159" lon="0.9172483418866916"><ele>103.0</ele><time>2026-04-23T18:37:18.999Z</time></trkpt><trkpt lat="44.51455993401324" lon="0.9172262921828012"><ele>103.00000000000001</ele><time>2026-04-23T18:37:20.999Z</time></trkpt><trkpt lat="44.51447520857138" lon="0.9172062531967483"><ele>103.0</ele><time>2026-04-23T18:37:21.999Z</time></trkpt><trkpt lat="44.51438185412685" lon="0.9171979559173247"><ele>103.00000000000001</ele><time>2026-04-23T18:37:22.999Z</time></trkpt><trkpt lat="44.51430960255912" lon="0.9172123889209912"><ele>103.0</ele><time>2026-04-23T18:37:24.999Z</time></trkpt><trkpt lat="44.514260022112566" lon="0.9172941578265102"><ele>103.0</ele><time>2026-04-23T18:37:26.999Z</time></trkpt><trkpt lat="44.51431509705695" lon="0.9173516124908724"><ele>103.0</ele><time>2026-04-23T18:37:29.999Z</time></trkpt><trkpt lat="44.51436364099238" lon="0.917544569887799"><ele>103.00000000000001</ele><time>2026-04-23T18:38:01.999Z</time></trkpt><trkpt lat="44.514429605652396" lon="0.917609128091901"><ele>103.0</ele><time>2026-04-23T18:38:06.999Z</time></trkpt><trkpt lat="44.51449012928971" lon="0.9176714964231928"><ele>102.60000000000001</ele><time>2026-04-23T18:38:09.999Z</time></trkpt><trkpt lat="44.51457886489828" lon="0.9177746213056227"><ele>102.2</ele><time>2026-04-23T18:38:13Z</time></trkpt><trkpt lat="44.51464006662638" lon="0.9178488161448086"><ele>101.8</ele><time>2026-04-23T18:38:14Z</time></trkpt><trkpt lat="44.51469373639691" lon="0.9179142278598521"><ele>101.4</ele><time>2026-04-23T18:38:15Z</time></trkpt><trkpt lat="44.51476266836902" lon="0.917998240957334"><ele>101.0</ele><time>2026-04-23T18:38:17Z</time></trkpt><trkpt lat="44.51507983328628" lon="0.918159164093659"><ele>101.0</ele><time>2026-04-23T18:38:19Z</time></trkpt><trkpt lat="44.51534207036973" lon="0.9175826268122749"><ele>101.5</ele><time>2026-04-23T18:38:21Z</time></trkpt><trkpt lat="44.5153463163573" lon="0.9174655274513948"><ele>102.0</ele><time>2026-04-23T18:38:22Z</time></trkpt><trkpt lat="44.51533611933069" lon="0.9173605961996752"><ele>102.5</ele><time>2026-04-23T18:38:23Z</time></trkpt><trkpt lat="44.51532336991203" lon="0.9172352846520965"><ele>103.0</ele><time>2026-04-23T18:38:24Z</time></trkpt><trkpt lat="44.515257965471044" lon="0.9166123798757404"><ele>103.0</ele><time>2026-04-23T18:38:25Z</time></trkpt><trkpt lat="44.51476203532512" lon="0.9172439638270139"><ele>103.0</ele><time>2026-04-23T18:38:28Z</time></trkpt><trkpt lat="44.51466139697401" lon="0.9172336052232296"><ele>103.0</ele><time>2026-04-23T18:38:57Z</time></trkpt><trkpt lat="44.51458284527984" lon="0.9171825847995753"><ele>103.0</ele><time>2026-04-23T18:38:58Z</time></trkpt><trkpt lat="44.51447775809242" lon="0.9172099994035656"><ele>103.0</ele><time>2026-04-23T18:38:59Z</time></trkpt><trkpt lat="44.51438921303136" lon="0.9171987392087674"><ele>103.0</ele><time>2026-04-23T18:39:00Z</time></trkpt><trkpt lat="44.51432235713349" lon="0.9171787179088116"><ele>103.50000000000001</ele><time>2026-04-23T18:39:01Z</time></trkpt><trkpt lat="44.51423245559691" lon="0.9172402391721779"><ele>104.0</ele><time>2026-04-23T18:39:04Z</time></trkpt><trkpt lat="44.51423141548927" lon="0.9173349810630217"><ele>104.5</ele><time>2026-04-23T18:39:05.999Z</time></trkpt><trkpt lat="44.514298422334306" lon="0.9173588027277085"><ele>105.0</ele><time>2026-04-23T18:39:08.999Z</time></trkpt><trkpt lat="44.51436348379726" lon="0.9173811299609566"><ele>105.50000000000001</ele><time>2026-04-23T18:39:27.999Z</time></trkpt><trkpt lat="44.514432945527155" lon="0.9174533044707875"><ele>106.0</ele><time>2026-04-23T18:39:36.999Z</time></trkpt><trkpt lat="44.514442907323" lon="0.9175438827705794"><ele>105.4</ele><time>2026-04-23T18:39:40.999Z</time></trkpt><trkpt lat="44.51446102731061" lon="0.9176415074466465"><ele>104.8</ele><time>2026-04-23T18:39:44.999Z</time></trkpt><trkpt lat="44.51451348803125" lon="0.917697795387636"><ele>104.2</ele><time>2026-04-23T18:39:53.999Z</time></trkpt><trkpt lat="44.51457197426647" lon="0.9177664202014241"><ele>103.60000000000001</ele><time>2026-04-23T18:39:57.999Z</time></trkpt><trkpt lat="44.51462260064529" lon="0.9178275289872854"><ele>103.0</ele><time>2026-04-23T18:39:59.999Z</time></trkpt><trkpt lat="44.5150440683939" lon="0.9181940616136547"><ele>103.0</ele><time>2026-04-23T18:40:02.999Z</time></trkpt><trkpt lat="44.515108993424214" lon="0.9181083148582286"><ele>103.0</ele><time>2026-04-23T18:40:04.999Z</time></trkpt><trkpt lat="44.51534426257986" lon="0.9175221682534016"><ele>103.0</ele><time>2026-04-23T18:40:05.999Z</time></trkpt><trkpt lat="44.514718641435586" lon="0.9172865503756003"><ele>103.00000000000001</ele><time>2026-04-23T18:40:15.999Z</time></trkpt><trkpt lat="44.51462347749189" lon="0.9172529133075739"><ele>103.0</ele><time>2026-04-23T18:40:18Z</time></trkpt><trkpt lat="44.51454219823569" lon="0.9172104900498635"><ele>103.0</ele><time>2026-04-23T18:40:19Z</time></trkpt><trkpt lat="44.51445020722647" lon="0.9172136450300458"><ele>103.0</ele><time>2026-04-23T18:40:20Z</time></trkpt><trkpt lat="44.51435713426567" lon="0.9172090688919975"><ele>103.00000000000001</ele><time>2026-04-23T18:40:21Z</time></trkpt><trkpt lat="44.51429236313851" lon="0.9172159802353345"><ele>103.0</ele><time>2026-04-23T18:40:23Z</time></trkpt><trkpt lat="44.514233312480954" lon="0.917287119295933"><ele>103.50000000000001</ele><time>2026-04-23T18:40:25Z</time></trkpt><trkpt lat="44.514280295370554" lon="0.9173731324673365"><ele>104.0</ele><time>2026-04-23T18:40:30Z</time></trkpt><trkpt lat="44.514300159929626" lon="0.9172821667967318"><ele>104.5</ele><time>2026-04-23T18:40:47Z</time></trkpt><trkpt lat="44.51423364370887" lon="0.9171600385966109"><ele>105.0</ele><time>2026-04-23T18:40:49Z</time></trkpt><trkpt lat="44.51427977429604" lon="0.9170680057762666"><ele>105.50000000000001</ele><time>2026-04-23T18:40:51Z</time></trkpt><trkpt lat="44.514353237440666" lon="0.9170108600629214"><ele>106.0</ele><time>2026-04-23T18:40:52Z</time></trkpt><trkpt lat="44.51442461196245" lon="0.9169396354149872"><ele>106.00000000000001</ele><time>2026-04-23T18:40:53Z</time></trkpt><trkpt lat="44.51448905065035" lon="0.9168702455830537"><ele>106.0</ele><time>2026-04-23T18:40:54Z</time></trkpt><trkpt lat="44.514508977117394" lon="0.9167841091309322"><ele>106.0</ele><time>2026-04-23T18:40:56Z</time></trkpt><trkpt lat="44.51447416303782" lon="0.9168799580593444"><ele>106.0</ele><time>2026-04-23T18:41:17.999Z</time></trkpt><trkpt lat="44.51442318462471" lon="0.916940676440841"><ele>106.00000000000001</ele><time>2026-04-23T18:41:18.999Z</time></trkpt><trkpt lat="44.51433603689311" lon="0.9170256830372714"><ele>106.0</ele><time>2026-04-23T18:41:19.999Z</time></trkpt><trkpt lat="44.51425681866619" lon="0.9170862307440681"><ele>106.00000000000001</ele><time>2026-04-23T18:41:20.999Z</time></trkpt><trkpt lat="44.51423883379431" lon="0.9171801753960236"><ele>106.0</ele><time>2026-04-23T18:41:22.999Z</time></trkpt><trkpt lat="44.51422735521156" lon="0.9172755065630761"><ele>106.0</ele><time>2026-04-23T18:41:25.999Z</time></trkpt><trkpt lat="44.51429236808784" lon="0.9173066149849065"><ele>106.0</ele><time>2026-04-23T18:41:44.999Z</time></trkpt><trkpt lat="44.51436885698612" lon="0.9173571561660289"><ele>106.00000000000001</ele><time>2026-04-23T18:41:47.999Z</time></trkpt><trkpt lat="44.51433654698" lon="0.9175194796567486"><ele>106.0</ele><time>2026-04-23T18:41:48.999Z</time></trkpt><trkpt lat="44.51440073036407" lon="0.917579372955588"><ele>105.25</ele><time>2026-04-23T18:41:52.999Z</time></trkpt><trkpt lat="44.51448883532878" lon="0.9176699353996094"><ele>104.5</ele><time>2026-04-23T18:41:54.999Z</time></trkpt><trkpt lat="44.514572106110435" lon="0.9177665771868917"><ele>103.75</ele><time>2026-04-23T18:41:56.999Z</time></trkpt><trkpt lat="44.51462860422965" lon="0.9178348460203221"><ele>103.0</ele><time>2026-04-23T18:41:58.999Z</time></trkpt><trkpt lat="44.51473331612271" lon="0.9176445979665592"><ele>103.00000000000001</ele><time>2026-04-23T18:42:00.999Z</time></trkpt><trkpt lat="44.5147682812188" lon="0.9175582094592452"><ele>103.0</ele><time>2026-04-23T18:42:01.999Z</time></trkpt><trkpt lat="44.51478807326394" lon="0.9174476296624692"><ele>103.0</ele><time>2026-04-23T18:42:03.999Z</time></trkpt><trkpt lat="44.51478258852104" lon="0.9173459901598573"><ele>103.0</ele><time>2026-04-23T18:42:06.999Z</time></trkpt><trkpt lat="44.51473911945375" lon="0.9172606182895229"><ele>103.00000000000001</ele><time>2026-04-23T18:42:09.999Z</time></trkpt><trkpt lat="44.514646016342034" lon="0.9171921138271711"><ele>103.0</ele><time>2026-04-23T18:42:11.999Z</time></trkpt><trkpt lat="44.51454182762452" lon="0.9172110026044935"><ele>103.50000000000001</ele><time>2026-04-23T18:42:12.999Z</time></trkpt><trkpt lat="44.51443758372917" lon="0.9172020687847176"><ele>104.0</ele><time>2026-04-23T18:42:13.999Z</time></trkpt><trkpt lat="44.51436981350418" lon="0.9171822700778396"><ele>104.5</ele><time>2026-04-23T18:42:14.999Z</time></trkpt><trkpt lat="44.51429455299962" lon="0.9171720759392642"><ele>105.0</ele><time>2026-04-23T18:42:16.999Z</time></trkpt><trkpt lat="44.51421430964243" lon="0.9172141187004269"><ele>105.50000000000001</ele><time>2026-04-23T18:42:18.998Z</time></trkpt><trkpt lat="44.514254241803734" lon="0.9172888473854092"><ele>106.0</ele><time>2026-04-23T18:42:21.998Z</time></trkpt><trkpt lat="44.51432363977317" lon="0.9173348609577269"><ele>106.0</ele><time>2026-04-23T18:42:28Z</time></trkpt><trkpt lat="44.514328396254086" lon="0.9175142095734974"><ele>106.0</ele><time>2026-04-23T18:42:30Z</time></trkpt><trkpt lat="44.51440378590531" lon="0.9175825216143825"><ele>106.0</ele><time>2026-04-23T18:42:34Z</time></trkpt><trkpt lat="44.51447424733457" lon="0.9176534496018116"><ele>106.0</ele><time>2026-04-23T18:42:35Z</time></trkpt><trkpt lat="44.51453898408276" lon="0.9177271562035442"><ele>106.0</ele><time>2026-04-23T18:42:36Z</time></trkpt><trkpt lat="44.51458959849678" lon="0.9177873961812907"><ele>105.0</ele><time>2026-04-23T18:42:37Z</time></trkpt><trkpt lat="44.514638423517965" lon="0.917846813608702"><ele>104.0</ele><time>2026-04-23T18:42:38Z</time></trkpt><trkpt lat="44.5146863321737" lon="0.9179052037792911"><ele>103.0</ele><time>2026-04-23T18:42:39Z</time></trkpt><trkpt lat="44.51477529161124" lon="0.9180136259313612"><ele>102.0</ele><time>2026-04-23T18:42:41Z</time></trkpt><trkpt lat="44.51482944414705" lon="0.9180796255407744"><ele>101.0</ele><time>2026-04-23T18:42:43Z</time></trkpt><trkpt lat="44.515054095999226" lon="0.9181885279623956"><ele>101.0</ele><time>2026-04-23T18:42:45Z</time></trkpt><trkpt lat="44.51511309107807" lon="0.9181411773414432"><ele>101.0</ele><time>2026-04-23T18:42:47Z</time></trkpt><trkpt lat="44.515347521307945" lon="0.9176945495575901"><ele>102.0</ele><time>2026-04-23T18:42:48Z</time></trkpt><trkpt lat="44.51533897077719" lon="0.9175588672031365"><ele>103.0</ele><time>2026-04-23T18:42:50Z</time></trkpt><trkpt lat="44.51478270003451" lon="0.9172935448268366"><ele>103.0</ele><time>2026-04-23T18:42:57Z</time></trkpt><trkpt lat="44.51468815292842" lon="0.9172668771245803"><ele>103.0</ele><time>2026-04-23T18:42:58Z</time></trkpt><trkpt lat="44.51459139059185" lon="0.9172410321259977"><ele>103.0</ele><time>2026-04-23T18:42:59Z</time></trkpt><trkpt lat="44.51448923287048" lon="0.9171913413622285"><ele>103.0</ele><time>2026-04-23T18:43:00Z</time></trkpt><trkpt lat="44.51442291074634" lon="0.9172101154119998"><ele>103.0</ele><time>2026-04-23T18:43:01Z</time></trkpt><trkpt lat="44.51435382690912" lon="0.917280901732888"><ele>103.60000000000001</ele><time>2026-04-23T18:43:03Z</time></trkpt><trkpt lat="44.51428025218155" lon="0.9172435956409664"><ele>104.2</ele><time>2026-04-23T18:43:04Z</time></trkpt><trkpt lat="44.51420014322793" lon="0.9174061667166069"><ele>104.8</ele><time>2026-04-23T18:43:05Z</time></trkpt><trkpt lat="44.51429080337329" lon="0.9174209937329726"><ele>105.4</ele><time>2026-04-23T18:43:08Z</time></trkpt><trkpt lat="44.51436180019446" lon="0.9174781443145187"><ele>106.0</ele><time>2026-04-23T18:43:10Z</time></trkpt><trkpt lat="44.51443111179096" lon="0.9175265978184317"><ele>105.50000000000001</ele><time>2026-04-23T18:43:13.999Z</time></trkpt><trkpt lat="44.514490437122376" lon="0.9176315087813054"><ele>105.0</ele><time>2026-04-23T18:43:14.999Z</time></trkpt><trkpt lat="44.514585342650676" lon="0.9177011643928134"><ele>104.5</ele><time>2026-04-23T18:43:15.999Z</time></trkpt><trkpt lat="44.514653054653294" lon="0.9177805829882388"><ele>104.0</ele><time>2026-04-23T18:43:16.999Z</time></trkpt><trkpt lat="44.51470391191533" lon="0.9178357711096291"><ele>103.50000000000001</ele><time>2026-04-23T18:43:17.999Z</time></trkpt><trkpt lat="44.51476258651713" lon="0.9179363971130106"><ele>103.0</ele><time>2026-04-23T18:43:19.999Z</time></trkpt><trkpt lat="44.51488168548114" lon="0.9177090992796562"><ele>103.00000000000001</ele><time>2026-04-23T18:43:21.999Z</time></trkpt><trkpt lat="44.514878839019815" lon="0.9176032644125302"><ele>103.0</ele><time>2026-04-23T18:43:22.999Z</time></trkpt><trkpt lat="44.51487641717692" lon="0.9174996570668883"><ele>103.0</ele><time>2026-04-23T18:43:23.999Z</time></trkpt><trkpt lat="44.51485312471517" lon="0.9174062559253277"><ele>103.0</ele><time>2026-04-23T18:43:24.999Z</time></trkpt><trkpt lat="44.51482400616583" lon="0.9172944825389107"><ele>103.00000000000001</ele><time>2026-04-23T18:43:26.999Z</time></trkpt><trkpt lat="44.51474690269131" lon="0.9172644229332988"><ele>103.0</ele><time>2026-04-23T18:43:29.999Z</time></trkpt><trkpt lat="44.514655908689384" lon="0.9172328306582087"><ele>103.60000000000001</ele><time>2026-04-23T18:43:35.999Z</time></trkpt><trkpt lat="44.514559664771916" lon="0.9171867998110563"><ele>104.2</ele><time>2026-04-23T18:43:36.999Z</time></trkpt><trkpt lat="44.514415447424724" lon="0.9171995859106009"><ele>104.8</ele><time>2026-04-23T18:43:38.999Z</time></trkpt><trkpt lat="44.51432363246044" lon="0.9171818234883057"><ele>105.4</ele><time>2026-04-23T18:43:39.999Z</time></trkpt><trkpt lat="44.51423464262495" lon="0.9171760564815874"><ele>106.0</ele><time>2026-04-23T18:43:41.999Z</time></trkpt><trkpt lat="44.51422738786831" lon="0.9172664254587194"><ele>106.00000000000001</ele><time>2026-04-23T18:43:44.999Z</time></trkpt><trkpt lat="44.51430136306437" lon="0.9172585338285084"><ele>106.0</ele><time>2026-04-23T18:45:07Z</time></trkpt><trkpt lat="44.514362831916706" lon="0.917227084559965"><ele>106.0</ele><time>2026-04-23T18:45:45.999Z</time></trkpt><trkpt lat="44.514284962680726" lon="0.91727360006481"><ele>106.0</ele><time>2026-04-23T18:47:47.999Z</time></trkpt><trkpt lat="44.51434283705945" lon="0.917232595672726"><ele>106.00000000000001</ele><time>2026-04-23T19:04:35Z</time></trkpt><trkpt lat="44.51425227733248" lon="0.9172362220578486"><ele>106.0</ele><time>2026-04-23T19:08:23Z</time></trkpt><trkpt lat="44.51422094073482" lon="0.9173612098642452"><ele>106.0</ele><time>2026-04-23T19:08:26Z</time></trkpt><trkpt lat="44.51429078873116" lon="0.9174106476343055"><ele>106.0</ele><time>2026-04-23T19:08:28Z</time></trkpt><trkpt lat="44.51435827373662" lon="0.9173724973328558"><ele>106.0</ele><time>2026-04-23T19:08:30Z</time></trkpt><trkpt lat="44.5143733271441" lon="0.9174586089382019"><ele>106.0</ele><time>2026-04-23T19:08:34Z</time></trkpt><trkpt lat="44.51441127052946" lon="0.9175457677816996"><ele>106.0</ele><time>2026-04-23T19:09:15Z</time></trkpt><trkpt lat="44.514470083797434" lon="0.9176053501599931"><ele>106.0</ele><time>2026-04-23T19:09:19Z</time></trkpt><trkpt lat="44.51454265026611" lon="0.9176632461636511"><ele>106.0</ele><time>2026-04-23T19:09:21Z</time></trkpt><trkpt lat="44.514641251319375" lon="0.9176971335797561"><ele>105.0</ele><time>2026-04-23T19:09:23Z</time></trkpt><trkpt lat="44.51467564386028" lon="0.9178127889944661"><ele>104.0</ele><time>2026-04-23T19:09:25Z</time></trkpt><trkpt lat="44.51473434852081" lon="0.9179637252598619"><ele>103.0</ele><time>2026-04-23T19:09:27Z</time></trkpt><trkpt lat="44.514811039207856" lon="0.9180593680031331"><ele>102.0</ele><time>2026-04-23T19:09:29Z</time></trkpt><trkpt lat="44.51487501860382" lon="0.9181527567816984"><ele>101.0</ele><time>2026-04-23T19:09:31Z</time></trkpt><trkpt lat="44.51494089121771" lon="0.9182917228203195"><ele>101.19999999999999</ele><time>2026-04-23T19:09:33Z</time></trkpt><trkpt lat="44.5149857626648" lon="0.9184628187056437"><ele>101.39999999999999</ele><time>2026-04-23T19:09:35Z</time></trkpt><trkpt lat="44.51500208050111" lon="0.9186349249534848"><ele>101.6</ele><time>2026-04-23T19:09:37Z</time></trkpt><trkpt lat="44.514990449727236" lon="0.918811607405809"><ele>101.8</ele><time>2026-04-23T19:09:39Z</time></trkpt><trkpt lat="44.51497009147581" lon="0.9189022514211167"><ele>102.0</ele><time>2026-04-23T19:09:40.001Z</time></trkpt><trkpt lat="44.51494557628156" lon="0.9189984698275955"><ele>102.0</ele><time>2026-04-23T19:09:41.001Z</time></trkpt><trkpt lat="44.51492050835186" lon="0.9190932114784502"><ele>102.0</ele><time>2026-04-23T19:09:42.001Z</time></trkpt><trkpt lat="44.51489115775088" lon="0.9192035289546039"><ele>102.0</ele><time>2026-04-23T19:09:43.001Z</time></trkpt><trkpt lat="44.51486333437097" lon="0.9193032493859019"><ele>102.0</ele><time>2026-04-23T19:09:44.001Z</time></trkpt><trkpt lat="44.51483552666465" lon="0.9194029135981718"><ele>102.0</ele><time>2026-04-23T19:09:45.001Z</time></trkpt><trkpt lat="44.51480751294524" lon="0.9195033163253937"><ele>102.0</ele><time>2026-04-23T19:09:46.001Z</time></trkpt><trkpt lat="44.51478566772531" lon="0.9195873354382837"><ele>102.0</ele><time>2026-04-23T19:09:47.001Z</time></trkpt><trkpt lat="44.51474849831574" lon="0.9197351074417657"><ele>103.0</ele><time>2026-04-23T19:09:49.001Z</time></trkpt><trkpt lat="44.514710838160646" lon="0.9198848304508762"><ele>104.0</ele><time>2026-04-23T19:09:51.001Z</time></trkpt><trkpt lat="44.51467231905119" lon="0.9200215414252176"><ele>104.99999999999999</ele><time>2026-04-23T19:09:53.001Z</time></trkpt><trkpt lat="44.514641322131894" lon="0.920118087366402"><ele>106.0</ele><time>2026-04-23T19:09:56.001Z</time></trkpt><trkpt lat="44.51455164407356" lon="0.9200462664631339"><ele>107.0</ele><time>2026-04-23T19:12:14.001Z</time></trkpt><trkpt lat="44.51443373152034" lon="0.9200270506094188"><ele>107.16666666666666</ele><time>2026-04-23T19:12:16.001Z</time></trkpt><trkpt lat="44.51436764324752" lon="0.920026433297034"><ele>107.33333333333333</ele><time>2026-04-23T19:12:17.001Z</time></trkpt><trkpt lat="44.514292348053786" lon="0.9200335726846924"><ele>107.5</ele><time>2026-04-23T19:12:18.001Z</time></trkpt><trkpt lat="44.51420954140189" lon="0.9200453364131221"><ele>107.66666666666666</ele><time>2026-04-23T19:12:19.001Z</time></trkpt><trkpt lat="44.5141206797251" lon="0.9200599039600098"><ele>107.83333333333333</ele><time>2026-04-23T19:12:20.001Z</time></trkpt><trkpt lat="44.51403548253609" lon="0.9200756300914923"><ele>108.0</ele><time>2026-04-23T19:12:21.001Z</time></trkpt><trkpt lat="44.513937054801296" lon="0.9200937984083138"><ele>109.0</ele><time>2026-04-23T19:12:22.001Z</time></trkpt><trkpt lat="44.51383161986122" lon="0.9201126682554314"><ele>110.0</ele><time>2026-04-23T19:12:23.001Z</time></trkpt><trkpt lat="44.51371665466358" lon="0.9201331474110946"><ele>111.0</ele><time>2026-04-23T19:12:24.001Z</time></trkpt><trkpt lat="44.51360320781464" lon="0.9201532225531915"><ele>112.0</ele><time>2026-04-23T19:12:25.001Z</time></trkpt><trkpt lat="44.51347983384699" lon="0.9201747012370759"><ele>112.0</ele><time>2026-04-23T19:12:26.001Z</time></trkpt><trkpt lat="44.5133592220949" lon="0.9202031376606579"><ele>112.0</ele><time>2026-04-23T19:12:27.001Z</time></trkpt><trkpt lat="44.51323425819459" lon="0.9202395491254103"><ele>112.0</ele><time>2026-04-23T19:12:28.001Z</time></trkpt><trkpt lat="44.51310728547675" lon="0.9202943574453086"><ele>112.0</ele><time>2026-04-23T19:12:29.001Z</time></trkpt><trkpt lat="44.51297623135606" lon="0.920366816517119"><ele>112.5</ele><time>2026-04-23T19:12:30.001Z</time></trkpt><trkpt lat="44.51285539690024" lon="0.9204394265788837"><ele>113.0</ele><time>2026-04-23T19:12:31.001Z</time></trkpt><trkpt lat="44.51272103901444" lon="0.920521224955982"><ele>113.5</ele><time>2026-04-23T19:12:32.001Z</time></trkpt><trkpt lat="44.51259164132929" lon="0.9206044699368048"><ele>114.0</ele><time>2026-04-23T19:12:33.001Z</time></trkpt><trkpt lat="44.51245485612144" lon="0.920695419370814"><ele>114.0</ele><time>2026-04-23T19:12:34.001Z</time></trkpt><trkpt lat="44.51232319821785" lon="0.9208068377175627"><ele>114.0</ele><time>2026-04-23T19:12:35.001Z</time></trkpt><trkpt lat="44.51221254302861" lon="0.9209357315417841"><ele>114.0</ele><time>2026-04-23T19:12:36.001Z</time></trkpt><trkpt lat="44.51208750535634" lon="0.9210317997020372"><ele>114.0</ele><time>2026-04-23T19:12:37.001Z</time></trkpt><trkpt lat="44.5119786328266" lon="0.921141341324329"><ele>116.5</ele><time>2026-04-23T19:12:38.001Z</time></trkpt><trkpt lat="44.51186509876665" lon="0.9212612627175841"><ele>119.0</ele><time>2026-04-23T19:12:39.001Z</time></trkpt><trkpt lat="44.51175098559853" lon="0.9213930527008712"><ele>121.5</ele><time>2026-04-23T19:12:40.001Z</time></trkpt><trkpt lat="44.51164514460313" lon="0.9215242875470433"><ele>124.0</ele><time>2026-04-23T19:12:41.001Z</time></trkpt><trkpt lat="44.51154354425785" lon="0.921652661130655"><ele>124.5</ele><time>2026-04-23T19:12:42.001Z</time></trkpt><trkpt lat="44.5114399030841" lon="0.921783613393823"><ele>125.0</ele><time>2026-04-23T19:12:43.001Z</time></trkpt><trkpt lat="44.51134671077694" lon="0.9219015384539435"><ele>125.5</ele><time>2026-04-23T19:12:44.001Z</time></trkpt><trkpt lat="44.51126720846703" lon="0.9219926794688563"><ele>126.0</ele><time>2026-04-23T19:12:45.001Z</time></trkpt><trkpt lat="44.511177999215334" lon="0.922071846309547"><ele>126.0</ele><time>2026-04-23T19:12:46.001Z</time></trkpt><trkpt lat="44.51108066137912" lon="0.9221298854151534"><ele>126.0</ele><time>2026-04-23T19:12:47.001Z</time></trkpt><trkpt lat="44.51098288382517" lon="0.9221508678155905"><ele>126.0</ele><time>2026-04-23T19:12:48.001Z</time></trkpt><trkpt lat="44.51088230936927" lon="0.922130117171161"><ele>126.0</ele><time>2026-04-23T19:12:49.001Z</time></trkpt><trkpt lat="44.510774819955834" lon="0.9221161164118535"><ele>126.0</ele><time>2026-04-23T19:12:50.001Z</time></trkpt><trkpt lat="44.51066472174019" lon="0.9221000035978945"><ele>126.0</ele><time>2026-04-23T19:12:51.001Z</time></trkpt><trkpt lat="44.510555142714146" lon="0.9220831220940358"><ele>126.0</ele><time>2026-04-23T19:12:52.001Z</time></trkpt><trkpt lat="44.51043927318426" lon="0.9220654327464299"><ele>126.0</ele><time>2026-04-23T19:12:53.001Z</time></trkpt><trkpt lat="44.510331154783536" lon="0.9220508671993838"><ele>126.0</ele><time>2026-04-23T19:12:54.001Z</time></trkpt><trkpt lat="44.5102197090299" lon="0.9220358533984249"><ele>126.0</ele><time>2026-04-23T19:12:55.001Z</time></trkpt><trkpt lat="44.51011210743201" lon="0.9220208397855685"><ele>125.6</ele><time>2026-04-23T19:12:56.001Z</time></trkpt><trkpt lat="44.51000502251232" lon="0.922004307952609"><ele>125.19999999999999</ele><time>2026-04-23T19:12:57.001Z</time></trkpt><trkpt lat="44.50991582884792" lon="0.9219890061101584"><ele>124.80000000000001</ele><time>2026-04-23T19:12:58.001Z</time></trkpt><trkpt lat="44.50983708362427" lon="0.9219744820499479"><ele>124.4</ele><time>2026-04-23T19:12:59.001Z</time></trkpt><trkpt lat="44.50972820796921" lon="0.9219469013926844"><ele>124.0</ele><time>2026-04-23T19:13:01.001Z</time></trkpt><trkpt lat="44.509645152821626" lon="0.9219288861328304"><ele>124.00000000000001</ele><time>2026-04-23T19:13:03Z</time></trkpt><trkpt lat="44.509714584255036" lon="0.9219467419623973"><ele>124.0</ele><time>2026-04-23T19:13:49Z</time></trkpt><trkpt lat="44.5096512010551" lon="0.9219441564237406"><ele>124.0</ele><time>2026-04-23T19:44:26.999Z</time></trkpt><trkpt lat="44.50971655397374" lon="0.921974362123786"><ele>124.0</ele><time>2026-04-23T19:45:11.999Z</time></trkpt><trkpt lat="44.50963014802171" lon="0.9219516990040255"><ele>124.00000000000001</ele><time>2026-04-23T19:45:57Z</time></trkpt><trkpt lat="44.5095265798381" lon="0.9219238140561526"><ele>124.0</ele><time>2026-04-23T19:45:59Z</time></trkpt><trkpt lat="44.50941326919534" lon="0.9219111582648789"><ele>125.4</ele><time>2026-04-23T19:46:01Z</time></trkpt><trkpt lat="44.509323055950134" lon="0.9219222785288025"><ele>126.80000000000001</ele><time>2026-04-23T19:46:02Z</time></trkpt><trkpt lat="44.50920853005837" lon="0.9219418947715889"><ele>128.2</ele><time>2026-04-23T19:46:03Z</time></trkpt><trkpt lat="44.50911150701783" lon="0.9219616800317998"><ele>129.6</ele><time>2026-04-23T19:46:04Z</time></trkpt><trkpt lat="44.50901208435857" lon="0.9219452460987416"><ele>131.0</ele><time>2026-04-23T19:46:05Z</time></trkpt><trkpt lat="44.50890333565897" lon="0.921973542301012"><ele>131.0</ele><time>2026-04-23T19:46:06Z</time></trkpt><trkpt lat="44.50878915931655" lon="0.9220017554608158"><ele>131.0</ele><time>2026-04-23T19:46:07Z</time></trkpt><trkpt lat="44.50866508323548" lon="0.9220320002779222"><ele>131.0</ele><time>2026-04-23T19:46:08Z</time></trkpt><trkpt lat="44.50855233830259" lon="0.9220568237521197"><ele>131.0</ele><time>2026-04-23T19:46:09Z</time></trkpt><trkpt lat="44.5084557283082" lon="0.922073054041511"><ele>131.16666666666666</ele><time>2026-04-23T19:46:10Z</time></trkpt><trkpt lat="44.50837451060885" lon="0.9220770285290539"><ele>131.33333333333331</ele><time>2026-04-23T19:46:11Z</time></trkpt><trkpt lat="44.5082982644385" lon="0.9220694307934105"><ele>131.5</ele><time>2026-04-23T19:46:12Z</time></trkpt><trkpt lat="44.508226287638855" lon="0.9220499067875741"><ele>131.66666666666666</ele><time>2026-04-23T19:46:13Z</time></trkpt><trkpt lat="44.508156992348134" lon="0.9220287314734393"><ele>131.83333333333334</ele><time>2026-04-23T19:46:14Z</time></trkpt><trkpt lat="44.508075293077894" lon="0.9220075594049206"><ele>132.0</ele><time>2026-04-23T19:46:14.999Z</time></trkpt><trkpt lat="44.50800641937534" lon="0.9219581989138997"><ele>132.0</ele><time>2026-04-23T19:46:15.999Z</time></trkpt><trkpt lat="44.507923924832696" lon="0.9219284538306027"><ele>132.0</ele><time>2026-04-23T19:46:16.999Z</time></trkpt><trkpt lat="44.50781707587906" lon="0.921908042052425"><ele>132.0</ele><time>2026-04-23T19:46:17.999Z</time></trkpt><trkpt lat="44.507717543142746" lon="0.9218919478508155"><ele>132.0</ele><time>2026-04-23T19:46:18.999Z</time></trkpt><trkpt lat="44.50762737595417" lon="0.9218621016502392"><ele>132.0</ele><time>2026-04-23T19:46:19.999Z</time></trkpt><trkpt lat="44.507560737761224" lon="0.9218057068445378"><ele>132.0</ele><time>2026-04-23T19:46:20.999Z</time></trkpt><trkpt lat="44.50752039080311" lon="0.9217208713156352"><ele>132.0</ele><time>2026-04-23T19:46:21.999Z</time></trkpt><trkpt lat="44.50748752984055" lon="0.9216097360814948"><ele>132.0</ele><time>2026-04-23T19:46:22.999Z</time></trkpt><trkpt lat="44.50744985896854" lon="0.9214589551585398"><ele>132.0</ele><time>2026-04-23T19:46:23.999Z</time></trkpt><trkpt lat="44.50740554634512" lon="0.9213085526249177"><ele>132.0</ele><time>2026-04-23T19:46:24.999Z</time></trkpt><trkpt lat="44.50736437424616" lon="0.921155127612734"><ele>132.0</ele><time>2026-04-23T19:46:25.999Z</time></trkpt><trkpt lat="44.50732836817154" lon="0.9210326787988924"><ele>132.0</ele><time>2026-04-23T19:46:26.999Z</time></trkpt><trkpt lat="44.50730307853636" lon="0.9209278621199191"><ele>132.0</ele><time>2026-04-23T19:46:27.999Z</time></trkpt><trkpt lat="44.50727379025101" lon="0.920817504216419"><ele>132.0</ele><time>2026-04-23T19:46:28.999Z</time></trkpt><trkpt lat="44.507230898614466" lon="0.9207267521278107"><ele>132.0</ele><time>2026-04-23T19:46:29.999Z</time></trkpt><trkpt lat="44.50719293753714" lon="0.9206531173484819"><ele>132.0</ele><time>2026-04-23T19:46:30.999Z</time></trkpt><trkpt lat="44.5071170200604" lon="0.9205933327061891"><ele>131.79999999999998</ele><time>2026-04-23T19:46:31.999Z</time></trkpt><trkpt lat="44.50704135949523" lon="0.9205444959992318"><ele>131.6</ele><time>2026-04-23T19:46:32.999Z</time></trkpt><trkpt lat="44.506932594112044" lon="0.9205535353925351"><ele>131.39999999999998</ele><time>2026-04-23T19:46:33.999Z</time></trkpt><trkpt lat="44.50683539155484" lon="0.920595594117949"><ele>131.2</ele><time>2026-04-23T19:46:34.999Z</time></trkpt><trkpt lat="44.50675103248166" lon="0.9206759337672719"><ele>131.0</ele><time>2026-04-23T19:46:35.999Z</time></trkpt><trkpt lat="44.50665333135248" lon="0.9207217078689182"><ele>131.0</ele><time>2026-04-23T19:46:36.999Z</time></trkpt><trkpt lat="44.50655083673699" lon="0.9208035927873945"><ele>131.0</ele><time>2026-04-23T19:46:37.999Z</time></trkpt><trkpt lat="44.50643764196861" lon="0.9209032999398001"><ele>131.0</ele><time>2026-04-23T19:46:38.999Z</time></trkpt><trkpt lat="44.506321342899675" lon="0.9210122696334108"><ele>131.0</ele><time>2026-04-23T19:46:39.999Z</time></trkpt><trkpt lat="44.50620009864527" lon="0.9211254826273775"><ele>131.33333333333331</ele><time>2026-04-23T19:46:40.999Z</time></trkpt><trkpt lat="44.506074763149826" lon="0.9212345525672725"><ele>131.66666666666666</ele><time>2026-04-23T19:46:41.999Z</time></trkpt><trkpt lat="44.505933194019136" lon="0.9213356301355743"><ele>132.0</ele><time>2026-04-23T19:46:42.999Z</time></trkpt><trkpt lat="44.50578505252976" lon="0.9214232254889609"><ele>132.0</ele><time>2026-04-23T19:46:43.999Z</time></trkpt><trkpt lat="44.505625172599245" lon="0.9215089852709719"><ele>132.0</ele><time>2026-04-23T19:46:44.999Z</time></trkpt><trkpt lat="44.505472792012455" lon="0.921603032020225"><ele>132.0</ele><time>2026-04-23T19:46:45.999Z</time></trkpt><trkpt lat="44.50533768228606" lon="0.9217323959880453"><ele>133.66666666666666</ele><time>2026-04-23T19:46:46.999Z</time></trkpt><trkpt lat="44.5052024113623" lon="0.921853387254646"><ele>135.33333333333331</ele><time>2026-04-23T19:46:47.999Z</time></trkpt><trkpt lat="44.505058197671886" lon="0.9219931880834512"><ele>137.0</ele><time>2026-04-23T19:46:48.999Z</time></trkpt><trkpt lat="44.504915754177894" lon="0.9221326433993638"><ele>137.0</ele><time>2026-04-23T19:46:49.999Z</time></trkpt><trkpt lat="44.50478299025363" lon="0.9222352016809624"><ele>137.0</ele><time>2026-04-23T19:46:50.999Z</time></trkpt><trkpt lat="44.50469015213599" lon="0.9223248781357282"><ele>137.0</ele><time>2026-04-23T19:46:51.999Z</time></trkpt><trkpt lat="44.50461395928006" lon="0.9223966309939188"><ele>137.0</ele><time>2026-04-23T19:46:52.999Z</time></trkpt><trkpt lat="44.50455584456745" lon="0.922451359217148"><ele>137.0</ele><time>2026-04-23T19:46:53.999Z</time></trkpt><trkpt lat="44.50446236283658" lon="0.9225534049388723"><ele>138.2</ele><time>2026-04-23T19:46:55.999Z</time></trkpt><trkpt lat="44.504341748644634" lon="0.9226052778872563"><ele>139.39999999999998</ele><time>2026-04-23T19:46:57.999Z</time></trkpt><trkpt lat="44.504275782162615" lon="0.9225993157611714"><ele>140.60000000000002</ele><time>2026-04-23T19:46:58.999Z</time></trkpt><trkpt lat="44.5041740845472" lon="0.9225671155612111"><ele>141.8</ele><time>2026-04-23T19:47:00.999Z</time></trkpt><trkpt lat="44.50407800557394" lon="0.9224902747814554"><ele>143.0</ele><time>2026-04-23T19:47:02.999Z</time></trkpt><trkpt lat="44.50395118530988" lon="0.9224611988592282"><ele>143.0</ele><time>2026-04-23T19:47:04.999Z</time></trkpt><trkpt lat="44.50387048824988" lon="0.9224428288145241"><ele>143.0</ele><time>2026-04-23T19:47:05.999Z</time></trkpt><trkpt lat="44.50376869709314" lon="0.9224212132823308"><ele>143.0</ele><time>2026-04-23T19:47:06.999Z</time></trkpt><trkpt lat="44.50364981507078" lon="0.9224222444285594"><ele>143.0</ele><time>2026-04-23T19:47:07.999Z</time></trkpt><trkpt lat="44.50352155633231" lon="0.9223764592683393"><ele>143.0</ele><time>2026-04-23T19:47:08.999Z</time></trkpt><trkpt lat="44.5033903815426" lon="0.9223509159990753"><ele>143.6</ele><time>2026-04-23T19:47:09.999Z</time></trkpt><trkpt lat="44.503270251408004" lon="0.9223230390615561"><ele>144.20000000000002</ele><time>2026-04-23T19:47:10.999Z</time></trkpt><trkpt lat="44.50317686750149" lon="0.9222962374138868"><ele>144.8</ele><time>2026-04-23T19:47:11.999Z</time></trkpt><trkpt lat="44.5030864809478" lon="0.9222612385853696"><ele>145.4</ele><time>2026-04-23T19:47:12.999Z</time></trkpt><trkpt lat="44.50300040349339" lon="0.9222136253396209"><ele>146.0</ele><time>2026-04-23T19:47:13.999Z</time></trkpt><trkpt lat="44.50292673734512" lon="0.9221623270445667"><ele>146.6</ele><time>2026-04-23T19:47:14.999Z</time></trkpt><trkpt lat="44.502866481534944" lon="0.9221140918959632"><ele>147.2</ele><time>2026-04-23T19:47:15.999Z</time></trkpt><trkpt lat="44.502788545719" lon="0.9220417875370543"><ele>147.8</ele><time>2026-04-23T19:47:17.999Z</time></trkpt><trkpt lat="44.50271633259563" lon="0.9222090873189291"><ele>148.4</ele><time>2026-04-23T19:47:19.999Z</time></trkpt><trkpt lat="44.50267581519694" lon="0.9223548997076845"><ele>149.0</ele><time>2026-04-23T19:47:21.999Z</time></trkpt><trkpt lat="44.50265646073473" lon="0.9224566557503198"><ele>149.25</ele><time>2026-04-23T19:47:22.999Z</time></trkpt><trkpt lat="44.502634557908245" lon="0.9225718098083275"><ele>149.5</ele><time>2026-04-23T19:47:23.999Z</time></trkpt><trkpt lat="44.502613838341844" lon="0.92271723293394"><ele>149.75</ele><time>2026-04-23T19:47:24.999Z</time></trkpt><trkpt lat="44.5025889883334" lon="0.9228925498835778"><ele>150.0</ele><time>2026-04-23T19:47:25.999Z</time></trkpt><trkpt lat="44.50253836267593" lon="0.9230747842055247"><ele>150.0</ele><time>2026-04-23T19:47:26.999Z</time></trkpt><trkpt lat="44.50250198539317" lon="0.9232709904184739"><ele>150.0</ele><time>2026-04-23T19:47:28Z</time></trkpt><trkpt lat="44.502467516019614" lon="0.9234601674379671"><ele>150.0</ele><time>2026-04-23T19:47:29Z</time></trkpt><trkpt lat="44.502449767914385" lon="0.923652203666935"><ele>150.0</ele><time>2026-04-23T19:47:30Z</time></trkpt><trkpt lat="44.50240162257787" lon="0.9238381468459594"><ele>149.33333333333334</ele><time>2026-04-23T19:47:31Z</time></trkpt><trkpt lat="44.50239260282249" lon="0.9240609391512254"><ele>148.66666666666669</ele><time>2026-04-23T19:47:32Z</time></trkpt><trkpt lat="44.50237430529358" lon="0.9242864101111294"><ele>148.0</ele><time>2026-04-23T19:47:33Z</time></trkpt><trkpt lat="44.502333306442864" lon="0.9245368207018334"><ele>146.0</ele><time>2026-04-23T19:47:34Z</time></trkpt><trkpt lat="44.502301027058216" lon="0.9247790020374193"><ele>144.0</ele><time>2026-04-23T19:47:35Z</time></trkpt><trkpt lat="44.50226255198317" lon="0.9250172066153416"><ele>142.0</ele><time>2026-04-23T19:47:36Z</time></trkpt><trkpt lat="44.502221120034385" lon="0.9252657596332283"><ele>141.33333333333334</ele><time>2026-04-23T19:47:37Z</time></trkpt><trkpt lat="44.50218033414021" lon="0.9255104369041485"><ele>140.66666666666666</ele><time>2026-04-23T19:47:38Z</time></trkpt><trkpt lat="44.502142957915694" lon="0.9257235045291212"><ele>140.0</ele><time>2026-04-23T19:47:39Z</time></trkpt><trkpt lat="44.50211840474457" lon="0.9259244980633473"><ele>140.66666666666666</ele><time>2026-04-23T19:47:40Z</time></trkpt><trkpt lat="44.502070133965084" lon="0.9261287481684611"><ele>141.33333333333334</ele><time>2026-04-23T19:47:41Z</time></trkpt><trkpt lat="44.502025520833115" lon="0.9263477099456185"><ele>142.0</ele><time>2026-04-23T19:47:42Z</time></trkpt><trkpt lat="44.5019649332965" lon="0.926565842445598"><ele>142.0</ele><time>2026-04-23T19:47:43Z</time></trkpt><trkpt lat="44.501907355453085" lon="0.9267938497225956"><ele>142.0</ele><time>2026-04-23T19:47:44Z</time></trkpt><trkpt lat="44.50184529030392" lon="0.9270269533323887"><ele>142.0</ele><time>2026-04-23T19:47:45Z</time></trkpt><trkpt lat="44.50177778743625" lon="0.9272616176743185"><ele>142.0</ele><time>2026-04-23T19:47:46Z</time></trkpt><trkpt lat="44.501721963118335" lon="0.927483986744397"><ele>142.0</ele><time>2026-04-23T19:47:47Z</time></trkpt><trkpt lat="44.50166572941257" lon="0.927715406802306"><ele>142.0</ele><time>2026-04-23T19:47:48Z</time></trkpt><trkpt lat="44.50160480910486" lon="0.9279486034766798"><ele>141.75</ele><time>2026-04-23T19:47:49Z</time></trkpt><trkpt lat="44.50155825596408" lon="0.9281537047500801"><ele>141.5</ele><time>2026-04-23T19:47:50Z</time></trkpt><trkpt lat="44.501514719973144" lon="0.9283393464285252"><ele>141.25</ele><time>2026-04-23T19:47:51Z</time></trkpt><trkpt lat="44.501473050670576" lon="0.928511371754598"><ele>141.0</ele><time>2026-04-23T19:47:52Z</time></trkpt><trkpt lat="44.50143295228418" lon="0.9286715717431839"><ele>140.25</ele><time>2026-04-23T19:47:53Z</time></trkpt><trkpt lat="44.50138441998701" lon="0.9288399249760505"><ele>139.5</ele><time>2026-04-23T19:47:54Z</time></trkpt><trkpt lat="44.50133502232077" lon="0.9290068481704884"><ele>138.75</ele><time>2026-04-23T19:47:55Z</time></trkpt><trkpt lat="44.50126613313126" lon="0.9291920196337734"><ele>138.0</ele><time>2026-04-23T19:47:56Z</time></trkpt><trkpt lat="44.50119235134672" lon="0.9293810106627659"><ele>137.33333333333334</ele><time>2026-04-23T19:47:57Z</time></trkpt><trkpt lat="44.50111269770741" lon="0.9295925350379689"><ele>136.66666666666669</ele><time>2026-04-23T19:47:58Z</time></trkpt><trkpt lat="44.50102621527765" lon="0.9298051438410754"><ele>136.0</ele><time>2026-04-23T19:47:59Z</time></trkpt><trkpt lat="44.500941490612064" lon="0.9300294712206718"><ele>134.33333333333334</ele><time>2026-04-23T19:48:00Z</time></trkpt><trkpt lat="44.500840487374575" lon="0.9302468076745364"><ele>132.66666666666666</ele><time>2026-04-23T19:48:01Z</time></trkpt><trkpt lat="44.50077579358255" lon="0.9304505077046571"><ele>131.0</ele><time>2026-04-23T19:48:02Z</time></trkpt><trkpt lat="44.50068375204961" lon="0.9306172020739495"><ele>131.0</ele><time>2026-04-23T19:48:03Z</time></trkpt><trkpt lat="44.50060042762575" lon="0.9307700807977611"><ele>131.0</ele><time>2026-04-23T19:48:04Z</time></trkpt><trkpt lat="44.50049867134943" lon="0.9309160770848002"><ele>131.0</ele><time>2026-04-23T19:48:05Z</time></trkpt><trkpt lat="44.50038235082733" lon="0.9310566753500551"><ele>131.0</ele><time>2026-04-23T19:48:06Z</time></trkpt><trkpt lat="44.500255518344325" lon="0.9312023467506512"><ele>131.66666666666666</ele><time>2026-04-23T19:48:07Z</time></trkpt><trkpt lat="44.50013021879176" lon="0.9313668273793709"><ele>132.33333333333334</ele><time>2026-04-23T19:48:08Z</time></trkpt><trkpt lat="44.49998987346903" lon="0.9315264196272328"><ele>133.0</ele><time>2026-04-23T19:48:09Z</time></trkpt><trkpt lat="44.49984124444062" lon="0.9316879050921649"><ele>132.33333333333334</ele><time>2026-04-23T19:48:10Z</time></trkpt><trkpt lat="44.49969907354955" lon="0.9318566018322022"><ele>131.66666666666666</ele><time>2026-04-23T19:48:11Z</time></trkpt><trkpt lat="44.49955010311525" lon="0.932022586078554"><ele>131.0</ele><time>2026-04-23T19:48:12Z</time></trkpt><trkpt lat="44.499402675110304" lon="0.932192124431431"><ele>131.0</ele><time>2026-04-23T19:48:13Z</time></trkpt><trkpt lat="44.499250333393064" lon="0.9323596639519566"><ele>131.0</ele><time>2026-04-23T19:48:14Z</time></trkpt><trkpt lat="44.49910075593499" lon="0.9325267076706697"><ele>131.0</ele><time>2026-04-23T19:48:15Z</time></trkpt><trkpt lat="44.49894854054126" lon="0.9326962828062232"><ele>129.66666666666666</ele><time>2026-04-23T19:48:16Z</time></trkpt><trkpt lat="44.49879825981483" lon="0.9328677802938677"><ele>128.33333333333334</ele><time>2026-04-23T19:48:17Z</time></trkpt><trkpt lat="44.498648604453905" lon="0.9330123373900612"><ele>127.0</ele><time>2026-04-23T19:48:18Z</time></trkpt><trkpt lat="44.498536429993074" lon="0.9331863279034531"><ele>127.0</ele><time>2026-04-23T19:48:19Z</time></trkpt><trkpt lat="44.49843546351509" lon="0.9333654082885803"><ele>127.0</ele><time>2026-04-23T19:48:20Z</time></trkpt><trkpt lat="44.4983580814137" lon="0.933561345538433"><ele>127.0</ele><time>2026-04-23T19:48:21Z</time></trkpt><trkpt lat="44.498293622493215" lon="0.9337767365080214"><ele>126.66666666666667</ele><time>2026-04-23T19:48:22Z</time></trkpt><trkpt lat="44.4982317545692" lon="0.9339966878414042"><ele>126.33333333333334</ele><time>2026-04-23T19:48:23Z</time></trkpt><trkpt lat="44.4981381542791" lon="0.9341942815621759"><ele>126.0</ele><time>2026-04-23T19:48:24Z</time></trkpt><trkpt lat="44.498058241482155" lon="0.9344117784482439"><ele>126.0</ele><time>2026-04-23T19:48:24.999Z</time></trkpt><trkpt lat="44.497957738600235" lon="0.934604060557082"><ele>126.0</ele><time>2026-04-23T19:48:25.999Z</time></trkpt><trkpt lat="44.49786369738089" lon="0.9347748756829505"><ele>126.0</ele><time>2026-04-23T19:48:26.999Z</time></trkpt><trkpt lat="44.497763665526094" lon="0.9349424011169111"><ele>125.33333333333334</ele><time>2026-04-23T19:48:27.999Z</time></trkpt><trkpt lat="44.49765756374088" lon="0.9351233479045937"><ele>124.66666666666667</ele><time>2026-04-23T19:48:28.999Z</time></trkpt><trkpt lat="44.49754164997311" lon="0.9353149507438789"><ele>124.0</ele><time>2026-04-23T19:48:29.999Z</time></trkpt><trkpt lat="44.49742482062004" lon="0.9355156338306335"><ele>124.0</ele><time>2026-04-23T19:48:30.999Z</time></trkpt><trkpt lat="44.497299731026395" lon="0.9357174358262621"><ele>124.0</ele><time>2026-04-23T19:48:31.999Z</time></trkpt><trkpt lat="44.49716953033654" lon="0.935913616520312"><ele>124.0</ele><time>2026-04-23T19:48:32.999Z</time></trkpt><trkpt lat="44.49704581824401" lon="0.936114445335402"><ele>124.33333333333334</ele><time>2026-04-23T19:48:33.999Z</time></trkpt><trkpt lat="44.49694012012236" lon="0.9362932109874283"><ele>124.66666666666666</ele><time>2026-04-23T19:48:34.999Z</time></trkpt><trkpt lat="44.49684311828221" lon="0.936446522678896"><ele>125.0</ele><time>2026-04-23T19:48:35.999Z</time></trkpt><trkpt lat="44.496741263868905" lon="0.9365798034325227"><ele>125.0</ele><time>2026-04-23T19:48:36.999Z</time></trkpt><trkpt lat="44.496624155741486" lon="0.9367104270932588"><ele>125.0</ele><time>2026-04-23T19:48:37.999Z</time></trkpt><trkpt lat="44.49651018251434" lon="0.9368307865204574"><ele>125.0</ele><time>2026-04-23T19:48:38.999Z</time></trkpt><trkpt lat="44.49640258507055" lon="0.9369417826797387"><ele>125.0</ele><time>2026-04-23T19:48:39.999Z</time></trkpt><trkpt lat="44.49628245222997" lon="0.9370591944578183"><ele>124.0</ele><time>2026-04-23T19:48:40.999Z</time></trkpt><trkpt lat="44.49614430529381" lon="0.9371901206374225"><ele>123.0</ele><time>2026-04-23T19:48:41.999Z</time></trkpt><trkpt lat="44.49599285159309" lon="0.9373228849231087"><ele>122.0</ele><time>2026-04-23T19:48:42.999Z</time></trkpt><trkpt lat="44.49583777130543" lon="0.9374560715058625"><ele>121.0</ele><time>2026-04-23T19:48:43.999Z</time></trkpt><trkpt lat="44.49568624774884" lon="0.9375862035093858"><ele>120.0</ele><time>2026-04-23T19:48:44.999Z</time></trkpt><trkpt lat="44.49553068884848" lon="0.9377204124824252"><ele>119.0</ele><time>2026-04-23T19:48:45.999Z</time></trkpt><trkpt lat="44.49539176246978" lon="0.9378458650650602"><ele>119.0</ele><time>2026-04-23T19:48:46.999Z</time></trkpt><trkpt lat="44.49528365285887" lon="0.9379522219912291"><ele>119.0</ele><time>2026-04-23T19:48:47.999Z</time></trkpt><trkpt lat="44.49520733697537" lon="0.9380706127084522"><ele>119.0</ele><time>2026-04-23T19:48:48.999Z</time></trkpt><trkpt lat="44.495165972783255" lon="0.9382131777242486"><ele>119.0</ele><time>2026-04-23T19:48:49.999Z</time></trkpt><trkpt lat="44.495144238508" lon="0.9383527391001522"><ele>118.25</ele><time>2026-04-23T19:48:50.999Z</time></trkpt><trkpt lat="44.495134963296294" lon="0.9385046231556167"><ele>117.5</ele><time>2026-04-23T19:48:51.999Z</time></trkpt><trkpt lat="44.49515169588925" lon="0.9386626650395445"><ele>116.75</ele><time>2026-04-23T19:48:52.999Z</time></trkpt><trkpt lat="44.495181575787896" lon="0.9388356203123577"><ele>116.0</ele><time>2026-04-23T19:48:53.999Z</time></trkpt><trkpt lat="44.495184919846814" lon="0.93899095553173"><ele>116.0</ele><time>2026-04-23T19:48:54.999Z</time></trkpt><trkpt lat="44.49518909924439" lon="0.9391328459809325"><ele>116.0</ele><time>2026-04-23T19:48:55.999Z</time></trkpt><trkpt lat="44.49515688389145" lon="0.9392680332096253"><ele>116.0</ele><time>2026-04-23T19:48:56.999Z</time></trkpt><trkpt lat="44.49511584857875" lon="0.939392354831803"><ele>116.0</ele><time>2026-04-23T19:48:57.999Z</time></trkpt><trkpt lat="44.495057519346815" lon="0.9395091628363386"><ele>116.0</ele><time>2026-04-23T19:48:58.999Z</time></trkpt><trkpt lat="44.49500135864424" lon="0.9396540608419888"><ele>115.4</ele><time>2026-04-23T19:48:59.999Z</time></trkpt><trkpt lat="44.49495473083463" lon="0.9397664231666679"><ele>114.8</ele><time>2026-04-23T19:49:00.999Z</time></trkpt><trkpt lat="44.4949419325084" lon="0.9398956363887991"><ele>114.20000000000002</ele><time>2026-04-23T19:49:01.999Z</time></trkpt><trkpt lat="44.49495969472747" lon="0.9400644964577051"><ele>113.60000000000001</ele><time>2026-04-23T19:49:02.999Z</time></trkpt><trkpt lat="44.49497510983369" lon="0.9402396346267181"><ele>113.0</ele><time>2026-04-23T19:49:03.999Z</time></trkpt><trkpt lat="44.49494511766456" lon="0.9403798029365806"><ele>112.25</ele><time>2026-04-23T19:49:04.999Z</time></trkpt><trkpt lat="44.49491450869078" lon="0.9404818889699487"><ele>111.5</ele><time>2026-04-23T19:49:05.999Z</time></trkpt><trkpt lat="44.494788535289786" lon="0.9405649314804372"><ele>110.75</ele><time>2026-04-23T19:49:07.999Z</time></trkpt><trkpt lat="44.494701056278025" lon="0.9406383170677559"><ele>110.0</ele><time>2026-04-23T19:49:08.999Z</time></trkpt><trkpt lat="44.49457176746048" lon="0.9406945706662152"><ele>109.0</ele><time>2026-04-23T19:49:09.999Z</time></trkpt><trkpt lat="44.49443757825469" lon="0.9407517389499356"><ele>108.0</ele><time>2026-04-23T19:49:10.999Z</time></trkpt><trkpt lat="44.4943049286846" lon="0.9407472906707363"><ele>107.0</ele><time>2026-04-23T19:49:11.999Z</time></trkpt><trkpt lat="44.49419367235831" lon="0.9407201901317372"><ele>106.0</ele><time>2026-04-23T19:49:12.999Z</time></trkpt><trkpt lat="44.49408542636662" lon="0.9406604958403596"><ele>106.0</ele><time>2026-04-23T19:49:13.999Z</time></trkpt><trkpt lat="44.493993135010136" lon="0.9405758638806795"><ele>106.0</ele><time>2026-04-23T19:49:14.999Z</time></trkpt><trkpt lat="44.493902886743925" lon="0.9404896645803146"><ele>106.0</ele><time>2026-04-23T19:49:15.999Z</time></trkpt><trkpt lat="44.49384894965296" lon="0.9403467966451554"><ele>106.0</ele><time>2026-04-23T19:49:16.999Z</time></trkpt><trkpt lat="44.493797260666476" lon="0.9402461562353011"><ele>106.0</ele><time>2026-04-23T19:49:17.999Z</time></trkpt><trkpt lat="44.493757278480786" lon="0.9401208347648436"><ele>103.4</ele><time>2026-04-23T19:49:18.999Z</time></trkpt><trkpt lat="44.49373665021592" lon="0.9399879879045574"><ele>100.8</ele><time>2026-04-23T19:49:19.999Z</time></trkpt><trkpt lat="44.49372182224449" lon="0.9398607781292463"><ele>98.2</ele><time>2026-04-23T19:49:20.999Z</time></trkpt><trkpt lat="44.493709510919494" lon="0.9397145032276923"><ele>95.60000000000001</ele><time>2026-04-23T19:49:21.999Z</time></trkpt><trkpt lat="44.49371752190969" lon="0.9395488838298786"><ele>93.0</ele><time>2026-04-23T19:49:22.999Z</time></trkpt><trkpt lat="44.49371855226086" lon="0.939406386605558"><ele>93.0</ele><time>2026-04-23T19:49:23.999Z</time></trkpt><trkpt lat="44.493700704694014" lon="0.9392715956565731"><ele>93.0</ele><time>2026-04-23T19:49:24.999Z</time></trkpt><trkpt lat="44.49364008477994" lon="0.9391534071669035"><ele>93.0</ele><time>2026-04-23T19:49:25.999Z</time></trkpt><trkpt lat="44.49353248892505" lon="0.9390967224153075"><ele>93.0</ele><time>2026-04-23T19:49:26.999Z</time></trkpt><trkpt lat="44.49343806556635" lon="0.9390640439802583"><ele>93.0</ele><time>2026-04-23T19:49:27.999Z</time></trkpt><trkpt lat="44.49335050125662" lon="0.9390472782280808"><ele>93.0</ele><time>2026-04-23T19:49:28.999Z</time></trkpt><trkpt lat="44.49326450734674" lon="0.9390464694803129"><ele>93.0</ele><time>2026-04-23T19:49:29.999Z</time></trkpt><trkpt lat="44.493157351040914" lon="0.9391234495364524"><ele>93.0</ele><time>2026-04-23T19:49:30.999Z</time></trkpt><trkpt lat="44.493109415927535" lon="0.9393020083252971"><ele>93.0</ele><time>2026-04-23T19:49:31.999Z</time></trkpt><trkpt lat="44.49307012365792" lon="0.9394610027189472"><ele>93.0</ele><time>2026-04-23T19:49:32.999Z</time></trkpt><trkpt lat="44.492994821090086" lon="0.9396205514898754"><ele>93.0</ele><time>2026-04-23T19:49:34Z</time></trkpt><trkpt lat="44.49291288037253" lon="0.939780653588402"><ele>93.0</ele><time>2026-04-23T19:49:35Z</time></trkpt><trkpt lat="44.492827657866634" lon="0.9399668211679503"><ele>93.0</ele><time>2026-04-23T19:49:36Z</time></trkpt><trkpt lat="44.492725640403876" lon="0.940126993969645"><ele>94.0</ele><time>2026-04-23T19:49:37Z</time></trkpt><trkpt lat="44.492600962214325" lon="0.9402480029716717"><ele>95.0</ele><time>2026-04-23T19:49:38Z</time></trkpt><trkpt lat="44.492478099858175" lon="0.9403797009534284"><ele>96.0</ele><time>2026-04-23T19:49:39Z</time></trkpt><trkpt lat="44.49236174976016" lon="0.9405265260940754"><ele>96.0</ele><time>2026-04-23T19:49:40Z</time></trkpt><trkpt lat="44.49223671199176" lon="0.9406425297060165"><ele>96.0</ele><time>2026-04-23T19:49:41Z</time></trkpt><trkpt lat="44.49213175934046" lon="0.9407550357763327"><ele>96.0</ele><time>2026-04-23T19:49:42Z</time></trkpt><trkpt lat="44.4920357005721" lon="0.9408459555077717"><ele>96.0</ele><time>2026-04-23T19:49:43Z</time></trkpt><trkpt lat="44.49192709627077" lon="0.9408879159772789"><ele>98.0</ele><time>2026-04-23T19:49:44Z</time></trkpt><trkpt lat="44.49181526160861" lon="0.9409523410604964"><ele>100.0</ele><time>2026-04-23T19:49:45Z</time></trkpt><trkpt lat="44.49171416971115" lon="0.9410277725507866"><ele>102.0</ele><time>2026-04-23T19:49:46Z</time></trkpt><trkpt lat="44.491630558755325" lon="0.9410582968665742"><ele>104.0</ele><time>2026-04-23T19:49:47Z</time></trkpt><trkpt lat="44.49155677669453" lon="0.9410490937316579"><ele>106.0</ele><time>2026-04-23T19:49:48Z</time></trkpt><trkpt lat="44.49148781572255" lon="0.9410697509119368"><ele>106.0</ele><time>2026-04-23T19:49:49Z</time></trkpt><trkpt lat="44.49140510730874" lon="0.9411264242865949"><ele>106.0</ele><time>2026-04-23T19:49:51Z</time></trkpt><trkpt lat="44.491391404914566" lon="0.9412131011872742"><ele>106.0</ele><time>2026-04-23T19:49:52Z</time></trkpt><trkpt lat="44.49137492045732" lon="0.9413879959463796"><ele>106.0</ele><time>2026-04-23T19:49:54Z</time></trkpt><trkpt lat="44.49136562542778" lon="0.9414792864396372"><ele>106.0</ele><time>2026-04-23T19:49:55Z</time></trkpt><trkpt lat="44.49132768435105" lon="0.9416375463822481"><ele>105.00000000000001</ele><time>2026-04-23T19:49:57Z</time></trkpt><trkpt lat="44.49129533683965" lon="0.9417188465930197"><ele>104.0</ele><time>2026-04-23T19:49:58Z</time></trkpt><trkpt lat="44.49126445518531" lon="0.94184021514005"><ele>103.0</ele><time>2026-04-23T19:50:00Z</time></trkpt><trkpt lat="44.49124235278305" lon="0.9419328212826106"><ele>102.0</ele><time>2026-04-23T19:50:03Z</time></trkpt><trkpt lat="44.49127533510233" lon="0.9418484996120486"><ele>101.00000000000001</ele><time>2026-04-23T19:52:15Z</time></trkpt><trkpt lat="44.491349603318056" lon="0.9418981353962639"><ele>100.0</ele><time>2026-04-23T19:55:20.999Z</time></trkpt><trkpt lat="44.49128029720432" lon="0.9420017164850477"><ele>100.00000000000001</ele><time>2026-04-23T20:01:09.999Z</time></trkpt><trkpt lat="44.491347238177674" lon="0.9419347670426345"><ele>100.0</ele><time>2026-04-23T20:01:21.999Z</time></trkpt><trkpt lat="44.49133740857086" lon="0.9420279323159217"><ele>100.0</ele><time>2026-04-23T20:09:14Z</time></trkpt><trkpt lat="44.49139269035952" lon="0.9419760999597044"><ele>100.0</ele><time>2026-04-23T20:09:28Z</time></trkpt><trkpt lat="44.49136384060894" lon="0.9418968966734603"><ele>100.0</ele><time>2026-04-23T20:12:25.999Z</time></trkpt><trkpt lat="44.49138713099767" lon="0.9418049595325307"><ele>100.00000000000001</ele><time>2026-04-23T20:13:02.999Z</time></trkpt><trkpt lat="44.4913299394459" lon="0.9418645368270778"><ele>100.0</ele><time>2026-04-23T20:13:13Z</time></trkpt><trkpt lat="44.49128801335252" lon="0.9419765262302718"><ele>100.0</ele><time>2026-04-23T20:13:34Z</time></trkpt><trkpt lat="44.491340616438" lon="0.9419197478520375"><ele>100.0</ele><time>2026-04-23T20:14:23.016Z</time></trkpt><trkpt lat="44.49140387375212" lon="0.9418482746835405"><ele>100.0</ele><time>2026-04-23T20:14:40.021Z</time></trkpt><trkpt lat="44.49129325052298" lon="0.9419213325787279"><ele>100.0</ele><time>2026-04-23T20:19:41.997Z</time></trkpt></trkseg></trk></gpx>